<?xml version="1.0" encoding="UTF-8" standalone="no" ?>
<gpx xmlns="http://www.topografix.com/GPX/1/1" xmlns:xsi="http://www.w3.org/2001/XMLSchema-instance" xsi:schemaLocation="http://www.topografix.com/GPX/1/1 http://www.topografix.com/GPX/1/1/gpx.xsd" version="1.1" creator="VisuGPX - https://www.visugpx.com">
  <metadata>
    <name>viaduc de millau le 18/05/2014</name>
    <desc><![CDATA[course a pied vieduc de millau en visiteur , avec Dominique et Nelly]]></desc>
  </metadata>
  <trk>
    <name><![CDATA[viaduc_de_millau]]></name>
    <trkseg>
      <trkpt lat="44.09691" lon="3.07852">
        <ele>0.000174</ele>
        <time>2014-05-18T07:16:36Z</time>
      </trkpt>
      <trkpt lat="44.09717" lon="3.07881">
        <ele>0.001081</ele>
        <time>2014-05-18T07:16:47Z</time>
      </trkpt>
      <trkpt lat="44.0971" lon="3.079">
        <ele>0.003855</ele>
        <time>2014-05-18T07:16:58Z</time>
      </trkpt>
      <trkpt lat="44.0966" lon="3.07769">
        <ele>39.37353</ele>
        <time>2014-05-18T07:17:02Z</time>
      </trkpt>
      <trkpt lat="44.09667" lon="3.07758">
        <ele>116.411247</ele>
        <time>2014-05-18T07:17:08Z</time>
      </trkpt>
      <trkpt lat="44.09672" lon="3.07758">
        <ele>164.025311</ele>
        <time>2014-05-18T07:17:12Z</time>
      </trkpt>
      <trkpt lat="44.09673" lon="3.07751">
        <ele>275.764977</ele>
        <time>2014-05-18T07:17:26Z</time>
      </trkpt>
      <trkpt lat="44.09673" lon="3.07743">
        <ele>289.943858</ele>
        <time>2014-05-18T07:17:29Z</time>
      </trkpt>
      <trkpt lat="44.09673" lon="3.07735">
        <ele>293.155741</ele>
        <time>2014-05-18T07:17:31Z</time>
      </trkpt>
      <trkpt lat="44.09673" lon="3.07727">
        <ele>293.208137</ele>
        <time>2014-05-18T07:17:33Z</time>
      </trkpt>
      <trkpt lat="44.09675" lon="3.07719">
        <ele>293.344031</ele>
        <time>2014-05-18T07:17:35Z</time>
      </trkpt>
      <trkpt lat="44.09677" lon="3.07712">
        <ele>293.542677</ele>
        <time>2014-05-18T07:17:37Z</time>
      </trkpt>
      <trkpt lat="44.0968" lon="3.07706">
        <ele>294.804037</ele>
        <time>2014-05-18T07:17:39Z</time>
      </trkpt>
      <trkpt lat="44.09683" lon="3.07701">
        <ele>295.213725</ele>
        <time>2014-05-18T07:17:42Z</time>
      </trkpt>
      <trkpt lat="44.09686" lon="3.07695">
        <ele>295.940908</ele>
        <time>2014-05-18T07:17:47Z</time>
      </trkpt>
      <trkpt lat="44.09686" lon="3.07689">
        <ele>302.805562</ele>
        <time>2014-05-18T07:17:58Z</time>
      </trkpt>
      <trkpt lat="44.09687" lon="3.07682">
        <ele>311.948163</ele>
        <time>2014-05-18T07:18:31Z</time>
      </trkpt>
      <trkpt lat="44.09688" lon="3.07676">
        <ele>320.088167</ele>
        <time>2014-05-18T07:19:06Z</time>
      </trkpt>
      <trkpt lat="44.09687" lon="3.0767">
        <ele>322.218878</ele>
        <time>2014-05-18T07:19:16Z</time>
      </trkpt>
      <trkpt lat="44.0969" lon="3.07664">
        <ele>345.487848</ele>
        <time>2014-05-18T07:20:10Z</time>
      </trkpt>
      <trkpt lat="44.09684" lon="3.07664">
        <ele>360.173318</ele>
        <time>2014-05-18T07:20:30Z</time>
      </trkpt>
      <trkpt lat="44.09678" lon="3.07662">
        <ele>368.151753</ele>
        <time>2014-05-18T07:20:36Z</time>
      </trkpt>
      <trkpt lat="44.09673" lon="3.07659">
        <ele>377.257661</ele>
        <time>2014-05-18T07:20:42Z</time>
      </trkpt>
      <trkpt lat="44.09668" lon="3.07661">
        <ele>388.656633</ele>
        <time>2014-05-18T07:20:49Z</time>
      </trkpt>
      <trkpt lat="44.09663" lon="3.07661">
        <ele>391.309246</ele>
        <time>2014-05-18T07:20:51Z</time>
      </trkpt>
      <trkpt lat="44.09658" lon="3.07661">
        <ele>392.873984</ele>
        <time>2014-05-18T07:20:53Z</time>
      </trkpt>
      <trkpt lat="44.09653" lon="3.07665">
        <ele>394.895374</ele>
        <time>2014-05-18T07:20:56Z</time>
      </trkpt>
      <trkpt lat="44.09647" lon="3.07666">
        <ele>396.631315</ele>
        <time>2014-05-18T07:20:59Z</time>
      </trkpt>
      <trkpt lat="44.09642" lon="3.07667">
        <ele>398.388295</ele>
        <time>2014-05-18T07:21:02Z</time>
      </trkpt>
      <trkpt lat="44.09637" lon="3.07667">
        <ele>401.355612</ele>
        <time>2014-05-18T07:21:07Z</time>
      </trkpt>
      <trkpt lat="44.09632" lon="3.07666">
        <ele>403.183564</ele>
        <time>2014-05-18T07:21:11Z</time>
      </trkpt>
      <trkpt lat="44.09627" lon="3.07667">
        <ele>405.014812</ele>
        <time>2014-05-18T07:21:16Z</time>
      </trkpt>
      <trkpt lat="44.0962" lon="3.07667">
        <ele>405.990225</ele>
        <time>2014-05-18T07:21:19Z</time>
      </trkpt>
      <trkpt lat="44.09615" lon="3.07666">
        <ele>406.56137</ele>
        <time>2014-05-18T07:21:21Z</time>
      </trkpt>
      <trkpt lat="44.0961" lon="3.07666">
        <ele>407.126411</ele>
        <time>2014-05-18T07:21:23Z</time>
      </trkpt>
      <trkpt lat="44.09603" lon="3.07666">
        <ele>407.98376</ele>
        <time>2014-05-18T07:21:26Z</time>
      </trkpt>
      <trkpt lat="44.09597" lon="3.07666">
        <ele>408.725611</ele>
        <time>2014-05-18T07:21:29Z</time>
      </trkpt>
      <trkpt lat="44.09591" lon="3.07666">
        <ele>409.403388</ele>
        <time>2014-05-18T07:21:32Z</time>
      </trkpt>
      <trkpt lat="44.09585" lon="3.07666">
        <ele>410.050834</ele>
        <time>2014-05-18T07:21:35Z</time>
      </trkpt>
      <trkpt lat="44.0958" lon="3.07665">
        <ele>410.572346</ele>
        <time>2014-05-18T07:21:37Z</time>
      </trkpt>
      <trkpt lat="44.09575" lon="3.07665">
        <ele>411.051508</ele>
        <time>2014-05-18T07:21:39Z</time>
      </trkpt>
      <trkpt lat="44.0957" lon="3.07664">
        <ele>411.77813</ele>
        <time>2014-05-18T07:21:42Z</time>
      </trkpt>
      <trkpt lat="44.09565" lon="3.07664">
        <ele>412.345395</ele>
        <time>2014-05-18T07:21:45Z</time>
      </trkpt>
      <trkpt lat="44.09559" lon="3.07663">
        <ele>412.966121</ele>
        <time>2014-05-18T07:21:48Z</time>
      </trkpt>
      <trkpt lat="44.09554" lon="3.0766">
        <ele>413.650665</ele>
        <time>2014-05-18T07:21:51Z</time>
      </trkpt>
      <trkpt lat="44.09549" lon="3.07656">
        <ele>413.952463</ele>
        <time>2014-05-18T07:21:53Z</time>
      </trkpt>
      <trkpt lat="44.09545" lon="3.0765">
        <ele>414.380161</ele>
        <time>2014-05-18T07:21:56Z</time>
      </trkpt>
      <trkpt lat="44.09542" lon="3.07644">
        <ele>414.566717</ele>
        <time>2014-05-18T07:21:58Z</time>
      </trkpt>
      <trkpt lat="44.09539" lon="3.07639">
        <ele>414.722457</ele>
        <time>2014-05-18T07:22:00Z</time>
      </trkpt>
      <trkpt lat="44.09536" lon="3.07632">
        <ele>415.02702</ele>
        <time>2014-05-18T07:22:03Z</time>
      </trkpt>
      <trkpt lat="44.09533" lon="3.07626">
        <ele>415.542126</ele>
        <time>2014-05-18T07:22:07Z</time>
      </trkpt>
      <trkpt lat="44.09531" lon="3.0762">
        <ele>416.06087</ele>
        <time>2014-05-18T07:22:11Z</time>
      </trkpt>
      <trkpt lat="44.09528" lon="3.07614">
        <ele>416.499358</ele>
        <time>2014-05-18T07:22:14Z</time>
      </trkpt>
      <trkpt lat="44.09526" lon="3.07607">
        <ele>416.848045</ele>
        <time>2014-05-18T07:22:17Z</time>
      </trkpt>
      <trkpt lat="44.09523" lon="3.07599">
        <ele>417.245258</ele>
        <time>2014-05-18T07:22:20Z</time>
      </trkpt>
      <trkpt lat="44.0952" lon="3.07592">
        <ele>417.675832</ele>
        <time>2014-05-18T07:22:23Z</time>
      </trkpt>
      <trkpt lat="44.09517" lon="3.07584">
        <ele>418.119622</ele>
        <time>2014-05-18T07:22:26Z</time>
      </trkpt>
      <trkpt lat="44.09513" lon="3.07577">
        <ele>418.536999</ele>
        <time>2014-05-18T07:22:29Z</time>
      </trkpt>
      <trkpt lat="44.0951" lon="3.07569">
        <ele>418.98123</ele>
        <time>2014-05-18T07:22:32Z</time>
      </trkpt>
      <trkpt lat="44.09507" lon="3.07562">
        <ele>419.441442</ele>
        <time>2014-05-18T07:22:35Z</time>
      </trkpt>
      <trkpt lat="44.09504" lon="3.07554">
        <ele>419.893171</ele>
        <time>2014-05-18T07:22:38Z</time>
      </trkpt>
      <trkpt lat="44.09502" lon="3.07549">
        <ele>420.11352</ele>
        <time>2014-05-18T07:22:40Z</time>
      </trkpt>
      <trkpt lat="44.09498" lon="3.07541">
        <ele>420.607323</ele>
        <time>2014-05-18T07:22:43Z</time>
      </trkpt>
      <trkpt lat="44.09494" lon="3.07533">
        <ele>421.15278</ele>
        <time>2014-05-18T07:22:46Z</time>
      </trkpt>
      <trkpt lat="44.09492" lon="3.07527">
        <ele>421.433205</ele>
        <time>2014-05-18T07:22:48Z</time>
      </trkpt>
      <trkpt lat="44.09489" lon="3.07521">
        <ele>421.723462</ele>
        <time>2014-05-18T07:22:50Z</time>
      </trkpt>
      <trkpt lat="44.09486" lon="3.07514">
        <ele>421.912463</ele>
        <time>2014-05-18T07:22:53Z</time>
      </trkpt>
      <trkpt lat="44.09482" lon="3.07507">
        <ele>422.14132</ele>
        <time>2014-05-18T07:22:56Z</time>
      </trkpt>
      <trkpt lat="44.0948" lon="3.07501">
        <ele>422.319712</ele>
        <time>2014-05-18T07:22:58Z</time>
      </trkpt>
      <trkpt lat="44.09476" lon="3.07493">
        <ele>422.678533</ele>
        <time>2014-05-18T07:23:01Z</time>
      </trkpt>
      <trkpt lat="44.09474" lon="3.07488">
        <ele>422.929917</ele>
        <time>2014-05-18T07:23:03Z</time>
      </trkpt>
      <trkpt lat="44.0947" lon="3.07481">
        <ele>423.301711</ele>
        <time>2014-05-18T07:23:06Z</time>
      </trkpt>
      <trkpt lat="44.09467" lon="3.07473">
        <ele>423.554448</ele>
        <time>2014-05-18T07:23:09Z</time>
      </trkpt>
      <trkpt lat="44.09463" lon="3.07465">
        <ele>423.625572</ele>
        <time>2014-05-18T07:23:12Z</time>
      </trkpt>
      <trkpt lat="44.09459" lon="3.07458">
        <ele>423.767794</ele>
        <time>2014-05-18T07:23:15Z</time>
      </trkpt>
      <trkpt lat="44.09456" lon="3.0745">
        <ele>423.679781</ele>
        <time>2014-05-18T07:23:18Z</time>
      </trkpt>
      <trkpt lat="44.09452" lon="3.07444">
        <ele>423.816806</ele>
        <time>2014-05-18T07:23:21Z</time>
      </trkpt>
      <trkpt lat="44.09449" lon="3.07436">
        <ele>424.013932</ele>
        <time>2014-05-18T07:23:24Z</time>
      </trkpt>
      <trkpt lat="44.09445" lon="3.07429">
        <ele>424.146093</ele>
        <time>2014-05-18T07:23:27Z</time>
      </trkpt>
      <trkpt lat="44.09443" lon="3.07422">
        <ele>424.040461</ele>
        <time>2014-05-18T07:23:30Z</time>
      </trkpt>
      <trkpt lat="44.0944" lon="3.07415">
        <ele>423.564194</ele>
        <time>2014-05-18T07:23:33Z</time>
      </trkpt>
      <trkpt lat="44.09437" lon="3.07409">
        <ele>423.094406</ele>
        <time>2014-05-18T07:23:36Z</time>
      </trkpt>
      <trkpt lat="44.09437" lon="3.07403">
        <ele>422.425579</ele>
        <time>2014-05-18T07:23:39Z</time>
      </trkpt>
      <trkpt lat="44.09439" lon="3.07396">
        <ele>421.841545</ele>
        <time>2014-05-18T07:23:42Z</time>
      </trkpt>
      <trkpt lat="44.09438" lon="3.07389">
        <ele>421.334634</ele>
        <time>2014-05-18T07:23:45Z</time>
      </trkpt>
      <trkpt lat="44.09435" lon="3.07381">
        <ele>420.898577</ele>
        <time>2014-05-18T07:23:48Z</time>
      </trkpt>
      <trkpt lat="44.09432" lon="3.07372">
        <ele>420.688798</ele>
        <time>2014-05-18T07:23:51Z</time>
      </trkpt>
      <trkpt lat="44.09431" lon="3.07365">
        <ele>420.720295</ele>
        <time>2014-05-18T07:23:53Z</time>
      </trkpt>
      <trkpt lat="44.0943" lon="3.07358">
        <ele>420.629593</ele>
        <time>2014-05-18T07:23:55Z</time>
      </trkpt>
      <trkpt lat="44.09429" lon="3.07352">
        <ele>420.54531</ele>
        <time>2014-05-18T07:23:57Z</time>
      </trkpt>
      <trkpt lat="44.09427" lon="3.07345">
        <ele>420.499647</ele>
        <time>2014-05-18T07:23:59Z</time>
      </trkpt>
      <trkpt lat="44.09426" lon="3.07339">
        <ele>420.512396</ele>
        <time>2014-05-18T07:24:01Z</time>
      </trkpt>
      <trkpt lat="44.09423" lon="3.07331">
        <ele>420.708141</ele>
        <time>2014-05-18T07:24:04Z</time>
      </trkpt>
      <trkpt lat="44.0942" lon="3.07326">
        <ele>420.811721</ele>
        <time>2014-05-18T07:24:06Z</time>
      </trkpt>
      <trkpt lat="44.09415" lon="3.0732">
        <ele>421.063634</ele>
        <time>2014-05-18T07:24:09Z</time>
      </trkpt>
      <trkpt lat="44.09411" lon="3.07315">
        <ele>421.232026</ele>
        <time>2014-05-18T07:24:11Z</time>
      </trkpt>
      <trkpt lat="44.09406" lon="3.07309">
        <ele>421.579575</ele>
        <time>2014-05-18T07:24:14Z</time>
      </trkpt>
      <trkpt lat="44.09403" lon="3.07304">
        <ele>421.671384</ele>
        <time>2014-05-18T07:24:16Z</time>
      </trkpt>
      <trkpt lat="44.09399" lon="3.07298">
        <ele>421.878116</ele>
        <time>2014-05-18T07:24:18Z</time>
      </trkpt>
      <trkpt lat="44.09395" lon="3.07294">
        <ele>422.115091</ele>
        <time>2014-05-18T07:24:20Z</time>
      </trkpt>
      <trkpt lat="44.09391" lon="3.07289">
        <ele>422.304284</ele>
        <time>2014-05-18T07:24:22Z</time>
      </trkpt>
      <trkpt lat="44.09387" lon="3.07284">
        <ele>422.333301</ele>
        <time>2014-05-18T07:24:24Z</time>
      </trkpt>
      <trkpt lat="44.09382" lon="3.07279">
        <ele>422.473037</ele>
        <time>2014-05-18T07:24:27Z</time>
      </trkpt>
      <trkpt lat="44.09376" lon="3.07275">
        <ele>422.516581</ele>
        <time>2014-05-18T07:24:29Z</time>
      </trkpt>
      <trkpt lat="44.09371" lon="3.07273">
        <ele>422.57059</ele>
        <time>2014-05-18T07:24:31Z</time>
      </trkpt>
      <trkpt lat="44.09366" lon="3.07271">
        <ele>422.651405</ele>
        <time>2014-05-18T07:24:33Z</time>
      </trkpt>
      <trkpt lat="44.0936" lon="3.0727">
        <ele>422.806554</ele>
        <time>2014-05-18T07:24:35Z</time>
      </trkpt>
      <trkpt lat="44.09355" lon="3.0727">
        <ele>422.857298</ele>
        <time>2014-05-18T07:24:37Z</time>
      </trkpt>
      <trkpt lat="44.0935" lon="3.07269">
        <ele>422.763001</ele>
        <time>2014-05-18T07:24:39Z</time>
      </trkpt>
      <trkpt lat="44.09345" lon="3.07269">
        <ele>422.715039</ele>
        <time>2014-05-18T07:24:41Z</time>
      </trkpt>
      <trkpt lat="44.0934" lon="3.07269">
        <ele>422.738201</ele>
        <time>2014-05-18T07:24:43Z</time>
      </trkpt>
      <trkpt lat="44.09335" lon="3.07269">
        <ele>422.585316</ele>
        <time>2014-05-18T07:24:45Z</time>
      </trkpt>
      <trkpt lat="44.09329" lon="3.07267">
        <ele>422.380529</ele>
        <time>2014-05-18T07:24:47Z</time>
      </trkpt>
      <trkpt lat="44.09325" lon="3.07265">
        <ele>422.158858</ele>
        <time>2014-05-18T07:24:49Z</time>
      </trkpt>
      <trkpt lat="44.09319" lon="3.07262">
        <ele>421.955875</ele>
        <time>2014-05-18T07:24:51Z</time>
      </trkpt>
      <trkpt lat="44.09315" lon="3.07257">
        <ele>421.733201</ele>
        <time>2014-05-18T07:24:53Z</time>
      </trkpt>
      <trkpt lat="44.0931" lon="3.07252">
        <ele>421.52825</ele>
        <time>2014-05-18T07:24:55Z</time>
      </trkpt>
      <trkpt lat="44.09306" lon="3.07247">
        <ele>421.245096</ele>
        <time>2014-05-18T07:24:57Z</time>
      </trkpt>
      <trkpt lat="44.09303" lon="3.0724">
        <ele>420.678654</ele>
        <time>2014-05-18T07:25:00Z</time>
      </trkpt>
      <trkpt lat="44.093" lon="3.07233">
        <ele>420.29432</ele>
        <time>2014-05-18T07:25:02Z</time>
      </trkpt>
      <trkpt lat="44.09298" lon="3.07228">
        <ele>419.766999</ele>
        <time>2014-05-18T07:25:04Z</time>
      </trkpt>
      <trkpt lat="44.09296" lon="3.07221">
        <ele>419.35484</ele>
        <time>2014-05-18T07:25:06Z</time>
      </trkpt>
      <trkpt lat="44.09294" lon="3.07215">
        <ele>419.073282</ele>
        <time>2014-05-18T07:25:08Z</time>
      </trkpt>
      <trkpt lat="44.09291" lon="3.07209">
        <ele>418.793407</ele>
        <time>2014-05-18T07:25:10Z</time>
      </trkpt>
      <trkpt lat="44.09288" lon="3.07202">
        <ele>418.48068</ele>
        <time>2014-05-18T07:25:12Z</time>
      </trkpt>
      <trkpt lat="44.09286" lon="3.07196">
        <ele>418.101586</ele>
        <time>2014-05-18T07:25:14Z</time>
      </trkpt>
      <trkpt lat="44.09284" lon="3.07187">
        <ele>417.494216</ele>
        <time>2014-05-18T07:25:17Z</time>
      </trkpt>
      <trkpt lat="44.09282" lon="3.0718">
        <ele>417.170017</ele>
        <time>2014-05-18T07:25:19Z</time>
      </trkpt>
      <trkpt lat="44.0928" lon="3.07172">
        <ele>416.933297</ele>
        <time>2014-05-18T07:25:21Z</time>
      </trkpt>
      <trkpt lat="44.09277" lon="3.07166">
        <ele>416.807623</ele>
        <time>2014-05-18T07:25:23Z</time>
      </trkpt>
      <trkpt lat="44.09274" lon="3.07158">
        <ele>416.635128</ele>
        <time>2014-05-18T07:25:26Z</time>
      </trkpt>
      <trkpt lat="44.0927" lon="3.07153">
        <ele>416.390543</ele>
        <time>2014-05-18T07:25:28Z</time>
      </trkpt>
      <trkpt lat="44.09266" lon="3.07147">
        <ele>416.178988</ele>
        <time>2014-05-18T07:25:30Z</time>
      </trkpt>
      <trkpt lat="44.09263" lon="3.07141">
        <ele>415.921697</ele>
        <time>2014-05-18T07:25:32Z</time>
      </trkpt>
      <trkpt lat="44.09259" lon="3.07136">
        <ele>415.694749</ele>
        <time>2014-05-18T07:25:34Z</time>
      </trkpt>
      <trkpt lat="44.09254" lon="3.07132">
        <ele>415.526969</ele>
        <time>2014-05-18T07:25:36Z</time>
      </trkpt>
      <trkpt lat="44.0925" lon="3.07129">
        <ele>415.395959</ele>
        <time>2014-05-18T07:25:38Z</time>
      </trkpt>
      <trkpt lat="44.09247" lon="3.07123">
        <ele>415.231515</ele>
        <time>2014-05-18T07:25:40Z</time>
      </trkpt>
      <trkpt lat="44.09242" lon="3.07116">
        <ele>414.8764</ele>
        <time>2014-05-18T07:25:43Z</time>
      </trkpt>
      <trkpt lat="44.09239" lon="3.07112">
        <ele>414.59836</ele>
        <time>2014-05-18T07:25:45Z</time>
      </trkpt>
      <trkpt lat="44.09234" lon="3.07106">
        <ele>414.150287</ele>
        <time>2014-05-18T07:25:48Z</time>
      </trkpt>
      <trkpt lat="44.09229" lon="3.071">
        <ele>413.773875</ele>
        <time>2014-05-18T07:25:51Z</time>
      </trkpt>
      <trkpt lat="44.09225" lon="3.07094">
        <ele>413.577749</ele>
        <time>2014-05-18T07:25:53Z</time>
      </trkpt>
      <trkpt lat="44.09222" lon="3.07089">
        <ele>413.361571</ele>
        <time>2014-05-18T07:25:55Z</time>
      </trkpt>
      <trkpt lat="44.09218" lon="3.07081">
        <ele>413.181809</ele>
        <time>2014-05-18T07:25:58Z</time>
      </trkpt>
      <trkpt lat="44.09214" lon="3.07074">
        <ele>413.084794</ele>
        <time>2014-05-18T07:26:01Z</time>
      </trkpt>
      <trkpt lat="44.0921" lon="3.07067">
        <ele>412.906329</ele>
        <time>2014-05-18T07:26:04Z</time>
      </trkpt>
      <trkpt lat="44.09206" lon="3.07061">
        <ele>412.685847</ele>
        <time>2014-05-18T07:26:06Z</time>
      </trkpt>
      <trkpt lat="44.09202" lon="3.07055">
        <ele>412.343679</ele>
        <time>2014-05-18T07:26:08Z</time>
      </trkpt>
      <trkpt lat="44.09197" lon="3.07048">
        <ele>412.008265</ele>
        <time>2014-05-18T07:26:11Z</time>
      </trkpt>
      <trkpt lat="44.09194" lon="3.07043">
        <ele>411.853057</ele>
        <time>2014-05-18T07:26:13Z</time>
      </trkpt>
      <trkpt lat="44.09191" lon="3.07038">
        <ele>411.687885</ele>
        <time>2014-05-18T07:26:15Z</time>
      </trkpt>
      <trkpt lat="44.09188" lon="3.07032">
        <ele>411.344339</ele>
        <time>2014-05-18T07:26:17Z</time>
      </trkpt>
      <trkpt lat="44.09185" lon="3.07026">
        <ele>411.090725</ele>
        <time>2014-05-18T07:26:19Z</time>
      </trkpt>
      <trkpt lat="44.09183" lon="3.0702">
        <ele>410.777344</ele>
        <time>2014-05-18T07:26:21Z</time>
      </trkpt>
      <trkpt lat="44.0918" lon="3.07012">
        <ele>410.499182</ele>
        <time>2014-05-18T07:26:23Z</time>
      </trkpt>
      <trkpt lat="44.09178" lon="3.07004">
        <ele>410.288479</ele>
        <time>2014-05-18T07:26:25Z</time>
      </trkpt>
      <trkpt lat="44.09176" lon="3.06996">
        <ele>410.13598</ele>
        <time>2014-05-18T07:26:27Z</time>
      </trkpt>
      <trkpt lat="44.09174" lon="3.06989">
        <ele>410.047998</ele>
        <time>2014-05-18T07:26:29Z</time>
      </trkpt>
      <trkpt lat="44.09172" lon="3.06983">
        <ele>410.036831</ele>
        <time>2014-05-18T07:26:31Z</time>
      </trkpt>
      <trkpt lat="44.0917" lon="3.06976">
        <ele>410.000189</ele>
        <time>2014-05-18T07:26:33Z</time>
      </trkpt>
      <trkpt lat="44.09169" lon="3.0697">
        <ele>409.854354</ele>
        <time>2014-05-18T07:26:35Z</time>
      </trkpt>
      <trkpt lat="44.09166" lon="3.06962">
        <ele>409.839317</ele>
        <time>2014-05-18T07:26:37Z</time>
      </trkpt>
      <trkpt lat="44.09164" lon="3.06953">
        <ele>409.918771</ele>
        <time>2014-05-18T07:26:39Z</time>
      </trkpt>
      <trkpt lat="44.09161" lon="3.06945">
        <ele>409.991042</ele>
        <time>2014-05-18T07:26:41Z</time>
      </trkpt>
      <trkpt lat="44.09159" lon="3.06938">
        <ele>410.105053</ele>
        <time>2014-05-18T07:26:43Z</time>
      </trkpt>
      <trkpt lat="44.09157" lon="3.06931">
        <ele>410.212015</ele>
        <time>2014-05-18T07:26:45Z</time>
      </trkpt>
      <trkpt lat="44.09155" lon="3.06925">
        <ele>410.276874</ele>
        <time>2014-05-18T07:26:47Z</time>
      </trkpt>
      <trkpt lat="44.09153" lon="3.06917">
        <ele>410.421314</ele>
        <time>2014-05-18T07:26:49Z</time>
      </trkpt>
      <trkpt lat="44.09151" lon="3.0691">
        <ele>410.496195</ele>
        <time>2014-05-18T07:26:51Z</time>
      </trkpt>
      <trkpt lat="44.0915" lon="3.06903">
        <ele>410.611424</ele>
        <time>2014-05-18T07:26:53Z</time>
      </trkpt>
      <trkpt lat="44.09148" lon="3.06896">
        <ele>410.731123</ele>
        <time>2014-05-18T07:26:55Z</time>
      </trkpt>
      <trkpt lat="44.09147" lon="3.06889">
        <ele>410.879025</ele>
        <time>2014-05-18T07:26:57Z</time>
      </trkpt>
      <trkpt lat="44.09146" lon="3.06882">
        <ele>410.982953</ele>
        <time>2014-05-18T07:26:59Z</time>
      </trkpt>
      <trkpt lat="44.09145" lon="3.06875">
        <ele>411.033593</ele>
        <time>2014-05-18T07:27:01Z</time>
      </trkpt>
      <trkpt lat="44.09143" lon="3.06868">
        <ele>411.132574</ele>
        <time>2014-05-18T07:27:03Z</time>
      </trkpt>
      <trkpt lat="44.09142" lon="3.0686">
        <ele>411.165411</ele>
        <time>2014-05-18T07:27:05Z</time>
      </trkpt>
      <trkpt lat="44.0914" lon="3.06853">
        <ele>411.187408</ele>
        <time>2014-05-18T07:27:07Z</time>
      </trkpt>
      <trkpt lat="44.09139" lon="3.06846">
        <ele>411.07826</ele>
        <time>2014-05-18T07:27:09Z</time>
      </trkpt>
      <trkpt lat="44.09138" lon="3.06839">
        <ele>411.021213</ele>
        <time>2014-05-18T07:27:11Z</time>
      </trkpt>
      <trkpt lat="44.09136" lon="3.06833">
        <ele>411.027823</ele>
        <time>2014-05-18T07:27:13Z</time>
      </trkpt>
      <trkpt lat="44.09134" lon="3.06824">
        <ele>411.051937</ele>
        <time>2014-05-18T07:27:15Z</time>
      </trkpt>
      <trkpt lat="44.09132" lon="3.06816">
        <ele>410.964163</ele>
        <time>2014-05-18T07:27:17Z</time>
      </trkpt>
      <trkpt lat="44.09131" lon="3.06809">
        <ele>410.849891</ele>
        <time>2014-05-18T07:27:19Z</time>
      </trkpt>
      <trkpt lat="44.0913" lon="3.06801">
        <ele>410.779823</ele>
        <time>2014-05-18T07:27:21Z</time>
      </trkpt>
      <trkpt lat="44.09128" lon="3.06794">
        <ele>410.851507</ele>
        <time>2014-05-18T07:27:23Z</time>
      </trkpt>
      <trkpt lat="44.09127" lon="3.06786">
        <ele>410.881057</ele>
        <time>2014-05-18T07:27:25Z</time>
      </trkpt>
      <trkpt lat="44.09125" lon="3.06779">
        <ele>410.983114</ele>
        <time>2014-05-18T07:27:27Z</time>
      </trkpt>
      <trkpt lat="44.09123" lon="3.06771">
        <ele>411.08834</ele>
        <time>2014-05-18T07:27:29Z</time>
      </trkpt>
      <trkpt lat="44.09122" lon="3.06764">
        <ele>411.175047</ele>
        <time>2014-05-18T07:27:31Z</time>
      </trkpt>
      <trkpt lat="44.09121" lon="3.06756">
        <ele>411.281471</ele>
        <time>2014-05-18T07:27:33Z</time>
      </trkpt>
      <trkpt lat="44.0912" lon="3.0675">
        <ele>411.391617</ele>
        <time>2014-05-18T07:27:35Z</time>
      </trkpt>
      <trkpt lat="44.0912" lon="3.06743">
        <ele>411.423833</ele>
        <time>2014-05-18T07:27:37Z</time>
      </trkpt>
      <trkpt lat="44.09119" lon="3.06735">
        <ele>411.477164</ele>
        <time>2014-05-18T07:27:39Z</time>
      </trkpt>
      <trkpt lat="44.09118" lon="3.06728">
        <ele>411.593016</ele>
        <time>2014-05-18T07:27:41Z</time>
      </trkpt>
      <trkpt lat="44.09117" lon="3.06721">
        <ele>411.715387</ele>
        <time>2014-05-18T07:27:43Z</time>
      </trkpt>
      <trkpt lat="44.09117" lon="3.06712">
        <ele>411.801113</ele>
        <time>2014-05-18T07:27:45Z</time>
      </trkpt>
      <trkpt lat="44.09117" lon="3.06703">
        <ele>411.805666</ele>
        <time>2014-05-18T07:27:47Z</time>
      </trkpt>
      <trkpt lat="44.09117" lon="3.06695">
        <ele>411.846388</ele>
        <time>2014-05-18T07:27:49Z</time>
      </trkpt>
      <trkpt lat="44.09117" lon="3.06686">
        <ele>411.954101</ele>
        <time>2014-05-18T07:27:52Z</time>
      </trkpt>
      <trkpt lat="44.09117" lon="3.06679">
        <ele>412.023342</ele>
        <time>2014-05-18T07:27:54Z</time>
      </trkpt>
      <trkpt lat="44.09118" lon="3.06669">
        <ele>412.180664</ele>
        <time>2014-05-18T07:27:57Z</time>
      </trkpt>
      <trkpt lat="44.0912" lon="3.06663">
        <ele>412.285111</ele>
        <time>2014-05-18T07:27:59Z</time>
      </trkpt>
      <trkpt lat="44.0912" lon="3.06656">
        <ele>412.434541</ele>
        <time>2014-05-18T07:28:01Z</time>
      </trkpt>
      <trkpt lat="44.09121" lon="3.06649">
        <ele>412.59776</ele>
        <time>2014-05-18T07:28:03Z</time>
      </trkpt>
      <trkpt lat="44.09122" lon="3.06642">
        <ele>412.721342</ele>
        <time>2014-05-18T07:28:05Z</time>
      </trkpt>
      <trkpt lat="44.09124" lon="3.06632">
        <ele>412.792723</ele>
        <time>2014-05-18T07:28:08Z</time>
      </trkpt>
      <trkpt lat="44.09127" lon="3.06625">
        <ele>412.837929</ele>
        <time>2014-05-18T07:28:10Z</time>
      </trkpt>
      <trkpt lat="44.09129" lon="3.06618">
        <ele>412.882603</ele>
        <time>2014-05-18T07:28:12Z</time>
      </trkpt>
      <trkpt lat="44.09132" lon="3.06611">
        <ele>412.867562</ele>
        <time>2014-05-18T07:28:14Z</time>
      </trkpt>
      <trkpt lat="44.09135" lon="3.06603">
        <ele>412.88108</ele>
        <time>2014-05-18T07:28:16Z</time>
      </trkpt>
      <trkpt lat="44.09138" lon="3.06596">
        <ele>412.890378</ele>
        <time>2014-05-18T07:28:18Z</time>
      </trkpt>
      <trkpt lat="44.09141" lon="3.0659">
        <ele>413.036742</ele>
        <time>2014-05-18T07:28:20Z</time>
      </trkpt>
      <trkpt lat="44.09144" lon="3.06583">
        <ele>413.164611</ele>
        <time>2014-05-18T07:28:22Z</time>
      </trkpt>
      <trkpt lat="44.09148" lon="3.06577">
        <ele>413.221482</ele>
        <time>2014-05-18T07:28:24Z</time>
      </trkpt>
      <trkpt lat="44.09152" lon="3.06571">
        <ele>413.247354</ele>
        <time>2014-05-18T07:28:26Z</time>
      </trkpt>
      <trkpt lat="44.09157" lon="3.06564">
        <ele>413.248559</ele>
        <time>2014-05-18T07:28:29Z</time>
      </trkpt>
      <trkpt lat="44.0916" lon="3.06559">
        <ele>413.249354</ele>
        <time>2014-05-18T07:28:31Z</time>
      </trkpt>
      <trkpt lat="44.09163" lon="3.06554">
        <ele>413.251666</ele>
        <time>2014-05-18T07:28:33Z</time>
      </trkpt>
      <trkpt lat="44.09167" lon="3.06548">
        <ele>413.332987</ele>
        <time>2014-05-18T07:28:35Z</time>
      </trkpt>
      <trkpt lat="44.09172" lon="3.06542">
        <ele>413.411518</ele>
        <time>2014-05-18T07:28:38Z</time>
      </trkpt>
      <trkpt lat="44.09176" lon="3.06537">
        <ele>413.434069</ele>
        <time>2014-05-18T07:28:40Z</time>
      </trkpt>
      <trkpt lat="44.0918" lon="3.06533">
        <ele>413.446798</ele>
        <time>2014-05-18T07:28:42Z</time>
      </trkpt>
      <trkpt lat="44.09183" lon="3.06528">
        <ele>413.41762</ele>
        <time>2014-05-18T07:28:44Z</time>
      </trkpt>
      <trkpt lat="44.09187" lon="3.06523">
        <ele>413.483792</ele>
        <time>2014-05-18T07:28:46Z</time>
      </trkpt>
      <trkpt lat="44.0919" lon="3.06517">
        <ele>413.560099</ele>
        <time>2014-05-18T07:28:48Z</time>
      </trkpt>
      <trkpt lat="44.09193" lon="3.06513">
        <ele>413.671781</ele>
        <time>2014-05-18T07:28:50Z</time>
      </trkpt>
      <trkpt lat="44.09198" lon="3.06508">
        <ele>413.857681</ele>
        <time>2014-05-18T07:28:53Z</time>
      </trkpt>
      <trkpt lat="44.09201" lon="3.06502">
        <ele>414.013525</ele>
        <time>2014-05-18T07:28:55Z</time>
      </trkpt>
      <trkpt lat="44.09205" lon="3.06496">
        <ele>414.285199</ele>
        <time>2014-05-18T07:28:58Z</time>
      </trkpt>
      <trkpt lat="44.0921" lon="3.0649">
        <ele>414.54415</ele>
        <time>2014-05-18T07:29:01Z</time>
      </trkpt>
      <trkpt lat="44.09212" lon="3.06484">
        <ele>414.716321</ele>
        <time>2014-05-18T07:29:03Z</time>
      </trkpt>
      <trkpt lat="44.09215" lon="3.06478">
        <ele>414.869601</ele>
        <time>2014-05-18T07:29:05Z</time>
      </trkpt>
      <trkpt lat="44.09218" lon="3.06471">
        <ele>414.979397</ele>
        <time>2014-05-18T07:29:08Z</time>
      </trkpt>
      <trkpt lat="44.09222" lon="3.06465">
        <ele>414.995942</ele>
        <time>2014-05-18T07:29:10Z</time>
      </trkpt>
      <trkpt lat="44.09225" lon="3.0646">
        <ele>415.086092</ele>
        <time>2014-05-18T07:29:12Z</time>
      </trkpt>
      <trkpt lat="44.09229" lon="3.06454">
        <ele>415.229128</ele>
        <time>2014-05-18T07:29:14Z</time>
      </trkpt>
      <trkpt lat="44.09233" lon="3.06449">
        <ele>415.375406</ele>
        <time>2014-05-18T07:29:16Z</time>
      </trkpt>
      <trkpt lat="44.09236" lon="3.06443">
        <ele>415.509935</ele>
        <time>2014-05-18T07:29:18Z</time>
      </trkpt>
      <trkpt lat="44.09241" lon="3.06436">
        <ele>415.648026</ele>
        <time>2014-05-18T07:29:21Z</time>
      </trkpt>
      <trkpt lat="44.09245" lon="3.0643">
        <ele>415.736928</ele>
        <time>2014-05-18T07:29:24Z</time>
      </trkpt>
      <trkpt lat="44.09248" lon="3.06422">
        <ele>415.897647</ele>
        <time>2014-05-18T07:29:27Z</time>
      </trkpt>
      <trkpt lat="44.09249" lon="3.06415">
        <ele>416.004159</ele>
        <time>2014-05-18T07:29:29Z</time>
      </trkpt>
      <trkpt lat="44.09249" lon="3.06408">
        <ele>416.072529</ele>
        <time>2014-05-18T07:29:31Z</time>
      </trkpt>
      <trkpt lat="44.09248" lon="3.064">
        <ele>416.175181</ele>
        <time>2014-05-18T07:29:33Z</time>
      </trkpt>
      <trkpt lat="44.09247" lon="3.06393">
        <ele>416.390652</ele>
        <time>2014-05-18T07:29:34Z</time>
      </trkpt>
      <trkpt lat="44.09246" lon="3.06386">
        <ele>416.522514</ele>
        <time>2014-05-18T07:29:36Z</time>
      </trkpt>
      <trkpt lat="44.09242" lon="3.06378">
        <ele>416.73042</ele>
        <time>2014-05-18T07:29:39Z</time>
      </trkpt>
      <trkpt lat="44.09239" lon="3.06373">
        <ele>417.035639</ele>
        <time>2014-05-18T07:29:41Z</time>
      </trkpt>
      <trkpt lat="44.09236" lon="3.06366">
        <ele>417.351058</ele>
        <time>2014-05-18T07:29:43Z</time>
      </trkpt>
      <trkpt lat="44.09233" lon="3.06359">
        <ele>417.498598</ele>
        <time>2014-05-18T07:29:45Z</time>
      </trkpt>
      <trkpt lat="44.0923" lon="3.06352">
        <ele>417.647841</ele>
        <time>2014-05-18T07:29:47Z</time>
      </trkpt>
      <trkpt lat="44.09227" lon="3.06346">
        <ele>417.836613</ele>
        <time>2014-05-18T07:29:49Z</time>
      </trkpt>
      <trkpt lat="44.09223" lon="3.0634">
        <ele>418.026945</ele>
        <time>2014-05-18T07:29:51Z</time>
      </trkpt>
      <trkpt lat="44.09219" lon="3.06333">
        <ele>418.264835</ele>
        <time>2014-05-18T07:29:53Z</time>
      </trkpt>
      <trkpt lat="44.09214" lon="3.06325">
        <ele>418.546082</ele>
        <time>2014-05-18T07:29:56Z</time>
      </trkpt>
      <trkpt lat="44.09211" lon="3.06321">
        <ele>418.798661</ele>
        <time>2014-05-18T07:29:58Z</time>
      </trkpt>
      <trkpt lat="44.09207" lon="3.06314">
        <ele>419.047338</ele>
        <time>2014-05-18T07:30:00Z</time>
      </trkpt>
      <trkpt lat="44.09204" lon="3.06308">
        <ele>419.231318</ele>
        <time>2014-05-18T07:30:02Z</time>
      </trkpt>
      <trkpt lat="44.09201" lon="3.06302">
        <ele>419.440552</ele>
        <time>2014-05-18T07:30:04Z</time>
      </trkpt>
      <trkpt lat="44.09197" lon="3.06297">
        <ele>419.637098</ele>
        <time>2014-05-18T07:30:06Z</time>
      </trkpt>
      <trkpt lat="44.09192" lon="3.06292">
        <ele>419.834683</ele>
        <time>2014-05-18T07:30:09Z</time>
      </trkpt>
      <trkpt lat="44.09188" lon="3.06287">
        <ele>420.013763</ele>
        <time>2014-05-18T07:30:11Z</time>
      </trkpt>
      <trkpt lat="44.09184" lon="3.06282">
        <ele>420.164352</ele>
        <time>2014-05-18T07:30:13Z</time>
      </trkpt>
      <trkpt lat="44.09179" lon="3.06276">
        <ele>420.284423</ele>
        <time>2014-05-18T07:30:15Z</time>
      </trkpt>
      <trkpt lat="44.09175" lon="3.06271">
        <ele>420.488817</ele>
        <time>2014-05-18T07:30:17Z</time>
      </trkpt>
      <trkpt lat="44.0917" lon="3.06265">
        <ele>420.659124</ele>
        <time>2014-05-18T07:30:19Z</time>
      </trkpt>
      <trkpt lat="44.09166" lon="3.06259">
        <ele>420.792688</ele>
        <time>2014-05-18T07:30:21Z</time>
      </trkpt>
      <trkpt lat="44.09161" lon="3.06255">
        <ele>421.031705</ele>
        <time>2014-05-18T07:30:24Z</time>
      </trkpt>
      <trkpt lat="44.09157" lon="3.06251">
        <ele>421.073072</ele>
        <time>2014-05-18T07:30:26Z</time>
      </trkpt>
      <trkpt lat="44.09152" lon="3.06247">
        <ele>421.107959</ele>
        <time>2014-05-18T07:30:28Z</time>
      </trkpt>
      <trkpt lat="44.09148" lon="3.06244">
        <ele>421.232578</ele>
        <time>2014-05-18T07:30:30Z</time>
      </trkpt>
      <trkpt lat="44.09142" lon="3.06238">
        <ele>421.435324</ele>
        <time>2014-05-18T07:30:33Z</time>
      </trkpt>
      <trkpt lat="44.09137" lon="3.06232">
        <ele>421.433819</ele>
        <time>2014-05-18T07:30:35Z</time>
      </trkpt>
      <trkpt lat="44.09132" lon="3.06227">
        <ele>421.454528</ele>
        <time>2014-05-18T07:30:37Z</time>
      </trkpt>
      <trkpt lat="44.09128" lon="3.06223">
        <ele>421.545548</ele>
        <time>2014-05-18T07:30:39Z</time>
      </trkpt>
      <trkpt lat="44.09123" lon="3.06218">
        <ele>421.6734</ele>
        <time>2014-05-18T07:30:41Z</time>
      </trkpt>
      <trkpt lat="44.09119" lon="3.06213">
        <ele>421.775228</ele>
        <time>2014-05-18T07:30:43Z</time>
      </trkpt>
      <trkpt lat="44.09116" lon="3.0621">
        <ele>421.826001</ele>
        <time>2014-05-18T07:30:45Z</time>
      </trkpt>
      <trkpt lat="44.09111" lon="3.06206">
        <ele>421.891344</ele>
        <time>2014-05-18T07:30:47Z</time>
      </trkpt>
      <trkpt lat="44.09107" lon="3.06202">
        <ele>421.89788</ele>
        <time>2014-05-18T07:30:49Z</time>
      </trkpt>
      <trkpt lat="44.09101" lon="3.06197">
        <ele>421.927406</ele>
        <time>2014-05-18T07:30:52Z</time>
      </trkpt>
      <trkpt lat="44.09097" lon="3.06193">
        <ele>421.970319</ele>
        <time>2014-05-18T07:30:54Z</time>
      </trkpt>
      <trkpt lat="44.09091" lon="3.06188">
        <ele>422.004335</ele>
        <time>2014-05-18T07:30:57Z</time>
      </trkpt>
      <trkpt lat="44.09086" lon="3.06185">
        <ele>421.949509</ele>
        <time>2014-05-18T07:30:59Z</time>
      </trkpt>
      <trkpt lat="44.09082" lon="3.06182">
        <ele>421.810697</ele>
        <time>2014-05-18T07:31:01Z</time>
      </trkpt>
      <trkpt lat="44.09077" lon="3.06179">
        <ele>421.719291</ele>
        <time>2014-05-18T07:31:03Z</time>
      </trkpt>
      <trkpt lat="44.09072" lon="3.06175">
        <ele>421.734205</ele>
        <time>2014-05-18T07:31:05Z</time>
      </trkpt>
      <trkpt lat="44.09067" lon="3.06172">
        <ele>421.793718</ele>
        <time>2014-05-18T07:31:07Z</time>
      </trkpt>
      <trkpt lat="44.09062" lon="3.0617">
        <ele>421.840447</ele>
        <time>2014-05-18T07:31:09Z</time>
      </trkpt>
      <trkpt lat="44.09058" lon="3.06168">
        <ele>422.011367</ele>
        <time>2014-05-18T07:31:11Z</time>
      </trkpt>
      <trkpt lat="44.09052" lon="3.06166">
        <ele>422.097776</ele>
        <time>2014-05-18T07:31:13Z</time>
      </trkpt>
      <trkpt lat="44.09047" lon="3.06164">
        <ele>422.220692</ele>
        <time>2014-05-18T07:31:15Z</time>
      </trkpt>
      <trkpt lat="44.09042" lon="3.06162">
        <ele>422.32092</ele>
        <time>2014-05-18T07:31:17Z</time>
      </trkpt>
      <trkpt lat="44.09037" lon="3.0616">
        <ele>422.514871</ele>
        <time>2014-05-18T07:31:19Z</time>
      </trkpt>
      <trkpt lat="44.09032" lon="3.06158">
        <ele>422.620484</ele>
        <time>2014-05-18T07:31:21Z</time>
      </trkpt>
      <trkpt lat="44.09025" lon="3.06158">
        <ele>422.704778</ele>
        <time>2014-05-18T07:31:24Z</time>
      </trkpt>
      <trkpt lat="44.0902" lon="3.06158">
        <ele>422.79694</ele>
        <time>2014-05-18T07:31:26Z</time>
      </trkpt>
      <trkpt lat="44.09015" lon="3.06158">
        <ele>422.980506</ele>
        <time>2014-05-18T07:31:28Z</time>
      </trkpt>
      <trkpt lat="44.09011" lon="3.06158">
        <ele>423.231416</ele>
        <time>2014-05-18T07:31:30Z</time>
      </trkpt>
      <trkpt lat="44.09006" lon="3.06158">
        <ele>423.510471</ele>
        <time>2014-05-18T07:31:32Z</time>
      </trkpt>
      <trkpt lat="44.09" lon="3.06158">
        <ele>423.775696</ele>
        <time>2014-05-18T07:31:34Z</time>
      </trkpt>
      <trkpt lat="44.08995" lon="3.06157">
        <ele>423.973582</ele>
        <time>2014-05-18T07:31:36Z</time>
      </trkpt>
      <trkpt lat="44.08988" lon="3.06156">
        <ele>424.152774</ele>
        <time>2014-05-18T07:31:38Z</time>
      </trkpt>
      <trkpt lat="44.08982" lon="3.06154">
        <ele>424.221842</ele>
        <time>2014-05-18T07:31:40Z</time>
      </trkpt>
      <trkpt lat="44.08977" lon="3.06153">
        <ele>424.29671</ele>
        <time>2014-05-18T07:31:42Z</time>
      </trkpt>
      <trkpt lat="44.08971" lon="3.06151">
        <ele>424.403749</ele>
        <time>2014-05-18T07:31:45Z</time>
      </trkpt>
      <trkpt lat="44.08965" lon="3.06149">
        <ele>424.36139</ele>
        <time>2014-05-18T07:31:47Z</time>
      </trkpt>
      <trkpt lat="44.08958" lon="3.06148">
        <ele>424.355259</ele>
        <time>2014-05-18T07:31:50Z</time>
      </trkpt>
      <trkpt lat="44.08953" lon="3.06146">
        <ele>424.350235</ele>
        <time>2014-05-18T07:31:52Z</time>
      </trkpt>
      <trkpt lat="44.08949" lon="3.06144">
        <ele>424.330652</ele>
        <time>2014-05-18T07:31:54Z</time>
      </trkpt>
      <trkpt lat="44.08943" lon="3.06142">
        <ele>424.388306</ele>
        <time>2014-05-18T07:31:56Z</time>
      </trkpt>
      <trkpt lat="44.08936" lon="3.0614">
        <ele>424.500938</ele>
        <time>2014-05-18T07:31:58Z</time>
      </trkpt>
      <trkpt lat="44.08931" lon="3.06136">
        <ele>424.493418</ele>
        <time>2014-05-18T07:32:00Z</time>
      </trkpt>
      <trkpt lat="44.08926" lon="3.06132">
        <ele>424.618199</ele>
        <time>2014-05-18T07:32:02Z</time>
      </trkpt>
      <trkpt lat="44.0892" lon="3.06127">
        <ele>424.943221</ele>
        <time>2014-05-18T07:32:05Z</time>
      </trkpt>
      <trkpt lat="44.08916" lon="3.06122">
        <ele>424.909665</ele>
        <time>2014-05-18T07:32:07Z</time>
      </trkpt>
      <trkpt lat="44.08913" lon="3.06117">
        <ele>424.827687</ele>
        <time>2014-05-18T07:32:09Z</time>
      </trkpt>
      <trkpt lat="44.08908" lon="3.06112">
        <ele>424.794027</ele>
        <time>2014-05-18T07:32:11Z</time>
      </trkpt>
      <trkpt lat="44.08904" lon="3.06106">
        <ele>424.853357</ele>
        <time>2014-05-18T07:32:13Z</time>
      </trkpt>
      <trkpt lat="44.089" lon="3.061">
        <ele>424.988308</ele>
        <time>2014-05-18T07:32:15Z</time>
      </trkpt>
      <trkpt lat="44.08896" lon="3.06095">
        <ele>425.13357</ele>
        <time>2014-05-18T07:32:17Z</time>
      </trkpt>
      <trkpt lat="44.08893" lon="3.0609">
        <ele>425.214212</ele>
        <time>2014-05-18T07:32:19Z</time>
      </trkpt>
      <trkpt lat="44.08889" lon="3.06082">
        <ele>425.253003</ele>
        <time>2014-05-18T07:32:22Z</time>
      </trkpt>
      <trkpt lat="44.08886" lon="3.06074">
        <ele>425.325923</ele>
        <time>2014-05-18T07:32:25Z</time>
      </trkpt>
      <trkpt lat="44.08883" lon="3.06067">
        <ele>425.498762</ele>
        <time>2014-05-18T07:32:27Z</time>
      </trkpt>
      <trkpt lat="44.0888" lon="3.0606">
        <ele>425.635153</ele>
        <time>2014-05-18T07:32:29Z</time>
      </trkpt>
      <trkpt lat="44.08879" lon="3.06054">
        <ele>425.776542</ele>
        <time>2014-05-18T07:32:31Z</time>
      </trkpt>
      <trkpt lat="44.08878" lon="3.06046">
        <ele>425.899192</ele>
        <time>2014-05-18T07:32:33Z</time>
      </trkpt>
      <trkpt lat="44.08878" lon="3.06037">
        <ele>426.050887</ele>
        <time>2014-05-18T07:32:36Z</time>
      </trkpt>
      <trkpt lat="44.08878" lon="3.06031">
        <ele>426.235664</ele>
        <time>2014-05-18T07:32:38Z</time>
      </trkpt>
      <trkpt lat="44.08878" lon="3.06024">
        <ele>426.470908</ele>
        <time>2014-05-18T07:32:40Z</time>
      </trkpt>
      <trkpt lat="44.08878" lon="3.06015">
        <ele>426.661892</ele>
        <time>2014-05-18T07:32:42Z</time>
      </trkpt>
      <trkpt lat="44.08878" lon="3.06007">
        <ele>426.822845</ele>
        <time>2014-05-18T07:32:44Z</time>
      </trkpt>
      <trkpt lat="44.08879" lon="3.06001">
        <ele>426.972467</ele>
        <time>2014-05-18T07:32:46Z</time>
      </trkpt>
      <trkpt lat="44.08879" lon="3.05993">
        <ele>427.103978</ele>
        <time>2014-05-18T07:32:48Z</time>
      </trkpt>
      <trkpt lat="44.08879" lon="3.05985">
        <ele>427.487975</ele>
        <time>2014-05-18T07:32:51Z</time>
      </trkpt>
      <trkpt lat="44.0888" lon="3.05978">
        <ele>427.665253</ele>
        <time>2014-05-18T07:32:53Z</time>
      </trkpt>
      <trkpt lat="44.0888" lon="3.0597">
        <ele>427.78071</ele>
        <time>2014-05-18T07:32:55Z</time>
      </trkpt>
      <trkpt lat="44.08881" lon="3.05963">
        <ele>427.958864</ele>
        <time>2014-05-18T07:32:57Z</time>
      </trkpt>
      <trkpt lat="44.0888" lon="3.05956">
        <ele>428.113918</ele>
        <time>2014-05-18T07:32:59Z</time>
      </trkpt>
      <trkpt lat="44.08879" lon="3.05948">
        <ele>428.353928</ele>
        <time>2014-05-18T07:33:01Z</time>
      </trkpt>
      <trkpt lat="44.08879" lon="3.05939">
        <ele>428.507775</ele>
        <time>2014-05-18T07:33:03Z</time>
      </trkpt>
      <trkpt lat="44.08879" lon="3.05931">
        <ele>428.457009</ele>
        <time>2014-05-18T07:33:05Z</time>
      </trkpt>
      <trkpt lat="44.0888" lon="3.05924">
        <ele>428.405348</ele>
        <time>2014-05-18T07:33:07Z</time>
      </trkpt>
      <trkpt lat="44.08881" lon="3.05917">
        <ele>428.472806</ele>
        <time>2014-05-18T07:33:09Z</time>
      </trkpt>
      <trkpt lat="44.08882" lon="3.05911">
        <ele>428.596725</ele>
        <time>2014-05-18T07:33:11Z</time>
      </trkpt>
      <trkpt lat="44.08883" lon="3.05902">
        <ele>428.717004</ele>
        <time>2014-05-18T07:33:13Z</time>
      </trkpt>
      <trkpt lat="44.08885" lon="3.05893">
        <ele>428.723258</ele>
        <time>2014-05-18T07:33:15Z</time>
      </trkpt>
      <trkpt lat="44.08885" lon="3.05886">
        <ele>428.805209</ele>
        <time>2014-05-18T07:33:17Z</time>
      </trkpt>
      <trkpt lat="44.08886" lon="3.05877">
        <ele>429.018696</ele>
        <time>2014-05-18T07:33:20Z</time>
      </trkpt>
      <trkpt lat="44.08887" lon="3.05869">
        <ele>429.010088</ele>
        <time>2014-05-18T07:33:22Z</time>
      </trkpt>
      <trkpt lat="44.08889" lon="3.05862">
        <ele>428.969873</ele>
        <time>2014-05-18T07:33:24Z</time>
      </trkpt>
      <trkpt lat="44.0889" lon="3.05855">
        <ele>429.033169</ele>
        <time>2014-05-18T07:33:26Z</time>
      </trkpt>
      <trkpt lat="44.08891" lon="3.05847">
        <ele>429.088179</ele>
        <time>2014-05-18T07:33:28Z</time>
      </trkpt>
      <trkpt lat="44.08892" lon="3.05841">
        <ele>429.127603</ele>
        <time>2014-05-18T07:33:30Z</time>
      </trkpt>
      <trkpt lat="44.08894" lon="3.05832">
        <ele>429.162727</ele>
        <time>2014-05-18T07:33:33Z</time>
      </trkpt>
      <trkpt lat="44.08896" lon="3.05824">
        <ele>429.102677</ele>
        <time>2014-05-18T07:33:35Z</time>
      </trkpt>
      <trkpt lat="44.08897" lon="3.05816">
        <ele>429.088959</ele>
        <time>2014-05-18T07:33:37Z</time>
      </trkpt>
      <trkpt lat="44.08899" lon="3.05809">
        <ele>429.215</ele>
        <time>2014-05-18T07:33:39Z</time>
      </trkpt>
      <trkpt lat="44.08901" lon="3.05802">
        <ele>429.377901</ele>
        <time>2014-05-18T07:33:41Z</time>
      </trkpt>
      <trkpt lat="44.08902" lon="3.05796">
        <ele>429.550469</ele>
        <time>2014-05-18T07:33:43Z</time>
      </trkpt>
      <trkpt lat="44.08903" lon="3.05787">
        <ele>429.704814</ele>
        <time>2014-05-18T07:33:46Z</time>
      </trkpt>
      <trkpt lat="44.08904" lon="3.05781">
        <ele>429.709893</ele>
        <time>2014-05-18T07:33:48Z</time>
      </trkpt>
      <trkpt lat="44.08906" lon="3.05774">
        <ele>429.751662</ele>
        <time>2014-05-18T07:33:50Z</time>
      </trkpt>
      <trkpt lat="44.08907" lon="3.05767">
        <ele>429.791304</ele>
        <time>2014-05-18T07:33:52Z</time>
      </trkpt>
      <trkpt lat="44.08907" lon="3.0576">
        <ele>429.83377</ele>
        <time>2014-05-18T07:33:54Z</time>
      </trkpt>
      <trkpt lat="44.08908" lon="3.05754">
        <ele>429.800826</ele>
        <time>2014-05-18T07:33:56Z</time>
      </trkpt>
      <trkpt lat="44.0891" lon="3.05747">
        <ele>429.748151</ele>
        <time>2014-05-18T07:33:58Z</time>
      </trkpt>
      <trkpt lat="44.08912" lon="3.05739">
        <ele>429.773982</ele>
        <time>2014-05-18T07:34:00Z</time>
      </trkpt>
      <trkpt lat="44.08914" lon="3.05732">
        <ele>429.901931</ele>
        <time>2014-05-18T07:34:02Z</time>
      </trkpt>
      <trkpt lat="44.08915" lon="3.05726">
        <ele>429.984082</ele>
        <time>2014-05-18T07:34:04Z</time>
      </trkpt>
      <trkpt lat="44.08916" lon="3.05719">
        <ele>430.030768</ele>
        <time>2014-05-18T07:34:06Z</time>
      </trkpt>
      <trkpt lat="44.08917" lon="3.05711">
        <ele>430.162301</ele>
        <time>2014-05-18T07:34:08Z</time>
      </trkpt>
      <trkpt lat="44.08918" lon="3.05704">
        <ele>430.310932</ele>
        <time>2014-05-18T07:34:10Z</time>
      </trkpt>
      <trkpt lat="44.08919" lon="3.05697">
        <ele>430.377159</ele>
        <time>2014-05-18T07:34:12Z</time>
      </trkpt>
      <trkpt lat="44.08921" lon="3.05689">
        <ele>430.402507</ele>
        <time>2014-05-18T07:34:14Z</time>
      </trkpt>
      <trkpt lat="44.08922" lon="3.05681">
        <ele>430.554763</ele>
        <time>2014-05-18T07:34:16Z</time>
      </trkpt>
      <trkpt lat="44.08923" lon="3.05674">
        <ele>430.678708</ele>
        <time>2014-05-18T07:34:18Z</time>
      </trkpt>
      <trkpt lat="44.08924" lon="3.05667">
        <ele>430.652801</ele>
        <time>2014-05-18T07:34:20Z</time>
      </trkpt>
      <trkpt lat="44.08926" lon="3.05659">
        <ele>430.624349</ele>
        <time>2014-05-18T07:34:22Z</time>
      </trkpt>
      <trkpt lat="44.08928" lon="3.0565">
        <ele>430.585427</ele>
        <time>2014-05-18T07:34:24Z</time>
      </trkpt>
      <trkpt lat="44.08929" lon="3.05641">
        <ele>430.510557</ele>
        <time>2014-05-18T07:34:27Z</time>
      </trkpt>
      <trkpt lat="44.08931" lon="3.05632">
        <ele>430.464532</ele>
        <time>2014-05-18T07:34:29Z</time>
      </trkpt>
      <trkpt lat="44.08933" lon="3.05624">
        <ele>430.423733</ele>
        <time>2014-05-18T07:34:31Z</time>
      </trkpt>
      <trkpt lat="44.08935" lon="3.05614">
        <ele>430.425994</ele>
        <time>2014-05-18T07:34:34Z</time>
      </trkpt>
      <trkpt lat="44.08937" lon="3.05608">
        <ele>430.424269</ele>
        <time>2014-05-18T07:34:36Z</time>
      </trkpt>
      <trkpt lat="44.08939" lon="3.05601">
        <ele>430.384551</ele>
        <time>2014-05-18T07:34:38Z</time>
      </trkpt>
      <trkpt lat="44.08941" lon="3.05593">
        <ele>430.302295</ele>
        <time>2014-05-18T07:34:40Z</time>
      </trkpt>
      <trkpt lat="44.08943" lon="3.05586">
        <ele>430.227053</ele>
        <time>2014-05-18T07:34:42Z</time>
      </trkpt>
      <trkpt lat="44.08945" lon="3.05579">
        <ele>430.191542</ele>
        <time>2014-05-18T07:34:44Z</time>
      </trkpt>
      <trkpt lat="44.08946" lon="3.05572">
        <ele>430.297425</ele>
        <time>2014-05-18T07:34:46Z</time>
      </trkpt>
      <trkpt lat="44.08948" lon="3.05564">
        <ele>430.270786</ele>
        <time>2014-05-18T07:34:48Z</time>
      </trkpt>
      <trkpt lat="44.0895" lon="3.05557">
        <ele>430.212231</ele>
        <time>2014-05-18T07:34:50Z</time>
      </trkpt>
      <trkpt lat="44.08951" lon="3.0555">
        <ele>430.187577</ele>
        <time>2014-05-18T07:34:52Z</time>
      </trkpt>
      <trkpt lat="44.08952" lon="3.05543">
        <ele>430.114595</ele>
        <time>2014-05-18T07:34:54Z</time>
      </trkpt>
      <trkpt lat="44.08954" lon="3.05533">
        <ele>430.104624</ele>
        <time>2014-05-18T07:34:56Z</time>
      </trkpt>
      <trkpt lat="44.08956" lon="3.05524">
        <ele>430.145392</ele>
        <time>2014-05-18T07:34:58Z</time>
      </trkpt>
      <trkpt lat="44.08957" lon="3.05517">
        <ele>430.102273</ele>
        <time>2014-05-18T07:35:00Z</time>
      </trkpt>
      <trkpt lat="44.08959" lon="3.05509">
        <ele>429.911728</ele>
        <time>2014-05-18T07:35:02Z</time>
      </trkpt>
      <trkpt lat="44.08961" lon="3.05502">
        <ele>429.826899</ele>
        <time>2014-05-18T07:35:04Z</time>
      </trkpt>
      <trkpt lat="44.08962" lon="3.05494">
        <ele>429.64053</ele>
        <time>2014-05-18T07:35:06Z</time>
      </trkpt>
      <trkpt lat="44.08964" lon="3.05488">
        <ele>429.514868</ele>
        <time>2014-05-18T07:35:08Z</time>
      </trkpt>
      <trkpt lat="44.08964" lon="3.0548">
        <ele>429.287382</ele>
        <time>2014-05-18T07:35:10Z</time>
      </trkpt>
      <trkpt lat="44.08965" lon="3.05471">
        <ele>429.053104</ele>
        <time>2014-05-18T07:35:12Z</time>
      </trkpt>
      <trkpt lat="44.08966" lon="3.05463">
        <ele>428.972159</ele>
        <time>2014-05-18T07:35:14Z</time>
      </trkpt>
      <trkpt lat="44.08968" lon="3.05456">
        <ele>428.849094</ele>
        <time>2014-05-18T07:35:16Z</time>
      </trkpt>
      <trkpt lat="44.08969" lon="3.05448">
        <ele>428.741269</ele>
        <time>2014-05-18T07:35:18Z</time>
      </trkpt>
      <trkpt lat="44.08971" lon="3.05441">
        <ele>428.691836</ele>
        <time>2014-05-18T07:35:20Z</time>
      </trkpt>
      <trkpt lat="44.08972" lon="3.05434">
        <ele>428.660126</ele>
        <time>2014-05-18T07:35:22Z</time>
      </trkpt>
      <trkpt lat="44.08974" lon="3.05427">
        <ele>428.6837</ele>
        <time>2014-05-18T07:35:24Z</time>
      </trkpt>
      <trkpt lat="44.08978" lon="3.05419">
        <ele>428.74777</ele>
        <time>2014-05-18T07:35:26Z</time>
      </trkpt>
      <trkpt lat="44.08982" lon="3.05412">
        <ele>428.705374</ele>
        <time>2014-05-18T07:35:28Z</time>
      </trkpt>
      <trkpt lat="44.08985" lon="3.05406">
        <ele>428.61416</ele>
        <time>2014-05-18T07:35:30Z</time>
      </trkpt>
      <trkpt lat="44.08988" lon="3.054">
        <ele>428.569345</ele>
        <time>2014-05-18T07:35:32Z</time>
      </trkpt>
      <trkpt lat="44.08992" lon="3.05393">
        <ele>428.576987</ele>
        <time>2014-05-18T07:35:34Z</time>
      </trkpt>
      <trkpt lat="44.08995" lon="3.05387">
        <ele>428.570512</ele>
        <time>2014-05-18T07:35:36Z</time>
      </trkpt>
      <trkpt lat="44.08998" lon="3.0538">
        <ele>428.507526</ele>
        <time>2014-05-18T07:35:38Z</time>
      </trkpt>
      <trkpt lat="44.09" lon="3.05373">
        <ele>428.324641</ele>
        <time>2014-05-18T07:35:40Z</time>
      </trkpt>
      <trkpt lat="44.09003" lon="3.05367">
        <ele>428.165776</ele>
        <time>2014-05-18T07:35:42Z</time>
      </trkpt>
      <trkpt lat="44.09007" lon="3.05359">
        <ele>428.088394</ele>
        <time>2014-05-18T07:35:44Z</time>
      </trkpt>
      <trkpt lat="44.0901" lon="3.05352">
        <ele>428.041791</ele>
        <time>2014-05-18T07:35:46Z</time>
      </trkpt>
      <trkpt lat="44.09013" lon="3.05346">
        <ele>427.949778</ele>
        <time>2014-05-18T07:35:48Z</time>
      </trkpt>
      <trkpt lat="44.09016" lon="3.0534">
        <ele>427.815905</ele>
        <time>2014-05-18T07:35:50Z</time>
      </trkpt>
      <trkpt lat="44.09019" lon="3.05332">
        <ele>427.611255</ele>
        <time>2014-05-18T07:35:52Z</time>
      </trkpt>
      <trkpt lat="44.09023" lon="3.05325">
        <ele>427.485645</ele>
        <time>2014-05-18T07:35:54Z</time>
      </trkpt>
      <trkpt lat="44.09027" lon="3.05318">
        <ele>427.279672</ele>
        <time>2014-05-18T07:35:56Z</time>
      </trkpt>
      <trkpt lat="44.0903" lon="3.05312">
        <ele>427.134726</ele>
        <time>2014-05-18T07:35:58Z</time>
      </trkpt>
      <trkpt lat="44.09033" lon="3.05306">
        <ele>427.032539</ele>
        <time>2014-05-18T07:36:00Z</time>
      </trkpt>
      <trkpt lat="44.09036" lon="3.053">
        <ele>426.880347</ele>
        <time>2014-05-18T07:36:02Z</time>
      </trkpt>
      <trkpt lat="44.09039" lon="3.05293">
        <ele>426.630725</ele>
        <time>2014-05-18T07:36:04Z</time>
      </trkpt>
      <trkpt lat="44.09042" lon="3.05286">
        <ele>426.411681</ele>
        <time>2014-05-18T07:36:06Z</time>
      </trkpt>
      <trkpt lat="44.09046" lon="3.05279">
        <ele>426.211564</ele>
        <time>2014-05-18T07:36:08Z</time>
      </trkpt>
      <trkpt lat="44.0905" lon="3.05271">
        <ele>426.093031</ele>
        <time>2014-05-18T07:36:10Z</time>
      </trkpt>
      <trkpt lat="44.09054" lon="3.05264">
        <ele>425.872984</ele>
        <time>2014-05-18T07:36:12Z</time>
      </trkpt>
      <trkpt lat="44.09057" lon="3.05259">
        <ele>425.682729</ele>
        <time>2014-05-18T07:36:14Z</time>
      </trkpt>
      <trkpt lat="44.09059" lon="3.05253">
        <ele>425.538965</ele>
        <time>2014-05-18T07:36:16Z</time>
      </trkpt>
      <trkpt lat="44.09061" lon="3.05248">
        <ele>425.391892</ele>
        <time>2014-05-18T07:36:18Z</time>
      </trkpt>
      <trkpt lat="44.09064" lon="3.05241">
        <ele>425.352713</ele>
        <time>2014-05-18T07:36:20Z</time>
      </trkpt>
      <trkpt lat="44.09067" lon="3.05234">
        <ele>425.300882</ele>
        <time>2014-05-18T07:36:22Z</time>
      </trkpt>
      <trkpt lat="44.0907" lon="3.05228">
        <ele>425.122201</ele>
        <time>2014-05-18T07:36:24Z</time>
      </trkpt>
      <trkpt lat="44.09072" lon="3.05222">
        <ele>424.898468</ele>
        <time>2014-05-18T07:36:26Z</time>
      </trkpt>
      <trkpt lat="44.09075" lon="3.05216">
        <ele>424.753147</ele>
        <time>2014-05-18T07:36:28Z</time>
      </trkpt>
      <trkpt lat="44.09077" lon="3.05208">
        <ele>424.721871</ele>
        <time>2014-05-18T07:36:30Z</time>
      </trkpt>
      <trkpt lat="44.0908" lon="3.052">
        <ele>424.576798</ele>
        <time>2014-05-18T07:36:32Z</time>
      </trkpt>
      <trkpt lat="44.09083" lon="3.05194">
        <ele>424.366755</ele>
        <time>2014-05-18T07:36:34Z</time>
      </trkpt>
      <trkpt lat="44.09086" lon="3.05187">
        <ele>424.116321</ele>
        <time>2014-05-18T07:36:36Z</time>
      </trkpt>
      <trkpt lat="44.0909" lon="3.0518">
        <ele>423.960954</ele>
        <time>2014-05-18T07:36:38Z</time>
      </trkpt>
      <trkpt lat="44.09095" lon="3.05173">
        <ele>423.666731</ele>
        <time>2014-05-18T07:36:41Z</time>
      </trkpt>
      <trkpt lat="44.09098" lon="3.05167">
        <ele>423.47071</ele>
        <time>2014-05-18T07:36:43Z</time>
      </trkpt>
      <trkpt lat="44.09102" lon="3.05161">
        <ele>423.224155</ele>
        <time>2014-05-18T07:36:45Z</time>
      </trkpt>
      <trkpt lat="44.09107" lon="3.05153">
        <ele>422.984248</ele>
        <time>2014-05-18T07:36:47Z</time>
      </trkpt>
      <trkpt lat="44.09111" lon="3.05147">
        <ele>422.745213</ele>
        <time>2014-05-18T07:36:49Z</time>
      </trkpt>
      <trkpt lat="44.09114" lon="3.05141">
        <ele>422.628003</ele>
        <time>2014-05-18T07:36:51Z</time>
      </trkpt>
      <trkpt lat="44.0912" lon="3.05134">
        <ele>422.565892</ele>
        <time>2014-05-18T07:36:53Z</time>
      </trkpt>
      <trkpt lat="44.09123" lon="3.05128">
        <ele>422.576151</ele>
        <time>2014-05-18T07:36:55Z</time>
      </trkpt>
      <trkpt lat="44.09126" lon="3.05123">
        <ele>422.599783</ele>
        <time>2014-05-18T07:36:57Z</time>
      </trkpt>
      <trkpt lat="44.09129" lon="3.05118">
        <ele>422.575608</ele>
        <time>2014-05-18T07:36:59Z</time>
      </trkpt>
      <trkpt lat="44.09132" lon="3.05112">
        <ele>422.557669</ele>
        <time>2014-05-18T07:37:01Z</time>
      </trkpt>
      <trkpt lat="44.09135" lon="3.05107">
        <ele>422.628438</ele>
        <time>2014-05-18T07:37:03Z</time>
      </trkpt>
      <trkpt lat="44.09139" lon="3.05102">
        <ele>422.584834</ele>
        <time>2014-05-18T07:37:05Z</time>
      </trkpt>
      <trkpt lat="44.09142" lon="3.05097">
        <ele>422.570683</ele>
        <time>2014-05-18T07:37:07Z</time>
      </trkpt>
      <trkpt lat="44.09145" lon="3.0509">
        <ele>422.531059</ele>
        <time>2014-05-18T07:37:09Z</time>
      </trkpt>
      <trkpt lat="44.09149" lon="3.05084">
        <ele>422.3402</ele>
        <time>2014-05-18T07:37:11Z</time>
      </trkpt>
      <trkpt lat="44.09152" lon="3.05079">
        <ele>422.199453</ele>
        <time>2014-05-18T07:37:13Z</time>
      </trkpt>
      <trkpt lat="44.09155" lon="3.05073">
        <ele>421.94647</ele>
        <time>2014-05-18T07:37:15Z</time>
      </trkpt>
      <trkpt lat="44.09158" lon="3.05066">
        <ele>421.814598</ele>
        <time>2014-05-18T07:37:17Z</time>
      </trkpt>
      <trkpt lat="44.09162" lon="3.05059">
        <ele>421.650146</ele>
        <time>2014-05-18T07:37:19Z</time>
      </trkpt>
      <trkpt lat="44.09166" lon="3.05052">
        <ele>421.495399</ele>
        <time>2014-05-18T07:37:21Z</time>
      </trkpt>
      <trkpt lat="44.09169" lon="3.05046">
        <ele>421.324882</ele>
        <time>2014-05-18T07:37:23Z</time>
      </trkpt>
      <trkpt lat="44.09173" lon="3.0504">
        <ele>421.148299</ele>
        <time>2014-05-18T07:37:25Z</time>
      </trkpt>
      <trkpt lat="44.09176" lon="3.05033">
        <ele>421.031639</ele>
        <time>2014-05-18T07:37:27Z</time>
      </trkpt>
      <trkpt lat="44.09179" lon="3.05027">
        <ele>420.962505</ele>
        <time>2014-05-18T07:37:29Z</time>
      </trkpt>
      <trkpt lat="44.09181" lon="3.05019">
        <ele>420.880091</ele>
        <time>2014-05-18T07:37:31Z</time>
      </trkpt>
      <trkpt lat="44.09184" lon="3.05011">
        <ele>420.825038</ele>
        <time>2014-05-18T07:37:33Z</time>
      </trkpt>
      <trkpt lat="44.09186" lon="3.05005">
        <ele>420.803918</ele>
        <time>2014-05-18T07:37:35Z</time>
      </trkpt>
      <trkpt lat="44.09187" lon="3.04998">
        <ele>420.830481</ele>
        <time>2014-05-18T07:37:37Z</time>
      </trkpt>
      <trkpt lat="44.09189" lon="3.04991">
        <ele>420.812946</ele>
        <time>2014-05-18T07:37:39Z</time>
      </trkpt>
      <trkpt lat="44.09191" lon="3.04984">
        <ele>420.777934</ele>
        <time>2014-05-18T07:37:41Z</time>
      </trkpt>
      <trkpt lat="44.09193" lon="3.04976">
        <ele>420.768059</ele>
        <time>2014-05-18T07:37:43Z</time>
      </trkpt>
      <trkpt lat="44.09195" lon="3.0497">
        <ele>420.704085</ele>
        <time>2014-05-18T07:37:45Z</time>
      </trkpt>
      <trkpt lat="44.09196" lon="3.04962">
        <ele>420.649763</ele>
        <time>2014-05-18T07:37:47Z</time>
      </trkpt>
      <trkpt lat="44.09198" lon="3.04955">
        <ele>420.547777</ele>
        <time>2014-05-18T07:37:49Z</time>
      </trkpt>
      <trkpt lat="44.09199" lon="3.04948">
        <ele>420.50832</ele>
        <time>2014-05-18T07:37:51Z</time>
      </trkpt>
      <trkpt lat="44.09201" lon="3.04939">
        <ele>420.514369</ele>
        <time>2014-05-18T07:37:53Z</time>
      </trkpt>
      <trkpt lat="44.09203" lon="3.04932">
        <ele>420.509015</ele>
        <time>2014-05-18T07:37:55Z</time>
      </trkpt>
      <trkpt lat="44.09204" lon="3.04926">
        <ele>420.436013</ele>
        <time>2014-05-18T07:37:57Z</time>
      </trkpt>
      <trkpt lat="44.09205" lon="3.04919">
        <ele>420.357126</ele>
        <time>2014-05-18T07:37:59Z</time>
      </trkpt>
      <trkpt lat="44.09206" lon="3.04912">
        <ele>420.311984</ele>
        <time>2014-05-18T07:38:01Z</time>
      </trkpt>
      <trkpt lat="44.09206" lon="3.04905">
        <ele>420.300639</ele>
        <time>2014-05-18T07:38:03Z</time>
      </trkpt>
      <trkpt lat="44.09208" lon="3.04898">
        <ele>420.335197</ele>
        <time>2014-05-18T07:38:05Z</time>
      </trkpt>
      <trkpt lat="44.09209" lon="3.0489">
        <ele>420.371117</ele>
        <time>2014-05-18T07:38:07Z</time>
      </trkpt>
      <trkpt lat="44.0921" lon="3.04883">
        <ele>420.399773</ele>
        <time>2014-05-18T07:38:09Z</time>
      </trkpt>
      <trkpt lat="44.09211" lon="3.04875">
        <ele>420.452479</ele>
        <time>2014-05-18T07:38:11Z</time>
      </trkpt>
      <trkpt lat="44.09212" lon="3.04866">
        <ele>420.435445</ele>
        <time>2014-05-18T07:38:13Z</time>
      </trkpt>
      <trkpt lat="44.09214" lon="3.0486">
        <ele>420.348987</ele>
        <time>2014-05-18T07:38:15Z</time>
      </trkpt>
      <trkpt lat="44.09216" lon="3.04852">
        <ele>420.273304</ele>
        <time>2014-05-18T07:38:17Z</time>
      </trkpt>
      <trkpt lat="44.09217" lon="3.04843">
        <ele>420.11088</ele>
        <time>2014-05-18T07:38:19Z</time>
      </trkpt>
      <trkpt lat="44.09219" lon="3.04834">
        <ele>419.997468</ele>
        <time>2014-05-18T07:38:21Z</time>
      </trkpt>
      <trkpt lat="44.0922" lon="3.04827">
        <ele>420.012104</ele>
        <time>2014-05-18T07:38:23Z</time>
      </trkpt>
      <trkpt lat="44.0922" lon="3.0482">
        <ele>419.996927</ele>
        <time>2014-05-18T07:38:25Z</time>
      </trkpt>
      <trkpt lat="44.0922" lon="3.04813">
        <ele>419.988901</ele>
        <time>2014-05-18T07:38:27Z</time>
      </trkpt>
      <trkpt lat="44.0922" lon="3.04806">
        <ele>419.928908</ele>
        <time>2014-05-18T07:38:29Z</time>
      </trkpt>
      <trkpt lat="44.09219" lon="3.04798">
        <ele>419.81799</ele>
        <time>2014-05-18T07:38:31Z</time>
      </trkpt>
      <trkpt lat="44.0922" lon="3.0479">
        <ele>419.67624</ele>
        <time>2014-05-18T07:38:33Z</time>
      </trkpt>
      <trkpt lat="44.09221" lon="3.04783">
        <ele>419.651348</ele>
        <time>2014-05-18T07:38:35Z</time>
      </trkpt>
      <trkpt lat="44.0922" lon="3.04774">
        <ele>419.630084</ele>
        <time>2014-05-18T07:38:37Z</time>
      </trkpt>
      <trkpt lat="44.0922" lon="3.04766">
        <ele>419.61553</ele>
        <time>2014-05-18T07:38:39Z</time>
      </trkpt>
      <trkpt lat="44.09221" lon="3.04758">
        <ele>419.575359</ele>
        <time>2014-05-18T07:38:41Z</time>
      </trkpt>
      <trkpt lat="44.09221" lon="3.0475">
        <ele>419.613763</ele>
        <time>2014-05-18T07:38:43Z</time>
      </trkpt>
      <trkpt lat="44.09221" lon="3.04743">
        <ele>419.58446</ele>
        <time>2014-05-18T07:38:45Z</time>
      </trkpt>
      <trkpt lat="44.09221" lon="3.04736">
        <ele>419.521148</ele>
        <time>2014-05-18T07:38:47Z</time>
      </trkpt>
      <trkpt lat="44.0922" lon="3.04728">
        <ele>419.586169</ele>
        <time>2014-05-18T07:38:49Z</time>
      </trkpt>
      <trkpt lat="44.0922" lon="3.0472">
        <ele>419.682975</ele>
        <time>2014-05-18T07:38:51Z</time>
      </trkpt>
      <trkpt lat="44.09219" lon="3.04711">
        <ele>419.718507</ele>
        <time>2014-05-18T07:38:53Z</time>
      </trkpt>
      <trkpt lat="44.09219" lon="3.04703">
        <ele>419.707692</ele>
        <time>2014-05-18T07:38:55Z</time>
      </trkpt>
      <trkpt lat="44.09217" lon="3.04695">
        <ele>419.686177</ele>
        <time>2014-05-18T07:38:57Z</time>
      </trkpt>
      <trkpt lat="44.09216" lon="3.04688">
        <ele>419.641062</ele>
        <time>2014-05-18T07:38:59Z</time>
      </trkpt>
      <trkpt lat="44.09215" lon="3.0468">
        <ele>419.677492</ele>
        <time>2014-05-18T07:39:01Z</time>
      </trkpt>
      <trkpt lat="44.09213" lon="3.04669">
        <ele>419.682293</ele>
        <time>2014-05-18T07:39:03Z</time>
      </trkpt>
      <trkpt lat="44.09212" lon="3.04662">
        <ele>419.639066</ele>
        <time>2014-05-18T07:39:05Z</time>
      </trkpt>
      <trkpt lat="44.09209" lon="3.04652">
        <ele>419.644649</ele>
        <time>2014-05-18T07:39:08Z</time>
      </trkpt>
      <trkpt lat="44.09207" lon="3.04645">
        <ele>419.650783</ele>
        <time>2014-05-18T07:39:10Z</time>
      </trkpt>
      <trkpt lat="44.09205" lon="3.04637">
        <ele>419.643313</ele>
        <time>2014-05-18T07:39:12Z</time>
      </trkpt>
      <trkpt lat="44.09204" lon="3.04629">
        <ele>419.681066</ele>
        <time>2014-05-18T07:39:14Z</time>
      </trkpt>
      <trkpt lat="44.09202" lon="3.0462">
        <ele>419.705774</ele>
        <time>2014-05-18T07:39:16Z</time>
      </trkpt>
      <trkpt lat="44.092" lon="3.04613">
        <ele>419.809817</ele>
        <time>2014-05-18T07:39:18Z</time>
      </trkpt>
      <trkpt lat="44.09198" lon="3.04607">
        <ele>419.910955</ele>
        <time>2014-05-18T07:39:20Z</time>
      </trkpt>
      <trkpt lat="44.09197" lon="3.04599">
        <ele>419.923722</ele>
        <time>2014-05-18T07:39:22Z</time>
      </trkpt>
      <trkpt lat="44.09195" lon="3.04591">
        <ele>419.845001</ele>
        <time>2014-05-18T07:39:24Z</time>
      </trkpt>
      <trkpt lat="44.09194" lon="3.04583">
        <ele>419.736135</ele>
        <time>2014-05-18T07:39:26Z</time>
      </trkpt>
      <trkpt lat="44.09192" lon="3.04575">
        <ele>419.495591</ele>
        <time>2014-05-18T07:39:28Z</time>
      </trkpt>
      <trkpt lat="44.0919" lon="3.04568">
        <ele>419.289612</ele>
        <time>2014-05-18T07:39:30Z</time>
      </trkpt>
      <trkpt lat="44.0919" lon="3.04559">
        <ele>419.181884</ele>
        <time>2014-05-18T07:39:32Z</time>
      </trkpt>
      <trkpt lat="44.09188" lon="3.04553">
        <ele>419.11352</ele>
        <time>2014-05-18T07:39:34Z</time>
      </trkpt>
      <trkpt lat="44.09187" lon="3.04545">
        <ele>419.123257</ele>
        <time>2014-05-18T07:39:36Z</time>
      </trkpt>
      <trkpt lat="44.09186" lon="3.04538">
        <ele>419.052689</ele>
        <time>2014-05-18T07:39:38Z</time>
      </trkpt>
      <trkpt lat="44.09184" lon="3.04531">
        <ele>418.9865</ele>
        <time>2014-05-18T07:39:40Z</time>
      </trkpt>
      <trkpt lat="44.09182" lon="3.04524">
        <ele>418.992994</ele>
        <time>2014-05-18T07:39:42Z</time>
      </trkpt>
      <trkpt lat="44.0918" lon="3.04516">
        <ele>419.030597</ele>
        <time>2014-05-18T07:39:44Z</time>
      </trkpt>
      <trkpt lat="44.09177" lon="3.04506">
        <ele>419.039525</ele>
        <time>2014-05-18T07:39:46Z</time>
      </trkpt>
      <trkpt lat="44.09175" lon="3.04498">
        <ele>418.982006</ele>
        <time>2014-05-18T07:39:48Z</time>
      </trkpt>
      <trkpt lat="44.09174" lon="3.0449">
        <ele>418.902837</ele>
        <time>2014-05-18T07:39:50Z</time>
      </trkpt>
      <trkpt lat="44.09173" lon="3.04482">
        <ele>418.881544</ele>
        <time>2014-05-18T07:39:52Z</time>
      </trkpt>
      <trkpt lat="44.09173" lon="3.04474">
        <ele>418.871475</ele>
        <time>2014-05-18T07:39:54Z</time>
      </trkpt>
      <trkpt lat="44.09172" lon="3.04467">
        <ele>418.904609</ele>
        <time>2014-05-18T07:39:56Z</time>
      </trkpt>
      <trkpt lat="44.09171" lon="3.0446">
        <ele>418.852922</ele>
        <time>2014-05-18T07:39:58Z</time>
      </trkpt>
      <trkpt lat="44.09169" lon="3.0445">
        <ele>418.72251</ele>
        <time>2014-05-18T07:40:00Z</time>
      </trkpt>
      <trkpt lat="44.09166" lon="3.04443">
        <ele>418.636672</ele>
        <time>2014-05-18T07:40:02Z</time>
      </trkpt>
      <trkpt lat="44.09164" lon="3.04436">
        <ele>418.537632</ele>
        <time>2014-05-18T07:40:04Z</time>
      </trkpt>
      <trkpt lat="44.09162" lon="3.04429">
        <ele>418.441346</ele>
        <time>2014-05-18T07:40:06Z</time>
      </trkpt>
      <trkpt lat="44.09159" lon="3.0442">
        <ele>418.549423</ele>
        <time>2014-05-18T07:40:09Z</time>
      </trkpt>
      <trkpt lat="44.09157" lon="3.04412">
        <ele>418.684409</ele>
        <time>2014-05-18T07:40:11Z</time>
      </trkpt>
      <trkpt lat="44.09154" lon="3.04403">
        <ele>418.843281</ele>
        <time>2014-05-18T07:40:13Z</time>
      </trkpt>
      <trkpt lat="44.09153" lon="3.04393">
        <ele>418.914209</ele>
        <time>2014-05-18T07:40:15Z</time>
      </trkpt>
      <trkpt lat="44.0915" lon="3.04387">
        <ele>419.065265</ele>
        <time>2014-05-18T07:40:17Z</time>
      </trkpt>
      <trkpt lat="44.09149" lon="3.04379">
        <ele>419.178422</ele>
        <time>2014-05-18T07:40:19Z</time>
      </trkpt>
      <trkpt lat="44.09148" lon="3.04372">
        <ele>419.190253</ele>
        <time>2014-05-18T07:40:21Z</time>
      </trkpt>
      <trkpt lat="44.09147" lon="3.04364">
        <ele>419.31504</ele>
        <time>2014-05-18T07:40:23Z</time>
      </trkpt>
      <trkpt lat="44.09147" lon="3.04358">
        <ele>419.398542</ele>
        <time>2014-05-18T07:40:25Z</time>
      </trkpt>
      <trkpt lat="44.09147" lon="3.0435">
        <ele>419.491578</ele>
        <time>2014-05-18T07:40:27Z</time>
      </trkpt>
      <trkpt lat="44.09147" lon="3.04342">
        <ele>419.467995</ele>
        <time>2014-05-18T07:40:29Z</time>
      </trkpt>
      <trkpt lat="44.09146" lon="3.04334">
        <ele>419.403732</ele>
        <time>2014-05-18T07:40:31Z</time>
      </trkpt>
      <trkpt lat="44.09146" lon="3.04326">
        <ele>419.391772</ele>
        <time>2014-05-18T07:40:33Z</time>
      </trkpt>
      <trkpt lat="44.09145" lon="3.04319">
        <ele>419.305387</ele>
        <time>2014-05-18T07:40:35Z</time>
      </trkpt>
      <trkpt lat="44.09144" lon="3.04309">
        <ele>419.22188</ele>
        <time>2014-05-18T07:40:37Z</time>
      </trkpt>
      <trkpt lat="44.09144" lon="3.04302">
        <ele>419.137623</ele>
        <time>2014-05-18T07:40:39Z</time>
      </trkpt>
      <trkpt lat="44.09143" lon="3.04295">
        <ele>419.020622</ele>
        <time>2014-05-18T07:40:41Z</time>
      </trkpt>
      <trkpt lat="44.09144" lon="3.04288">
        <ele>418.965068</ele>
        <time>2014-05-18T07:40:43Z</time>
      </trkpt>
      <trkpt lat="44.09144" lon="3.0428">
        <ele>418.946363</ele>
        <time>2014-05-18T07:40:45Z</time>
      </trkpt>
      <trkpt lat="44.09145" lon="3.04271">
        <ele>418.985828</ele>
        <time>2014-05-18T07:40:47Z</time>
      </trkpt>
      <trkpt lat="44.09144" lon="3.04262">
        <ele>418.962784</ele>
        <time>2014-05-18T07:40:49Z</time>
      </trkpt>
      <trkpt lat="44.09144" lon="3.04255">
        <ele>418.975503</ele>
        <time>2014-05-18T07:40:51Z</time>
      </trkpt>
      <trkpt lat="44.09145" lon="3.04248">
        <ele>418.909403</ele>
        <time>2014-05-18T07:40:53Z</time>
      </trkpt>
      <trkpt lat="44.09145" lon="3.04241">
        <ele>418.810063</ele>
        <time>2014-05-18T07:40:55Z</time>
      </trkpt>
      <trkpt lat="44.09146" lon="3.04233">
        <ele>418.676964</ele>
        <time>2014-05-18T07:40:57Z</time>
      </trkpt>
      <trkpt lat="44.09148" lon="3.04224">
        <ele>418.513358</ele>
        <time>2014-05-18T07:40:59Z</time>
      </trkpt>
      <trkpt lat="44.0915" lon="3.04217">
        <ele>418.423876</ele>
        <time>2014-05-18T07:41:01Z</time>
      </trkpt>
      <trkpt lat="44.09152" lon="3.04208">
        <ele>418.301361</ele>
        <time>2014-05-18T07:41:03Z</time>
      </trkpt>
      <trkpt lat="44.09153" lon="3.04202">
        <ele>418.152973</ele>
        <time>2014-05-18T07:41:05Z</time>
      </trkpt>
      <trkpt lat="44.09153" lon="3.04195">
        <ele>418.022489</ele>
        <time>2014-05-18T07:41:07Z</time>
      </trkpt>
      <trkpt lat="44.09155" lon="3.04189">
        <ele>417.956754</ele>
        <time>2014-05-18T07:41:09Z</time>
      </trkpt>
      <trkpt lat="44.09156" lon="3.04181">
        <ele>417.907882</ele>
        <time>2014-05-18T07:41:11Z</time>
      </trkpt>
      <trkpt lat="44.09158" lon="3.04173">
        <ele>417.84739</ele>
        <time>2014-05-18T07:41:13Z</time>
      </trkpt>
      <trkpt lat="44.0916" lon="3.04167">
        <ele>417.88276</ele>
        <time>2014-05-18T07:41:15Z</time>
      </trkpt>
      <trkpt lat="44.09162" lon="3.0416">
        <ele>417.888738</ele>
        <time>2014-05-18T07:41:17Z</time>
      </trkpt>
      <trkpt lat="44.09164" lon="3.04153">
        <ele>417.789612</ele>
        <time>2014-05-18T07:41:19Z</time>
      </trkpt>
      <trkpt lat="44.09167" lon="3.04146">
        <ele>417.724141</ele>
        <time>2014-05-18T07:41:21Z</time>
      </trkpt>
      <trkpt lat="44.09169" lon="3.04139">
        <ele>417.685164</ele>
        <time>2014-05-18T07:41:23Z</time>
      </trkpt>
      <trkpt lat="44.09172" lon="3.04132">
        <ele>417.604066</ele>
        <time>2014-05-18T07:41:25Z</time>
      </trkpt>
      <trkpt lat="44.09176" lon="3.04126">
        <ele>417.502971</ele>
        <time>2014-05-18T07:41:27Z</time>
      </trkpt>
      <trkpt lat="44.0918" lon="3.04118">
        <ele>417.490171</ele>
        <time>2014-05-18T07:41:29Z</time>
      </trkpt>
      <trkpt lat="44.09184" lon="3.04112">
        <ele>417.454181</ele>
        <time>2014-05-18T07:41:31Z</time>
      </trkpt>
      <trkpt lat="44.09188" lon="3.04106">
        <ele>417.447436</ele>
        <time>2014-05-18T07:41:33Z</time>
      </trkpt>
      <trkpt lat="44.09193" lon="3.041">
        <ele>417.547037</ele>
        <time>2014-05-18T07:41:35Z</time>
      </trkpt>
      <trkpt lat="44.09196" lon="3.04095">
        <ele>417.608131</ele>
        <time>2014-05-18T07:41:37Z</time>
      </trkpt>
      <trkpt lat="44.092" lon="3.04089">
        <ele>417.609899</ele>
        <time>2014-05-18T07:41:39Z</time>
      </trkpt>
      <trkpt lat="44.09204" lon="3.04083">
        <ele>417.587541</ele>
        <time>2014-05-18T07:41:41Z</time>
      </trkpt>
      <trkpt lat="44.09208" lon="3.04078">
        <ele>417.61808</ele>
        <time>2014-05-18T07:41:43Z</time>
      </trkpt>
      <trkpt lat="44.09212" lon="3.04072">
        <ele>417.567406</ele>
        <time>2014-05-18T07:41:45Z</time>
      </trkpt>
      <trkpt lat="44.09215" lon="3.04065">
        <ele>417.461247</ele>
        <time>2014-05-18T07:41:47Z</time>
      </trkpt>
      <trkpt lat="44.09219" lon="3.0406">
        <ele>417.320135</ele>
        <time>2014-05-18T07:41:49Z</time>
      </trkpt>
      <trkpt lat="44.09223" lon="3.04054">
        <ele>417.096269</ele>
        <time>2014-05-18T07:41:51Z</time>
      </trkpt>
      <trkpt lat="44.09227" lon="3.04048">
        <ele>417.061695</ele>
        <time>2014-05-18T07:41:53Z</time>
      </trkpt>
      <trkpt lat="44.09232" lon="3.04042">
        <ele>417.014267</ele>
        <time>2014-05-18T07:41:55Z</time>
      </trkpt>
      <trkpt lat="44.09235" lon="3.04037">
        <ele>416.988766</ele>
        <time>2014-05-18T07:41:57Z</time>
      </trkpt>
      <trkpt lat="44.09239" lon="3.04031">
        <ele>417.01342</ele>
        <time>2014-05-18T07:41:59Z</time>
      </trkpt>
      <trkpt lat="44.09242" lon="3.04026">
        <ele>416.959379</ele>
        <time>2014-05-18T07:42:01Z</time>
      </trkpt>
      <trkpt lat="44.09246" lon="3.04021">
        <ele>416.815248</ele>
        <time>2014-05-18T07:42:03Z</time>
      </trkpt>
      <trkpt lat="44.09249" lon="3.04016">
        <ele>416.665767</ele>
        <time>2014-05-18T07:42:05Z</time>
      </trkpt>
      <trkpt lat="44.09252" lon="3.04011">
        <ele>416.551162</ele>
        <time>2014-05-18T07:42:07Z</time>
      </trkpt>
      <trkpt lat="44.09256" lon="3.04007">
        <ele>416.507277</ele>
        <time>2014-05-18T07:42:09Z</time>
      </trkpt>
      <trkpt lat="44.09259" lon="3.04001">
        <ele>416.40151</ele>
        <time>2014-05-18T07:42:11Z</time>
      </trkpt>
      <trkpt lat="44.09262" lon="3.03995">
        <ele>416.408962</ele>
        <time>2014-05-18T07:42:13Z</time>
      </trkpt>
      <trkpt lat="44.09266" lon="3.0399">
        <ele>416.502829</ele>
        <time>2014-05-18T07:42:15Z</time>
      </trkpt>
      <trkpt lat="44.09269" lon="3.03984">
        <ele>416.599494</ele>
        <time>2014-05-18T07:42:17Z</time>
      </trkpt>
      <trkpt lat="44.09274" lon="3.03978">
        <ele>416.605475</ele>
        <time>2014-05-18T07:42:19Z</time>
      </trkpt>
      <trkpt lat="44.09278" lon="3.03971">
        <ele>416.602631</ele>
        <time>2014-05-18T07:42:21Z</time>
      </trkpt>
      <trkpt lat="44.09282" lon="3.03965">
        <ele>416.675816</ele>
        <time>2014-05-18T07:42:23Z</time>
      </trkpt>
      <trkpt lat="44.09287" lon="3.0396">
        <ele>416.578316</ele>
        <time>2014-05-18T07:42:25Z</time>
      </trkpt>
      <trkpt lat="44.09292" lon="3.03953">
        <ele>416.52484</ele>
        <time>2014-05-18T07:42:27Z</time>
      </trkpt>
      <trkpt lat="44.09296" lon="3.03946">
        <ele>416.522205</ele>
        <time>2014-05-18T07:42:29Z</time>
      </trkpt>
      <trkpt lat="44.09299" lon="3.0394">
        <ele>416.627622</ele>
        <time>2014-05-18T07:42:31Z</time>
      </trkpt>
      <trkpt lat="44.09303" lon="3.03933">
        <ele>416.744266</ele>
        <time>2014-05-18T07:42:34Z</time>
      </trkpt>
      <trkpt lat="44.09306" lon="3.03925">
        <ele>416.697626</ele>
        <time>2014-05-18T07:42:37Z</time>
      </trkpt>
      <trkpt lat="44.0931" lon="3.03919">
        <ele>416.761161</ele>
        <time>2014-05-18T07:42:39Z</time>
      </trkpt>
      <trkpt lat="44.09313" lon="3.03913">
        <ele>416.82893</ele>
        <time>2014-05-18T07:42:41Z</time>
      </trkpt>
      <trkpt lat="44.09318" lon="3.03905">
        <ele>416.868986</ele>
        <time>2014-05-18T07:42:43Z</time>
      </trkpt>
      <trkpt lat="44.09322" lon="3.039">
        <ele>416.851694</ele>
        <time>2014-05-18T07:42:45Z</time>
      </trkpt>
      <trkpt lat="44.09326" lon="3.03895">
        <ele>416.921337</ele>
        <time>2014-05-18T07:42:47Z</time>
      </trkpt>
      <trkpt lat="44.09331" lon="3.03889">
        <ele>417.069065</ele>
        <time>2014-05-18T07:42:50Z</time>
      </trkpt>
      <trkpt lat="44.09336" lon="3.03882">
        <ele>417.211621</ele>
        <time>2014-05-18T07:42:52Z</time>
      </trkpt>
      <trkpt lat="44.09339" lon="3.03877">
        <ele>417.327594</ele>
        <time>2014-05-18T07:42:54Z</time>
      </trkpt>
      <trkpt lat="44.09343" lon="3.03871">
        <ele>417.398436</ele>
        <time>2014-05-18T07:42:56Z</time>
      </trkpt>
      <trkpt lat="44.09346" lon="3.03864">
        <ele>417.466345</ele>
        <time>2014-05-18T07:42:58Z</time>
      </trkpt>
      <trkpt lat="44.09349" lon="3.03856">
        <ele>417.627339</ele>
        <time>2014-05-18T07:43:00Z</time>
      </trkpt>
      <trkpt lat="44.09352" lon="3.03849">
        <ele>417.758575</ele>
        <time>2014-05-18T07:43:02Z</time>
      </trkpt>
      <trkpt lat="44.09355" lon="3.03843">
        <ele>417.765562</ele>
        <time>2014-05-18T07:43:04Z</time>
      </trkpt>
      <trkpt lat="44.09358" lon="3.03836">
        <ele>417.689377</ele>
        <time>2014-05-18T07:43:06Z</time>
      </trkpt>
      <trkpt lat="44.0936" lon="3.0383">
        <ele>417.643357</ele>
        <time>2014-05-18T07:43:08Z</time>
      </trkpt>
      <trkpt lat="44.09363" lon="3.03823">
        <ele>417.650214</ele>
        <time>2014-05-18T07:43:10Z</time>
      </trkpt>
      <trkpt lat="44.09366" lon="3.03818">
        <ele>417.581365</ele>
        <time>2014-05-18T07:43:12Z</time>
      </trkpt>
      <trkpt lat="44.09369" lon="3.03812">
        <ele>417.589934</ele>
        <time>2014-05-18T07:43:14Z</time>
      </trkpt>
      <trkpt lat="44.09371" lon="3.03805">
        <ele>417.612608</ele>
        <time>2014-05-18T07:43:16Z</time>
      </trkpt>
      <trkpt lat="44.09374" lon="3.03798">
        <ele>417.545235</ele>
        <time>2014-05-18T07:43:18Z</time>
      </trkpt>
      <trkpt lat="44.09377" lon="3.03792">
        <ele>417.46601</ele>
        <time>2014-05-18T07:43:20Z</time>
      </trkpt>
      <trkpt lat="44.09379" lon="3.03785">
        <ele>417.327956</ele>
        <time>2014-05-18T07:43:22Z</time>
      </trkpt>
      <trkpt lat="44.09381" lon="3.03778">
        <ele>417.360378</ele>
        <time>2014-05-18T07:43:24Z</time>
      </trkpt>
      <trkpt lat="44.09382" lon="3.03772">
        <ele>417.467755</ele>
        <time>2014-05-18T07:43:26Z</time>
      </trkpt>
      <trkpt lat="44.09383" lon="3.03766">
        <ele>417.479915</ele>
        <time>2014-05-18T07:43:30Z</time>
      </trkpt>
      <trkpt lat="44.09384" lon="3.03758">
        <ele>417.470037</ele>
        <time>2014-05-18T07:43:34Z</time>
      </trkpt>
      <trkpt lat="44.09386" lon="3.03753">
        <ele>417.579429</ele>
        <time>2014-05-18T07:43:37Z</time>
      </trkpt>
      <trkpt lat="44.09389" lon="3.03746">
        <ele>417.706903</ele>
        <time>2014-05-18T07:43:41Z</time>
      </trkpt>
      <trkpt lat="44.09392" lon="3.0374">
        <ele>417.971948</ele>
        <time>2014-05-18T07:43:45Z</time>
      </trkpt>
      <trkpt lat="44.09394" lon="3.03734">
        <ele>417.903089</ele>
        <time>2014-05-18T07:43:48Z</time>
      </trkpt>
      <trkpt lat="44.09394" lon="3.03726">
        <ele>417.851532</ele>
        <time>2014-05-18T07:43:52Z</time>
      </trkpt>
      <trkpt lat="44.09395" lon="3.03719">
        <ele>418.183731</ele>
        <time>2014-05-18T07:43:56Z</time>
      </trkpt>
      <trkpt lat="44.09396" lon="3.03712">
        <ele>418.310978</ele>
        <time>2014-05-18T07:44:00Z</time>
      </trkpt>
      <trkpt lat="44.09398" lon="3.03706">
        <ele>417.697611</ele>
        <time>2014-05-18T07:44:05Z</time>
      </trkpt>
      <trkpt lat="44.094" lon="3.03699">
        <ele>417.697883</ele>
        <time>2014-05-18T07:44:08Z</time>
      </trkpt>
      <trkpt lat="44.09402" lon="3.03692">
        <ele>417.678489</ele>
        <time>2014-05-18T07:44:12Z</time>
      </trkpt>
      <trkpt lat="44.09404" lon="3.03685">
        <ele>417.519591</ele>
        <time>2014-05-18T07:44:15Z</time>
      </trkpt>
      <trkpt lat="44.09406" lon="3.03678">
        <ele>417.110735</ele>
        <time>2014-05-18T07:44:19Z</time>
      </trkpt>
      <trkpt lat="44.09407" lon="3.03671">
        <ele>416.876941</ele>
        <time>2014-05-18T07:44:22Z</time>
      </trkpt>
      <trkpt lat="44.09408" lon="3.03665">
        <ele>416.93226</ele>
        <time>2014-05-18T07:44:26Z</time>
      </trkpt>
      <trkpt lat="44.09408" lon="3.03657">
        <ele>416.703429</ele>
        <time>2014-05-18T07:44:30Z</time>
      </trkpt>
      <trkpt lat="44.09409" lon="3.0365">
        <ele>416.507999</ele>
        <time>2014-05-18T07:44:32Z</time>
      </trkpt>
      <trkpt lat="44.09409" lon="3.0364">
        <ele>416.275147</ele>
        <time>2014-05-18T07:44:34Z</time>
      </trkpt>
      <trkpt lat="44.0941" lon="3.03632">
        <ele>416.077023</ele>
        <time>2014-05-18T07:44:36Z</time>
      </trkpt>
      <trkpt lat="44.09412" lon="3.03624">
        <ele>415.968722</ele>
        <time>2014-05-18T07:44:38Z</time>
      </trkpt>
      <trkpt lat="44.09413" lon="3.03617">
        <ele>415.839122</ele>
        <time>2014-05-18T07:44:40Z</time>
      </trkpt>
      <trkpt lat="44.09413" lon="3.0361">
        <ele>415.699857</ele>
        <time>2014-05-18T07:44:42Z</time>
      </trkpt>
      <trkpt lat="44.09413" lon="3.03602">
        <ele>415.565466</ele>
        <time>2014-05-18T07:44:44Z</time>
      </trkpt>
      <trkpt lat="44.09414" lon="3.03594">
        <ele>415.553125</ele>
        <time>2014-05-18T07:44:46Z</time>
      </trkpt>
      <trkpt lat="44.09415" lon="3.03585">
        <ele>415.543593</ele>
        <time>2014-05-18T07:44:48Z</time>
      </trkpt>
      <trkpt lat="44.09416" lon="3.03579">
        <ele>415.609943</ele>
        <time>2014-05-18T07:44:50Z</time>
      </trkpt>
      <trkpt lat="44.09417" lon="3.0357">
        <ele>415.58183</ele>
        <time>2014-05-18T07:44:52Z</time>
      </trkpt>
      <trkpt lat="44.09418" lon="3.0356">
        <ele>415.512785</ele>
        <time>2014-05-18T07:44:54Z</time>
      </trkpt>
      <trkpt lat="44.09418" lon="3.03554">
        <ele>415.406927</ele>
        <time>2014-05-18T07:44:56Z</time>
      </trkpt>
      <trkpt lat="44.09419" lon="3.03546">
        <ele>415.401636</ele>
        <time>2014-05-18T07:44:58Z</time>
      </trkpt>
      <trkpt lat="44.09421" lon="3.03537">
        <ele>415.358191</ele>
        <time>2014-05-18T07:45:00Z</time>
      </trkpt>
      <trkpt lat="44.09422" lon="3.03528">
        <ele>415.285375</ele>
        <time>2014-05-18T07:45:02Z</time>
      </trkpt>
      <trkpt lat="44.09423" lon="3.03519">
        <ele>415.110027</ele>
        <time>2014-05-18T07:45:04Z</time>
      </trkpt>
      <trkpt lat="44.09425" lon="3.03512">
        <ele>414.932954</ele>
        <time>2014-05-18T07:45:06Z</time>
      </trkpt>
      <trkpt lat="44.09426" lon="3.03505">
        <ele>414.81178</ele>
        <time>2014-05-18T07:45:08Z</time>
      </trkpt>
      <trkpt lat="44.09428" lon="3.03496">
        <ele>414.753946</ele>
        <time>2014-05-18T07:45:10Z</time>
      </trkpt>
      <trkpt lat="44.0943" lon="3.03486">
        <ele>414.522325</ele>
        <time>2014-05-18T07:45:12Z</time>
      </trkpt>
      <trkpt lat="44.09431" lon="3.03478">
        <ele>414.354101</ele>
        <time>2014-05-18T07:45:14Z</time>
      </trkpt>
      <trkpt lat="44.09432" lon="3.0347">
        <ele>414.341995</ele>
        <time>2014-05-18T07:45:16Z</time>
      </trkpt>
      <trkpt lat="44.09433" lon="3.03462">
        <ele>414.302755</ele>
        <time>2014-05-18T07:45:18Z</time>
      </trkpt>
      <trkpt lat="44.09434" lon="3.03453">
        <ele>414.264591</ele>
        <time>2014-05-18T07:45:20Z</time>
      </trkpt>
      <trkpt lat="44.09434" lon="3.03446">
        <ele>414.384343</ele>
        <time>2014-05-18T07:45:22Z</time>
      </trkpt>
      <trkpt lat="44.09434" lon="3.03439">
        <ele>414.462064</ele>
        <time>2014-05-18T07:45:24Z</time>
      </trkpt>
      <trkpt lat="44.09434" lon="3.03432">
        <ele>414.535386</ele>
        <time>2014-05-18T07:45:26Z</time>
      </trkpt>
      <trkpt lat="44.09435" lon="3.03423">
        <ele>414.484892</ele>
        <time>2014-05-18T07:45:28Z</time>
      </trkpt>
      <trkpt lat="44.09436" lon="3.03414">
        <ele>414.366097</ele>
        <time>2014-05-18T07:45:30Z</time>
      </trkpt>
      <trkpt lat="44.09437" lon="3.03408">
        <ele>414.203937</ele>
        <time>2014-05-18T07:45:32Z</time>
      </trkpt>
      <trkpt lat="44.09437" lon="3.03399">
        <ele>414.069295</ele>
        <time>2014-05-18T07:45:34Z</time>
      </trkpt>
      <trkpt lat="44.09436" lon="3.03391">
        <ele>414.012812</ele>
        <time>2014-05-18T07:45:36Z</time>
      </trkpt>
      <trkpt lat="44.09437" lon="3.03383">
        <ele>414.01867</ele>
        <time>2014-05-18T07:45:38Z</time>
      </trkpt>
      <trkpt lat="44.09436" lon="3.03375">
        <ele>414.011732</ele>
        <time>2014-05-18T07:45:40Z</time>
      </trkpt>
      <trkpt lat="44.09436" lon="3.03369">
        <ele>413.94391</ele>
        <time>2014-05-18T07:45:42Z</time>
      </trkpt>
      <trkpt lat="44.09434" lon="3.03361">
        <ele>413.845667</ele>
        <time>2014-05-18T07:45:44Z</time>
      </trkpt>
      <trkpt lat="44.09433" lon="3.03352">
        <ele>413.79609</ele>
        <time>2014-05-18T07:45:46Z</time>
      </trkpt>
      <trkpt lat="44.09431" lon="3.03346">
        <ele>413.73811</ele>
        <time>2014-05-18T07:45:48Z</time>
      </trkpt>
      <trkpt lat="44.09429" lon="3.03339">
        <ele>413.684135</ele>
        <time>2014-05-18T07:45:50Z</time>
      </trkpt>
      <trkpt lat="44.09428" lon="3.03331">
        <ele>413.619896</ele>
        <time>2014-05-18T07:45:52Z</time>
      </trkpt>
      <trkpt lat="44.09425" lon="3.03322">
        <ele>413.517957</ele>
        <time>2014-05-18T07:45:54Z</time>
      </trkpt>
      <trkpt lat="44.09422" lon="3.03314">
        <ele>413.285489</ele>
        <time>2014-05-18T07:45:56Z</time>
      </trkpt>
      <trkpt lat="44.0942" lon="3.03305">
        <ele>413.154361</ele>
        <time>2014-05-18T07:45:58Z</time>
      </trkpt>
      <trkpt lat="44.09418" lon="3.03298">
        <ele>412.920751</ele>
        <time>2014-05-18T07:46:00Z</time>
      </trkpt>
      <trkpt lat="44.09417" lon="3.0329">
        <ele>412.591242</ele>
        <time>2014-05-18T07:46:02Z</time>
      </trkpt>
      <trkpt lat="44.09416" lon="3.03283">
        <ele>412.411445</ele>
        <time>2014-05-18T07:46:04Z</time>
      </trkpt>
      <trkpt lat="44.09413" lon="3.03275">
        <ele>412.359389</ele>
        <time>2014-05-18T07:46:06Z</time>
      </trkpt>
      <trkpt lat="44.0941" lon="3.03268">
        <ele>412.370682</ele>
        <time>2014-05-18T07:46:08Z</time>
      </trkpt>
      <trkpt lat="44.09407" lon="3.0326">
        <ele>412.47626</ele>
        <time>2014-05-18T07:46:10Z</time>
      </trkpt>
      <trkpt lat="44.09404" lon="3.03252">
        <ele>412.532314</ele>
        <time>2014-05-18T07:46:12Z</time>
      </trkpt>
      <trkpt lat="44.09402" lon="3.03246">
        <ele>412.554859</ele>
        <time>2014-05-18T07:46:14Z</time>
      </trkpt>
      <trkpt lat="44.09399" lon="3.03241">
        <ele>412.556169</ele>
        <time>2014-05-18T07:46:16Z</time>
      </trkpt>
      <trkpt lat="44.09395" lon="3.03233">
        <ele>412.498498</ele>
        <time>2014-05-18T07:46:18Z</time>
      </trkpt>
      <trkpt lat="44.09393" lon="3.03227">
        <ele>412.461516</ele>
        <time>2014-05-18T07:46:20Z</time>
      </trkpt>
      <trkpt lat="44.09389" lon="3.0322">
        <ele>412.358391</ele>
        <time>2014-05-18T07:46:22Z</time>
      </trkpt>
      <trkpt lat="44.09386" lon="3.03213">
        <ele>412.327808</ele>
        <time>2014-05-18T07:46:24Z</time>
      </trkpt>
      <trkpt lat="44.09381" lon="3.03205">
        <ele>412.337301</ele>
        <time>2014-05-18T07:46:26Z</time>
      </trkpt>
      <trkpt lat="44.09378" lon="3.03199">
        <ele>412.37955</ele>
        <time>2014-05-18T07:46:28Z</time>
      </trkpt>
      <trkpt lat="44.09375" lon="3.03193">
        <ele>412.51121</ele>
        <time>2014-05-18T07:46:30Z</time>
      </trkpt>
      <trkpt lat="44.09373" lon="3.03188">
        <ele>412.694351</ele>
        <time>2014-05-18T07:46:32Z</time>
      </trkpt>
      <trkpt lat="44.09369" lon="3.0318">
        <ele>412.845203</ele>
        <time>2014-05-18T07:46:34Z</time>
      </trkpt>
      <trkpt lat="44.09364" lon="3.03172">
        <ele>412.878512</ele>
        <time>2014-05-18T07:46:36Z</time>
      </trkpt>
      <trkpt lat="44.09361" lon="3.03166">
        <ele>412.867149</ele>
        <time>2014-05-18T07:46:38Z</time>
      </trkpt>
      <trkpt lat="44.09357" lon="3.03159">
        <ele>412.758925</ele>
        <time>2014-05-18T07:46:40Z</time>
      </trkpt>
      <trkpt lat="44.09354" lon="3.03153">
        <ele>412.701317</ele>
        <time>2014-05-18T07:46:42Z</time>
      </trkpt>
      <trkpt lat="44.0935" lon="3.03146">
        <ele>412.48026</ele>
        <time>2014-05-18T07:46:45Z</time>
      </trkpt>
      <trkpt lat="44.09346" lon="3.0314">
        <ele>412.321992</ele>
        <time>2014-05-18T07:46:47Z</time>
      </trkpt>
      <trkpt lat="44.09342" lon="3.03134">
        <ele>412.153033</ele>
        <time>2014-05-18T07:46:49Z</time>
      </trkpt>
      <trkpt lat="44.09339" lon="3.03128">
        <ele>411.965327</ele>
        <time>2014-05-18T07:46:51Z</time>
      </trkpt>
      <trkpt lat="44.09336" lon="3.03121">
        <ele>411.813236</ele>
        <time>2014-05-18T07:46:53Z</time>
      </trkpt>
      <trkpt lat="44.09333" lon="3.03115">
        <ele>411.653701</ele>
        <time>2014-05-18T07:46:55Z</time>
      </trkpt>
      <trkpt lat="44.09329" lon="3.03109">
        <ele>411.500686</ele>
        <time>2014-05-18T07:46:57Z</time>
      </trkpt>
      <trkpt lat="44.09325" lon="3.03103">
        <ele>411.377239</ele>
        <time>2014-05-18T07:46:59Z</time>
      </trkpt>
      <trkpt lat="44.09321" lon="3.03098">
        <ele>411.263535</ele>
        <time>2014-05-18T07:47:01Z</time>
      </trkpt>
      <trkpt lat="44.09317" lon="3.03093">
        <ele>411.157293</ele>
        <time>2014-05-18T07:47:03Z</time>
      </trkpt>
      <trkpt lat="44.09313" lon="3.03086">
        <ele>411.094187</ele>
        <time>2014-05-18T07:47:05Z</time>
      </trkpt>
      <trkpt lat="44.09309" lon="3.03079">
        <ele>411.053437</ele>
        <time>2014-05-18T07:47:07Z</time>
      </trkpt>
      <trkpt lat="44.09305" lon="3.03074">
        <ele>411.03561</ele>
        <time>2014-05-18T07:47:09Z</time>
      </trkpt>
      <trkpt lat="44.09301" lon="3.03068">
        <ele>410.945176</ele>
        <time>2014-05-18T07:47:11Z</time>
      </trkpt>
      <trkpt lat="44.09297" lon="3.03063">
        <ele>410.839142</ele>
        <time>2014-05-18T07:47:13Z</time>
      </trkpt>
      <trkpt lat="44.09293" lon="3.03058">
        <ele>410.744394</ele>
        <time>2014-05-18T07:47:15Z</time>
      </trkpt>
      <trkpt lat="44.09288" lon="3.03053">
        <ele>410.673853</ele>
        <time>2014-05-18T07:47:17Z</time>
      </trkpt>
      <trkpt lat="44.09283" lon="3.03048">
        <ele>410.516251</ele>
        <time>2014-05-18T07:47:19Z</time>
      </trkpt>
      <trkpt lat="44.09279" lon="3.03044">
        <ele>410.455358</ele>
        <time>2014-05-18T07:47:21Z</time>
      </trkpt>
      <trkpt lat="44.09275" lon="3.0304">
        <ele>410.332352</ele>
        <time>2014-05-18T07:47:23Z</time>
      </trkpt>
      <trkpt lat="44.09271" lon="3.03036">
        <ele>410.205534</ele>
        <time>2014-05-18T07:47:25Z</time>
      </trkpt>
      <trkpt lat="44.09267" lon="3.03031">
        <ele>410.067303</ele>
        <time>2014-05-18T07:47:27Z</time>
      </trkpt>
      <trkpt lat="44.09261" lon="3.03026">
        <ele>409.952949</ele>
        <time>2014-05-18T07:47:29Z</time>
      </trkpt>
      <trkpt lat="44.09256" lon="3.03021">
        <ele>409.885835</ele>
        <time>2014-05-18T07:47:31Z</time>
      </trkpt>
      <trkpt lat="44.09251" lon="3.03015">
        <ele>409.915669</ele>
        <time>2014-05-18T07:47:33Z</time>
      </trkpt>
      <trkpt lat="44.09246" lon="3.03009">
        <ele>409.933913</ele>
        <time>2014-05-18T07:47:35Z</time>
      </trkpt>
      <trkpt lat="44.09241" lon="3.03005">
        <ele>409.980766</ele>
        <time>2014-05-18T07:47:37Z</time>
      </trkpt>
      <trkpt lat="44.09236" lon="3.03001">
        <ele>410.037913</ele>
        <time>2014-05-18T07:47:39Z</time>
      </trkpt>
      <trkpt lat="44.09232" lon="3.02997">
        <ele>410.236451</ele>
        <time>2014-05-18T07:47:41Z</time>
      </trkpt>
      <trkpt lat="44.09226" lon="3.02992">
        <ele>410.542201</ele>
        <time>2014-05-18T07:47:43Z</time>
      </trkpt>
      <trkpt lat="44.09222" lon="3.02989">
        <ele>410.741164</ele>
        <time>2014-05-18T07:47:45Z</time>
      </trkpt>
      <trkpt lat="44.09217" lon="3.02985">
        <ele>410.725685</ele>
        <time>2014-05-18T07:47:47Z</time>
      </trkpt>
      <trkpt lat="44.09212" lon="3.02983">
        <ele>410.601434</ele>
        <time>2014-05-18T07:47:49Z</time>
      </trkpt>
      <trkpt lat="44.09207" lon="3.02979">
        <ele>410.450062</ele>
        <time>2014-05-18T07:47:51Z</time>
      </trkpt>
      <trkpt lat="44.09202" lon="3.02975">
        <ele>410.249343</ele>
        <time>2014-05-18T07:47:53Z</time>
      </trkpt>
      <trkpt lat="44.09197" lon="3.02971">
        <ele>410.086949</ele>
        <time>2014-05-18T07:47:55Z</time>
      </trkpt>
      <trkpt lat="44.09192" lon="3.02966">
        <ele>409.969521</ele>
        <time>2014-05-18T07:47:57Z</time>
      </trkpt>
      <trkpt lat="44.09187" lon="3.02961">
        <ele>410.074674</ele>
        <time>2014-05-18T07:47:59Z</time>
      </trkpt>
      <trkpt lat="44.09182" lon="3.02957">
        <ele>410.186319</ele>
        <time>2014-05-18T07:48:01Z</time>
      </trkpt>
      <trkpt lat="44.09177" lon="3.02951">
        <ele>410.302654</ele>
        <time>2014-05-18T07:48:03Z</time>
      </trkpt>
      <trkpt lat="44.09173" lon="3.02946">
        <ele>410.484063</ele>
        <time>2014-05-18T07:48:05Z</time>
      </trkpt>
      <trkpt lat="44.09168" lon="3.02943">
        <ele>410.642438</ele>
        <time>2014-05-18T07:48:07Z</time>
      </trkpt>
      <trkpt lat="44.09164" lon="3.02938">
        <ele>410.738779</ele>
        <time>2014-05-18T07:48:09Z</time>
      </trkpt>
      <trkpt lat="44.09159" lon="3.02935">
        <ele>410.87448</ele>
        <time>2014-05-18T07:48:11Z</time>
      </trkpt>
      <trkpt lat="44.09153" lon="3.0293">
        <ele>410.934197</ele>
        <time>2014-05-18T07:48:14Z</time>
      </trkpt>
      <trkpt lat="44.09149" lon="3.02925">
        <ele>410.932138</ele>
        <time>2014-05-18T07:48:16Z</time>
      </trkpt>
      <trkpt lat="44.09145" lon="3.02922">
        <ele>410.885993</ele>
        <time>2014-05-18T07:48:18Z</time>
      </trkpt>
      <trkpt lat="44.0914" lon="3.02917">
        <ele>410.834758</ele>
        <time>2014-05-18T07:48:20Z</time>
      </trkpt>
      <trkpt lat="44.09137" lon="3.02913">
        <ele>410.759838</ele>
        <time>2014-05-18T07:48:22Z</time>
      </trkpt>
      <trkpt lat="44.09131" lon="3.02908">
        <ele>410.626196</ele>
        <time>2014-05-18T07:48:24Z</time>
      </trkpt>
      <trkpt lat="44.09126" lon="3.02904">
        <ele>410.493428</ele>
        <time>2014-05-18T07:48:26Z</time>
      </trkpt>
      <trkpt lat="44.09121" lon="3.02901">
        <ele>410.305654</ele>
        <time>2014-05-18T07:48:28Z</time>
      </trkpt>
      <trkpt lat="44.09115" lon="3.02897">
        <ele>410.119294</ele>
        <time>2014-05-18T07:48:30Z</time>
      </trkpt>
      <trkpt lat="44.0911" lon="3.02894">
        <ele>410.042386</ele>
        <time>2014-05-18T07:48:32Z</time>
      </trkpt>
      <trkpt lat="44.09105" lon="3.0289">
        <ele>410.06459</ele>
        <time>2014-05-18T07:48:34Z</time>
      </trkpt>
      <trkpt lat="44.091" lon="3.02885">
        <ele>410.125331</ele>
        <time>2014-05-18T07:48:36Z</time>
      </trkpt>
      <trkpt lat="44.09095" lon="3.02879">
        <ele>409.981398</ele>
        <time>2014-05-18T07:48:39Z</time>
      </trkpt>
      <trkpt lat="44.09091" lon="3.02875">
        <ele>409.686622</ele>
        <time>2014-05-18T07:48:41Z</time>
      </trkpt>
      <trkpt lat="44.09087" lon="3.02872">
        <ele>409.370263</ele>
        <time>2014-05-18T07:48:43Z</time>
      </trkpt>
      <trkpt lat="44.09081" lon="3.02866">
        <ele>408.87383</ele>
        <time>2014-05-18T07:48:46Z</time>
      </trkpt>
      <trkpt lat="44.09075" lon="3.02863">
        <ele>408.58623</ele>
        <time>2014-05-18T07:48:48Z</time>
      </trkpt>
      <trkpt lat="44.0907" lon="3.02859">
        <ele>408.282532</ele>
        <time>2014-05-18T07:48:50Z</time>
      </trkpt>
      <trkpt lat="44.09066" lon="3.02857">
        <ele>408.075764</ele>
        <time>2014-05-18T07:48:52Z</time>
      </trkpt>
      <trkpt lat="44.09059" lon="3.02854">
        <ele>407.912916</ele>
        <time>2014-05-18T07:48:54Z</time>
      </trkpt>
      <trkpt lat="44.09054" lon="3.02853">
        <ele>407.801839</ele>
        <time>2014-05-18T07:48:56Z</time>
      </trkpt>
      <trkpt lat="44.09047" lon="3.02851">
        <ele>407.81215</ele>
        <time>2014-05-18T07:48:58Z</time>
      </trkpt>
      <trkpt lat="44.09042" lon="3.02848">
        <ele>407.835199</ele>
        <time>2014-05-18T07:49:00Z</time>
      </trkpt>
      <trkpt lat="44.09037" lon="3.02847">
        <ele>407.964135</ele>
        <time>2014-05-18T07:49:02Z</time>
      </trkpt>
      <trkpt lat="44.09029" lon="3.02843">
        <ele>408.301035</ele>
        <time>2014-05-18T07:49:04Z</time>
      </trkpt>
      <trkpt lat="44.09024" lon="3.02839">
        <ele>408.404461</ele>
        <time>2014-05-18T07:49:06Z</time>
      </trkpt>
      <trkpt lat="44.09018" lon="3.02837">
        <ele>408.532112</ele>
        <time>2014-05-18T07:49:08Z</time>
      </trkpt>
      <trkpt lat="44.09013" lon="3.02836">
        <ele>408.673882</ele>
        <time>2014-05-18T07:49:10Z</time>
      </trkpt>
      <trkpt lat="44.09008" lon="3.02835">
        <ele>408.785951</ele>
        <time>2014-05-18T07:49:12Z</time>
      </trkpt>
      <trkpt lat="44.09002" lon="3.02832">
        <ele>408.94419</ele>
        <time>2014-05-18T07:49:14Z</time>
      </trkpt>
      <trkpt lat="44.08997" lon="3.02829">
        <ele>409.12291</ele>
        <time>2014-05-18T07:49:16Z</time>
      </trkpt>
      <trkpt lat="44.08991" lon="3.02828">
        <ele>409.302003</ele>
        <time>2014-05-18T07:49:18Z</time>
      </trkpt>
      <trkpt lat="44.08986" lon="3.02826">
        <ele>409.476908</ele>
        <time>2014-05-18T07:49:20Z</time>
      </trkpt>
      <trkpt lat="44.08981" lon="3.02825">
        <ele>409.723075</ele>
        <time>2014-05-18T07:49:22Z</time>
      </trkpt>
      <trkpt lat="44.08975" lon="3.02822">
        <ele>410.136467</ele>
        <time>2014-05-18T07:49:25Z</time>
      </trkpt>
      <trkpt lat="44.08969" lon="3.02818">
        <ele>410.459834</ele>
        <time>2014-05-18T07:49:27Z</time>
      </trkpt>
      <trkpt lat="44.08963" lon="3.02815">
        <ele>410.799617</ele>
        <time>2014-05-18T07:49:29Z</time>
      </trkpt>
      <trkpt lat="44.08957" lon="3.02812">
        <ele>411.018311</ele>
        <time>2014-05-18T07:49:31Z</time>
      </trkpt>
      <trkpt lat="44.08951" lon="3.02808">
        <ele>411.186437</ele>
        <time>2014-05-18T07:49:33Z</time>
      </trkpt>
      <trkpt lat="44.08946" lon="3.02804">
        <ele>411.313766</ele>
        <time>2014-05-18T07:49:35Z</time>
      </trkpt>
      <trkpt lat="44.08939" lon="3.028">
        <ele>411.250716</ele>
        <time>2014-05-18T07:49:37Z</time>
      </trkpt>
      <trkpt lat="44.08934" lon="3.02795">
        <ele>411.153157</ele>
        <time>2014-05-18T07:49:39Z</time>
      </trkpt>
      <trkpt lat="44.08927" lon="3.02791">
        <ele>411.212171</ele>
        <time>2014-05-18T07:49:41Z</time>
      </trkpt>
      <trkpt lat="44.0892" lon="3.02786">
        <ele>411.142146</ele>
        <time>2014-05-18T07:49:43Z</time>
      </trkpt>
      <trkpt lat="44.08915" lon="3.02782">
        <ele>410.968891</ele>
        <time>2014-05-18T07:49:45Z</time>
      </trkpt>
      <trkpt lat="44.08911" lon="3.02779">
        <ele>410.82649</ele>
        <time>2014-05-18T07:49:47Z</time>
      </trkpt>
      <trkpt lat="44.08906" lon="3.02774">
        <ele>410.62538</ele>
        <time>2014-05-18T07:49:49Z</time>
      </trkpt>
      <trkpt lat="44.08902" lon="3.0277">
        <ele>410.462764</ele>
        <time>2014-05-18T07:49:51Z</time>
      </trkpt>
      <trkpt lat="44.08897" lon="3.02764">
        <ele>410.14415</ele>
        <time>2014-05-18T07:49:54Z</time>
      </trkpt>
      <trkpt lat="44.08893" lon="3.02761">
        <ele>410.013877</ele>
        <time>2014-05-18T07:49:56Z</time>
      </trkpt>
      <trkpt lat="44.08887" lon="3.02757">
        <ele>409.922366</ele>
        <time>2014-05-18T07:49:58Z</time>
      </trkpt>
      <trkpt lat="44.08883" lon="3.02753">
        <ele>409.82533</ele>
        <time>2014-05-18T07:50:00Z</time>
      </trkpt>
      <trkpt lat="44.08878" lon="3.02749">
        <ele>409.587789</ele>
        <time>2014-05-18T07:50:02Z</time>
      </trkpt>
      <trkpt lat="44.08873" lon="3.02745">
        <ele>409.476222</ele>
        <time>2014-05-18T07:50:04Z</time>
      </trkpt>
      <trkpt lat="44.08869" lon="3.02741">
        <ele>409.388872</ele>
        <time>2014-05-18T07:50:06Z</time>
      </trkpt>
      <trkpt lat="44.08863" lon="3.02736">
        <ele>409.294246</ele>
        <time>2014-05-18T07:50:08Z</time>
      </trkpt>
      <trkpt lat="44.08859" lon="3.02732">
        <ele>409.175479</ele>
        <time>2014-05-18T07:50:10Z</time>
      </trkpt>
      <trkpt lat="44.08855" lon="3.02727">
        <ele>409.007179</ele>
        <time>2014-05-18T07:50:12Z</time>
      </trkpt>
      <trkpt lat="44.08852" lon="3.0272">
        <ele>408.806611</ele>
        <time>2014-05-18T07:50:15Z</time>
      </trkpt>
      <trkpt lat="44.08852" lon="3.02712">
        <ele>408.697876</ele>
        <time>2014-05-18T07:50:17Z</time>
      </trkpt>
      <trkpt lat="44.08852" lon="3.02703">
        <ele>408.554413</ele>
        <time>2014-05-18T07:50:20Z</time>
      </trkpt>
      <trkpt lat="44.08853" lon="3.02696">
        <ele>408.460642</ele>
        <time>2014-05-18T07:50:22Z</time>
      </trkpt>
      <trkpt lat="44.08854" lon="3.02689">
        <ele>408.299756</ele>
        <time>2014-05-18T07:50:24Z</time>
      </trkpt>
      <trkpt lat="44.08854" lon="3.02681">
        <ele>407.973795</ele>
        <time>2014-05-18T07:50:26Z</time>
      </trkpt>
      <trkpt lat="44.08851" lon="3.02673">
        <ele>407.428838</ele>
        <time>2014-05-18T07:50:29Z</time>
      </trkpt>
      <trkpt lat="44.08848" lon="3.02667">
        <ele>407.340225</ele>
        <time>2014-05-18T07:50:31Z</time>
      </trkpt>
      <trkpt lat="44.08845" lon="3.02663">
        <ele>407.224918</ele>
        <time>2014-05-18T07:50:33Z</time>
      </trkpt>
      <trkpt lat="44.0884" lon="3.02656">
        <ele>407.088439</ele>
        <time>2014-05-18T07:50:36Z</time>
      </trkpt>
      <trkpt lat="44.08836" lon="3.02652">
        <ele>407.035563</ele>
        <time>2014-05-18T07:50:39Z</time>
      </trkpt>
      <trkpt lat="44.08832" lon="3.02647">
        <ele>407.009177</ele>
        <time>2014-05-18T07:50:41Z</time>
      </trkpt>
      <trkpt lat="44.08828" lon="3.02642">
        <ele>407.22233</ele>
        <time>2014-05-18T07:50:44Z</time>
      </trkpt>
      <trkpt lat="44.08823" lon="3.02637">
        <ele>407.516679</ele>
        <time>2014-05-18T07:50:47Z</time>
      </trkpt>
      <trkpt lat="44.08819" lon="3.02633">
        <ele>407.796713</ele>
        <time>2014-05-18T07:50:49Z</time>
      </trkpt>
      <trkpt lat="44.08815" lon="3.02629">
        <ele>407.983383</ele>
        <time>2014-05-18T07:50:51Z</time>
      </trkpt>
      <trkpt lat="44.0881" lon="3.02622">
        <ele>408.12819</ele>
        <time>2014-05-18T07:50:54Z</time>
      </trkpt>
      <trkpt lat="44.08806" lon="3.02616">
        <ele>408.244305</ele>
        <time>2014-05-18T07:50:56Z</time>
      </trkpt>
      <trkpt lat="44.08802" lon="3.02612">
        <ele>408.35065</ele>
        <time>2014-05-18T07:50:58Z</time>
      </trkpt>
      <trkpt lat="44.08798" lon="3.02608">
        <ele>408.545045</ele>
        <time>2014-05-18T07:51:00Z</time>
      </trkpt>
      <trkpt lat="44.08793" lon="3.02604">
        <ele>408.733336</ele>
        <time>2014-05-18T07:51:02Z</time>
      </trkpt>
      <trkpt lat="44.0879" lon="3.026">
        <ele>408.885081</ele>
        <time>2014-05-18T07:51:04Z</time>
      </trkpt>
      <trkpt lat="44.08785" lon="3.02596">
        <ele>409.062831</ele>
        <time>2014-05-18T07:51:07Z</time>
      </trkpt>
      <trkpt lat="44.0878" lon="3.0259">
        <ele>409.154281</ele>
        <time>2014-05-18T07:51:09Z</time>
      </trkpt>
      <trkpt lat="44.08776" lon="3.02584">
        <ele>409.501909</ele>
        <time>2014-05-18T07:51:12Z</time>
      </trkpt>
      <trkpt lat="44.08771" lon="3.02579">
        <ele>409.983774</ele>
        <time>2014-05-18T07:51:15Z</time>
      </trkpt>
      <trkpt lat="44.08767" lon="3.02575">
        <ele>410.29064</ele>
        <time>2014-05-18T07:51:17Z</time>
      </trkpt>
      <trkpt lat="44.08764" lon="3.02571">
        <ele>410.623895</ele>
        <time>2014-05-18T07:51:19Z</time>
      </trkpt>
      <trkpt lat="44.08761" lon="3.02565">
        <ele>410.995523</ele>
        <time>2014-05-18T07:51:21Z</time>
      </trkpt>
      <trkpt lat="44.08757" lon="3.02559">
        <ele>411.567056</ele>
        <time>2014-05-18T07:51:24Z</time>
      </trkpt>
      <trkpt lat="44.08753" lon="3.02554">
        <ele>412.092634</ele>
        <time>2014-05-18T07:51:27Z</time>
      </trkpt>
      <trkpt lat="44.0875" lon="3.02547">
        <ele>412.516761</ele>
        <time>2014-05-18T07:51:30Z</time>
      </trkpt>
      <trkpt lat="44.08746" lon="3.02541">
        <ele>412.875472</ele>
        <time>2014-05-18T07:51:33Z</time>
      </trkpt>
      <trkpt lat="44.08742" lon="3.02533">
        <ele>413.121204</ele>
        <time>2014-05-18T07:51:36Z</time>
      </trkpt>
      <trkpt lat="44.08739" lon="3.02525">
        <ele>413.302168</ele>
        <time>2014-05-18T07:51:39Z</time>
      </trkpt>
      <trkpt lat="44.08736" lon="3.0252">
        <ele>413.811736</ele>
        <time>2014-05-18T07:51:42Z</time>
      </trkpt>
      <trkpt lat="44.08733" lon="3.02513">
        <ele>414.207772</ele>
        <time>2014-05-18T07:51:45Z</time>
      </trkpt>
      <trkpt lat="44.0873" lon="3.02506">
        <ele>414.602482</ele>
        <time>2014-05-18T07:51:48Z</time>
      </trkpt>
      <trkpt lat="44.08728" lon="3.02499">
        <ele>415.01513</ele>
        <time>2014-05-18T07:51:51Z</time>
      </trkpt>
      <trkpt lat="44.08726" lon="3.0249">
        <ele>415.831691</ele>
        <time>2014-05-18T07:51:55Z</time>
      </trkpt>
      <trkpt lat="44.08727" lon="3.02484">
        <ele>416.275336</ele>
        <time>2014-05-18T07:51:57Z</time>
      </trkpt>
      <trkpt lat="44.08726" lon="3.02476">
        <ele>417.062082</ele>
        <time>2014-05-18T07:52:00Z</time>
      </trkpt>
      <trkpt lat="44.08725" lon="3.02468">
        <ele>417.524242</ele>
        <time>2014-05-18T07:52:03Z</time>
      </trkpt>
      <trkpt lat="44.08724" lon="3.0246">
        <ele>417.993059</ele>
        <time>2014-05-18T07:52:06Z</time>
      </trkpt>
      <trkpt lat="44.08722" lon="3.02452">
        <ele>418.660809</ele>
        <time>2014-05-18T07:52:09Z</time>
      </trkpt>
      <trkpt lat="44.08722" lon="3.02444">
        <ele>419.249778</ele>
        <time>2014-05-18T07:52:12Z</time>
      </trkpt>
      <trkpt lat="44.08721" lon="3.02437">
        <ele>419.588599</ele>
        <time>2014-05-18T07:52:15Z</time>
      </trkpt>
      <trkpt lat="44.0872" lon="3.02431">
        <ele>419.828115</ele>
        <time>2014-05-18T07:52:17Z</time>
      </trkpt>
      <trkpt lat="44.08718" lon="3.02424">
        <ele>420.394153</ele>
        <time>2014-05-18T07:52:20Z</time>
      </trkpt>
      <trkpt lat="44.08715" lon="3.02417">
        <ele>420.809719</ele>
        <time>2014-05-18T07:52:23Z</time>
      </trkpt>
      <trkpt lat="44.08711" lon="3.02409">
        <ele>421.157425</ele>
        <time>2014-05-18T07:52:26Z</time>
      </trkpt>
      <trkpt lat="44.08709" lon="3.02401">
        <ele>421.641799</ele>
        <time>2014-05-18T07:52:29Z</time>
      </trkpt>
      <trkpt lat="44.08706" lon="3.02394">
        <ele>422.203306</ele>
        <time>2014-05-18T07:52:32Z</time>
      </trkpt>
      <trkpt lat="44.08703" lon="3.02388">
        <ele>422.939847</ele>
        <time>2014-05-18T07:52:35Z</time>
      </trkpt>
      <trkpt lat="44.08702" lon="3.02381">
        <ele>423.670918</ele>
        <time>2014-05-18T07:52:38Z</time>
      </trkpt>
      <trkpt lat="44.087" lon="3.02375">
        <ele>424.350081</ele>
        <time>2014-05-18T07:52:40Z</time>
      </trkpt>
      <trkpt lat="44.08698" lon="3.02367">
        <ele>425.111752</ele>
        <time>2014-05-18T07:52:43Z</time>
      </trkpt>
      <trkpt lat="44.08697" lon="3.02359">
        <ele>425.701589</ele>
        <time>2014-05-18T07:52:46Z</time>
      </trkpt>
      <trkpt lat="44.08696" lon="3.02351">
        <ele>426.512065</ele>
        <time>2014-05-18T07:52:49Z</time>
      </trkpt>
      <trkpt lat="44.08696" lon="3.02342">
        <ele>427.225555</ele>
        <time>2014-05-18T07:52:52Z</time>
      </trkpt>
      <trkpt lat="44.08696" lon="3.02334">
        <ele>427.938334</ele>
        <time>2014-05-18T07:52:55Z</time>
      </trkpt>
      <trkpt lat="44.08696" lon="3.02326">
        <ele>428.639313</ele>
        <time>2014-05-18T07:52:58Z</time>
      </trkpt>
      <trkpt lat="44.08697" lon="3.0232">
        <ele>429.092662</ele>
        <time>2014-05-18T07:53:01Z</time>
      </trkpt>
      <trkpt lat="44.08698" lon="3.02311">
        <ele>429.478848</ele>
        <time>2014-05-18T07:53:04Z</time>
      </trkpt>
      <trkpt lat="44.08698" lon="3.02302">
        <ele>429.832857</ele>
        <time>2014-05-18T07:53:07Z</time>
      </trkpt>
      <trkpt lat="44.08698" lon="3.02294">
        <ele>430.638255</ele>
        <time>2014-05-18T07:53:11Z</time>
      </trkpt>
      <trkpt lat="44.08697" lon="3.02285">
        <ele>431.163324</ele>
        <time>2014-05-18T07:53:14Z</time>
      </trkpt>
      <trkpt lat="44.08695" lon="3.02278">
        <ele>431.530041</ele>
        <time>2014-05-18T07:53:16Z</time>
      </trkpt>
      <trkpt lat="44.08693" lon="3.02272">
        <ele>431.796688</ele>
        <time>2014-05-18T07:53:18Z</time>
      </trkpt>
      <trkpt lat="44.08691" lon="3.02264">
        <ele>432.172167</ele>
        <time>2014-05-18T07:53:21Z</time>
      </trkpt>
      <trkpt lat="44.08688" lon="3.02257">
        <ele>432.84428</ele>
        <time>2014-05-18T07:53:24Z</time>
      </trkpt>
      <trkpt lat="44.08685" lon="3.0225">
        <ele>433.586571</ele>
        <time>2014-05-18T07:53:27Z</time>
      </trkpt>
      <trkpt lat="44.08684" lon="3.02242">
        <ele>434.037634</ele>
        <time>2014-05-18T07:53:29Z</time>
      </trkpt>
      <trkpt lat="44.08681" lon="3.02234">
        <ele>434.448304</ele>
        <time>2014-05-18T07:53:32Z</time>
      </trkpt>
      <trkpt lat="44.08679" lon="3.02229">
        <ele>434.618142</ele>
        <time>2014-05-18T07:53:34Z</time>
      </trkpt>
      <trkpt lat="44.08676" lon="3.02223">
        <ele>434.680649</ele>
        <time>2014-05-18T07:53:36Z</time>
      </trkpt>
      <trkpt lat="44.08674" lon="3.02215">
        <ele>434.773093</ele>
        <time>2014-05-18T07:53:40Z</time>
      </trkpt>
      <trkpt lat="44.08673" lon="3.02208">
        <ele>435.016446</ele>
        <time>2014-05-18T07:53:42Z</time>
      </trkpt>
      <trkpt lat="44.08674" lon="3.022">
        <ele>435.76012</ele>
        <time>2014-05-18T07:53:45Z</time>
      </trkpt>
      <trkpt lat="44.08676" lon="3.02195">
        <ele>437.469088</ele>
        <time>2014-05-18T07:53:52Z</time>
      </trkpt>
      <trkpt lat="44.0868" lon="3.02192">
        <ele>438.803541</ele>
        <time>2014-05-18T07:54:06Z</time>
      </trkpt>
      <trkpt lat="44.08686" lon="3.02196">
        <ele>439.270147</ele>
        <time>2014-05-18T07:54:12Z</time>
      </trkpt>
      <trkpt lat="44.0869" lon="3.022">
        <ele>439.483876</ele>
        <time>2014-05-18T07:54:15Z</time>
      </trkpt>
      <trkpt lat="44.08694" lon="3.02205">
        <ele>439.792682</ele>
        <time>2014-05-18T07:54:18Z</time>
      </trkpt>
      <trkpt lat="44.08697" lon="3.02211">
        <ele>440.158419</ele>
        <time>2014-05-18T07:54:21Z</time>
      </trkpt>
      <trkpt lat="44.08701" lon="3.02216">
        <ele>440.504028</ele>
        <time>2014-05-18T07:54:23Z</time>
      </trkpt>
      <trkpt lat="44.08704" lon="3.02221">
        <ele>440.905531</ele>
        <time>2014-05-18T07:54:25Z</time>
      </trkpt>
      <trkpt lat="44.08707" lon="3.02226">
        <ele>441.343139</ele>
        <time>2014-05-18T07:54:27Z</time>
      </trkpt>
      <trkpt lat="44.0871" lon="3.02233">
        <ele>442.137484</ele>
        <time>2014-05-18T07:54:30Z</time>
      </trkpt>
      <trkpt lat="44.08714" lon="3.02238">
        <ele>442.711811</ele>
        <time>2014-05-18T07:54:33Z</time>
      </trkpt>
      <trkpt lat="44.08716" lon="3.02243">
        <ele>442.841517</ele>
        <time>2014-05-18T07:54:35Z</time>
      </trkpt>
      <trkpt lat="44.0872" lon="3.0225">
        <ele>442.760252</ele>
        <time>2014-05-18T07:54:38Z</time>
      </trkpt>
      <trkpt lat="44.08723" lon="3.02258">
        <ele>442.667921</ele>
        <time>2014-05-18T07:54:41Z</time>
      </trkpt>
      <trkpt lat="44.08727" lon="3.02265">
        <ele>442.498987</ele>
        <time>2014-05-18T07:54:44Z</time>
      </trkpt>
      <trkpt lat="44.0873" lon="3.02273">
        <ele>442.503559</ele>
        <time>2014-05-18T07:54:47Z</time>
      </trkpt>
      <trkpt lat="44.08732" lon="3.0228">
        <ele>442.669911</ele>
        <time>2014-05-18T07:54:50Z</time>
      </trkpt>
      <trkpt lat="44.08734" lon="3.02287">
        <ele>442.814098</ele>
        <time>2014-05-18T07:54:53Z</time>
      </trkpt>
      <trkpt lat="44.08736" lon="3.02294">
        <ele>443.036085</ele>
        <time>2014-05-18T07:54:55Z</time>
      </trkpt>
      <trkpt lat="44.08738" lon="3.02301">
        <ele>443.34845</ele>
        <time>2014-05-18T07:54:58Z</time>
      </trkpt>
      <trkpt lat="44.08738" lon="3.02309">
        <ele>443.624023</ele>
        <time>2014-05-18T07:55:01Z</time>
      </trkpt>
      <trkpt lat="44.08739" lon="3.02317">
        <ele>443.93311</ele>
        <time>2014-05-18T07:55:04Z</time>
      </trkpt>
      <trkpt lat="44.08742" lon="3.02322">
        <ele>444.355636</ele>
        <time>2014-05-18T07:55:07Z</time>
      </trkpt>
      <trkpt lat="44.08745" lon="3.02329">
        <ele>444.868316</ele>
        <time>2014-05-18T07:55:10Z</time>
      </trkpt>
      <trkpt lat="44.08749" lon="3.02334">
        <ele>445.259012</ele>
        <time>2014-05-18T07:55:13Z</time>
      </trkpt>
      <trkpt lat="44.08753" lon="3.02339">
        <ele>445.682824</ele>
        <time>2014-05-18T07:55:16Z</time>
      </trkpt>
      <trkpt lat="44.08758" lon="3.02343">
        <ele>446.175768</ele>
        <time>2014-05-18T07:55:19Z</time>
      </trkpt>
      <trkpt lat="44.08763" lon="3.02347">
        <ele>447.111076</ele>
        <time>2014-05-18T07:55:23Z</time>
      </trkpt>
      <trkpt lat="44.08768" lon="3.02349">
        <ele>447.799986</ele>
        <time>2014-05-18T07:55:26Z</time>
      </trkpt>
      <trkpt lat="44.08773" lon="3.02352">
        <ele>448.549053</ele>
        <time>2014-05-18T07:55:29Z</time>
      </trkpt>
      <trkpt lat="44.08778" lon="3.02354">
        <ele>449.242011</ele>
        <time>2014-05-18T07:55:32Z</time>
      </trkpt>
      <trkpt lat="44.08784" lon="3.02357">
        <ele>449.770023</ele>
        <time>2014-05-18T07:55:35Z</time>
      </trkpt>
      <trkpt lat="44.08788" lon="3.02358">
        <ele>450.312788</ele>
        <time>2014-05-18T07:55:37Z</time>
      </trkpt>
      <trkpt lat="44.08794" lon="3.02362">
        <ele>450.876584</ele>
        <time>2014-05-18T07:55:40Z</time>
      </trkpt>
      <trkpt lat="44.08799" lon="3.02365">
        <ele>451.245265</ele>
        <time>2014-05-18T07:55:43Z</time>
      </trkpt>
      <trkpt lat="44.08804" lon="3.02371">
        <ele>451.856846</ele>
        <time>2014-05-18T07:55:46Z</time>
      </trkpt>
      <trkpt lat="44.08808" lon="3.02378">
        <ele>452.367478</ele>
        <time>2014-05-18T07:55:49Z</time>
      </trkpt>
      <trkpt lat="44.08812" lon="3.02386">
        <ele>452.768726</ele>
        <time>2014-05-18T07:55:52Z</time>
      </trkpt>
      <trkpt lat="44.08814" lon="3.02393">
        <ele>453.153201</ele>
        <time>2014-05-18T07:55:55Z</time>
      </trkpt>
      <trkpt lat="44.08816" lon="3.02401">
        <ele>453.606734</ele>
        <time>2014-05-18T07:55:58Z</time>
      </trkpt>
      <trkpt lat="44.08817" lon="3.02408">
        <ele>454.00336</ele>
        <time>2014-05-18T07:56:01Z</time>
      </trkpt>
      <trkpt lat="44.08819" lon="3.02414">
        <ele>454.326204</ele>
        <time>2014-05-18T07:56:04Z</time>
      </trkpt>
      <trkpt lat="44.08822" lon="3.02422">
        <ele>454.682255</ele>
        <time>2014-05-18T07:56:07Z</time>
      </trkpt>
      <trkpt lat="44.08824" lon="3.02427">
        <ele>455.083456</ele>
        <time>2014-05-18T07:56:09Z</time>
      </trkpt>
      <trkpt lat="44.08828" lon="3.02433">
        <ele>455.453255</ele>
        <time>2014-05-18T07:56:12Z</time>
      </trkpt>
      <trkpt lat="44.08831" lon="3.0244">
        <ele>455.940435</ele>
        <time>2014-05-18T07:56:15Z</time>
      </trkpt>
      <trkpt lat="44.08834" lon="3.02445">
        <ele>456.591099</ele>
        <time>2014-05-18T07:56:18Z</time>
      </trkpt>
      <trkpt lat="44.08838" lon="3.0245">
        <ele>457.217919</ele>
        <time>2014-05-18T07:56:21Z</time>
      </trkpt>
      <trkpt lat="44.08842" lon="3.02454">
        <ele>457.984513</ele>
        <time>2014-05-18T07:56:24Z</time>
      </trkpt>
      <trkpt lat="44.08847" lon="3.02459">
        <ele>458.72586</ele>
        <time>2014-05-18T07:56:27Z</time>
      </trkpt>
      <trkpt lat="44.08852" lon="3.02464">
        <ele>459.274184</ele>
        <time>2014-05-18T07:56:30Z</time>
      </trkpt>
      <trkpt lat="44.08857" lon="3.02469">
        <ele>459.779603</ele>
        <time>2014-05-18T07:56:33Z</time>
      </trkpt>
      <trkpt lat="44.08863" lon="3.02472">
        <ele>460.419669</ele>
        <time>2014-05-18T07:56:36Z</time>
      </trkpt>
      <trkpt lat="44.08868" lon="3.02475">
        <ele>461.04561</ele>
        <time>2014-05-18T07:56:39Z</time>
      </trkpt>
      <trkpt lat="44.08872" lon="3.02478">
        <ele>461.508972</ele>
        <time>2014-05-18T07:56:42Z</time>
      </trkpt>
      <trkpt lat="44.08878" lon="3.0248">
        <ele>461.994653</ele>
        <time>2014-05-18T07:56:45Z</time>
      </trkpt>
      <trkpt lat="44.08883" lon="3.02483">
        <ele>462.544271</ele>
        <time>2014-05-18T07:56:48Z</time>
      </trkpt>
      <trkpt lat="44.08888" lon="3.02486">
        <ele>463.313345</ele>
        <time>2014-05-18T07:56:51Z</time>
      </trkpt>
      <trkpt lat="44.08894" lon="3.02489">
        <ele>464.16162</ele>
        <time>2014-05-18T07:56:54Z</time>
      </trkpt>
      <trkpt lat="44.08899" lon="3.02493">
        <ele>464.976738</ele>
        <time>2014-05-18T07:56:57Z</time>
      </trkpt>
      <trkpt lat="44.08904" lon="3.02496">
        <ele>465.730166</ele>
        <time>2014-05-18T07:57:00Z</time>
      </trkpt>
      <trkpt lat="44.0891" lon="3.02499">
        <ele>466.683487</ele>
        <time>2014-05-18T07:57:03Z</time>
      </trkpt>
      <trkpt lat="44.08915" lon="3.02501">
        <ele>467.528315</ele>
        <time>2014-05-18T07:57:06Z</time>
      </trkpt>
      <trkpt lat="44.0892" lon="3.02503">
        <ele>468.018834</ele>
        <time>2014-05-18T07:57:08Z</time>
      </trkpt>
      <trkpt lat="44.08925" lon="3.02503">
        <ele>468.427557</ele>
        <time>2014-05-18T07:57:10Z</time>
      </trkpt>
      <trkpt lat="44.08931" lon="3.025">
        <ele>469.060895</ele>
        <time>2014-05-18T07:57:13Z</time>
      </trkpt>
      <trkpt lat="44.08933" lon="3.02492">
        <ele>469.70072</ele>
        <time>2014-05-18T07:57:16Z</time>
      </trkpt>
      <trkpt lat="44.08931" lon="3.02486">
        <ele>470.0811</ele>
        <time>2014-05-18T07:57:18Z</time>
      </trkpt>
      <trkpt lat="44.08928" lon="3.02481">
        <ele>470.421249</ele>
        <time>2014-05-18T07:57:20Z</time>
      </trkpt>
      <trkpt lat="44.08923" lon="3.02478">
        <ele>470.645289</ele>
        <time>2014-05-18T07:57:22Z</time>
      </trkpt>
      <trkpt lat="44.08919" lon="3.02476">
        <ele>470.894596</ele>
        <time>2014-05-18T07:57:24Z</time>
      </trkpt>
      <trkpt lat="44.08913" lon="3.02475">
        <ele>471.22216</ele>
        <time>2014-05-18T07:57:27Z</time>
      </trkpt>
      <trkpt lat="44.08907" lon="3.02474">
        <ele>471.769754</ele>
        <time>2014-05-18T07:57:30Z</time>
      </trkpt>
      <trkpt lat="44.08901" lon="3.02472">
        <ele>472.209138</ele>
        <time>2014-05-18T07:57:33Z</time>
      </trkpt>
      <trkpt lat="44.08895" lon="3.02469">
        <ele>472.693793</ele>
        <time>2014-05-18T07:57:36Z</time>
      </trkpt>
      <trkpt lat="44.08892" lon="3.02464">
        <ele>473.049796</ele>
        <time>2014-05-18T07:57:38Z</time>
      </trkpt>
      <trkpt lat="44.08889" lon="3.0246">
        <ele>473.470366</ele>
        <time>2014-05-18T07:57:40Z</time>
      </trkpt>
      <trkpt lat="44.08885" lon="3.02453">
        <ele>474.471073</ele>
        <time>2014-05-18T07:57:44Z</time>
      </trkpt>
      <trkpt lat="44.08882" lon="3.02446">
        <ele>475.269887</ele>
        <time>2014-05-18T07:57:47Z</time>
      </trkpt>
      <trkpt lat="44.08878" lon="3.02439">
        <ele>476.036437</ele>
        <time>2014-05-18T07:57:50Z</time>
      </trkpt>
      <trkpt lat="44.08875" lon="3.02433">
        <ele>476.684017</ele>
        <time>2014-05-18T07:57:53Z</time>
      </trkpt>
      <trkpt lat="44.08873" lon="3.02426">
        <ele>477.267747</ele>
        <time>2014-05-18T07:57:56Z</time>
      </trkpt>
      <trkpt lat="44.08871" lon="3.02419">
        <ele>477.984651</ele>
        <time>2014-05-18T07:57:59Z</time>
      </trkpt>
      <trkpt lat="44.08869" lon="3.02411">
        <ele>478.394899</ele>
        <time>2014-05-18T07:58:02Z</time>
      </trkpt>
      <trkpt lat="44.08866" lon="3.02403">
        <ele>478.813087</ele>
        <time>2014-05-18T07:58:05Z</time>
      </trkpt>
      <trkpt lat="44.08864" lon="3.02394">
        <ele>479.082992</ele>
        <time>2014-05-18T07:58:08Z</time>
      </trkpt>
      <trkpt lat="44.08862" lon="3.02385">
        <ele>479.328089</ele>
        <time>2014-05-18T07:58:11Z</time>
      </trkpt>
      <trkpt lat="44.08861" lon="3.02379">
        <ele>479.490891</ele>
        <time>2014-05-18T07:58:14Z</time>
      </trkpt>
      <trkpt lat="44.08861" lon="3.02371">
        <ele>479.7273</ele>
        <time>2014-05-18T07:58:17Z</time>
      </trkpt>
      <trkpt lat="44.08862" lon="3.02365">
        <ele>480.05182</ele>
        <time>2014-05-18T07:58:20Z</time>
      </trkpt>
      <trkpt lat="44.08863" lon="3.02357">
        <ele>480.464301</ele>
        <time>2014-05-18T07:58:23Z</time>
      </trkpt>
      <trkpt lat="44.08865" lon="3.0235">
        <ele>480.793577</ele>
        <time>2014-05-18T07:58:25Z</time>
      </trkpt>
      <trkpt lat="44.08866" lon="3.02342">
        <ele>481.203422</ele>
        <time>2014-05-18T07:58:28Z</time>
      </trkpt>
      <trkpt lat="44.08867" lon="3.02334">
        <ele>481.401459</ele>
        <time>2014-05-18T07:58:31Z</time>
      </trkpt>
      <trkpt lat="44.08867" lon="3.02326">
        <ele>481.793577</ele>
        <time>2014-05-18T07:58:34Z</time>
      </trkpt>
      <trkpt lat="44.08867" lon="3.02317">
        <ele>482.217004</ele>
        <time>2014-05-18T07:58:37Z</time>
      </trkpt>
      <trkpt lat="44.08866" lon="3.0231">
        <ele>482.63384</ele>
        <time>2014-05-18T07:58:40Z</time>
      </trkpt>
      <trkpt lat="44.08863" lon="3.02304">
        <ele>483.333709</ele>
        <time>2014-05-18T07:58:44Z</time>
      </trkpt>
      <trkpt lat="44.0886" lon="3.02295">
        <ele>483.728758</ele>
        <time>2014-05-18T07:58:47Z</time>
      </trkpt>
      <trkpt lat="44.08857" lon="3.02288">
        <ele>484.368111</ele>
        <time>2014-05-18T07:58:50Z</time>
      </trkpt>
      <trkpt lat="44.08853" lon="3.02282">
        <ele>485.28555</ele>
        <time>2014-05-18T07:58:54Z</time>
      </trkpt>
      <trkpt lat="44.08849" lon="3.02274">
        <ele>485.784504</ele>
        <time>2014-05-18T07:58:57Z</time>
      </trkpt>
      <trkpt lat="44.08846" lon="3.02267">
        <ele>486.249333</ele>
        <time>2014-05-18T07:59:00Z</time>
      </trkpt>
      <trkpt lat="44.08843" lon="3.02262">
        <ele>486.752855</ele>
        <time>2014-05-18T07:59:03Z</time>
      </trkpt>
      <trkpt lat="44.0884" lon="3.02254">
        <ele>487.390393</ele>
        <time>2014-05-18T07:59:06Z</time>
      </trkpt>
      <trkpt lat="44.08837" lon="3.02247">
        <ele>487.939336</ele>
        <time>2014-05-18T07:59:09Z</time>
      </trkpt>
      <trkpt lat="44.08834" lon="3.0224">
        <ele>488.827886</ele>
        <time>2014-05-18T07:59:13Z</time>
      </trkpt>
      <trkpt lat="44.08834" lon="3.02234">
        <ele>489.613517</ele>
        <time>2014-05-18T07:59:16Z</time>
      </trkpt>
      <trkpt lat="44.08832" lon="3.02225">
        <ele>490.782388</ele>
        <time>2014-05-18T07:59:20Z</time>
      </trkpt>
      <trkpt lat="44.08831" lon="3.02219">
        <ele>491.32865</ele>
        <time>2014-05-18T07:59:22Z</time>
      </trkpt>
      <trkpt lat="44.0883" lon="3.02212">
        <ele>492.193963</ele>
        <time>2014-05-18T07:59:25Z</time>
      </trkpt>
      <trkpt lat="44.08828" lon="3.02206">
        <ele>492.775232</ele>
        <time>2014-05-18T07:59:28Z</time>
      </trkpt>
      <trkpt lat="44.08827" lon="3.02199">
        <ele>493.546728</ele>
        <time>2014-05-18T07:59:31Z</time>
      </trkpt>
      <trkpt lat="44.08824" lon="3.02193">
        <ele>494.407542</ele>
        <time>2014-05-18T07:59:34Z</time>
      </trkpt>
      <trkpt lat="44.08821" lon="3.02186">
        <ele>495.143627</ele>
        <time>2014-05-18T07:59:37Z</time>
      </trkpt>
      <trkpt lat="44.08819" lon="3.02181">
        <ele>495.437326</ele>
        <time>2014-05-18T07:59:39Z</time>
      </trkpt>
      <trkpt lat="44.08816" lon="3.02173">
        <ele>495.614364</ele>
        <time>2014-05-18T07:59:42Z</time>
      </trkpt>
      <trkpt lat="44.08814" lon="3.02166">
        <ele>495.637545</ele>
        <time>2014-05-18T07:59:45Z</time>
      </trkpt>
      <trkpt lat="44.08813" lon="3.02158">
        <ele>495.871291</ele>
        <time>2014-05-18T07:59:48Z</time>
      </trkpt>
      <trkpt lat="44.08812" lon="3.02149">
        <ele>496.18445</ele>
        <time>2014-05-18T07:59:51Z</time>
      </trkpt>
      <trkpt lat="44.08809" lon="3.02143">
        <ele>496.546236</ele>
        <time>2014-05-18T07:59:54Z</time>
      </trkpt>
      <trkpt lat="44.08808" lon="3.02136">
        <ele>497.023422</ele>
        <time>2014-05-18T07:59:57Z</time>
      </trkpt>
      <trkpt lat="44.08805" lon="3.02129">
        <ele>497.617316</ele>
        <time>2014-05-18T08:00:00Z</time>
      </trkpt>
      <trkpt lat="44.08802" lon="3.02123">
        <ele>498.223449</ele>
        <time>2014-05-18T08:00:03Z</time>
      </trkpt>
      <trkpt lat="44.088" lon="3.02116">
        <ele>498.469247</ele>
        <time>2014-05-18T08:00:06Z</time>
      </trkpt>
      <trkpt lat="44.08798" lon="3.02109">
        <ele>498.705144</ele>
        <time>2014-05-18T08:00:09Z</time>
      </trkpt>
      <trkpt lat="44.08795" lon="3.02102">
        <ele>499.052883</ele>
        <time>2014-05-18T08:00:12Z</time>
      </trkpt>
      <trkpt lat="44.08793" lon="3.02096">
        <ele>499.408477</ele>
        <time>2014-05-18T08:00:14Z</time>
      </trkpt>
      <trkpt lat="44.0879" lon="3.02089">
        <ele>500.069904</ele>
        <time>2014-05-18T08:00:17Z</time>
      </trkpt>
      <trkpt lat="44.08789" lon="3.02082">
        <ele>500.819566</ele>
        <time>2014-05-18T08:00:20Z</time>
      </trkpt>
      <trkpt lat="44.08788" lon="3.02076">
        <ele>501.529458</ele>
        <time>2014-05-18T08:00:23Z</time>
      </trkpt>
      <trkpt lat="44.08786" lon="3.02068">
        <ele>502.23347</ele>
        <time>2014-05-18T08:00:26Z</time>
      </trkpt>
      <trkpt lat="44.08784" lon="3.02061">
        <ele>503.119928</ele>
        <time>2014-05-18T08:00:29Z</time>
      </trkpt>
      <trkpt lat="44.08782" lon="3.02054">
        <ele>504.045288</ele>
        <time>2014-05-18T08:00:32Z</time>
      </trkpt>
      <trkpt lat="44.08781" lon="3.02047">
        <ele>504.770146</ele>
        <time>2014-05-18T08:00:35Z</time>
      </trkpt>
      <trkpt lat="44.0878" lon="3.0204">
        <ele>505.413208</ele>
        <time>2014-05-18T08:00:38Z</time>
      </trkpt>
      <trkpt lat="44.08779" lon="3.02032">
        <ele>506.039954</ele>
        <time>2014-05-18T08:00:41Z</time>
      </trkpt>
      <trkpt lat="44.08777" lon="3.02023">
        <ele>506.750069</ele>
        <time>2014-05-18T08:00:44Z</time>
      </trkpt>
      <trkpt lat="44.08776" lon="3.02016">
        <ele>507.555916</ele>
        <time>2014-05-18T08:00:47Z</time>
      </trkpt>
      <trkpt lat="44.08774" lon="3.02009">
        <ele>508.441055</ele>
        <time>2014-05-18T08:00:50Z</time>
      </trkpt>
      <trkpt lat="44.08774" lon="3.02003">
        <ele>509.314789</ele>
        <time>2014-05-18T08:00:53Z</time>
      </trkpt>
      <trkpt lat="44.08773" lon="3.01994">
        <ele>510.033017</ele>
        <time>2014-05-18T08:00:56Z</time>
      </trkpt>
      <trkpt lat="44.08774" lon="3.01987">
        <ele>510.959707</ele>
        <time>2014-05-18T08:00:59Z</time>
      </trkpt>
      <trkpt lat="44.08774" lon="3.01977">
        <ele>511.772706</ele>
        <time>2014-05-18T08:01:03Z</time>
      </trkpt>
      <trkpt lat="44.08774" lon="3.0197">
        <ele>512.476775</ele>
        <time>2014-05-18T08:01:06Z</time>
      </trkpt>
      <trkpt lat="44.08774" lon="3.01962">
        <ele>513.508644</ele>
        <time>2014-05-18T08:01:09Z</time>
      </trkpt>
      <trkpt lat="44.08773" lon="3.01955">
        <ele>514.520841</ele>
        <time>2014-05-18T08:01:12Z</time>
      </trkpt>
      <trkpt lat="44.08775" lon="3.01948">
        <ele>515.487127</ele>
        <time>2014-05-18T08:01:15Z</time>
      </trkpt>
      <trkpt lat="44.08776" lon="3.01941">
        <ele>516.317543</ele>
        <time>2014-05-18T08:01:18Z</time>
      </trkpt>
      <trkpt lat="44.08779" lon="3.01934">
        <ele>516.827391</ele>
        <time>2014-05-18T08:01:21Z</time>
      </trkpt>
      <trkpt lat="44.08783" lon="3.01928">
        <ele>517.310408</ele>
        <time>2014-05-18T08:01:24Z</time>
      </trkpt>
      <trkpt lat="44.08786" lon="3.01922">
        <ele>518.210309</ele>
        <time>2014-05-18T08:01:28Z</time>
      </trkpt>
      <trkpt lat="44.0879" lon="3.01916">
        <ele>518.941632</ele>
        <time>2014-05-18T08:01:31Z</time>
      </trkpt>
      <trkpt lat="44.08793" lon="3.0191">
        <ele>519.599471</ele>
        <time>2014-05-18T08:01:34Z</time>
      </trkpt>
      <trkpt lat="44.08798" lon="3.01905">
        <ele>520.213198</ele>
        <time>2014-05-18T08:01:37Z</time>
      </trkpt>
      <trkpt lat="44.08803" lon="3.019">
        <ele>520.814827</ele>
        <time>2014-05-18T08:01:40Z</time>
      </trkpt>
      <trkpt lat="44.08807" lon="3.01897">
        <ele>521.435733</ele>
        <time>2014-05-18T08:01:43Z</time>
      </trkpt>
      <trkpt lat="44.08813" lon="3.01894">
        <ele>521.88896</ele>
        <time>2014-05-18T08:01:46Z</time>
      </trkpt>
      <trkpt lat="44.08818" lon="3.01893">
        <ele>522.176437</ele>
        <time>2014-05-18T08:01:48Z</time>
      </trkpt>
      <trkpt lat="44.08823" lon="3.01893">
        <ele>522.489544</ele>
        <time>2014-05-18T08:01:50Z</time>
      </trkpt>
      <trkpt lat="44.08827" lon="3.01895">
        <ele>522.793786</ele>
        <time>2014-05-18T08:01:52Z</time>
      </trkpt>
      <trkpt lat="44.08832" lon="3.01898">
        <ele>523.080748</ele>
        <time>2014-05-18T08:01:54Z</time>
      </trkpt>
      <trkpt lat="44.08835" lon="3.01906">
        <ele>523.437095</ele>
        <time>2014-05-18T08:01:57Z</time>
      </trkpt>
      <trkpt lat="44.08834" lon="3.01913">
        <ele>523.617148</ele>
        <time>2014-05-18T08:01:59Z</time>
      </trkpt>
      <trkpt lat="44.0883" lon="3.01919">
        <ele>523.698019</ele>
        <time>2014-05-18T08:02:01Z</time>
      </trkpt>
      <trkpt lat="44.08827" lon="3.01925">
        <ele>523.624681</ele>
        <time>2014-05-18T08:02:03Z</time>
      </trkpt>
      <trkpt lat="44.08823" lon="3.0193">
        <ele>523.484126</ele>
        <time>2014-05-18T08:02:05Z</time>
      </trkpt>
      <trkpt lat="44.08819" lon="3.01937">
        <ele>523.444538</ele>
        <time>2014-05-18T08:02:08Z</time>
      </trkpt>
      <trkpt lat="44.08819" lon="3.01945">
        <ele>523.492891</ele>
        <time>2014-05-18T08:02:10Z</time>
      </trkpt>
      <trkpt lat="44.08818" lon="3.01951">
        <ele>523.748606</ele>
        <time>2014-05-18T08:02:12Z</time>
      </trkpt>
      <trkpt lat="44.08816" lon="3.01958">
        <ele>524.210976</ele>
        <time>2014-05-18T08:02:15Z</time>
      </trkpt>
      <trkpt lat="44.08814" lon="3.01965">
        <ele>524.821936</ele>
        <time>2014-05-18T08:02:18Z</time>
      </trkpt>
      <trkpt lat="44.08814" lon="3.01972">
        <ele>525.37268</ele>
        <time>2014-05-18T08:02:21Z</time>
      </trkpt>
      <trkpt lat="44.08814" lon="3.01979">
        <ele>525.955266</ele>
        <time>2014-05-18T08:02:24Z</time>
      </trkpt>
      <trkpt lat="44.08814" lon="3.01986">
        <ele>526.725489</ele>
        <time>2014-05-18T08:02:27Z</time>
      </trkpt>
      <trkpt lat="44.08815" lon="3.01994">
        <ele>527.606724</ele>
        <time>2014-05-18T08:02:30Z</time>
      </trkpt>
      <trkpt lat="44.08816" lon="3.02001">
        <ele>528.336194</ele>
        <time>2014-05-18T08:02:33Z</time>
      </trkpt>
      <trkpt lat="44.08817" lon="3.02007">
        <ele>528.936191</ele>
        <time>2014-05-18T08:02:36Z</time>
      </trkpt>
      <trkpt lat="44.0882" lon="3.02013">
        <ele>529.710832</ele>
        <time>2014-05-18T08:02:39Z</time>
      </trkpt>
      <trkpt lat="44.08823" lon="3.02018">
        <ele>530.462777</ele>
        <time>2014-05-18T08:02:42Z</time>
      </trkpt>
      <trkpt lat="44.08827" lon="3.02023">
        <ele>531.172545</ele>
        <time>2014-05-18T08:02:45Z</time>
      </trkpt>
      <trkpt lat="44.08831" lon="3.02029">
        <ele>531.688546</ele>
        <time>2014-05-18T08:02:48Z</time>
      </trkpt>
      <trkpt lat="44.08834" lon="3.02035">
        <ele>532.022856</ele>
        <time>2014-05-18T08:02:50Z</time>
      </trkpt>
      <trkpt lat="44.08837" lon="3.0204">
        <ele>532.392022</ele>
        <time>2014-05-18T08:02:52Z</time>
      </trkpt>
      <trkpt lat="44.0884" lon="3.02044">
        <ele>532.89334</ele>
        <time>2014-05-18T08:02:55Z</time>
      </trkpt>
      <trkpt lat="44.08844" lon="3.02049">
        <ele>533.324349</ele>
        <time>2014-05-18T08:02:58Z</time>
      </trkpt>
      <trkpt lat="44.08846" lon="3.02054">
        <ele>533.649483</ele>
        <time>2014-05-18T08:03:00Z</time>
      </trkpt>
      <trkpt lat="44.0885" lon="3.02061">
        <ele>534.022709</ele>
        <time>2014-05-18T08:03:03Z</time>
      </trkpt>
      <trkpt lat="44.08854" lon="3.02067">
        <ele>534.519742</ele>
        <time>2014-05-18T08:03:06Z</time>
      </trkpt>
      <trkpt lat="44.08858" lon="3.02073">
        <ele>535.108073</ele>
        <time>2014-05-18T08:03:09Z</time>
      </trkpt>
      <trkpt lat="44.0886" lon="3.02079">
        <ele>535.615244</ele>
        <time>2014-05-18T08:03:12Z</time>
      </trkpt>
      <trkpt lat="44.08864" lon="3.02086">
        <ele>536.138274</ele>
        <time>2014-05-18T08:03:16Z</time>
      </trkpt>
      <trkpt lat="44.08867" lon="3.02091">
        <ele>536.775518</ele>
        <time>2014-05-18T08:03:19Z</time>
      </trkpt>
      <trkpt lat="44.0887" lon="3.02097">
        <ele>537.373899</ele>
        <time>2014-05-18T08:03:22Z</time>
      </trkpt>
      <trkpt lat="44.08873" lon="3.02103">
        <ele>538.170161</ele>
        <time>2014-05-18T08:03:26Z</time>
      </trkpt>
      <trkpt lat="44.08877" lon="3.02109">
        <ele>538.806285</ele>
        <time>2014-05-18T08:03:29Z</time>
      </trkpt>
      <trkpt lat="44.0888" lon="3.02114">
        <ele>539.447151</ele>
        <time>2014-05-18T08:03:32Z</time>
      </trkpt>
      <trkpt lat="44.08884" lon="3.0212">
        <ele>540.085013</ele>
        <time>2014-05-18T08:03:35Z</time>
      </trkpt>
      <trkpt lat="44.08887" lon="3.02126">
        <ele>540.882114</ele>
        <time>2014-05-18T08:03:39Z</time>
      </trkpt>
      <trkpt lat="44.08891" lon="3.02132">
        <ele>541.44807</ele>
        <time>2014-05-18T08:03:42Z</time>
      </trkpt>
      <trkpt lat="44.08894" lon="3.02138">
        <ele>542.080581</ele>
        <time>2014-05-18T08:03:45Z</time>
      </trkpt>
      <trkpt lat="44.08898" lon="3.02144">
        <ele>543.232659</ele>
        <time>2014-05-18T08:03:49Z</time>
      </trkpt>
      <trkpt lat="44.08902" lon="3.02149">
        <ele>543.837237</ele>
        <time>2014-05-18T08:03:52Z</time>
      </trkpt>
      <trkpt lat="44.08905" lon="3.02155">
        <ele>544.244595</ele>
        <time>2014-05-18T08:03:55Z</time>
      </trkpt>
      <trkpt lat="44.08909" lon="3.02162">
        <ele>544.594854</ele>
        <time>2014-05-18T08:03:58Z</time>
      </trkpt>
      <trkpt lat="44.08912" lon="3.02167">
        <ele>544.735315</ele>
        <time>2014-05-18T08:04:01Z</time>
      </trkpt>
      <trkpt lat="44.08916" lon="3.02173">
        <ele>544.749115</ele>
        <time>2014-05-18T08:04:04Z</time>
      </trkpt>
      <trkpt lat="44.0892" lon="3.02178">
        <ele>544.895541</ele>
        <time>2014-05-18T08:04:07Z</time>
      </trkpt>
      <trkpt lat="44.08923" lon="3.02183">
        <ele>545.273568</ele>
        <time>2014-05-18T08:04:10Z</time>
      </trkpt>
      <trkpt lat="44.08926" lon="3.02188">
        <ele>545.579719</ele>
        <time>2014-05-18T08:04:13Z</time>
      </trkpt>
      <trkpt lat="44.08929" lon="3.02193">
        <ele>545.781668</ele>
        <time>2014-05-18T08:04:15Z</time>
      </trkpt>
      <trkpt lat="44.08934" lon="3.02199">
        <ele>546.104987</ele>
        <time>2014-05-18T08:04:18Z</time>
      </trkpt>
      <trkpt lat="44.08938" lon="3.02204">
        <ele>546.384</ele>
        <time>2014-05-18T08:04:21Z</time>
      </trkpt>
      <trkpt lat="44.08942" lon="3.02209">
        <ele>546.544608</ele>
        <time>2014-05-18T08:04:24Z</time>
      </trkpt>
      <trkpt lat="44.08947" lon="3.02215">
        <ele>546.816686</ele>
        <time>2014-05-18T08:04:27Z</time>
      </trkpt>
      <trkpt lat="44.08951" lon="3.02219">
        <ele>547.083422</ele>
        <time>2014-05-18T08:04:30Z</time>
      </trkpt>
      <trkpt lat="44.08954" lon="3.02224">
        <ele>547.334488</ele>
        <time>2014-05-18T08:04:33Z</time>
      </trkpt>
      <trkpt lat="44.08957" lon="3.02229">
        <ele>547.88174</ele>
        <time>2014-05-18T08:04:37Z</time>
      </trkpt>
      <trkpt lat="44.08961" lon="3.02235">
        <ele>548.598213</ele>
        <time>2014-05-18T08:04:40Z</time>
      </trkpt>
      <trkpt lat="44.08965" lon="3.02241">
        <ele>549.32579</ele>
        <time>2014-05-18T08:04:43Z</time>
      </trkpt>
      <trkpt lat="44.08968" lon="3.02246">
        <ele>549.916926</ele>
        <time>2014-05-18T08:04:46Z</time>
      </trkpt>
      <trkpt lat="44.08973" lon="3.02251">
        <ele>550.488304</ele>
        <time>2014-05-18T08:04:49Z</time>
      </trkpt>
      <trkpt lat="44.08977" lon="3.02255">
        <ele>550.955628</ele>
        <time>2014-05-18T08:04:52Z</time>
      </trkpt>
      <trkpt lat="44.08981" lon="3.0226">
        <ele>551.442891</ele>
        <time>2014-05-18T08:04:56Z</time>
      </trkpt>
      <trkpt lat="44.08985" lon="3.02265">
        <ele>551.823114</ele>
        <time>2014-05-18T08:04:59Z</time>
      </trkpt>
      <trkpt lat="44.08989" lon="3.0227">
        <ele>552.685968</ele>
        <time>2014-05-18T08:05:03Z</time>
      </trkpt>
      <trkpt lat="44.08993" lon="3.02274">
        <ele>553.186785</ele>
        <time>2014-05-18T08:05:06Z</time>
      </trkpt>
      <trkpt lat="44.08996" lon="3.0228">
        <ele>553.529239</ele>
        <time>2014-05-18T08:05:08Z</time>
      </trkpt>
      <trkpt lat="44.09" lon="3.02284">
        <ele>553.791594</ele>
        <time>2014-05-18T08:05:10Z</time>
      </trkpt>
      <trkpt lat="44.09003" lon="3.0229">
        <ele>554.098632</ele>
        <time>2014-05-18T08:05:13Z</time>
      </trkpt>
      <trkpt lat="44.09007" lon="3.02295">
        <ele>554.486695</ele>
        <time>2014-05-18T08:05:16Z</time>
      </trkpt>
      <trkpt lat="44.09011" lon="3.02299">
        <ele>555.161737</ele>
        <time>2014-05-18T08:05:19Z</time>
      </trkpt>
      <trkpt lat="44.09015" lon="3.02303">
        <ele>556.028018</ele>
        <time>2014-05-18T08:05:22Z</time>
      </trkpt>
      <trkpt lat="44.09019" lon="3.02308">
        <ele>556.773277</ele>
        <time>2014-05-18T08:05:25Z</time>
      </trkpt>
      <trkpt lat="44.09024" lon="3.02311">
        <ele>557.499442</ele>
        <time>2014-05-18T08:05:28Z</time>
      </trkpt>
      <trkpt lat="44.09029" lon="3.02316">
        <ele>558.266579</ele>
        <time>2014-05-18T08:05:32Z</time>
      </trkpt>
      <trkpt lat="44.09034" lon="3.02318">
        <ele>558.736002</ele>
        <time>2014-05-18T08:05:35Z</time>
      </trkpt>
      <trkpt lat="44.09039" lon="3.02321">
        <ele>559.277941</ele>
        <time>2014-05-18T08:05:38Z</time>
      </trkpt>
      <trkpt lat="44.09043" lon="3.02325">
        <ele>559.878194</ele>
        <time>2014-05-18T08:05:41Z</time>
      </trkpt>
      <trkpt lat="44.09049" lon="3.02329">
        <ele>560.623896</ele>
        <time>2014-05-18T08:05:44Z</time>
      </trkpt>
      <trkpt lat="44.09055" lon="3.02332">
        <ele>561.371514</ele>
        <time>2014-05-18T08:05:47Z</time>
      </trkpt>
      <trkpt lat="44.0906" lon="3.02334">
        <ele>561.958138</ele>
        <time>2014-05-18T08:05:50Z</time>
      </trkpt>
      <trkpt lat="44.09065" lon="3.02337">
        <ele>562.840028</ele>
        <time>2014-05-18T08:05:54Z</time>
      </trkpt>
      <trkpt lat="44.09071" lon="3.02341">
        <ele>563.353364</ele>
        <time>2014-05-18T08:05:57Z</time>
      </trkpt>
      <trkpt lat="44.09076" lon="3.02344">
        <ele>563.869887</ele>
        <time>2014-05-18T08:06:00Z</time>
      </trkpt>
      <trkpt lat="44.09081" lon="3.02346">
        <ele>564.447108</ele>
        <time>2014-05-18T08:06:03Z</time>
      </trkpt>
      <trkpt lat="44.09087" lon="3.02348">
        <ele>564.916441</ele>
        <time>2014-05-18T08:06:06Z</time>
      </trkpt>
      <trkpt lat="44.09092" lon="3.0235">
        <ele>565.396382</ele>
        <time>2014-05-18T08:06:09Z</time>
      </trkpt>
      <trkpt lat="44.09098" lon="3.02351">
        <ele>565.962132</ele>
        <time>2014-05-18T08:06:13Z</time>
      </trkpt>
      <trkpt lat="44.09103" lon="3.02352">
        <ele>566.666037</ele>
        <time>2014-05-18T08:06:16Z</time>
      </trkpt>
      <trkpt lat="44.09108" lon="3.02354">
        <ele>567.466816</ele>
        <time>2014-05-18T08:06:19Z</time>
      </trkpt>
      <trkpt lat="44.09114" lon="3.02355">
        <ele>568.233983</ele>
        <time>2014-05-18T08:06:22Z</time>
      </trkpt>
      <trkpt lat="44.09119" lon="3.02357">
        <ele>569.008673</ele>
        <time>2014-05-18T08:06:25Z</time>
      </trkpt>
      <trkpt lat="44.09124" lon="3.02358">
        <ele>569.618881</ele>
        <time>2014-05-18T08:06:28Z</time>
      </trkpt>
      <trkpt lat="44.0913" lon="3.0236">
        <ele>570.229711</ele>
        <time>2014-05-18T08:06:31Z</time>
      </trkpt>
      <trkpt lat="44.09135" lon="3.02361">
        <ele>570.862534</ele>
        <time>2014-05-18T08:06:34Z</time>
      </trkpt>
      <trkpt lat="44.09141" lon="3.02364">
        <ele>571.469219</ele>
        <time>2014-05-18T08:06:38Z</time>
      </trkpt>
      <trkpt lat="44.09146" lon="3.02366">
        <ele>572.004736</ele>
        <time>2014-05-18T08:06:41Z</time>
      </trkpt>
      <trkpt lat="44.09152" lon="3.02368">
        <ele>572.495213</ele>
        <time>2014-05-18T08:06:44Z</time>
      </trkpt>
      <trkpt lat="44.09157" lon="3.02369">
        <ele>572.817248</ele>
        <time>2014-05-18T08:06:46Z</time>
      </trkpt>
      <trkpt lat="44.09163" lon="3.02371">
        <ele>573.320797</ele>
        <time>2014-05-18T08:06:49Z</time>
      </trkpt>
      <trkpt lat="44.09168" lon="3.02374">
        <ele>573.85443</ele>
        <time>2014-05-18T08:06:52Z</time>
      </trkpt>
      <trkpt lat="44.09174" lon="3.02375">
        <ele>574.60745</ele>
        <time>2014-05-18T08:06:55Z</time>
      </trkpt>
      <trkpt lat="44.0918" lon="3.02375">
        <ele>575.387469</ele>
        <time>2014-05-18T08:06:58Z</time>
      </trkpt>
      <trkpt lat="44.09185" lon="3.02374">
        <ele>576.315308</ele>
        <time>2014-05-18T08:07:01Z</time>
      </trkpt>
      <trkpt lat="44.0919" lon="3.02374">
        <ele>577.105266</ele>
        <time>2014-05-18T08:07:04Z</time>
      </trkpt>
      <trkpt lat="44.09195" lon="3.02375">
        <ele>577.832184</ele>
        <time>2014-05-18T08:07:07Z</time>
      </trkpt>
      <trkpt lat="44.09201" lon="3.02377">
        <ele>578.583392</ele>
        <time>2014-05-18T08:07:10Z</time>
      </trkpt>
      <trkpt lat="44.09207" lon="3.02378">
        <ele>579.191342</ele>
        <time>2014-05-18T08:07:13Z</time>
      </trkpt>
      <trkpt lat="44.09213" lon="3.02381">
        <ele>579.828468</ele>
        <time>2014-05-18T08:07:16Z</time>
      </trkpt>
      <trkpt lat="44.09218" lon="3.02385">
        <ele>580.46064</ele>
        <time>2014-05-18T08:07:19Z</time>
      </trkpt>
      <trkpt lat="44.09224" lon="3.02388">
        <ele>581.10086</ele>
        <time>2014-05-18T08:07:22Z</time>
      </trkpt>
      <trkpt lat="44.09228" lon="3.02391">
        <ele>581.592203</ele>
        <time>2014-05-18T08:07:24Z</time>
      </trkpt>
      <trkpt lat="44.09233" lon="3.02395">
        <ele>582.233865</ele>
        <time>2014-05-18T08:07:27Z</time>
      </trkpt>
      <trkpt lat="44.09238" lon="3.02398">
        <ele>583.070992</ele>
        <time>2014-05-18T08:07:30Z</time>
      </trkpt>
      <trkpt lat="44.09244" lon="3.02401">
        <ele>583.927916</ele>
        <time>2014-05-18T08:07:33Z</time>
      </trkpt>
      <trkpt lat="44.09248" lon="3.02403">
        <ele>584.648494</ele>
        <time>2014-05-18T08:07:36Z</time>
      </trkpt>
      <trkpt lat="44.09253" lon="3.02404">
        <ele>585.332343</ele>
        <time>2014-05-18T08:07:39Z</time>
      </trkpt>
      <trkpt lat="44.09258" lon="3.02405">
        <ele>585.941218</ele>
        <time>2014-05-18T08:07:42Z</time>
      </trkpt>
      <trkpt lat="44.09264" lon="3.02405">
        <ele>586.67781</ele>
        <time>2014-05-18T08:07:46Z</time>
      </trkpt>
      <trkpt lat="44.09269" lon="3.02403">
        <ele>587.294868</ele>
        <time>2014-05-18T08:07:49Z</time>
      </trkpt>
      <trkpt lat="44.09275" lon="3.02401">
        <ele>587.668803</ele>
        <time>2014-05-18T08:07:52Z</time>
      </trkpt>
      <trkpt lat="44.09281" lon="3.024">
        <ele>588.140907</ele>
        <time>2014-05-18T08:07:55Z</time>
      </trkpt>
      <trkpt lat="44.09286" lon="3.02399">
        <ele>589.037019</ele>
        <time>2014-05-18T08:07:59Z</time>
      </trkpt>
      <trkpt lat="44.09291" lon="3.02398">
        <ele>590.386184</ele>
        <time>2014-05-18T08:08:03Z</time>
      </trkpt>
      <trkpt lat="44.09297" lon="3.02396">
        <ele>591.436329</ele>
        <time>2014-05-18T08:08:06Z</time>
      </trkpt>
      <trkpt lat="44.09303" lon="3.02396">
        <ele>592.661938</ele>
        <time>2014-05-18T08:08:10Z</time>
      </trkpt>
      <trkpt lat="44.09308" lon="3.02393">
        <ele>593.555276</ele>
        <time>2014-05-18T08:08:14Z</time>
      </trkpt>
      <trkpt lat="44.09314" lon="3.02391">
        <ele>594.262762</ele>
        <time>2014-05-18T08:08:17Z</time>
      </trkpt>
      <trkpt lat="44.0932" lon="3.02388">
        <ele>595.028651</ele>
        <time>2014-05-18T08:08:20Z</time>
      </trkpt>
      <trkpt lat="44.09325" lon="3.02387">
        <ele>595.451624</ele>
        <time>2014-05-18T08:08:22Z</time>
      </trkpt>
      <trkpt lat="44.09331" lon="3.02385">
        <ele>596.070273</ele>
        <time>2014-05-18T08:08:25Z</time>
      </trkpt>
      <trkpt lat="44.09336" lon="3.02383">
        <ele>596.395205</ele>
        <time>2014-05-18T08:08:27Z</time>
      </trkpt>
      <trkpt lat="44.0934" lon="3.0238">
        <ele>596.718024</ele>
        <time>2014-05-18T08:08:30Z</time>
      </trkpt>
      <trkpt lat="44.09344" lon="3.02378">
        <ele>597.215172</ele>
        <time>2014-05-18T08:08:33Z</time>
      </trkpt>
      <trkpt lat="44.09348" lon="3.02375">
        <ele>597.785201</ele>
        <time>2014-05-18T08:08:36Z</time>
      </trkpt>
      <trkpt lat="44.09354" lon="3.02372">
        <ele>598.594569</ele>
        <time>2014-05-18T08:08:39Z</time>
      </trkpt>
      <trkpt lat="44.09359" lon="3.02367">
        <ele>599.709117</ele>
        <time>2014-05-18T08:08:43Z</time>
      </trkpt>
      <trkpt lat="44.09364" lon="3.02363">
        <ele>600.389116</ele>
        <time>2014-05-18T08:08:46Z</time>
      </trkpt>
      <trkpt lat="44.09368" lon="3.02358">
        <ele>600.723183</ele>
        <time>2014-05-18T08:08:49Z</time>
      </trkpt>
      <trkpt lat="44.09373" lon="3.02355">
        <ele>601.069743</ele>
        <time>2014-05-18T08:08:52Z</time>
      </trkpt>
      <trkpt lat="44.09377" lon="3.02352">
        <ele>601.379444</ele>
        <time>2014-05-18T08:08:55Z</time>
      </trkpt>
      <trkpt lat="44.09382" lon="3.02348">
        <ele>602.18058</ele>
        <time>2014-05-18T08:08:59Z</time>
      </trkpt>
      <trkpt lat="44.09386" lon="3.02343">
        <ele>602.830831</ele>
        <time>2014-05-18T08:09:02Z</time>
      </trkpt>
      <trkpt lat="44.09388" lon="3.02337">
        <ele>603.407096</ele>
        <time>2014-05-18T08:09:04Z</time>
      </trkpt>
      <trkpt lat="44.09389" lon="3.02329">
        <ele>604.189214</ele>
        <time>2014-05-18T08:09:07Z</time>
      </trkpt>
      <trkpt lat="44.09391" lon="3.02322">
        <ele>604.610272</ele>
        <time>2014-05-18T08:09:09Z</time>
      </trkpt>
      <trkpt lat="44.09393" lon="3.02315">
        <ele>605.15438</ele>
        <time>2014-05-18T08:09:12Z</time>
      </trkpt>
      <trkpt lat="44.09395" lon="3.02308">
        <ele>605.863011</ele>
        <time>2014-05-18T08:09:15Z</time>
      </trkpt>
      <trkpt lat="44.09397" lon="3.02301">
        <ele>606.518725</ele>
        <time>2014-05-18T08:09:18Z</time>
      </trkpt>
      <trkpt lat="44.09399" lon="3.02293">
        <ele>607.040908</ele>
        <time>2014-05-18T08:09:21Z</time>
      </trkpt>
      <trkpt lat="44.094" lon="3.02286">
        <ele>607.467904</ele>
        <time>2014-05-18T08:09:23Z</time>
      </trkpt>
      <trkpt lat="44.09401" lon="3.0228">
        <ele>608.207123</ele>
        <time>2014-05-18T08:09:26Z</time>
      </trkpt>
      <trkpt lat="44.09404" lon="3.02273">
        <ele>609.414829</ele>
        <time>2014-05-18T08:09:30Z</time>
      </trkpt>
      <trkpt lat="44.09407" lon="3.02267">
        <ele>610.297735</ele>
        <time>2014-05-18T08:09:33Z</time>
      </trkpt>
      <trkpt lat="44.09411" lon="3.02262">
        <ele>610.93235</ele>
        <time>2014-05-18T08:09:36Z</time>
      </trkpt>
      <trkpt lat="44.09415" lon="3.02256">
        <ele>611.644057</ele>
        <time>2014-05-18T08:09:39Z</time>
      </trkpt>
      <trkpt lat="44.0942" lon="3.02251">
        <ele>612.339869</ele>
        <time>2014-05-18T08:09:42Z</time>
      </trkpt>
      <trkpt lat="44.09424" lon="3.02248">
        <ele>612.908221</ele>
        <time>2014-05-18T08:09:44Z</time>
      </trkpt>
      <trkpt lat="44.09429" lon="3.02244">
        <ele>613.565529</ele>
        <time>2014-05-18T08:09:47Z</time>
      </trkpt>
      <trkpt lat="44.09436" lon="3.02241">
        <ele>614.240236</ele>
        <time>2014-05-18T08:09:50Z</time>
      </trkpt>
      <trkpt lat="44.09441" lon="3.02238">
        <ele>614.72391</ele>
        <time>2014-05-18T08:09:53Z</time>
      </trkpt>
      <trkpt lat="44.09446" lon="3.02235">
        <ele>615.179361</ele>
        <time>2014-05-18T08:09:56Z</time>
      </trkpt>
      <trkpt lat="44.09451" lon="3.02232">
        <ele>615.667249</ele>
        <time>2014-05-18T08:09:58Z</time>
      </trkpt>
      <trkpt lat="44.09458" lon="3.02231">
        <ele>616.195624</ele>
        <time>2014-05-18T08:10:01Z</time>
      </trkpt>
      <trkpt lat="44.09463" lon="3.02233">
        <ele>616.471362</ele>
        <time>2014-05-18T08:10:03Z</time>
      </trkpt>
      <trkpt lat="44.09468" lon="3.02235">
        <ele>616.70711</ele>
        <time>2014-05-18T08:10:05Z</time>
      </trkpt>
      <trkpt lat="44.09474" lon="3.02238">
        <ele>617.184109</ele>
        <time>2014-05-18T08:10:08Z</time>
      </trkpt>
      <trkpt lat="44.09479" lon="3.0224">
        <ele>617.551739</ele>
        <time>2014-05-18T08:10:11Z</time>
      </trkpt>
      <trkpt lat="44.09486" lon="3.02237">
        <ele>618.092395</ele>
        <time>2014-05-18T08:10:14Z</time>
      </trkpt>
      <trkpt lat="44.09488" lon="3.0223">
        <ele>618.642015</ele>
        <time>2014-05-18T08:10:19Z</time>
      </trkpt>
      <trkpt lat="44.09488" lon="3.02224">
        <ele>619.232935</ele>
        <time>2014-05-18T08:10:22Z</time>
      </trkpt>
      <trkpt lat="44.09491" lon="3.02218">
        <ele>620.089176</ele>
        <time>2014-05-18T08:10:27Z</time>
      </trkpt>
      <trkpt lat="44.09489" lon="3.02237">
        <ele>621.487147</ele>
        <time>2014-05-18T08:11:01Z</time>
      </trkpt>
      <trkpt lat="44.09491" lon="3.02245">
        <ele>621.849391</ele>
        <time>2014-05-18T08:11:03Z</time>
      </trkpt>
      <trkpt lat="44.09494" lon="3.02252">
        <ele>622.135062</ele>
        <time>2014-05-18T08:11:06Z</time>
      </trkpt>
      <trkpt lat="44.09497" lon="3.02258">
        <ele>622.225796</ele>
        <time>2014-05-18T08:11:08Z</time>
      </trkpt>
      <trkpt lat="44.095" lon="3.02264">
        <ele>622.445703</ele>
        <time>2014-05-18T08:11:11Z</time>
      </trkpt>
      <trkpt lat="44.09501" lon="3.02271">
        <ele>622.615496</ele>
        <time>2014-05-18T08:11:14Z</time>
      </trkpt>
      <trkpt lat="44.09499" lon="3.02278">
        <ele>622.530507</ele>
        <time>2014-05-18T08:11:17Z</time>
      </trkpt>
      <trkpt lat="44.09496" lon="3.02286">
        <ele>622.410308</ele>
        <time>2014-05-18T08:11:20Z</time>
      </trkpt>
      <trkpt lat="44.0949" lon="3.02289">
        <ele>622.255523</ele>
        <time>2014-05-18T08:11:23Z</time>
      </trkpt>
      <trkpt lat="44.09485" lon="3.02289">
        <ele>621.927244</ele>
        <time>2014-05-18T08:11:27Z</time>
      </trkpt>
      <trkpt lat="44.0948" lon="3.02287">
        <ele>621.658538</ele>
        <time>2014-05-18T08:11:30Z</time>
      </trkpt>
      <trkpt lat="44.09477" lon="3.02282">
        <ele>621.658827</ele>
        <time>2014-05-18T08:11:34Z</time>
      </trkpt>
      <trkpt lat="44.09475" lon="3.02276">
        <ele>621.23142</ele>
        <time>2014-05-18T08:11:42Z</time>
      </trkpt>
      <trkpt lat="44.0947" lon="3.02278">
        <ele>620.325477</ele>
        <time>2014-05-18T08:11:47Z</time>
      </trkpt>
      <trkpt lat="44.09465" lon="3.02281">
        <ele>620.116055</ele>
        <time>2014-05-18T08:11:49Z</time>
      </trkpt>
      <trkpt lat="44.0946" lon="3.02282">
        <ele>620.097789</ele>
        <time>2014-05-18T08:11:54Z</time>
      </trkpt>
      <trkpt lat="44.09455" lon="3.02284">
        <ele>620.481577</ele>
        <time>2014-05-18T08:11:58Z</time>
      </trkpt>
      <trkpt lat="44.0945" lon="3.02282">
        <ele>621.376306</ele>
        <time>2014-05-18T08:12:07Z</time>
      </trkpt>
      <trkpt lat="44.09446" lon="3.02276">
        <ele>622.081008</ele>
        <time>2014-05-18T08:12:16Z</time>
      </trkpt>
      <trkpt lat="44.09443" lon="3.02271">
        <ele>622.717889</ele>
        <time>2014-05-18T08:12:21Z</time>
      </trkpt>
      <trkpt lat="44.09438" lon="3.02268">
        <ele>623.211079</ele>
        <time>2014-05-18T08:12:26Z</time>
      </trkpt>
      <trkpt lat="44.09434" lon="3.02267">
        <ele>623.762908</ele>
        <time>2014-05-18T08:12:32Z</time>
      </trkpt>
      <trkpt lat="44.09429" lon="3.02265">
        <ele>623.944521</ele>
        <time>2014-05-18T08:12:37Z</time>
      </trkpt>
      <trkpt lat="44.09424" lon="3.02264">
        <ele>623.529111</ele>
        <time>2014-05-18T08:12:45Z</time>
      </trkpt>
      <trkpt lat="44.09421" lon="3.0227">
        <ele>624.026344</ele>
        <time>2014-05-18T08:13:23Z</time>
      </trkpt>
      <trkpt lat="44.09423" lon="3.02276">
        <ele>624.450351</ele>
        <time>2014-05-18T08:14:28Z</time>
      </trkpt>
      <trkpt lat="44.09426" lon="3.02281">
        <ele>624.265347</ele>
        <time>2014-05-18T08:14:32Z</time>
      </trkpt>
      <trkpt lat="44.0943" lon="3.02286">
        <ele>624.172268</ele>
        <time>2014-05-18T08:14:34Z</time>
      </trkpt>
      <trkpt lat="44.09434" lon="3.0229">
        <ele>624.100973</ele>
        <time>2014-05-18T08:14:36Z</time>
      </trkpt>
      <trkpt lat="44.09439" lon="3.02294">
        <ele>624.145294</ele>
        <time>2014-05-18T08:14:38Z</time>
      </trkpt>
      <trkpt lat="44.09444" lon="3.02296">
        <ele>624.065257</ele>
        <time>2014-05-18T08:14:40Z</time>
      </trkpt>
      <trkpt lat="44.09449" lon="3.023">
        <ele>623.900802</ele>
        <time>2014-05-18T08:14:42Z</time>
      </trkpt>
      <trkpt lat="44.09454" lon="3.02303">
        <ele>623.696213</ele>
        <time>2014-05-18T08:14:44Z</time>
      </trkpt>
      <trkpt lat="44.09458" lon="3.02306">
        <ele>623.519336</ele>
        <time>2014-05-18T08:14:46Z</time>
      </trkpt>
      <trkpt lat="44.09463" lon="3.02309">
        <ele>623.246403</ele>
        <time>2014-05-18T08:14:48Z</time>
      </trkpt>
      <trkpt lat="44.09469" lon="3.02314">
        <ele>623.018704</ele>
        <time>2014-05-18T08:14:50Z</time>
      </trkpt>
      <trkpt lat="44.09475" lon="3.0232">
        <ele>622.806588</ele>
        <time>2014-05-18T08:14:52Z</time>
      </trkpt>
      <trkpt lat="44.09478" lon="3.02328">
        <ele>622.65001</ele>
        <time>2014-05-18T08:14:54Z</time>
      </trkpt>
      <trkpt lat="44.09479" lon="3.02334">
        <ele>622.39702</ele>
        <time>2014-05-18T08:14:56Z</time>
      </trkpt>
      <trkpt lat="44.09479" lon="3.02341">
        <ele>622.121068</ele>
        <time>2014-05-18T08:14:58Z</time>
      </trkpt>
      <trkpt lat="44.09481" lon="3.02349">
        <ele>621.921177</ele>
        <time>2014-05-18T08:15:00Z</time>
      </trkpt>
      <trkpt lat="44.09483" lon="3.02357">
        <ele>621.659057</ele>
        <time>2014-05-18T08:15:02Z</time>
      </trkpt>
      <trkpt lat="44.09484" lon="3.02365">
        <ele>621.194581</ele>
        <time>2014-05-18T08:15:04Z</time>
      </trkpt>
      <trkpt lat="44.09486" lon="3.02373">
        <ele>620.675006</ele>
        <time>2014-05-18T08:15:06Z</time>
      </trkpt>
      <trkpt lat="44.09488" lon="3.02381">
        <ele>620.249494</ele>
        <time>2014-05-18T08:15:08Z</time>
      </trkpt>
      <trkpt lat="44.09489" lon="3.02388">
        <ele>619.876714</ele>
        <time>2014-05-18T08:15:10Z</time>
      </trkpt>
      <trkpt lat="44.0949" lon="3.02395">
        <ele>619.614837</ele>
        <time>2014-05-18T08:15:12Z</time>
      </trkpt>
      <trkpt lat="44.09491" lon="3.02403">
        <ele>619.302682</ele>
        <time>2014-05-18T08:15:14Z</time>
      </trkpt>
      <trkpt lat="44.09492" lon="3.0241">
        <ele>619.00155</ele>
        <time>2014-05-18T08:15:16Z</time>
      </trkpt>
      <trkpt lat="44.09493" lon="3.02418">
        <ele>618.727899</ele>
        <time>2014-05-18T08:15:18Z</time>
      </trkpt>
      <trkpt lat="44.09495" lon="3.02425">
        <ele>618.441961</ele>
        <time>2014-05-18T08:15:20Z</time>
      </trkpt>
      <trkpt lat="44.09498" lon="3.02433">
        <ele>618.12906</ele>
        <time>2014-05-18T08:15:22Z</time>
      </trkpt>
      <trkpt lat="44.09501" lon="3.0244">
        <ele>617.701831</ele>
        <time>2014-05-18T08:15:24Z</time>
      </trkpt>
      <trkpt lat="44.09504" lon="3.02447">
        <ele>617.147041</ele>
        <time>2014-05-18T08:15:26Z</time>
      </trkpt>
      <trkpt lat="44.09507" lon="3.02453">
        <ele>616.610968</ele>
        <time>2014-05-18T08:15:28Z</time>
      </trkpt>
      <trkpt lat="44.0951" lon="3.0246">
        <ele>615.810994</ele>
        <time>2014-05-18T08:15:31Z</time>
      </trkpt>
      <trkpt lat="44.09514" lon="3.02467">
        <ele>615.480732</ele>
        <time>2014-05-18T08:15:33Z</time>
      </trkpt>
      <trkpt lat="44.09518" lon="3.02472">
        <ele>615.112023</ele>
        <time>2014-05-18T08:15:35Z</time>
      </trkpt>
      <trkpt lat="44.09522" lon="3.02477">
        <ele>614.675122</ele>
        <time>2014-05-18T08:15:37Z</time>
      </trkpt>
      <trkpt lat="44.09525" lon="3.02483">
        <ele>614.201818</ele>
        <time>2014-05-18T08:15:39Z</time>
      </trkpt>
      <trkpt lat="44.0953" lon="3.02488">
        <ele>613.826026</ele>
        <time>2014-05-18T08:15:41Z</time>
      </trkpt>
      <trkpt lat="44.09534" lon="3.02492">
        <ele>613.464194</ele>
        <time>2014-05-18T08:15:43Z</time>
      </trkpt>
      <trkpt lat="44.09538" lon="3.02496">
        <ele>613.047241</ele>
        <time>2014-05-18T08:15:45Z</time>
      </trkpt>
      <trkpt lat="44.09543" lon="3.025">
        <ele>612.586612</ele>
        <time>2014-05-18T08:15:47Z</time>
      </trkpt>
      <trkpt lat="44.09548" lon="3.02503">
        <ele>612.172992</ele>
        <time>2014-05-18T08:15:49Z</time>
      </trkpt>
      <trkpt lat="44.09553" lon="3.02506">
        <ele>611.900327</ele>
        <time>2014-05-18T08:15:51Z</time>
      </trkpt>
      <trkpt lat="44.09558" lon="3.02508">
        <ele>611.621814</ele>
        <time>2014-05-18T08:15:53Z</time>
      </trkpt>
      <trkpt lat="44.09563" lon="3.02511">
        <ele>611.305636</ele>
        <time>2014-05-18T08:15:55Z</time>
      </trkpt>
      <trkpt lat="44.09567" lon="3.02514">
        <ele>611.003941</ele>
        <time>2014-05-18T08:15:57Z</time>
      </trkpt>
      <trkpt lat="44.09573" lon="3.02518">
        <ele>610.610151</ele>
        <time>2014-05-18T08:16:00Z</time>
      </trkpt>
      <trkpt lat="44.09579" lon="3.02521">
        <ele>610.215549</ele>
        <time>2014-05-18T08:16:03Z</time>
      </trkpt>
      <trkpt lat="44.09585" lon="3.02524">
        <ele>609.751101</ele>
        <time>2014-05-18T08:16:06Z</time>
      </trkpt>
      <trkpt lat="44.09592" lon="3.02525">
        <ele>609.421279</ele>
        <time>2014-05-18T08:16:09Z</time>
      </trkpt>
      <trkpt lat="44.09597" lon="3.02526">
        <ele>609.217763</ele>
        <time>2014-05-18T08:16:11Z</time>
      </trkpt>
      <trkpt lat="44.09603" lon="3.02526">
        <ele>609.216575</ele>
        <time>2014-05-18T08:16:13Z</time>
      </trkpt>
      <trkpt lat="44.09608" lon="3.02526">
        <ele>609.194878</ele>
        <time>2014-05-18T08:16:15Z</time>
      </trkpt>
      <trkpt lat="44.09613" lon="3.02526">
        <ele>609.178065</ele>
        <time>2014-05-18T08:16:18Z</time>
      </trkpt>
      <trkpt lat="44.09618" lon="3.02526">
        <ele>609.210739</ele>
        <time>2014-05-18T08:16:20Z</time>
      </trkpt>
      <trkpt lat="44.09624" lon="3.02525">
        <ele>609.231118</ele>
        <time>2014-05-18T08:16:23Z</time>
      </trkpt>
      <trkpt lat="44.0963" lon="3.02525">
        <ele>609.445873</ele>
        <time>2014-05-18T08:16:26Z</time>
      </trkpt>
      <trkpt lat="44.09636" lon="3.02525">
        <ele>609.616899</ele>
        <time>2014-05-18T08:16:28Z</time>
      </trkpt>
      <trkpt lat="44.09641" lon="3.02524">
        <ele>609.84618</ele>
        <time>2014-05-18T08:16:30Z</time>
      </trkpt>
      <trkpt lat="44.09647" lon="3.02522">
        <ele>610.107622</ele>
        <time>2014-05-18T08:16:33Z</time>
      </trkpt>
      <trkpt lat="44.09653" lon="3.0252">
        <ele>610.336387</ele>
        <time>2014-05-18T08:16:36Z</time>
      </trkpt>
      <trkpt lat="44.09659" lon="3.02519">
        <ele>610.60573</ele>
        <time>2014-05-18T08:16:39Z</time>
      </trkpt>
      <trkpt lat="44.09665" lon="3.02516">
        <ele>611.039499</ele>
        <time>2014-05-18T08:16:42Z</time>
      </trkpt>
      <trkpt lat="44.09669" lon="3.02513">
        <ele>611.331927</ele>
        <time>2014-05-18T08:16:44Z</time>
      </trkpt>
      <trkpt lat="44.09673" lon="3.0251">
        <ele>611.70092</ele>
        <time>2014-05-18T08:16:46Z</time>
      </trkpt>
      <trkpt lat="44.09677" lon="3.02506">
        <ele>612.021387</ele>
        <time>2014-05-18T08:16:48Z</time>
      </trkpt>
      <trkpt lat="44.09683" lon="3.02502">
        <ele>612.536196</ele>
        <time>2014-05-18T08:16:51Z</time>
      </trkpt>
      <trkpt lat="44.09688" lon="3.02497">
        <ele>613.029329</ele>
        <time>2014-05-18T08:16:54Z</time>
      </trkpt>
      <trkpt lat="44.09693" lon="3.02491">
        <ele>613.330779</ele>
        <time>2014-05-18T08:16:57Z</time>
      </trkpt>
      <trkpt lat="44.09697" lon="3.02484">
        <ele>613.424325</ele>
        <time>2014-05-18T08:17:00Z</time>
      </trkpt>
      <trkpt lat="44.09701" lon="3.02477">
        <ele>613.565468</ele>
        <time>2014-05-18T08:17:03Z</time>
      </trkpt>
      <trkpt lat="44.09703" lon="3.02472">
        <ele>613.92961</ele>
        <time>2014-05-18T08:17:06Z</time>
      </trkpt>
      <trkpt lat="44.09705" lon="3.02465">
        <ele>614.28755</ele>
        <time>2014-05-18T08:17:09Z</time>
      </trkpt>
      <trkpt lat="44.09707" lon="3.02459">
        <ele>614.559537</ele>
        <time>2014-05-18T08:17:11Z</time>
      </trkpt>
      <trkpt lat="44.09708" lon="3.02451">
        <ele>614.837183</ele>
        <time>2014-05-18T08:17:14Z</time>
      </trkpt>
      <trkpt lat="44.09709" lon="3.02443">
        <ele>615.103751</ele>
        <time>2014-05-18T08:17:17Z</time>
      </trkpt>
      <trkpt lat="44.0971" lon="3.02436">
        <ele>615.429109</ele>
        <time>2014-05-18T08:17:20Z</time>
      </trkpt>
      <trkpt lat="44.09711" lon="3.02427">
        <ele>615.8456</ele>
        <time>2014-05-18T08:17:23Z</time>
      </trkpt>
      <trkpt lat="44.09711" lon="3.0242">
        <ele>616.057349</ele>
        <time>2014-05-18T08:17:25Z</time>
      </trkpt>
      <trkpt lat="44.09713" lon="3.02412">
        <ele>616.265735</ele>
        <time>2014-05-18T08:17:28Z</time>
      </trkpt>
      <trkpt lat="44.09715" lon="3.02403">
        <ele>616.633052</ele>
        <time>2014-05-18T08:17:31Z</time>
      </trkpt>
      <trkpt lat="44.09715" lon="3.02396">
        <ele>616.950484</ele>
        <time>2014-05-18T08:17:33Z</time>
      </trkpt>
      <trkpt lat="44.09717" lon="3.02388">
        <ele>617.310387</ele>
        <time>2014-05-18T08:17:36Z</time>
      </trkpt>
      <trkpt lat="44.09719" lon="3.02379">
        <ele>617.740712</ele>
        <time>2014-05-18T08:17:39Z</time>
      </trkpt>
      <trkpt lat="44.0972" lon="3.02373">
        <ele>618.008509</ele>
        <time>2014-05-18T08:17:41Z</time>
      </trkpt>
      <trkpt lat="44.09722" lon="3.02366">
        <ele>618.170369</ele>
        <time>2014-05-18T08:17:43Z</time>
      </trkpt>
      <trkpt lat="44.09722" lon="3.02359">
        <ele>618.336188</ele>
        <time>2014-05-18T08:17:45Z</time>
      </trkpt>
      <trkpt lat="44.09723" lon="3.02351">
        <ele>618.532628</ele>
        <time>2014-05-18T08:17:47Z</time>
      </trkpt>
      <trkpt lat="44.09724" lon="3.02344">
        <ele>618.778421</ele>
        <time>2014-05-18T08:17:49Z</time>
      </trkpt>
      <trkpt lat="44.09725" lon="3.02338">
        <ele>619.004578</ele>
        <time>2014-05-18T08:17:51Z</time>
      </trkpt>
      <trkpt lat="44.09725" lon="3.02329">
        <ele>619.310589</ele>
        <time>2014-05-18T08:17:54Z</time>
      </trkpt>
      <trkpt lat="44.09726" lon="3.02322">
        <ele>619.489578</ele>
        <time>2014-05-18T08:17:56Z</time>
      </trkpt>
      <trkpt lat="44.09726" lon="3.02315">
        <ele>619.798313</ele>
        <time>2014-05-18T08:17:59Z</time>
      </trkpt>
      <trkpt lat="44.09727" lon="3.02307">
        <ele>620.270216</ele>
        <time>2014-05-18T08:18:02Z</time>
      </trkpt>
      <trkpt lat="44.09727" lon="3.02298">
        <ele>620.678306</ele>
        <time>2014-05-18T08:18:05Z</time>
      </trkpt>
      <trkpt lat="44.09726" lon="3.02291">
        <ele>621.120491</ele>
        <time>2014-05-18T08:18:08Z</time>
      </trkpt>
      <trkpt lat="44.09727" lon="3.02283">
        <ele>621.512566</ele>
        <time>2014-05-18T08:18:11Z</time>
      </trkpt>
      <trkpt lat="44.09728" lon="3.02274">
        <ele>622.020165</ele>
        <time>2014-05-18T08:18:14Z</time>
      </trkpt>
      <trkpt lat="44.09728" lon="3.02266">
        <ele>622.460198</ele>
        <time>2014-05-18T08:18:17Z</time>
      </trkpt>
      <trkpt lat="44.09729" lon="3.02259">
        <ele>622.79295</ele>
        <time>2014-05-18T08:18:19Z</time>
      </trkpt>
      <trkpt lat="44.0973" lon="3.02251">
        <ele>623.491466</ele>
        <time>2014-05-18T08:18:22Z</time>
      </trkpt>
      <trkpt lat="44.09732" lon="3.02243">
        <ele>624.093089</ele>
        <time>2014-05-18T08:18:25Z</time>
      </trkpt>
      <trkpt lat="44.09733" lon="3.02233">
        <ele>624.522391</ele>
        <time>2014-05-18T08:18:28Z</time>
      </trkpt>
      <trkpt lat="44.09734" lon="3.02227">
        <ele>624.8566</ele>
        <time>2014-05-18T08:18:30Z</time>
      </trkpt>
      <trkpt lat="44.09736" lon="3.02219">
        <ele>625.145171</ele>
        <time>2014-05-18T08:18:32Z</time>
      </trkpt>
      <trkpt lat="44.09737" lon="3.02211">
        <ele>625.527053</ele>
        <time>2014-05-18T08:18:35Z</time>
      </trkpt>
      <trkpt lat="44.09738" lon="3.02205">
        <ele>625.833809</ele>
        <time>2014-05-18T08:18:37Z</time>
      </trkpt>
      <trkpt lat="44.09739" lon="3.02196">
        <ele>626.322289</ele>
        <time>2014-05-18T08:18:40Z</time>
      </trkpt>
      <trkpt lat="44.0974" lon="3.0219">
        <ele>626.676781</ele>
        <time>2014-05-18T08:18:42Z</time>
      </trkpt>
      <trkpt lat="44.0974" lon="3.02182">
        <ele>627.165358</ele>
        <time>2014-05-18T08:18:45Z</time>
      </trkpt>
      <trkpt lat="44.0974" lon="3.02174">
        <ele>627.366367</ele>
        <time>2014-05-18T08:18:47Z</time>
      </trkpt>
      <trkpt lat="44.09741" lon="3.02167">
        <ele>627.627901</ele>
        <time>2014-05-18T08:18:50Z</time>
      </trkpt>
      <trkpt lat="44.09742" lon="3.02159">
        <ele>627.819866</ele>
        <time>2014-05-18T08:18:53Z</time>
      </trkpt>
      <trkpt lat="44.09743" lon="3.02151">
        <ele>627.981439</ele>
        <time>2014-05-18T08:18:55Z</time>
      </trkpt>
      <trkpt lat="44.09743" lon="3.02143">
        <ele>628.24778</ele>
        <time>2014-05-18T08:18:57Z</time>
      </trkpt>
      <trkpt lat="44.09744" lon="3.02136">
        <ele>628.455365</ele>
        <time>2014-05-18T08:18:59Z</time>
      </trkpt>
      <trkpt lat="44.09745" lon="3.0213">
        <ele>628.614674</ele>
        <time>2014-05-18T08:19:01Z</time>
      </trkpt>
      <trkpt lat="44.09747" lon="3.02123">
        <ele>628.630938</ele>
        <time>2014-05-18T08:19:03Z</time>
      </trkpt>
      <trkpt lat="44.09749" lon="3.02116">
        <ele>628.664445</ele>
        <time>2014-05-18T08:19:05Z</time>
      </trkpt>
      <trkpt lat="44.0975" lon="3.0211">
        <ele>628.722426</ele>
        <time>2014-05-18T08:19:07Z</time>
      </trkpt>
      <trkpt lat="44.09751" lon="3.02103">
        <ele>628.809509</ele>
        <time>2014-05-18T08:19:09Z</time>
      </trkpt>
      <trkpt lat="44.09752" lon="3.02097">
        <ele>628.791939</ele>
        <time>2014-05-18T08:19:11Z</time>
      </trkpt>
      <trkpt lat="44.09753" lon="3.0209">
        <ele>628.78326</ele>
        <time>2014-05-18T08:19:13Z</time>
      </trkpt>
      <trkpt lat="44.09753" lon="3.02081">
        <ele>628.997885</ele>
        <time>2014-05-18T08:19:16Z</time>
      </trkpt>
      <trkpt lat="44.09754" lon="3.02074">
        <ele>629.485669</ele>
        <time>2014-05-18T08:19:19Z</time>
      </trkpt>
      <trkpt lat="44.09755" lon="3.02067">
        <ele>629.818984</ele>
        <time>2014-05-18T08:19:21Z</time>
      </trkpt>
      <trkpt lat="44.09756" lon="3.02059">
        <ele>630.183808</ele>
        <time>2014-05-18T08:19:24Z</time>
      </trkpt>
      <trkpt lat="44.09757" lon="3.0205">
        <ele>630.347246</ele>
        <time>2014-05-18T08:19:27Z</time>
      </trkpt>
      <trkpt lat="44.09758" lon="3.02043">
        <ele>630.42264</ele>
        <time>2014-05-18T08:19:29Z</time>
      </trkpt>
      <trkpt lat="44.0976" lon="3.02035">
        <ele>630.416612</ele>
        <time>2014-05-18T08:19:32Z</time>
      </trkpt>
      <trkpt lat="44.09761" lon="3.02028">
        <ele>630.410542</ele>
        <time>2014-05-18T08:19:34Z</time>
      </trkpt>
      <trkpt lat="44.09762" lon="3.02022">
        <ele>630.387282</ele>
        <time>2014-05-18T08:19:36Z</time>
      </trkpt>
      <trkpt lat="44.09763" lon="3.02013">
        <ele>630.295267</ele>
        <time>2014-05-18T08:19:39Z</time>
      </trkpt>
      <trkpt lat="44.09765" lon="3.02007">
        <ele>630.250419</ele>
        <time>2014-05-18T08:19:41Z</time>
      </trkpt>
      <trkpt lat="44.09767" lon="3.02002">
        <ele>630.306865</ele>
        <time>2014-05-18T08:19:43Z</time>
      </trkpt>
      <trkpt lat="44.0977" lon="3.01996">
        <ele>630.342015</ele>
        <time>2014-05-18T08:19:45Z</time>
      </trkpt>
      <trkpt lat="44.09773" lon="3.01989">
        <ele>630.279703</ele>
        <time>2014-05-18T08:19:47Z</time>
      </trkpt>
      <trkpt lat="44.09776" lon="3.01983">
        <ele>630.223265</ele>
        <time>2014-05-18T08:19:49Z</time>
      </trkpt>
      <trkpt lat="44.09781" lon="3.01977">
        <ele>630.277081</ele>
        <time>2014-05-18T08:19:51Z</time>
      </trkpt>
      <trkpt lat="44.09785" lon="3.01972">
        <ele>630.34531</ele>
        <time>2014-05-18T08:19:53Z</time>
      </trkpt>
      <trkpt lat="44.09789" lon="3.01968">
        <ele>630.468078</ele>
        <time>2014-05-18T08:19:55Z</time>
      </trkpt>
      <trkpt lat="44.09793" lon="3.01963">
        <ele>630.689673</ele>
        <time>2014-05-18T08:19:57Z</time>
      </trkpt>
      <trkpt lat="44.09797" lon="3.0196">
        <ele>630.945797</ele>
        <time>2014-05-18T08:19:59Z</time>
      </trkpt>
      <trkpt lat="44.09801" lon="3.01958">
        <ele>631.222685</ele>
        <time>2014-05-18T08:20:01Z</time>
      </trkpt>
      <trkpt lat="44.09806" lon="3.01956">
        <ele>631.603868</ele>
        <time>2014-05-18T08:20:03Z</time>
      </trkpt>
      <trkpt lat="44.09812" lon="3.01954">
        <ele>632.03556</ele>
        <time>2014-05-18T08:20:06Z</time>
      </trkpt>
      <trkpt lat="44.09818" lon="3.01953">
        <ele>632.480128</ele>
        <time>2014-05-18T08:20:08Z</time>
      </trkpt>
      <trkpt lat="44.09823" lon="3.01953">
        <ele>632.923438</ele>
        <time>2014-05-18T08:20:10Z</time>
      </trkpt>
      <trkpt lat="44.09828" lon="3.01954">
        <ele>633.321475</ele>
        <time>2014-05-18T08:20:12Z</time>
      </trkpt>
      <trkpt lat="44.09833" lon="3.01955">
        <ele>633.658056</ele>
        <time>2014-05-18T08:20:14Z</time>
      </trkpt>
      <trkpt lat="44.09837" lon="3.01956">
        <ele>633.900852</ele>
        <time>2014-05-18T08:20:16Z</time>
      </trkpt>
      <trkpt lat="44.09842" lon="3.01957">
        <ele>634.249634</ele>
        <time>2014-05-18T08:20:19Z</time>
      </trkpt>
      <trkpt lat="44.09847" lon="3.0196">
        <ele>634.488752</ele>
        <time>2014-05-18T08:20:22Z</time>
      </trkpt>
      <trkpt lat="44.09852" lon="3.01964">
        <ele>634.730367</ele>
        <time>2014-05-18T08:20:24Z</time>
      </trkpt>
      <trkpt lat="44.09856" lon="3.01968">
        <ele>634.953254</ele>
        <time>2014-05-18T08:20:26Z</time>
      </trkpt>
      <trkpt lat="44.09862" lon="3.01974">
        <ele>635.205153</ele>
        <time>2014-05-18T08:20:29Z</time>
      </trkpt>
      <trkpt lat="44.09865" lon="3.0198">
        <ele>635.482404</ele>
        <time>2014-05-18T08:20:31Z</time>
      </trkpt>
      <trkpt lat="44.09866" lon="3.01987">
        <ele>635.714296</ele>
        <time>2014-05-18T08:20:33Z</time>
      </trkpt>
      <trkpt lat="44.09868" lon="3.01994">
        <ele>636.022103</ele>
        <time>2014-05-18T08:20:35Z</time>
      </trkpt>
      <trkpt lat="44.09869" lon="3.02003">
        <ele>636.206911</ele>
        <time>2014-05-18T08:20:37Z</time>
      </trkpt>
      <trkpt lat="44.0987" lon="3.0201">
        <ele>636.3556</ele>
        <time>2014-05-18T08:20:39Z</time>
      </trkpt>
      <trkpt lat="44.0987" lon="3.02017">
        <ele>636.525187</ele>
        <time>2014-05-18T08:20:41Z</time>
      </trkpt>
      <trkpt lat="44.09869" lon="3.02026">
        <ele>636.987054</ele>
        <time>2014-05-18T08:20:44Z</time>
      </trkpt>
      <trkpt lat="44.09868" lon="3.02035">
        <ele>637.441184</ele>
        <time>2014-05-18T08:20:47Z</time>
      </trkpt>
      <trkpt lat="44.09867" lon="3.02043">
        <ele>637.871043</ele>
        <time>2014-05-18T08:20:50Z</time>
      </trkpt>
      <trkpt lat="44.09864" lon="3.02051">
        <ele>638.223341</ele>
        <time>2014-05-18T08:20:53Z</time>
      </trkpt>
      <trkpt lat="44.09862" lon="3.02058">
        <ele>638.536869</ele>
        <time>2014-05-18T08:20:56Z</time>
      </trkpt>
      <trkpt lat="44.09861" lon="3.02066">
        <ele>639.018432</ele>
        <time>2014-05-18T08:21:00Z</time>
      </trkpt>
      <trkpt lat="44.09858" lon="3.02074">
        <ele>639.024364</ele>
        <time>2014-05-18T08:21:03Z</time>
      </trkpt>
      <trkpt lat="44.09854" lon="3.02081">
        <ele>638.881408</ele>
        <time>2014-05-18T08:21:06Z</time>
      </trkpt>
      <trkpt lat="44.0985" lon="3.02087">
        <ele>638.9429</ele>
        <time>2014-05-18T08:21:09Z</time>
      </trkpt>
      <trkpt lat="44.09845" lon="3.02093">
        <ele>638.962391</ele>
        <time>2014-05-18T08:21:12Z</time>
      </trkpt>
      <trkpt lat="44.09841" lon="3.02097">
        <ele>638.963046</ele>
        <time>2014-05-18T08:21:14Z</time>
      </trkpt>
      <trkpt lat="44.09837" lon="3.021">
        <ele>638.846276</ele>
        <time>2014-05-18T08:21:17Z</time>
      </trkpt>
      <trkpt lat="44.09832" lon="3.02103">
        <ele>638.830171</ele>
        <time>2014-05-18T08:21:20Z</time>
      </trkpt>
      <trkpt lat="44.09826" lon="3.02105">
        <ele>638.93914</ele>
        <time>2014-05-18T08:21:23Z</time>
      </trkpt>
      <trkpt lat="44.0982" lon="3.02107">
        <ele>639.080828</ele>
        <time>2014-05-18T08:21:26Z</time>
      </trkpt>
      <trkpt lat="44.09814" lon="3.02108">
        <ele>639.273716</ele>
        <time>2014-05-18T08:21:29Z</time>
      </trkpt>
      <trkpt lat="44.09808" lon="3.02108">
        <ele>639.51569</ele>
        <time>2014-05-18T08:21:32Z</time>
      </trkpt>
      <trkpt lat="44.09802" lon="3.02106">
        <ele>639.74648</ele>
        <time>2014-05-18T08:21:34Z</time>
      </trkpt>
      <trkpt lat="44.09797" lon="3.02106">
        <ele>640.014151</ele>
        <time>2014-05-18T08:21:36Z</time>
      </trkpt>
      <trkpt lat="44.09791" lon="3.02105">
        <ele>640.410687</ele>
        <time>2014-05-18T08:21:39Z</time>
      </trkpt>
      <trkpt lat="44.09786" lon="3.02105">
        <ele>640.80781</ele>
        <time>2014-05-18T08:21:42Z</time>
      </trkpt>
      <trkpt lat="44.09779" lon="3.02103">
        <ele>640.981081</ele>
        <time>2014-05-18T08:21:45Z</time>
      </trkpt>
      <trkpt lat="44.09774" lon="3.02102">
        <ele>641.029469</ele>
        <time>2014-05-18T08:21:47Z</time>
      </trkpt>
      <trkpt lat="44.0977" lon="3.02101">
        <ele>641.140988</ele>
        <time>2014-05-18T08:21:49Z</time>
      </trkpt>
      <trkpt lat="44.09765" lon="3.02099">
        <ele>641.293351</ele>
        <time>2014-05-18T08:21:51Z</time>
      </trkpt>
      <trkpt lat="44.0976" lon="3.02098">
        <ele>641.41384</ele>
        <time>2014-05-18T08:21:53Z</time>
      </trkpt>
      <trkpt lat="44.09756" lon="3.02096">
        <ele>641.592987</ele>
        <time>2014-05-18T08:21:55Z</time>
      </trkpt>
      <trkpt lat="44.0975" lon="3.02095">
        <ele>641.882465</ele>
        <time>2014-05-18T08:21:58Z</time>
      </trkpt>
      <trkpt lat="44.09743" lon="3.02093">
        <ele>642.066863</ele>
        <time>2014-05-18T08:22:01Z</time>
      </trkpt>
      <trkpt lat="44.09737" lon="3.02092">
        <ele>642.152595</ele>
        <time>2014-05-18T08:22:04Z</time>
      </trkpt>
      <trkpt lat="44.09732" lon="3.02092">
        <ele>642.078849</ele>
        <time>2014-05-18T08:22:06Z</time>
      </trkpt>
      <trkpt lat="44.09728" lon="3.02091">
        <ele>642.040584</ele>
        <time>2014-05-18T08:22:08Z</time>
      </trkpt>
      <trkpt lat="44.09723" lon="3.02091">
        <ele>642.058366</ele>
        <time>2014-05-18T08:22:10Z</time>
      </trkpt>
      <trkpt lat="44.09717" lon="3.02089">
        <ele>642.048895</ele>
        <time>2014-05-18T08:22:13Z</time>
      </trkpt>
      <trkpt lat="44.09712" lon="3.02089">
        <ele>641.98306</ele>
        <time>2014-05-18T08:22:15Z</time>
      </trkpt>
      <trkpt lat="44.09706" lon="3.02089">
        <ele>641.994712</ele>
        <time>2014-05-18T08:22:18Z</time>
      </trkpt>
      <trkpt lat="44.09702" lon="3.02089">
        <ele>641.903548</ele>
        <time>2014-05-18T08:22:20Z</time>
      </trkpt>
      <trkpt lat="44.09696" lon="3.02088">
        <ele>641.773058</ele>
        <time>2014-05-18T08:22:23Z</time>
      </trkpt>
      <trkpt lat="44.09689" lon="3.02086">
        <ele>641.749629</ele>
        <time>2014-05-18T08:22:26Z</time>
      </trkpt>
      <trkpt lat="44.09684" lon="3.02085">
        <ele>641.652974</ele>
        <time>2014-05-18T08:22:29Z</time>
      </trkpt>
      <trkpt lat="44.09677" lon="3.02085">
        <ele>641.457972</ele>
        <time>2014-05-18T08:22:32Z</time>
      </trkpt>
      <trkpt lat="44.09671" lon="3.02084">
        <ele>641.231147</ele>
        <time>2014-05-18T08:22:35Z</time>
      </trkpt>
      <trkpt lat="44.09665" lon="3.02084">
        <ele>641.04157</ele>
        <time>2014-05-18T08:22:37Z</time>
      </trkpt>
      <trkpt lat="44.0966" lon="3.02085">
        <ele>640.843346</ele>
        <time>2014-05-18T08:22:39Z</time>
      </trkpt>
      <trkpt lat="44.09654" lon="3.02086">
        <ele>640.730475</ele>
        <time>2014-05-18T08:22:41Z</time>
      </trkpt>
      <trkpt lat="44.09649" lon="3.02086">
        <ele>640.657028</ele>
        <time>2014-05-18T08:22:43Z</time>
      </trkpt>
      <trkpt lat="44.09644" lon="3.02087">
        <ele>640.589683</ele>
        <time>2014-05-18T08:22:45Z</time>
      </trkpt>
      <trkpt lat="44.09638" lon="3.02085">
        <ele>640.634528</ele>
        <time>2014-05-18T08:22:48Z</time>
      </trkpt>
      <trkpt lat="44.09632" lon="3.02083">
        <ele>640.674156</ele>
        <time>2014-05-18T08:22:50Z</time>
      </trkpt>
      <trkpt lat="44.09627" lon="3.02082">
        <ele>640.836354</ele>
        <time>2014-05-18T08:22:52Z</time>
      </trkpt>
      <trkpt lat="44.09621" lon="3.02081">
        <ele>640.889553</ele>
        <time>2014-05-18T08:22:54Z</time>
      </trkpt>
      <trkpt lat="44.09615" lon="3.0208">
        <ele>640.937667</ele>
        <time>2014-05-18T08:22:56Z</time>
      </trkpt>
      <trkpt lat="44.09609" lon="3.02077">
        <ele>641.156868</ele>
        <time>2014-05-18T08:22:58Z</time>
      </trkpt>
      <trkpt lat="44.09603" lon="3.02076">
        <ele>641.413014</ele>
        <time>2014-05-18T08:23:00Z</time>
      </trkpt>
      <trkpt lat="44.09598" lon="3.02076">
        <ele>641.529845</ele>
        <time>2014-05-18T08:23:02Z</time>
      </trkpt>
      <trkpt lat="44.09594" lon="3.02075">
        <ele>641.619651</ele>
        <time>2014-05-18T08:23:04Z</time>
      </trkpt>
      <trkpt lat="44.09588" lon="3.02075">
        <ele>641.744304</ele>
        <time>2014-05-18T08:23:06Z</time>
      </trkpt>
      <trkpt lat="44.09583" lon="3.02074">
        <ele>641.823337</ele>
        <time>2014-05-18T08:23:08Z</time>
      </trkpt>
      <trkpt lat="44.09578" lon="3.02074">
        <ele>641.95779</ele>
        <time>2014-05-18T08:23:11Z</time>
      </trkpt>
      <trkpt lat="44.09573" lon="3.02075">
        <ele>641.890376</ele>
        <time>2014-05-18T08:23:15Z</time>
      </trkpt>
      <trkpt lat="44.09568" lon="3.02076">
        <ele>641.892205</ele>
        <time>2014-05-18T08:23:17Z</time>
      </trkpt>
      <trkpt lat="44.09561" lon="3.02077">
        <ele>641.856741</ele>
        <time>2014-05-18T08:23:20Z</time>
      </trkpt>
      <trkpt lat="44.09556" lon="3.02077">
        <ele>641.81798</ele>
        <time>2014-05-18T08:23:23Z</time>
      </trkpt>
      <trkpt lat="44.09551" lon="3.02077">
        <ele>641.833784</ele>
        <time>2014-05-18T08:23:26Z</time>
      </trkpt>
      <trkpt lat="44.09546" lon="3.02077">
        <ele>641.775698</ele>
        <time>2014-05-18T08:23:29Z</time>
      </trkpt>
      <trkpt lat="44.09541" lon="3.02077">
        <ele>641.875005</ele>
        <time>2014-05-18T08:23:31Z</time>
      </trkpt>
      <trkpt lat="44.09536" lon="3.02077">
        <ele>641.97508</ele>
        <time>2014-05-18T08:23:33Z</time>
      </trkpt>
      <trkpt lat="44.09531" lon="3.02077">
        <ele>642.076984</ele>
        <time>2014-05-18T08:23:35Z</time>
      </trkpt>
      <trkpt lat="44.09526" lon="3.02076">
        <ele>642.012853</ele>
        <time>2014-05-18T08:23:37Z</time>
      </trkpt>
      <trkpt lat="44.0952" lon="3.02075">
        <ele>641.900693</ele>
        <time>2014-05-18T08:23:39Z</time>
      </trkpt>
      <trkpt lat="44.09514" lon="3.02076">
        <ele>641.763658</ele>
        <time>2014-05-18T08:23:41Z</time>
      </trkpt>
      <trkpt lat="44.09507" lon="3.02076">
        <ele>641.645264</ele>
        <time>2014-05-18T08:23:43Z</time>
      </trkpt>
      <trkpt lat="44.09502" lon="3.02077">
        <ele>641.6872</ele>
        <time>2014-05-18T08:23:45Z</time>
      </trkpt>
      <trkpt lat="44.09497" lon="3.02077">
        <ele>641.768577</ele>
        <time>2014-05-18T08:23:47Z</time>
      </trkpt>
      <trkpt lat="44.09491" lon="3.02077">
        <ele>641.869394</ele>
        <time>2014-05-18T08:23:49Z</time>
      </trkpt>
      <trkpt lat="44.09485" lon="3.02078">
        <ele>642.002432</ele>
        <time>2014-05-18T08:23:51Z</time>
      </trkpt>
      <trkpt lat="44.09479" lon="3.02078">
        <ele>642.069958</ele>
        <time>2014-05-18T08:23:53Z</time>
      </trkpt>
      <trkpt lat="44.09473" lon="3.02079">
        <ele>642.052454</ele>
        <time>2014-05-18T08:23:55Z</time>
      </trkpt>
      <trkpt lat="44.09466" lon="3.02079">
        <ele>641.976512</ele>
        <time>2014-05-18T08:23:57Z</time>
      </trkpt>
      <trkpt lat="44.0946" lon="3.02079">
        <ele>642.057784</ele>
        <time>2014-05-18T08:23:59Z</time>
      </trkpt>
      <trkpt lat="44.09454" lon="3.02079">
        <ele>642.172361</ele>
        <time>2014-05-18T08:24:01Z</time>
      </trkpt>
      <trkpt lat="44.09448" lon="3.0208">
        <ele>642.361509</ele>
        <time>2014-05-18T08:24:03Z</time>
      </trkpt>
      <trkpt lat="44.09442" lon="3.02081">
        <ele>642.594841</ele>
        <time>2014-05-18T08:24:05Z</time>
      </trkpt>
      <trkpt lat="44.09435" lon="3.02081">
        <ele>642.851205</ele>
        <time>2014-05-18T08:24:07Z</time>
      </trkpt>
      <trkpt lat="44.09428" lon="3.02081">
        <ele>643.022927</ele>
        <time>2014-05-18T08:24:10Z</time>
      </trkpt>
      <trkpt lat="44.09423" lon="3.02081">
        <ele>643.113648</ele>
        <time>2014-05-18T08:24:12Z</time>
      </trkpt>
      <trkpt lat="44.09418" lon="3.02082">
        <ele>643.241202</ele>
        <time>2014-05-18T08:24:14Z</time>
      </trkpt>
      <trkpt lat="44.09413" lon="3.02082">
        <ele>643.318378</ele>
        <time>2014-05-18T08:24:16Z</time>
      </trkpt>
      <trkpt lat="44.09408" lon="3.02082">
        <ele>643.371248</ele>
        <time>2014-05-18T08:24:18Z</time>
      </trkpt>
      <trkpt lat="44.09402" lon="3.02083">
        <ele>643.367179</ele>
        <time>2014-05-18T08:24:20Z</time>
      </trkpt>
      <trkpt lat="44.09396" lon="3.02084">
        <ele>643.579686</ele>
        <time>2014-05-18T08:24:22Z</time>
      </trkpt>
      <trkpt lat="44.09391" lon="3.02085">
        <ele>643.627313</ele>
        <time>2014-05-18T08:24:24Z</time>
      </trkpt>
      <trkpt lat="44.09384" lon="3.02086">
        <ele>643.669702</ele>
        <time>2014-05-18T08:24:27Z</time>
      </trkpt>
      <trkpt lat="44.09378" lon="3.02087">
        <ele>643.760699</ele>
        <time>2014-05-18T08:24:29Z</time>
      </trkpt>
      <trkpt lat="44.09371" lon="3.02087">
        <ele>643.834197</ele>
        <time>2014-05-18T08:24:31Z</time>
      </trkpt>
      <trkpt lat="44.09365" lon="3.02087">
        <ele>643.915387</ele>
        <time>2014-05-18T08:24:33Z</time>
      </trkpt>
      <trkpt lat="44.0936" lon="3.02087">
        <ele>643.94476</ele>
        <time>2014-05-18T08:24:35Z</time>
      </trkpt>
      <trkpt lat="44.09355" lon="3.02088">
        <ele>643.921004</ele>
        <time>2014-05-18T08:24:37Z</time>
      </trkpt>
      <trkpt lat="44.09349" lon="3.02089">
        <ele>643.931742</ele>
        <time>2014-05-18T08:24:39Z</time>
      </trkpt>
      <trkpt lat="44.09344" lon="3.02089">
        <ele>644.062625</ele>
        <time>2014-05-18T08:24:41Z</time>
      </trkpt>
      <trkpt lat="44.09339" lon="3.02089">
        <ele>644.224564</ele>
        <time>2014-05-18T08:24:43Z</time>
      </trkpt>
      <trkpt lat="44.09331" lon="3.02089">
        <ele>644.132823</ele>
        <time>2014-05-18T08:24:46Z</time>
      </trkpt>
      <trkpt lat="44.09326" lon="3.02089">
        <ele>644.110314</ele>
        <time>2014-05-18T08:24:47Z</time>
      </trkpt>
      <trkpt lat="44.0932" lon="3.02089">
        <ele>644.21372</ele>
        <time>2014-05-18T08:24:49Z</time>
      </trkpt>
      <trkpt lat="44.09316" lon="3.02089">
        <ele>644.278659</ele>
        <time>2014-05-18T08:24:51Z</time>
      </trkpt>
      <trkpt lat="44.0931" lon="3.02089">
        <ele>644.421911</ele>
        <time>2014-05-18T08:24:53Z</time>
      </trkpt>
      <trkpt lat="44.09304" lon="3.02089">
        <ele>644.592676</ele>
        <time>2014-05-18T08:24:55Z</time>
      </trkpt>
      <trkpt lat="44.09298" lon="3.02088">
        <ele>644.846537</ele>
        <time>2014-05-18T08:24:57Z</time>
      </trkpt>
      <trkpt lat="44.09293" lon="3.02088">
        <ele>645.070273</ele>
        <time>2014-05-18T08:24:59Z</time>
      </trkpt>
      <trkpt lat="44.09287" lon="3.02087">
        <ele>645.180102</ele>
        <time>2014-05-18T08:25:01Z</time>
      </trkpt>
      <trkpt lat="44.09281" lon="3.02087">
        <ele>645.378285</ele>
        <time>2014-05-18T08:25:03Z</time>
      </trkpt>
      <trkpt lat="44.09275" lon="3.02089">
        <ele>645.667126</ele>
        <time>2014-05-18T08:25:06Z</time>
      </trkpt>
      <trkpt lat="44.0927" lon="3.02091">
        <ele>645.662797</ele>
        <time>2014-05-18T08:25:08Z</time>
      </trkpt>
      <trkpt lat="44.09265" lon="3.02092">
        <ele>645.701617</ele>
        <time>2014-05-18T08:25:10Z</time>
      </trkpt>
      <trkpt lat="44.0926" lon="3.02092">
        <ele>645.828427</ele>
        <time>2014-05-18T08:25:12Z</time>
      </trkpt>
      <trkpt lat="44.09255" lon="3.02093">
        <ele>645.938494</ele>
        <time>2014-05-18T08:25:14Z</time>
      </trkpt>
      <trkpt lat="44.0925" lon="3.02093">
        <ele>645.990031</ele>
        <time>2014-05-18T08:25:16Z</time>
      </trkpt>
      <trkpt lat="44.09244" lon="3.02093">
        <ele>646.042469</ele>
        <time>2014-05-18T08:25:18Z</time>
      </trkpt>
      <trkpt lat="44.09239" lon="3.02094">
        <ele>646.062542</ele>
        <time>2014-05-18T08:25:20Z</time>
      </trkpt>
      <trkpt lat="44.09234" lon="3.02094">
        <ele>646.043112</ele>
        <time>2014-05-18T08:25:22Z</time>
      </trkpt>
      <trkpt lat="44.09228" lon="3.02094">
        <ele>646.019842</ele>
        <time>2014-05-18T08:25:24Z</time>
      </trkpt>
      <trkpt lat="44.09222" lon="3.02095">
        <ele>646.095719</ele>
        <time>2014-05-18T08:25:26Z</time>
      </trkpt>
      <trkpt lat="44.09216" lon="3.02094">
        <ele>646.269659</ele>
        <time>2014-05-18T08:25:28Z</time>
      </trkpt>
      <trkpt lat="44.09211" lon="3.02093">
        <ele>646.518243</ele>
        <time>2014-05-18T08:25:30Z</time>
      </trkpt>
      <trkpt lat="44.09206" lon="3.02092">
        <ele>646.678672</ele>
        <time>2014-05-18T08:25:32Z</time>
      </trkpt>
      <trkpt lat="44.09201" lon="3.02093">
        <ele>646.746213</ele>
        <time>2014-05-18T08:25:34Z</time>
      </trkpt>
      <trkpt lat="44.09196" lon="3.02095">
        <ele>646.943685</ele>
        <time>2014-05-18T08:25:36Z</time>
      </trkpt>
      <trkpt lat="44.09191" lon="3.02096">
        <ele>647.094474</ele>
        <time>2014-05-18T08:25:38Z</time>
      </trkpt>
      <trkpt lat="44.09185" lon="3.02097">
        <ele>647.305772</ele>
        <time>2014-05-18T08:25:41Z</time>
      </trkpt>
      <trkpt lat="44.0918" lon="3.02099">
        <ele>647.54634</ele>
        <time>2014-05-18T08:25:44Z</time>
      </trkpt>
      <trkpt lat="44.09175" lon="3.02099">
        <ele>648.728713</ele>
        <time>2014-05-18T08:25:51Z</time>
      </trkpt>
      <trkpt lat="44.0917" lon="3.02101">
        <ele>649.503115</ele>
        <time>2014-05-18T08:26:03Z</time>
      </trkpt>
      <trkpt lat="44.09164" lon="3.02102">
        <ele>650.036231</ele>
        <time>2014-05-18T08:26:09Z</time>
      </trkpt>
      <trkpt lat="44.0916" lon="3.02103">
        <ele>650.086092</ele>
        <time>2014-05-18T08:26:11Z</time>
      </trkpt>
      <trkpt lat="44.09154" lon="3.02104">
        <ele>650.053389</ele>
        <time>2014-05-18T08:26:14Z</time>
      </trkpt>
      <trkpt lat="44.09148" lon="3.02105">
        <ele>649.969553</ele>
        <time>2014-05-18T08:26:17Z</time>
      </trkpt>
      <trkpt lat="44.09143" lon="3.02103">
        <ele>650.613813</ele>
        <time>2014-05-18T08:26:23Z</time>
      </trkpt>
      <trkpt lat="44.09138" lon="3.02104">
        <ele>650.871126</ele>
        <time>2014-05-18T08:26:27Z</time>
      </trkpt>
      <trkpt lat="44.09132" lon="3.02105">
        <ele>650.895853</ele>
        <time>2014-05-18T08:26:30Z</time>
      </trkpt>
      <trkpt lat="44.09126" lon="3.02105">
        <ele>650.952651</ele>
        <time>2014-05-18T08:26:32Z</time>
      </trkpt>
      <trkpt lat="44.09122" lon="3.02104">
        <ele>650.89052</ele>
        <time>2014-05-18T08:26:34Z</time>
      </trkpt>
      <trkpt lat="44.09115" lon="3.02105">
        <ele>650.762752</ele>
        <time>2014-05-18T08:26:37Z</time>
      </trkpt>
      <trkpt lat="44.09111" lon="3.02106">
        <ele>650.720502</ele>
        <time>2014-05-18T08:26:39Z</time>
      </trkpt>
      <trkpt lat="44.09106" lon="3.02107">
        <ele>650.807181</ele>
        <time>2014-05-18T08:26:41Z</time>
      </trkpt>
      <trkpt lat="44.091" lon="3.02108">
        <ele>651.087855</ele>
        <time>2014-05-18T08:26:44Z</time>
      </trkpt>
      <trkpt lat="44.09093" lon="3.02108">
        <ele>651.303572</ele>
        <time>2014-05-18T08:26:47Z</time>
      </trkpt>
      <trkpt lat="44.09088" lon="3.02108">
        <ele>651.484201</ele>
        <time>2014-05-18T08:26:49Z</time>
      </trkpt>
      <trkpt lat="44.09081" lon="3.02108">
        <ele>651.69903</ele>
        <time>2014-05-18T08:26:52Z</time>
      </trkpt>
      <trkpt lat="44.09075" lon="3.02108">
        <ele>651.954161</ele>
        <time>2014-05-18T08:26:55Z</time>
      </trkpt>
      <trkpt lat="44.0907" lon="3.02108">
        <ele>651.95764</ele>
        <time>2014-05-18T08:26:57Z</time>
      </trkpt>
      <trkpt lat="44.09065" lon="3.02108">
        <ele>652.012977</ele>
        <time>2014-05-18T08:26:59Z</time>
      </trkpt>
      <trkpt lat="44.0906" lon="3.02107">
        <ele>652.063686</ele>
        <time>2014-05-18T08:27:01Z</time>
      </trkpt>
      <trkpt lat="44.09055" lon="3.02107">
        <ele>652.122767</ele>
        <time>2014-05-18T08:27:03Z</time>
      </trkpt>
      <trkpt lat="44.09051" lon="3.02107">
        <ele>652.101989</ele>
        <time>2014-05-18T08:27:06Z</time>
      </trkpt>
      <trkpt lat="44.09046" lon="3.02108">
        <ele>652.24585</ele>
        <time>2014-05-18T08:27:10Z</time>
      </trkpt>
      <trkpt lat="44.09042" lon="3.02109">
        <ele>652.364909</ele>
        <time>2014-05-18T08:27:13Z</time>
      </trkpt>
      <trkpt lat="44.09036" lon="3.0211">
        <ele>652.291974</ele>
        <time>2014-05-18T08:27:15Z</time>
      </trkpt>
      <trkpt lat="44.09029" lon="3.0211">
        <ele>652.365794</ele>
        <time>2014-05-18T08:27:18Z</time>
      </trkpt>
      <trkpt lat="44.09025" lon="3.02111">
        <ele>652.403361</ele>
        <time>2014-05-18T08:27:20Z</time>
      </trkpt>
      <trkpt lat="44.09019" lon="3.02113">
        <ele>652.396882</ele>
        <time>2014-05-18T08:27:22Z</time>
      </trkpt>
      <trkpt lat="44.09015" lon="3.02114">
        <ele>652.324404</ele>
        <time>2014-05-18T08:27:24Z</time>
      </trkpt>
      <trkpt lat="44.0901" lon="3.02114">
        <ele>652.357046</ele>
        <time>2014-05-18T08:27:26Z</time>
      </trkpt>
      <trkpt lat="44.09005" lon="3.02115">
        <ele>652.494657</ele>
        <time>2014-05-18T08:27:28Z</time>
      </trkpt>
      <trkpt lat="44.09" lon="3.02115">
        <ele>652.577688</ele>
        <time>2014-05-18T08:27:30Z</time>
      </trkpt>
      <trkpt lat="44.08995" lon="3.02115">
        <ele>652.754111</ele>
        <time>2014-05-18T08:27:32Z</time>
      </trkpt>
      <trkpt lat="44.0899" lon="3.02116">
        <ele>653.048284</ele>
        <time>2014-05-18T08:27:34Z</time>
      </trkpt>
      <trkpt lat="44.08985" lon="3.02115">
        <ele>653.185091</ele>
        <time>2014-05-18T08:27:36Z</time>
      </trkpt>
      <trkpt lat="44.0898" lon="3.02115">
        <ele>653.300419</ele>
        <time>2014-05-18T08:27:38Z</time>
      </trkpt>
      <trkpt lat="44.08975" lon="3.02116">
        <ele>653.458566</ele>
        <time>2014-05-18T08:27:40Z</time>
      </trkpt>
      <trkpt lat="44.08969" lon="3.02116">
        <ele>653.470642</ele>
        <time>2014-05-18T08:27:43Z</time>
      </trkpt>
      <trkpt lat="44.08964" lon="3.02116">
        <ele>653.524445</ele>
        <time>2014-05-18T08:27:45Z</time>
      </trkpt>
      <trkpt lat="44.08959" lon="3.02116">
        <ele>653.54721</ele>
        <time>2014-05-18T08:27:47Z</time>
      </trkpt>
      <trkpt lat="44.08954" lon="3.02116">
        <ele>653.61119</ele>
        <time>2014-05-18T08:27:49Z</time>
      </trkpt>
      <trkpt lat="44.08948" lon="3.02117">
        <ele>653.726945</ele>
        <time>2014-05-18T08:27:51Z</time>
      </trkpt>
      <trkpt lat="44.08943" lon="3.02117">
        <ele>653.977994</ele>
        <time>2014-05-18T08:27:53Z</time>
      </trkpt>
      <trkpt lat="44.08938" lon="3.02117">
        <ele>654.211299</ele>
        <time>2014-05-18T08:27:55Z</time>
      </trkpt>
      <trkpt lat="44.08933" lon="3.02117">
        <ele>654.500645</ele>
        <time>2014-05-18T08:27:57Z</time>
      </trkpt>
      <trkpt lat="44.08929" lon="3.02117">
        <ele>654.807316</ele>
        <time>2014-05-18T08:27:59Z</time>
      </trkpt>
      <trkpt lat="44.08923" lon="3.02116">
        <ele>655.100761</ele>
        <time>2014-05-18T08:28:01Z</time>
      </trkpt>
      <trkpt lat="44.08918" lon="3.02114">
        <ele>655.458669</ele>
        <time>2014-05-18T08:28:03Z</time>
      </trkpt>
      <trkpt lat="44.08912" lon="3.02115">
        <ele>656.012475</ele>
        <time>2014-05-18T08:28:06Z</time>
      </trkpt>
      <trkpt lat="44.08907" lon="3.02115">
        <ele>656.315127</ele>
        <time>2014-05-18T08:28:08Z</time>
      </trkpt>
      <trkpt lat="44.08902" lon="3.02117">
        <ele>656.512969</ele>
        <time>2014-05-18T08:28:10Z</time>
      </trkpt>
      <trkpt lat="44.08897" lon="3.02118">
        <ele>656.921528</ele>
        <time>2014-05-18T08:28:13Z</time>
      </trkpt>
      <trkpt lat="44.08892" lon="3.02119">
        <ele>657.214213</ele>
        <time>2014-05-18T08:28:15Z</time>
      </trkpt>
      <trkpt lat="44.08886" lon="3.02119">
        <ele>657.615874</ele>
        <time>2014-05-18T08:28:18Z</time>
      </trkpt>
      <trkpt lat="44.08881" lon="3.02119">
        <ele>657.868706</ele>
        <time>2014-05-18T08:28:20Z</time>
      </trkpt>
      <trkpt lat="44.08876" lon="3.02119">
        <ele>658.083681</ele>
        <time>2014-05-18T08:28:22Z</time>
      </trkpt>
      <trkpt lat="44.08871" lon="3.0212">
        <ele>658.212731</ele>
        <time>2014-05-18T08:28:24Z</time>
      </trkpt>
      <trkpt lat="44.08866" lon="3.02121">
        <ele>658.422875</ele>
        <time>2014-05-18T08:28:26Z</time>
      </trkpt>
      <trkpt lat="44.0886" lon="3.02122">
        <ele>658.77936</ele>
        <time>2014-05-18T08:28:29Z</time>
      </trkpt>
      <trkpt lat="44.08854" lon="3.02123">
        <ele>659.126662</ele>
        <time>2014-05-18T08:28:32Z</time>
      </trkpt>
      <trkpt lat="44.0885" lon="3.02125">
        <ele>659.313345</ele>
        <time>2014-05-18T08:28:35Z</time>
      </trkpt>
      <trkpt lat="44.08843" lon="3.02127">
        <ele>659.434877</ele>
        <time>2014-05-18T08:28:38Z</time>
      </trkpt>
      <trkpt lat="44.08838" lon="3.02128">
        <ele>659.633797</ele>
        <time>2014-05-18T08:28:40Z</time>
      </trkpt>
      <trkpt lat="44.08832" lon="3.02129">
        <ele>659.920588</ele>
        <time>2014-05-18T08:28:43Z</time>
      </trkpt>
      <trkpt lat="44.08827" lon="3.02131">
        <ele>660.129362</ele>
        <time>2014-05-18T08:28:46Z</time>
      </trkpt>
      <trkpt lat="44.08821" lon="3.02133">
        <ele>660.295965</ele>
        <time>2014-05-18T08:28:50Z</time>
      </trkpt>
      <trkpt lat="44.08816" lon="3.02134">
        <ele>660.484673</ele>
        <time>2014-05-18T08:28:53Z</time>
      </trkpt>
      <trkpt lat="44.0881" lon="3.02134">
        <ele>660.69262</ele>
        <time>2014-05-18T08:28:56Z</time>
      </trkpt>
      <trkpt lat="44.08805" lon="3.02134">
        <ele>660.862654</ele>
        <time>2014-05-18T08:28:58Z</time>
      </trkpt>
      <trkpt lat="44.08799" lon="3.02135">
        <ele>661.060369</ele>
        <time>2014-05-18T08:29:01Z</time>
      </trkpt>
      <trkpt lat="44.08794" lon="3.02135">
        <ele>661.065357</ele>
        <time>2014-05-18T08:29:04Z</time>
      </trkpt>
      <trkpt lat="44.08787" lon="3.02135">
        <ele>661.174563</ele>
        <time>2014-05-18T08:29:07Z</time>
      </trkpt>
      <trkpt lat="44.08782" lon="3.02135">
        <ele>661.321443</ele>
        <time>2014-05-18T08:29:09Z</time>
      </trkpt>
      <trkpt lat="44.08778" lon="3.02136">
        <ele>661.561444</ele>
        <time>2014-05-18T08:29:11Z</time>
      </trkpt>
      <trkpt lat="44.08773" lon="3.02135">
        <ele>661.745788</ele>
        <time>2014-05-18T08:29:13Z</time>
      </trkpt>
      <trkpt lat="44.08767" lon="3.02134">
        <ele>661.964165</ele>
        <time>2014-05-18T08:29:16Z</time>
      </trkpt>
      <trkpt lat="44.0876" lon="3.02135">
        <ele>662.137509</ele>
        <time>2014-05-18T08:29:19Z</time>
      </trkpt>
      <trkpt lat="44.08755" lon="3.02135">
        <ele>662.179905</ele>
        <time>2014-05-18T08:29:21Z</time>
      </trkpt>
      <trkpt lat="44.0875" lon="3.02135">
        <ele>662.316653</ele>
        <time>2014-05-18T08:29:23Z</time>
      </trkpt>
      <trkpt lat="44.08743" lon="3.02136">
        <ele>662.549992</ele>
        <time>2014-05-18T08:29:26Z</time>
      </trkpt>
      <trkpt lat="44.08738" lon="3.02137">
        <ele>662.777544</ele>
        <time>2014-05-18T08:29:28Z</time>
      </trkpt>
      <trkpt lat="44.08733" lon="3.02137">
        <ele>662.919304</ele>
        <time>2014-05-18T08:29:30Z</time>
      </trkpt>
      <trkpt lat="44.08727" lon="3.02139">
        <ele>663.011744</ele>
        <time>2014-05-18T08:29:33Z</time>
      </trkpt>
      <trkpt lat="44.0872" lon="3.0214">
        <ele>663.142961</ele>
        <time>2014-05-18T08:29:36Z</time>
      </trkpt>
      <trkpt lat="44.08715" lon="3.0214">
        <ele>663.319849</ele>
        <time>2014-05-18T08:29:39Z</time>
      </trkpt>
      <trkpt lat="44.08709" lon="3.02141">
        <ele>663.391738</ele>
        <time>2014-05-18T08:29:42Z</time>
      </trkpt>
      <trkpt lat="44.08704" lon="3.02142">
        <ele>663.577434</ele>
        <time>2014-05-18T08:29:44Z</time>
      </trkpt>
      <trkpt lat="44.08699" lon="3.02142">
        <ele>663.750318</ele>
        <time>2014-05-18T08:29:46Z</time>
      </trkpt>
      <trkpt lat="44.08693" lon="3.02142">
        <ele>664.091831</ele>
        <time>2014-05-18T08:29:49Z</time>
      </trkpt>
      <trkpt lat="44.08688" lon="3.02142">
        <ele>664.208352</ele>
        <time>2014-05-18T08:29:51Z</time>
      </trkpt>
      <trkpt lat="44.08683" lon="3.02143">
        <ele>664.368841</ele>
        <time>2014-05-18T08:29:53Z</time>
      </trkpt>
      <trkpt lat="44.08679" lon="3.02143">
        <ele>664.476276</ele>
        <time>2014-05-18T08:29:55Z</time>
      </trkpt>
      <trkpt lat="44.08673" lon="3.02144">
        <ele>664.589822</ele>
        <time>2014-05-18T08:29:57Z</time>
      </trkpt>
      <trkpt lat="44.08667" lon="3.02144">
        <ele>664.763828</ele>
        <time>2014-05-18T08:30:00Z</time>
      </trkpt>
      <trkpt lat="44.08662" lon="3.02144">
        <ele>665.00577</ele>
        <time>2014-05-18T08:30:02Z</time>
      </trkpt>
      <trkpt lat="44.08657" lon="3.02145">
        <ele>665.244809</ele>
        <time>2014-05-18T08:30:04Z</time>
      </trkpt>
      <trkpt lat="44.08652" lon="3.02146">
        <ele>665.319391</ele>
        <time>2014-05-18T08:30:06Z</time>
      </trkpt>
      <trkpt lat="44.08647" lon="3.02147">
        <ele>665.43909</ele>
        <time>2014-05-18T08:30:08Z</time>
      </trkpt>
      <trkpt lat="44.08643" lon="3.02148">
        <ele>665.571983</ele>
        <time>2014-05-18T08:30:10Z</time>
      </trkpt>
      <trkpt lat="44.08638" lon="3.02149">
        <ele>665.683159</ele>
        <time>2014-05-18T08:30:12Z</time>
      </trkpt>
      <trkpt lat="44.08633" lon="3.0215">
        <ele>665.750925</ele>
        <time>2014-05-18T08:30:14Z</time>
      </trkpt>
      <trkpt lat="44.08628" lon="3.02151">
        <ele>665.838021</ele>
        <time>2014-05-18T08:30:16Z</time>
      </trkpt>
      <trkpt lat="44.08624" lon="3.02152">
        <ele>665.794186</ele>
        <time>2014-05-18T08:30:18Z</time>
      </trkpt>
      <trkpt lat="44.08619" lon="3.02152">
        <ele>665.777554</ele>
        <time>2014-05-18T08:30:20Z</time>
      </trkpt>
      <trkpt lat="44.08614" lon="3.02153">
        <ele>665.795635</ele>
        <time>2014-05-18T08:30:22Z</time>
      </trkpt>
      <trkpt lat="44.08609" lon="3.02155">
        <ele>665.853337</ele>
        <time>2014-05-18T08:30:24Z</time>
      </trkpt>
      <trkpt lat="44.08603" lon="3.02156">
        <ele>665.90732</ele>
        <time>2014-05-18T08:30:26Z</time>
      </trkpt>
      <trkpt lat="44.08598" lon="3.02157">
        <ele>665.825669</ele>
        <time>2014-05-18T08:30:28Z</time>
      </trkpt>
      <trkpt lat="44.08593" lon="3.02158">
        <ele>665.831191</ele>
        <time>2014-05-18T08:30:30Z</time>
      </trkpt>
      <trkpt lat="44.08586" lon="3.02159">
        <ele>665.98014</ele>
        <time>2014-05-18T08:30:33Z</time>
      </trkpt>
      <trkpt lat="44.0858" lon="3.02159">
        <ele>666.114375</ele>
        <time>2014-05-18T08:30:35Z</time>
      </trkpt>
      <trkpt lat="44.08573" lon="3.0216">
        <ele>666.204208</ele>
        <time>2014-05-18T08:30:38Z</time>
      </trkpt>
      <trkpt lat="44.08567" lon="3.0216">
        <ele>666.133995</ele>
        <time>2014-05-18T08:30:40Z</time>
      </trkpt>
      <trkpt lat="44.0856" lon="3.02159">
        <ele>666.182506</ele>
        <time>2014-05-18T08:30:42Z</time>
      </trkpt>
      <trkpt lat="44.08554" lon="3.02159">
        <ele>666.24446</ele>
        <time>2014-05-18T08:30:44Z</time>
      </trkpt>
      <trkpt lat="44.08549" lon="3.02159">
        <ele>666.343093</ele>
        <time>2014-05-18T08:30:46Z</time>
      </trkpt>
      <trkpt lat="44.08542" lon="3.0216">
        <ele>666.510882</ele>
        <time>2014-05-18T08:30:49Z</time>
      </trkpt>
      <trkpt lat="44.08537" lon="3.02161">
        <ele>666.585001</ele>
        <time>2014-05-18T08:30:51Z</time>
      </trkpt>
      <trkpt lat="44.08532" lon="3.0216">
        <ele>666.770316</ele>
        <time>2014-05-18T08:30:53Z</time>
      </trkpt>
      <trkpt lat="44.08526" lon="3.02161">
        <ele>667.130848</ele>
        <time>2014-05-18T08:30:56Z</time>
      </trkpt>
      <trkpt lat="44.08522" lon="3.02162">
        <ele>667.876344</ele>
        <time>2014-05-18T08:31:00Z</time>
      </trkpt>
      <trkpt lat="44.08516" lon="3.02164">
        <ele>668.725947</ele>
        <time>2014-05-18T08:31:05Z</time>
      </trkpt>
      <trkpt lat="44.0851" lon="3.02164">
        <ele>668.905209</ele>
        <time>2014-05-18T08:31:08Z</time>
      </trkpt>
      <trkpt lat="44.08504" lon="3.02163">
        <ele>668.853751</ele>
        <time>2014-05-18T08:31:11Z</time>
      </trkpt>
      <trkpt lat="44.08498" lon="3.02164">
        <ele>668.923457</ele>
        <time>2014-05-18T08:31:13Z</time>
      </trkpt>
      <trkpt lat="44.08492" lon="3.02165">
        <ele>669.158713</ele>
        <time>2014-05-18T08:31:15Z</time>
      </trkpt>
      <trkpt lat="44.08485" lon="3.02165">
        <ele>669.336534</ele>
        <time>2014-05-18T08:31:18Z</time>
      </trkpt>
      <trkpt lat="44.08481" lon="3.02166">
        <ele>669.543629</ele>
        <time>2014-05-18T08:31:20Z</time>
      </trkpt>
      <trkpt lat="44.08474" lon="3.02167">
        <ele>669.99422</ele>
        <time>2014-05-18T08:31:23Z</time>
      </trkpt>
      <trkpt lat="44.08468" lon="3.02167">
        <ele>670.077101</ele>
        <time>2014-05-18T08:31:25Z</time>
      </trkpt>
      <trkpt lat="44.08462" lon="3.02169">
        <ele>670.192614</ele>
        <time>2014-05-18T08:31:27Z</time>
      </trkpt>
      <trkpt lat="44.08457" lon="3.0217">
        <ele>670.345728</ele>
        <time>2014-05-18T08:31:29Z</time>
      </trkpt>
      <trkpt lat="44.08452" lon="3.0217">
        <ele>670.497099</ele>
        <time>2014-05-18T08:31:31Z</time>
      </trkpt>
      <trkpt lat="44.08445" lon="3.0217">
        <ele>670.630791</ele>
        <time>2014-05-18T08:31:34Z</time>
      </trkpt>
      <trkpt lat="44.08439" lon="3.02169">
        <ele>670.637</ele>
        <time>2014-05-18T08:31:36Z</time>
      </trkpt>
      <trkpt lat="44.08434" lon="3.02169">
        <ele>670.691816</ele>
        <time>2014-05-18T08:31:38Z</time>
      </trkpt>
      <trkpt lat="44.08429" lon="3.0217">
        <ele>670.69608</ele>
        <time>2014-05-18T08:31:40Z</time>
      </trkpt>
      <trkpt lat="44.08424" lon="3.0217">
        <ele>670.725991</ele>
        <time>2014-05-18T08:31:42Z</time>
      </trkpt>
      <trkpt lat="44.08419" lon="3.02171">
        <ele>670.933509</ele>
        <time>2014-05-18T08:31:44Z</time>
      </trkpt>
      <trkpt lat="44.08413" lon="3.02172">
        <ele>671.079824</ele>
        <time>2014-05-18T08:31:46Z</time>
      </trkpt>
      <trkpt lat="44.08405" lon="3.02171">
        <ele>671.245785</ele>
        <time>2014-05-18T08:31:49Z</time>
      </trkpt>
      <trkpt lat="44.084" lon="3.02172">
        <ele>671.446715</ele>
        <time>2014-05-18T08:31:51Z</time>
      </trkpt>
      <trkpt lat="44.08395" lon="3.02173">
        <ele>671.657673</ele>
        <time>2014-05-18T08:31:53Z</time>
      </trkpt>
      <trkpt lat="44.08391" lon="3.02174">
        <ele>671.738483</ele>
        <time>2014-05-18T08:31:55Z</time>
      </trkpt>
      <trkpt lat="44.08385" lon="3.02174">
        <ele>671.880419</ele>
        <time>2014-05-18T08:31:57Z</time>
      </trkpt>
      <trkpt lat="44.08378" lon="3.02175">
        <ele>672.077067</ele>
        <time>2014-05-18T08:32:00Z</time>
      </trkpt>
      <trkpt lat="44.08373" lon="3.02176">
        <ele>672.322207</ele>
        <time>2014-05-18T08:32:02Z</time>
      </trkpt>
      <trkpt lat="44.08368" lon="3.02178">
        <ele>672.534538</ele>
        <time>2014-05-18T08:32:04Z</time>
      </trkpt>
      <trkpt lat="44.08363" lon="3.02178">
        <ele>672.742531</ele>
        <time>2014-05-18T08:32:06Z</time>
      </trkpt>
      <trkpt lat="44.08358" lon="3.02179">
        <ele>672.934261</ele>
        <time>2014-05-18T08:32:08Z</time>
      </trkpt>
      <trkpt lat="44.08353" lon="3.0218">
        <ele>673.067351</ele>
        <time>2014-05-18T08:32:10Z</time>
      </trkpt>
      <trkpt lat="44.08348" lon="3.0218">
        <ele>673.164953</ele>
        <time>2014-05-18T08:32:12Z</time>
      </trkpt>
      <trkpt lat="44.08343" lon="3.0218">
        <ele>673.208838</ele>
        <time>2014-05-18T08:32:14Z</time>
      </trkpt>
      <trkpt lat="44.08338" lon="3.0218">
        <ele>673.34096</ele>
        <time>2014-05-18T08:32:16Z</time>
      </trkpt>
      <trkpt lat="44.08333" lon="3.02181">
        <ele>673.448646</ele>
        <time>2014-05-18T08:32:18Z</time>
      </trkpt>
      <trkpt lat="44.08328" lon="3.02182">
        <ele>673.573345</ele>
        <time>2014-05-18T08:32:20Z</time>
      </trkpt>
      <trkpt lat="44.08323" lon="3.02182">
        <ele>673.659676</ele>
        <time>2014-05-18T08:32:22Z</time>
      </trkpt>
      <trkpt lat="44.08318" lon="3.02182">
        <ele>673.771733</ele>
        <time>2014-05-18T08:32:24Z</time>
      </trkpt>
      <trkpt lat="44.08312" lon="3.02185">
        <ele>673.971577</ele>
        <time>2014-05-18T08:32:27Z</time>
      </trkpt>
      <trkpt lat="44.08308" lon="3.02189">
        <ele>674.378001</ele>
        <time>2014-05-18T08:32:30Z</time>
      </trkpt>
      <trkpt lat="44.08303" lon="3.02191">
        <ele>674.64739</ele>
        <time>2014-05-18T08:32:33Z</time>
      </trkpt>
      <trkpt lat="44.08298" lon="3.02191">
        <ele>674.750782</ele>
        <time>2014-05-18T08:32:36Z</time>
      </trkpt>
      <trkpt lat="44.08292" lon="3.02192">
        <ele>674.885756</ele>
        <time>2014-05-18T08:32:39Z</time>
      </trkpt>
      <trkpt lat="44.08286" lon="3.02192">
        <ele>675.011707</ele>
        <time>2014-05-18T08:32:42Z</time>
      </trkpt>
      <trkpt lat="44.08281" lon="3.02192">
        <ele>675.111692</ele>
        <time>2014-05-18T08:32:45Z</time>
      </trkpt>
      <trkpt lat="44.08274" lon="3.02192">
        <ele>675.172749</ele>
        <time>2014-05-18T08:32:48Z</time>
      </trkpt>
      <trkpt lat="44.08269" lon="3.02194">
        <ele>675.320337</ele>
        <time>2014-05-18T08:32:51Z</time>
      </trkpt>
      <trkpt lat="44.08264" lon="3.02195">
        <ele>675.436797</ele>
        <time>2014-05-18T08:32:54Z</time>
      </trkpt>
      <trkpt lat="44.08259" lon="3.02195">
        <ele>675.516057</ele>
        <time>2014-05-18T08:32:56Z</time>
      </trkpt>
      <trkpt lat="44.08253" lon="3.02196">
        <ele>675.803092</ele>
        <time>2014-05-18T08:32:59Z</time>
      </trkpt>
      <trkpt lat="44.08247" lon="3.02196">
        <ele>676.165631</ele>
        <time>2014-05-18T08:33:02Z</time>
      </trkpt>
      <trkpt lat="44.08242" lon="3.02196">
        <ele>676.367137</ele>
        <time>2014-05-18T08:33:05Z</time>
      </trkpt>
      <trkpt lat="44.08236" lon="3.02195">
        <ele>676.471171</ele>
        <time>2014-05-18T08:33:08Z</time>
      </trkpt>
      <trkpt lat="44.08231" lon="3.02195">
        <ele>676.586552</ele>
        <time>2014-05-18T08:33:10Z</time>
      </trkpt>
      <trkpt lat="44.08225" lon="3.02196">
        <ele>676.76394</ele>
        <time>2014-05-18T08:33:12Z</time>
      </trkpt>
      <trkpt lat="44.0822" lon="3.02197">
        <ele>677.021564</ele>
        <time>2014-05-18T08:33:14Z</time>
      </trkpt>
      <trkpt lat="44.08215" lon="3.02197">
        <ele>677.204468</ele>
        <time>2014-05-18T08:33:16Z</time>
      </trkpt>
      <trkpt lat="44.08211" lon="3.02197">
        <ele>677.477042</ele>
        <time>2014-05-18T08:33:18Z</time>
      </trkpt>
      <trkpt lat="44.08205" lon="3.02197">
        <ele>677.641526</ele>
        <time>2014-05-18T08:33:20Z</time>
      </trkpt>
      <trkpt lat="44.082" lon="3.02197">
        <ele>677.882549</ele>
        <time>2014-05-18T08:33:22Z</time>
      </trkpt>
      <trkpt lat="44.08195" lon="3.02198">
        <ele>678.089789</ele>
        <time>2014-05-18T08:33:24Z</time>
      </trkpt>
      <trkpt lat="44.08189" lon="3.02199">
        <ele>678.309662</ele>
        <time>2014-05-18T08:33:26Z</time>
      </trkpt>
      <trkpt lat="44.08183" lon="3.022">
        <ele>678.617339</ele>
        <time>2014-05-18T08:33:29Z</time>
      </trkpt>
      <trkpt lat="44.08179" lon="3.022">
        <ele>678.768803</ele>
        <time>2014-05-18T08:33:31Z</time>
      </trkpt>
      <trkpt lat="44.08172" lon="3.02201">
        <ele>678.966425</ele>
        <time>2014-05-18T08:33:34Z</time>
      </trkpt>
      <trkpt lat="44.08166" lon="3.02202">
        <ele>679.123453</ele>
        <time>2014-05-18T08:33:36Z</time>
      </trkpt>
      <trkpt lat="44.08161" lon="3.02203">
        <ele>679.289981</ele>
        <time>2014-05-18T08:33:38Z</time>
      </trkpt>
      <trkpt lat="44.08156" lon="3.02204">
        <ele>679.510463</ele>
        <time>2014-05-18T08:33:40Z</time>
      </trkpt>
      <trkpt lat="44.08149" lon="3.02204">
        <ele>679.788394</ele>
        <time>2014-05-18T08:33:43Z</time>
      </trkpt>
      <trkpt lat="44.08144" lon="3.02205">
        <ele>680.020444</ele>
        <time>2014-05-18T08:33:45Z</time>
      </trkpt>
      <trkpt lat="44.08139" lon="3.02207">
        <ele>680.316073</ele>
        <time>2014-05-18T08:33:48Z</time>
      </trkpt>
      <trkpt lat="44.08133" lon="3.02209">
        <ele>680.695222</ele>
        <time>2014-05-18T08:33:52Z</time>
      </trkpt>
      <trkpt lat="44.08129" lon="3.0221">
        <ele>680.87784</ele>
        <time>2014-05-18T08:33:55Z</time>
      </trkpt>
      <trkpt lat="44.08123" lon="3.0221">
        <ele>680.999443</ele>
        <time>2014-05-18T08:33:58Z</time>
      </trkpt>
      <trkpt lat="44.08119" lon="3.02211">
        <ele>681.154137</ele>
        <time>2014-05-18T08:34:01Z</time>
      </trkpt>
      <trkpt lat="44.08113" lon="3.02211">
        <ele>681.291823</ele>
        <time>2014-05-18T08:34:04Z</time>
      </trkpt>
      <trkpt lat="44.08107" lon="3.02212">
        <ele>681.470641</ele>
        <time>2014-05-18T08:34:07Z</time>
      </trkpt>
      <trkpt lat="44.08101" lon="3.02213">
        <ele>681.990388</ele>
        <time>2014-05-18T08:34:10Z</time>
      </trkpt>
      <trkpt lat="44.08096" lon="3.02214">
        <ele>682.279674</ele>
        <time>2014-05-18T08:34:12Z</time>
      </trkpt>
      <trkpt lat="44.0809" lon="3.02215">
        <ele>682.529334</ele>
        <time>2014-05-18T08:34:15Z</time>
      </trkpt>
      <trkpt lat="44.08086" lon="3.02216">
        <ele>682.710223</ele>
        <time>2014-05-18T08:34:17Z</time>
      </trkpt>
      <trkpt lat="44.08081" lon="3.02217">
        <ele>682.973176</ele>
        <time>2014-05-18T08:34:19Z</time>
      </trkpt>
      <trkpt lat="44.08075" lon="3.02217">
        <ele>683.20146</ele>
        <time>2014-05-18T08:34:22Z</time>
      </trkpt>
      <trkpt lat="44.0807" lon="3.02219">
        <ele>683.200313</ele>
        <time>2014-05-18T08:34:24Z</time>
      </trkpt>
      <trkpt lat="44.08065" lon="3.02219">
        <ele>683.364607</ele>
        <time>2014-05-18T08:34:26Z</time>
      </trkpt>
      <trkpt lat="44.08059" lon="3.02221">
        <ele>683.467977</ele>
        <time>2014-05-18T08:34:29Z</time>
      </trkpt>
      <trkpt lat="44.08052" lon="3.02222">
        <ele>683.48091</ele>
        <time>2014-05-18T08:34:32Z</time>
      </trkpt>
      <trkpt lat="44.08046" lon="3.02222">
        <ele>683.791302</ele>
        <time>2014-05-18T08:34:35Z</time>
      </trkpt>
      <trkpt lat="44.0804" lon="3.02223">
        <ele>684.029947</ele>
        <time>2014-05-18T08:34:38Z</time>
      </trkpt>
      <trkpt lat="44.08035" lon="3.02224">
        <ele>684.256214</ele>
        <time>2014-05-18T08:34:40Z</time>
      </trkpt>
      <trkpt lat="44.0803" lon="3.02226">
        <ele>684.42426</ele>
        <time>2014-05-18T08:34:42Z</time>
      </trkpt>
      <trkpt lat="44.08026" lon="3.02227">
        <ele>684.62388</ele>
        <time>2014-05-18T08:34:44Z</time>
      </trkpt>
      <trkpt lat="44.08021" lon="3.02228">
        <ele>684.76784</ele>
        <time>2014-05-18T08:34:46Z</time>
      </trkpt>
      <trkpt lat="44.08014" lon="3.02229">
        <ele>685.010526</ele>
        <time>2014-05-18T08:34:49Z</time>
      </trkpt>
      <trkpt lat="44.08009" lon="3.02229">
        <ele>685.124055</ele>
        <time>2014-05-18T08:34:51Z</time>
      </trkpt>
      <trkpt lat="44.08003" lon="3.0223">
        <ele>685.212797</ele>
        <time>2014-05-18T08:34:54Z</time>
      </trkpt>
      <trkpt lat="44.07997" lon="3.02231">
        <ele>685.33967</ele>
        <time>2014-05-18T08:34:57Z</time>
      </trkpt>
      <trkpt lat="44.07992" lon="3.02234">
        <ele>685.236333</ele>
        <time>2014-05-18T08:35:00Z</time>
      </trkpt>
      <trkpt lat="44.07987" lon="3.02236">
        <ele>685.233879</ele>
        <time>2014-05-18T08:35:02Z</time>
      </trkpt>
      <trkpt lat="44.07982" lon="3.02237">
        <ele>685.269106</ele>
        <time>2014-05-18T08:35:04Z</time>
      </trkpt>
      <trkpt lat="44.07977" lon="3.02237">
        <ele>685.266827</ele>
        <time>2014-05-18T08:35:06Z</time>
      </trkpt>
      <trkpt lat="44.07972" lon="3.02238">
        <ele>685.370773</ele>
        <time>2014-05-18T08:35:08Z</time>
      </trkpt>
      <trkpt lat="44.07966" lon="3.02238">
        <ele>685.493127</ele>
        <time>2014-05-18T08:35:10Z</time>
      </trkpt>
      <trkpt lat="44.07961" lon="3.02238">
        <ele>685.573336</ele>
        <time>2014-05-18T08:35:12Z</time>
      </trkpt>
      <trkpt lat="44.07956" lon="3.02238">
        <ele>685.693605</ele>
        <time>2014-05-18T08:35:14Z</time>
      </trkpt>
      <trkpt lat="44.0795" lon="3.0224">
        <ele>685.921023</ele>
        <time>2014-05-18T08:35:17Z</time>
      </trkpt>
      <trkpt lat="44.07943" lon="3.02242">
        <ele>686.060236</ele>
        <time>2014-05-18T08:35:20Z</time>
      </trkpt>
      <trkpt lat="44.07937" lon="3.02243">
        <ele>686.043453</ele>
        <time>2014-05-18T08:35:23Z</time>
      </trkpt>
      <trkpt lat="44.0793" lon="3.02244">
        <ele>686.381556</ele>
        <time>2014-05-18T08:35:26Z</time>
      </trkpt>
      <trkpt lat="44.07925" lon="3.02245">
        <ele>686.587486</ele>
        <time>2014-05-18T08:35:28Z</time>
      </trkpt>
      <trkpt lat="44.0792" lon="3.02246">
        <ele>686.811921</ele>
        <time>2014-05-18T08:35:30Z</time>
      </trkpt>
      <trkpt lat="44.07915" lon="3.02248">
        <ele>687.084623</ele>
        <time>2014-05-18T08:35:32Z</time>
      </trkpt>
      <trkpt lat="44.0791" lon="3.02248">
        <ele>687.45706</ele>
        <time>2014-05-18T08:35:34Z</time>
      </trkpt>
      <trkpt lat="44.07904" lon="3.02248">
        <ele>687.860655</ele>
        <time>2014-05-18T08:35:37Z</time>
      </trkpt>
      <trkpt lat="44.07897" lon="3.02249">
        <ele>688.164444</ele>
        <time>2014-05-18T08:35:40Z</time>
      </trkpt>
      <trkpt lat="44.07892" lon="3.0225">
        <ele>688.427625</ele>
        <time>2014-05-18T08:35:42Z</time>
      </trkpt>
      <trkpt lat="44.07886" lon="3.02251">
        <ele>688.662789</ele>
        <time>2014-05-18T08:35:44Z</time>
      </trkpt>
      <trkpt lat="44.07882" lon="3.02253">
        <ele>688.811417</ele>
        <time>2014-05-18T08:35:46Z</time>
      </trkpt>
      <trkpt lat="44.07875" lon="3.02254">
        <ele>689.063104</ele>
        <time>2014-05-18T08:35:49Z</time>
      </trkpt>
      <trkpt lat="44.07871" lon="3.02254">
        <ele>689.117338</ele>
        <time>2014-05-18T08:35:51Z</time>
      </trkpt>
      <trkpt lat="44.07865" lon="3.02255">
        <ele>689.273675</ele>
        <time>2014-05-18T08:35:54Z</time>
      </trkpt>
      <trkpt lat="44.0786" lon="3.02256">
        <ele>689.408047</ele>
        <time>2014-05-18T08:35:56Z</time>
      </trkpt>
      <trkpt lat="44.07855" lon="3.02257">
        <ele>689.691954</ele>
        <time>2014-05-18T08:35:58Z</time>
      </trkpt>
      <trkpt lat="44.0785" lon="3.02257">
        <ele>689.983527</ele>
        <time>2014-05-18T08:36:00Z</time>
      </trkpt>
      <trkpt lat="44.07845" lon="3.02258">
        <ele>690.218974</ele>
        <time>2014-05-18T08:36:02Z</time>
      </trkpt>
      <trkpt lat="44.0784" lon="3.02259">
        <ele>690.499005</ele>
        <time>2014-05-18T08:36:04Z</time>
      </trkpt>
      <trkpt lat="44.07835" lon="3.02259">
        <ele>690.798185</ele>
        <time>2014-05-18T08:36:06Z</time>
      </trkpt>
      <trkpt lat="44.0783" lon="3.0226">
        <ele>691.093365</ele>
        <time>2014-05-18T08:36:08Z</time>
      </trkpt>
      <trkpt lat="44.07824" lon="3.02261">
        <ele>691.436228</ele>
        <time>2014-05-18T08:36:11Z</time>
      </trkpt>
      <trkpt lat="44.07818" lon="3.02262">
        <ele>691.950126</ele>
        <time>2014-05-18T08:36:14Z</time>
      </trkpt>
      <trkpt lat="44.07811" lon="3.02264">
        <ele>692.244992</ele>
        <time>2014-05-18T08:36:17Z</time>
      </trkpt>
      <trkpt lat="44.07807" lon="3.02265">
        <ele>692.332772</ele>
        <time>2014-05-18T08:36:19Z</time>
      </trkpt>
      <trkpt lat="44.07801" lon="3.02267">
        <ele>692.519493</ele>
        <time>2014-05-18T08:36:22Z</time>
      </trkpt>
      <trkpt lat="44.07795" lon="3.02268">
        <ele>692.602493</ele>
        <time>2014-05-18T08:36:24Z</time>
      </trkpt>
      <trkpt lat="44.0779" lon="3.0227">
        <ele>692.703971</ele>
        <time>2014-05-18T08:36:26Z</time>
      </trkpt>
      <trkpt lat="44.07784" lon="3.0227">
        <ele>692.874625</ele>
        <time>2014-05-18T08:36:29Z</time>
      </trkpt>
      <trkpt lat="44.07779" lon="3.0227">
        <ele>692.953735</ele>
        <time>2014-05-18T08:36:31Z</time>
      </trkpt>
      <trkpt lat="44.07773" lon="3.0227">
        <ele>693.222962</ele>
        <time>2014-05-18T08:36:34Z</time>
      </trkpt>
      <trkpt lat="44.07768" lon="3.02269">
        <ele>693.391009</ele>
        <time>2014-05-18T08:36:36Z</time>
      </trkpt>
      <trkpt lat="44.07762" lon="3.02269">
        <ele>693.590509</ele>
        <time>2014-05-18T08:36:38Z</time>
      </trkpt>
      <trkpt lat="44.07757" lon="3.0227">
        <ele>693.886941</ele>
        <time>2014-05-18T08:36:40Z</time>
      </trkpt>
      <trkpt lat="44.07752" lon="3.02272">
        <ele>694.321524</ele>
        <time>2014-05-18T08:36:42Z</time>
      </trkpt>
      <trkpt lat="44.07747" lon="3.02274">
        <ele>694.669635</ele>
        <time>2014-05-18T08:36:44Z</time>
      </trkpt>
      <trkpt lat="44.07742" lon="3.02276">
        <ele>694.919024</ele>
        <time>2014-05-18T08:36:47Z</time>
      </trkpt>
      <trkpt lat="44.07736" lon="3.02277">
        <ele>694.987699</ele>
        <time>2014-05-18T08:36:50Z</time>
      </trkpt>
      <trkpt lat="44.07731" lon="3.02278">
        <ele>695.071748</ele>
        <time>2014-05-18T08:36:52Z</time>
      </trkpt>
      <trkpt lat="44.07727" lon="3.02279">
        <ele>695.165116</ele>
        <time>2014-05-18T08:36:54Z</time>
      </trkpt>
      <trkpt lat="44.07722" lon="3.02281">
        <ele>695.341172</ele>
        <time>2014-05-18T08:36:57Z</time>
      </trkpt>
      <trkpt lat="44.07715" lon="3.02281">
        <ele>695.42931</ele>
        <time>2014-05-18T08:37:00Z</time>
      </trkpt>
      <trkpt lat="44.07709" lon="3.02282">
        <ele>695.521588</ele>
        <time>2014-05-18T08:37:03Z</time>
      </trkpt>
      <trkpt lat="44.07704" lon="3.02283">
        <ele>695.647472</ele>
        <time>2014-05-18T08:37:05Z</time>
      </trkpt>
      <trkpt lat="44.07699" lon="3.02284">
        <ele>695.855758</ele>
        <time>2014-05-18T08:37:07Z</time>
      </trkpt>
      <trkpt lat="44.07695" lon="3.02284">
        <ele>696.084023</ele>
        <time>2014-05-18T08:37:09Z</time>
      </trkpt>
      <trkpt lat="44.0769" lon="3.02286">
        <ele>696.375929</ele>
        <time>2014-05-18T08:37:11Z</time>
      </trkpt>
      <trkpt lat="44.07683" lon="3.02287">
        <ele>696.841298</ele>
        <time>2014-05-18T08:37:14Z</time>
      </trkpt>
      <trkpt lat="44.07678" lon="3.02287">
        <ele>697.01761</ele>
        <time>2014-05-18T08:37:17Z</time>
      </trkpt>
      <trkpt lat="44.07673" lon="3.02288">
        <ele>696.986791</ele>
        <time>2014-05-18T08:37:19Z</time>
      </trkpt>
      <trkpt lat="44.07668" lon="3.02289">
        <ele>697.220994</ele>
        <time>2014-05-18T08:37:21Z</time>
      </trkpt>
      <trkpt lat="44.07663" lon="3.02289">
        <ele>697.429865</ele>
        <time>2014-05-18T08:37:23Z</time>
      </trkpt>
      <trkpt lat="44.07658" lon="3.0229">
        <ele>697.658543</ele>
        <time>2014-05-18T08:37:25Z</time>
      </trkpt>
      <trkpt lat="44.07653" lon="3.0229">
        <ele>697.846326</ele>
        <time>2014-05-18T08:37:27Z</time>
      </trkpt>
      <trkpt lat="44.07647" lon="3.02291">
        <ele>698.007541</ele>
        <time>2014-05-18T08:37:29Z</time>
      </trkpt>
      <trkpt lat="44.07641" lon="3.02292">
        <ele>698.209986</ele>
        <time>2014-05-18T08:37:32Z</time>
      </trkpt>
      <trkpt lat="44.07636" lon="3.02293">
        <ele>698.321877</ele>
        <time>2014-05-18T08:37:34Z</time>
      </trkpt>
      <trkpt lat="44.07629" lon="3.02295">
        <ele>698.462182</ele>
        <time>2014-05-18T08:37:37Z</time>
      </trkpt>
      <trkpt lat="44.07623" lon="3.02295">
        <ele>698.652128</ele>
        <time>2014-05-18T08:37:40Z</time>
      </trkpt>
      <trkpt lat="44.07618" lon="3.02297">
        <ele>698.862452</ele>
        <time>2014-05-18T08:37:42Z</time>
      </trkpt>
      <trkpt lat="44.07614" lon="3.02298">
        <ele>699.168945</ele>
        <time>2014-05-18T08:37:44Z</time>
      </trkpt>
      <trkpt lat="44.07608" lon="3.02299">
        <ele>699.585746</ele>
        <time>2014-05-18T08:37:47Z</time>
      </trkpt>
      <trkpt lat="44.07602" lon="3.02301">
        <ele>699.739302</ele>
        <time>2014-05-18T08:37:50Z</time>
      </trkpt>
      <trkpt lat="44.07597" lon="3.02302">
        <ele>699.91184</ele>
        <time>2014-05-18T08:37:52Z</time>
      </trkpt>
      <trkpt lat="44.0759" lon="3.02305">
        <ele>700.330151</ele>
        <time>2014-05-18T08:37:55Z</time>
      </trkpt>
      <trkpt lat="44.07586" lon="3.02306">
        <ele>700.577621</ele>
        <time>2014-05-18T08:37:57Z</time>
      </trkpt>
      <trkpt lat="44.07579" lon="3.02306">
        <ele>700.779996</ele>
        <time>2014-05-18T08:38:00Z</time>
      </trkpt>
      <trkpt lat="44.07572" lon="3.02307">
        <ele>701.032961</ele>
        <time>2014-05-18T08:38:03Z</time>
      </trkpt>
      <trkpt lat="44.07566" lon="3.02308">
        <ele>701.216312</ele>
        <time>2014-05-18T08:38:06Z</time>
      </trkpt>
      <trkpt lat="44.0756" lon="3.02309">
        <ele>701.249369</ele>
        <time>2014-05-18T08:38:09Z</time>
      </trkpt>
      <trkpt lat="44.07555" lon="3.0231">
        <ele>701.36597</ele>
        <time>2014-05-18T08:38:11Z</time>
      </trkpt>
      <trkpt lat="44.07551" lon="3.02311">
        <ele>701.599593</ele>
        <time>2014-05-18T08:38:14Z</time>
      </trkpt>
      <trkpt lat="44.07546" lon="3.02312">
        <ele>701.827887</ele>
        <time>2014-05-18T08:38:16Z</time>
      </trkpt>
      <trkpt lat="44.0754" lon="3.02312">
        <ele>702.135734</ele>
        <time>2014-05-18T08:38:18Z</time>
      </trkpt>
      <trkpt lat="44.07536" lon="3.02312">
        <ele>702.321073</ele>
        <time>2014-05-18T08:38:20Z</time>
      </trkpt>
      <trkpt lat="44.0753" lon="3.02314">
        <ele>702.770827</ele>
        <time>2014-05-18T08:38:23Z</time>
      </trkpt>
      <trkpt lat="44.07525" lon="3.02315">
        <ele>702.971238</ele>
        <time>2014-05-18T08:38:25Z</time>
      </trkpt>
      <trkpt lat="44.0752" lon="3.02316">
        <ele>703.080542</ele>
        <time>2014-05-18T08:38:27Z</time>
      </trkpt>
      <trkpt lat="44.07515" lon="3.02318">
        <ele>703.286706</ele>
        <time>2014-05-18T08:38:29Z</time>
      </trkpt>
      <trkpt lat="44.07509" lon="3.02321">
        <ele>703.601296</ele>
        <time>2014-05-18T08:38:32Z</time>
      </trkpt>
      <trkpt lat="44.07503" lon="3.02323">
        <ele>703.806524</ele>
        <time>2014-05-18T08:38:35Z</time>
      </trkpt>
      <trkpt lat="44.07498" lon="3.02324">
        <ele>704.053536</ele>
        <time>2014-05-18T08:38:38Z</time>
      </trkpt>
      <trkpt lat="44.07493" lon="3.02326">
        <ele>704.160337</ele>
        <time>2014-05-18T08:38:40Z</time>
      </trkpt>
      <trkpt lat="44.07486" lon="3.02327">
        <ele>704.258539</ele>
        <time>2014-05-18T08:38:43Z</time>
      </trkpt>
      <trkpt lat="44.07481" lon="3.02327">
        <ele>704.531579</ele>
        <time>2014-05-18T08:38:45Z</time>
      </trkpt>
      <trkpt lat="44.07475" lon="3.02328">
        <ele>704.873535</ele>
        <time>2014-05-18T08:38:48Z</time>
      </trkpt>
      <trkpt lat="44.07469" lon="3.02328">
        <ele>704.975741</ele>
        <time>2014-05-18T08:38:50Z</time>
      </trkpt>
      <trkpt lat="44.07464" lon="3.02329">
        <ele>705.19032</ele>
        <time>2014-05-18T08:38:52Z</time>
      </trkpt>
      <trkpt lat="44.07458" lon="3.02331">
        <ele>705.648452</ele>
        <time>2014-05-18T08:38:55Z</time>
      </trkpt>
      <trkpt lat="44.07453" lon="3.02332">
        <ele>706.237963</ele>
        <time>2014-05-18T08:38:59Z</time>
      </trkpt>
      <trkpt lat="44.07447" lon="3.02332">
        <ele>706.758784</ele>
        <time>2014-05-18T08:39:03Z</time>
      </trkpt>
      <trkpt lat="44.07441" lon="3.02334">
        <ele>706.918705</ele>
        <time>2014-05-18T08:39:06Z</time>
      </trkpt>
      <trkpt lat="44.07437" lon="3.02335">
        <ele>707.235959</ele>
        <time>2014-05-18T08:39:09Z</time>
      </trkpt>
      <trkpt lat="44.07432" lon="3.02336">
        <ele>707.690774</ele>
        <time>2014-05-18T08:39:12Z</time>
      </trkpt>
      <trkpt lat="44.07427" lon="3.02338">
        <ele>707.932639</ele>
        <time>2014-05-18T08:39:15Z</time>
      </trkpt>
      <trkpt lat="44.07421" lon="3.0234">
        <ele>707.915764</ele>
        <time>2014-05-18T08:39:19Z</time>
      </trkpt>
      <trkpt lat="44.07416" lon="3.02341">
        <ele>708.041465</ele>
        <time>2014-05-18T08:39:22Z</time>
      </trkpt>
      <trkpt lat="44.0741" lon="3.02341">
        <ele>708.256415</ele>
        <time>2014-05-18T08:39:25Z</time>
      </trkpt>
      <trkpt lat="44.07404" lon="3.02341">
        <ele>708.530444</ele>
        <time>2014-05-18T08:39:28Z</time>
      </trkpt>
      <trkpt lat="44.07399" lon="3.02342">
        <ele>708.719903</ele>
        <time>2014-05-18T08:39:31Z</time>
      </trkpt>
      <trkpt lat="44.07393" lon="3.02344">
        <ele>708.86084</ele>
        <time>2014-05-18T08:39:34Z</time>
      </trkpt>
      <trkpt lat="44.07388" lon="3.02346">
        <ele>708.979273</ele>
        <time>2014-05-18T08:39:37Z</time>
      </trkpt>
      <trkpt lat="44.07383" lon="3.02346">
        <ele>709.087184</ele>
        <time>2014-05-18T08:39:40Z</time>
      </trkpt>
      <trkpt lat="44.07378" lon="3.02347">
        <ele>709.201947</ele>
        <time>2014-05-18T08:39:44Z</time>
      </trkpt>
      <trkpt lat="44.07372" lon="3.02347">
        <ele>709.558183</ele>
        <time>2014-05-18T08:39:47Z</time>
      </trkpt>
      <trkpt lat="44.07367" lon="3.02346">
        <ele>709.870345</ele>
        <time>2014-05-18T08:39:50Z</time>
      </trkpt>
      <trkpt lat="44.07362" lon="3.02346">
        <ele>710.335708</ele>
        <time>2014-05-18T08:39:53Z</time>
      </trkpt>
      <trkpt lat="44.07357" lon="3.02347">
        <ele>710.778407</ele>
        <time>2014-05-18T08:39:57Z</time>
      </trkpt>
      <trkpt lat="44.07351" lon="3.02349">
        <ele>711.183311</ele>
        <time>2014-05-18T08:40:01Z</time>
      </trkpt>
      <trkpt lat="44.07345" lon="3.0235">
        <ele>711.562286</ele>
        <time>2014-05-18T08:40:04Z</time>
      </trkpt>
      <trkpt lat="44.07338" lon="3.02352">
        <ele>711.724272</ele>
        <time>2014-05-18T08:40:07Z</time>
      </trkpt>
      <trkpt lat="44.07333" lon="3.02355">
        <ele>711.695803</ele>
        <time>2014-05-18T08:40:09Z</time>
      </trkpt>
      <trkpt lat="44.07328" lon="3.02356">
        <ele>711.469897</ele>
        <time>2014-05-18T08:40:11Z</time>
      </trkpt>
      <trkpt lat="44.07321" lon="3.02358">
        <ele>711.260077</ele>
        <time>2014-05-18T08:40:14Z</time>
      </trkpt>
      <trkpt lat="44.07315" lon="3.02358">
        <ele>711.067052</ele>
        <time>2014-05-18T08:40:16Z</time>
      </trkpt>
      <trkpt lat="44.0731" lon="3.02359">
        <ele>711.07084</ele>
        <time>2014-05-18T08:40:18Z</time>
      </trkpt>
      <trkpt lat="44.07304" lon="3.0236">
        <ele>711.080165</ele>
        <time>2014-05-18T08:40:20Z</time>
      </trkpt>
      <trkpt lat="44.07299" lon="3.02362">
        <ele>710.92924</ele>
        <time>2014-05-18T08:40:22Z</time>
      </trkpt>
      <trkpt lat="44.07292" lon="3.02364">
        <ele>710.890054</ele>
        <time>2014-05-18T08:40:25Z</time>
      </trkpt>
      <trkpt lat="44.07287" lon="3.02364">
        <ele>710.886122</ele>
        <time>2014-05-18T08:40:27Z</time>
      </trkpt>
      <trkpt lat="44.07282" lon="3.02365">
        <ele>710.925315</ele>
        <time>2014-05-18T08:40:29Z</time>
      </trkpt>
      <trkpt lat="44.07275" lon="3.02366">
        <ele>711.081685</ele>
        <time>2014-05-18T08:40:32Z</time>
      </trkpt>
      <trkpt lat="44.07271" lon="3.02367">
        <ele>711.162466</ele>
        <time>2014-05-18T08:40:34Z</time>
      </trkpt>
      <trkpt lat="44.07264" lon="3.02369">
        <ele>711.391923</ele>
        <time>2014-05-18T08:40:36Z</time>
      </trkpt>
      <trkpt lat="44.07259" lon="3.02371">
        <ele>711.614615</ele>
        <time>2014-05-18T08:40:39Z</time>
      </trkpt>
      <trkpt lat="44.07253" lon="3.02372">
        <ele>711.858502</ele>
        <time>2014-05-18T08:40:42Z</time>
      </trkpt>
      <trkpt lat="44.07248" lon="3.02373">
        <ele>712.013175</ele>
        <time>2014-05-18T08:40:44Z</time>
      </trkpt>
      <trkpt lat="44.07243" lon="3.02374">
        <ele>712.164181</ele>
        <time>2014-05-18T08:40:46Z</time>
      </trkpt>
      <trkpt lat="44.07238" lon="3.02374">
        <ele>712.255404</ele>
        <time>2014-05-18T08:40:48Z</time>
      </trkpt>
      <trkpt lat="44.07232" lon="3.02375">
        <ele>712.291059</ele>
        <time>2014-05-18T08:40:50Z</time>
      </trkpt>
      <trkpt lat="44.07227" lon="3.02377">
        <ele>712.383371</ele>
        <time>2014-05-18T08:40:52Z</time>
      </trkpt>
      <trkpt lat="44.07223" lon="3.02379">
        <ele>712.455658</ele>
        <time>2014-05-18T08:40:54Z</time>
      </trkpt>
      <trkpt lat="44.07216" lon="3.02379">
        <ele>712.720395</ele>
        <time>2014-05-18T08:40:58Z</time>
      </trkpt>
      <trkpt lat="44.07211" lon="3.02381">
        <ele>713.040478</ele>
        <time>2014-05-18T08:41:02Z</time>
      </trkpt>
      <trkpt lat="44.07206" lon="3.02383">
        <ele>713.258845</ele>
        <time>2014-05-18T08:41:05Z</time>
      </trkpt>
      <trkpt lat="44.072" lon="3.02385">
        <ele>713.662872</ele>
        <time>2014-05-18T08:41:09Z</time>
      </trkpt>
      <trkpt lat="44.07195" lon="3.02386">
        <ele>713.969678</ele>
        <time>2014-05-18T08:41:12Z</time>
      </trkpt>
      <trkpt lat="44.07189" lon="3.02387">
        <ele>714.328437</ele>
        <time>2014-05-18T08:41:15Z</time>
      </trkpt>
      <trkpt lat="44.07185" lon="3.02389">
        <ele>714.740704</ele>
        <time>2014-05-18T08:41:18Z</time>
      </trkpt>
      <trkpt lat="44.07179" lon="3.0239">
        <ele>715.150224</ele>
        <time>2014-05-18T08:41:21Z</time>
      </trkpt>
      <trkpt lat="44.07175" lon="3.02391">
        <ele>715.46528</ele>
        <time>2014-05-18T08:41:24Z</time>
      </trkpt>
      <trkpt lat="44.07168" lon="3.02392">
        <ele>715.867348</ele>
        <time>2014-05-18T08:41:27Z</time>
      </trkpt>
      <trkpt lat="44.07164" lon="3.02393">
        <ele>716.2308</ele>
        <time>2014-05-18T08:41:29Z</time>
      </trkpt>
      <trkpt lat="44.07159" lon="3.02394">
        <ele>716.790426</ele>
        <time>2014-05-18T08:41:32Z</time>
      </trkpt>
      <trkpt lat="44.07153" lon="3.02394">
        <ele>717.539683</ele>
        <time>2014-05-18T08:41:36Z</time>
      </trkpt>
      <trkpt lat="44.07147" lon="3.02394">
        <ele>717.912336</ele>
        <time>2014-05-18T08:41:39Z</time>
      </trkpt>
      <trkpt lat="44.0714" lon="3.02395">
        <ele>718.185603</ele>
        <time>2014-05-18T08:41:42Z</time>
      </trkpt>
      <trkpt lat="44.07135" lon="3.02396">
        <ele>718.316061</ele>
        <time>2014-05-18T08:41:45Z</time>
      </trkpt>
      <trkpt lat="44.0713" lon="3.02397">
        <ele>718.525683</ele>
        <time>2014-05-18T08:41:48Z</time>
      </trkpt>
      <trkpt lat="44.07125" lon="3.02398">
        <ele>718.892534</ele>
        <time>2014-05-18T08:41:51Z</time>
      </trkpt>
      <trkpt lat="44.0712" lon="3.02401">
        <ele>719.092711</ele>
        <time>2014-05-18T08:41:54Z</time>
      </trkpt>
      <trkpt lat="44.07114" lon="3.02403">
        <ele>719.356214</ele>
        <time>2014-05-18T08:41:58Z</time>
      </trkpt>
      <trkpt lat="44.07109" lon="3.02406">
        <ele>719.617316</ele>
        <time>2014-05-18T08:42:01Z</time>
      </trkpt>
      <trkpt lat="44.07104" lon="3.02407">
        <ele>719.872059</ele>
        <time>2014-05-18T08:42:04Z</time>
      </trkpt>
      <trkpt lat="44.07098" lon="3.02406">
        <ele>720.129822</ele>
        <time>2014-05-18T08:42:07Z</time>
      </trkpt>
      <trkpt lat="44.07093" lon="3.02407">
        <ele>720.110086</ele>
        <time>2014-05-18T08:42:10Z</time>
      </trkpt>
      <trkpt lat="44.07086" lon="3.02408">
        <ele>719.963916</ele>
        <time>2014-05-18T08:42:13Z</time>
      </trkpt>
      <trkpt lat="44.0708" lon="3.02411">
        <ele>719.846251</ele>
        <time>2014-05-18T08:42:16Z</time>
      </trkpt>
      <trkpt lat="44.07073" lon="3.02414">
        <ele>719.941314</ele>
        <time>2014-05-18T08:42:19Z</time>
      </trkpt>
      <trkpt lat="44.07067" lon="3.02415">
        <ele>720.171215</ele>
        <time>2014-05-18T08:42:22Z</time>
      </trkpt>
      <trkpt lat="44.07062" lon="3.02415">
        <ele>720.229538</ele>
        <time>2014-05-18T08:42:24Z</time>
      </trkpt>
      <trkpt lat="44.07056" lon="3.02416">
        <ele>720.27765</ele>
        <time>2014-05-18T08:42:26Z</time>
      </trkpt>
      <trkpt lat="44.07051" lon="3.02416">
        <ele>720.302754</ele>
        <time>2014-05-18T08:42:28Z</time>
      </trkpt>
      <trkpt lat="44.07045" lon="3.02417">
        <ele>720.316672</ele>
        <time>2014-05-18T08:42:31Z</time>
      </trkpt>
      <trkpt lat="44.07041" lon="3.02418">
        <ele>720.432951</ele>
        <time>2014-05-18T08:42:33Z</time>
      </trkpt>
      <trkpt lat="44.07035" lon="3.0242">
        <ele>720.490619</ele>
        <time>2014-05-18T08:42:35Z</time>
      </trkpt>
      <trkpt lat="44.07029" lon="3.02422">
        <ele>720.501011</ele>
        <time>2014-05-18T08:42:37Z</time>
      </trkpt>
      <trkpt lat="44.07024" lon="3.02423">
        <ele>720.583325</ele>
        <time>2014-05-18T08:42:39Z</time>
      </trkpt>
      <trkpt lat="44.07019" lon="3.02423">
        <ele>720.670229</ele>
        <time>2014-05-18T08:42:41Z</time>
      </trkpt>
      <trkpt lat="44.07014" lon="3.02424">
        <ele>720.687989</ele>
        <time>2014-05-18T08:42:44Z</time>
      </trkpt>
      <trkpt lat="44.07008" lon="3.02426">
        <ele>720.749017</ele>
        <time>2014-05-18T08:42:46Z</time>
      </trkpt>
      <trkpt lat="44.07002" lon="3.02428">
        <ele>720.779169</ele>
        <time>2014-05-18T08:42:48Z</time>
      </trkpt>
      <trkpt lat="44.06997" lon="3.0243">
        <ele>720.781117</ele>
        <time>2014-05-18T08:42:50Z</time>
      </trkpt>
      <trkpt lat="44.06993" lon="3.02431">
        <ele>720.963612</ele>
        <time>2014-05-18T08:42:52Z</time>
      </trkpt>
      <trkpt lat="44.06987" lon="3.02431">
        <ele>721.157315</ele>
        <time>2014-05-18T08:42:55Z</time>
      </trkpt>
      <trkpt lat="44.06981" lon="3.02431">
        <ele>721.210251</ele>
        <time>2014-05-18T08:42:57Z</time>
      </trkpt>
      <trkpt lat="44.06977" lon="3.02432">
        <ele>721.218719</ele>
        <time>2014-05-18T08:42:59Z</time>
      </trkpt>
      <trkpt lat="44.06972" lon="3.02434">
        <ele>721.386207</ele>
        <time>2014-05-18T08:43:01Z</time>
      </trkpt>
      <trkpt lat="44.06966" lon="3.02435">
        <ele>721.485044</ele>
        <time>2014-05-18T08:43:03Z</time>
      </trkpt>
      <trkpt lat="44.0696" lon="3.02436">
        <ele>721.594192</ele>
        <time>2014-05-18T08:43:06Z</time>
      </trkpt>
      <trkpt lat="44.06955" lon="3.02437">
        <ele>721.892328</ele>
        <time>2014-05-18T08:43:08Z</time>
      </trkpt>
      <trkpt lat="44.0695" lon="3.02437">
        <ele>722.036963</ele>
        <time>2014-05-18T08:43:10Z</time>
      </trkpt>
      <trkpt lat="44.06945" lon="3.02438">
        <ele>722.144009</ele>
        <time>2014-05-18T08:43:12Z</time>
      </trkpt>
      <trkpt lat="44.0694" lon="3.02439">
        <ele>722.20505</ele>
        <time>2014-05-18T08:43:14Z</time>
      </trkpt>
      <trkpt lat="44.06933" lon="3.02441">
        <ele>722.547574</ele>
        <time>2014-05-18T08:43:17Z</time>
      </trkpt>
      <trkpt lat="44.06928" lon="3.02442">
        <ele>722.745185</ele>
        <time>2014-05-18T08:43:19Z</time>
      </trkpt>
      <trkpt lat="44.06923" lon="3.02444">
        <ele>722.90213</ele>
        <time>2014-05-18T08:43:21Z</time>
      </trkpt>
      <trkpt lat="44.06919" lon="3.02445">
        <ele>723.123087</ele>
        <time>2014-05-18T08:43:23Z</time>
      </trkpt>
      <trkpt lat="44.06914" lon="3.02446">
        <ele>723.337083</ele>
        <time>2014-05-18T08:43:25Z</time>
      </trkpt>
      <trkpt lat="44.06908" lon="3.02446">
        <ele>723.73765</ele>
        <time>2014-05-18T08:43:28Z</time>
      </trkpt>
      <trkpt lat="44.06903" lon="3.02448">
        <ele>724.062122</ele>
        <time>2014-05-18T08:43:30Z</time>
      </trkpt>
      <trkpt lat="44.06899" lon="3.02449">
        <ele>724.335373</ele>
        <time>2014-05-18T08:43:32Z</time>
      </trkpt>
      <trkpt lat="44.06894" lon="3.02451">
        <ele>724.508135</ele>
        <time>2014-05-18T08:43:34Z</time>
      </trkpt>
      <trkpt lat="44.06888" lon="3.02453">
        <ele>724.569809</ele>
        <time>2014-05-18T08:43:37Z</time>
      </trkpt>
      <trkpt lat="44.06884" lon="3.02454">
        <ele>724.484998</ele>
        <time>2014-05-18T08:43:40Z</time>
      </trkpt>
      <trkpt lat="44.06878" lon="3.02455">
        <ele>724.289934</ele>
        <time>2014-05-18T08:43:44Z</time>
      </trkpt>
      <trkpt lat="44.06873" lon="3.02457">
        <ele>724.307256</ele>
        <time>2014-05-18T08:43:47Z</time>
      </trkpt>
      <trkpt lat="44.06868" lon="3.02458">
        <ele>724.323914</ele>
        <time>2014-05-18T08:43:50Z</time>
      </trkpt>
      <trkpt lat="44.06863" lon="3.0246">
        <ele>724.506049</ele>
        <time>2014-05-18T08:43:53Z</time>
      </trkpt>
      <trkpt lat="44.06858" lon="3.02462">
        <ele>724.995632</ele>
        <time>2014-05-18T08:43:56Z</time>
      </trkpt>
      <trkpt lat="44.06852" lon="3.02464">
        <ele>725.731259</ele>
        <time>2014-05-18T08:43:59Z</time>
      </trkpt>
      <trkpt lat="44.06847" lon="3.02467">
        <ele>726.429105</ele>
        <time>2014-05-18T08:44:02Z</time>
      </trkpt>
      <trkpt lat="44.06842" lon="3.02469">
        <ele>727.082501</ele>
        <time>2014-05-18T08:44:05Z</time>
      </trkpt>
      <trkpt lat="44.06837" lon="3.0247">
        <ele>727.628925</ele>
        <time>2014-05-18T08:44:08Z</time>
      </trkpt>
      <trkpt lat="44.06832" lon="3.02471">
        <ele>728.084558</ele>
        <time>2014-05-18T08:44:11Z</time>
      </trkpt>
      <trkpt lat="44.06827" lon="3.02473">
        <ele>728.712041</ele>
        <time>2014-05-18T08:44:15Z</time>
      </trkpt>
      <trkpt lat="44.06822" lon="3.02474">
        <ele>728.976868</ele>
        <time>2014-05-18T08:44:17Z</time>
      </trkpt>
      <trkpt lat="44.06816" lon="3.02475">
        <ele>729.156808</ele>
        <time>2014-05-18T08:44:20Z</time>
      </trkpt>
      <trkpt lat="44.06811" lon="3.02476">
        <ele>729.584459</ele>
        <time>2014-05-18T08:44:23Z</time>
      </trkpt>
      <trkpt lat="44.06806" lon="3.02479">
        <ele>730.190693</ele>
        <time>2014-05-18T08:44:26Z</time>
      </trkpt>
      <trkpt lat="44.068" lon="3.0248">
        <ele>731.178154</ele>
        <time>2014-05-18T08:44:30Z</time>
      </trkpt>
      <trkpt lat="44.06794" lon="3.02482">
        <ele>731.993313</ele>
        <time>2014-05-18T08:44:34Z</time>
      </trkpt>
      <trkpt lat="44.06789" lon="3.02482">
        <ele>732.715986</ele>
        <time>2014-05-18T08:44:37Z</time>
      </trkpt>
      <trkpt lat="44.06783" lon="3.02483">
        <ele>733.432351</ele>
        <time>2014-05-18T08:44:40Z</time>
      </trkpt>
      <trkpt lat="44.06778" lon="3.02485">
        <ele>734.137188</ele>
        <time>2014-05-18T08:44:43Z</time>
      </trkpt>
      <trkpt lat="44.06771" lon="3.02487">
        <ele>734.693661</ele>
        <time>2014-05-18T08:44:46Z</time>
      </trkpt>
      <trkpt lat="44.06766" lon="3.02487">
        <ele>735.060495</ele>
        <time>2014-05-18T08:44:49Z</time>
      </trkpt>
      <trkpt lat="44.06762" lon="3.02488">
        <ele>735.395933</ele>
        <time>2014-05-18T08:44:52Z</time>
      </trkpt>
      <trkpt lat="44.06757" lon="3.0249">
        <ele>735.726517</ele>
        <time>2014-05-18T08:44:55Z</time>
      </trkpt>
      <trkpt lat="44.06752" lon="3.02492">
        <ele>736.104612</ele>
        <time>2014-05-18T08:44:58Z</time>
      </trkpt>
      <trkpt lat="44.06747" lon="3.02494">
        <ele>736.419793</ele>
        <time>2014-05-18T08:45:01Z</time>
      </trkpt>
      <trkpt lat="44.06741" lon="3.02495">
        <ele>736.713983</ele>
        <time>2014-05-18T08:45:04Z</time>
      </trkpt>
      <trkpt lat="44.06735" lon="3.02496">
        <ele>737.034465</ele>
        <time>2014-05-18T08:45:07Z</time>
      </trkpt>
      <trkpt lat="44.06729" lon="3.02498">
        <ele>737.271213</ele>
        <time>2014-05-18T08:45:10Z</time>
      </trkpt>
      <trkpt lat="44.06723" lon="3.025">
        <ele>737.459192</ele>
        <time>2014-05-18T08:45:13Z</time>
      </trkpt>
      <trkpt lat="44.06719" lon="3.02502">
        <ele>737.965505</ele>
        <time>2014-05-18T08:45:17Z</time>
      </trkpt>
      <trkpt lat="44.06715" lon="3.02505">
        <ele>738.393864</ele>
        <time>2014-05-18T08:45:20Z</time>
      </trkpt>
      <trkpt lat="44.06711" lon="3.02511">
        <ele>738.550215</ele>
        <time>2014-05-18T08:45:22Z</time>
      </trkpt>
      <trkpt lat="44.06715" lon="3.02517">
        <ele>738.474754</ele>
        <time>2014-05-18T08:45:25Z</time>
      </trkpt>
      <trkpt lat="44.06719" lon="3.02517">
        <ele>738.2734</ele>
        <time>2014-05-18T08:45:27Z</time>
      </trkpt>
      <trkpt lat="44.06725" lon="3.02518">
        <ele>738.239515</ele>
        <time>2014-05-18T08:45:29Z</time>
      </trkpt>
      <trkpt lat="44.0673" lon="3.02517">
        <ele>738.253287</ele>
        <time>2014-05-18T08:45:31Z</time>
      </trkpt>
      <trkpt lat="44.06735" lon="3.02516">
        <ele>738.302081</ele>
        <time>2014-05-18T08:45:33Z</time>
      </trkpt>
      <trkpt lat="44.06741" lon="3.02514">
        <ele>738.315252</ele>
        <time>2014-05-18T08:45:35Z</time>
      </trkpt>
      <trkpt lat="44.06746" lon="3.02513">
        <ele>738.382752</ele>
        <time>2014-05-18T08:45:37Z</time>
      </trkpt>
      <trkpt lat="44.06752" lon="3.02512">
        <ele>738.454099</ele>
        <time>2014-05-18T08:45:40Z</time>
      </trkpt>
      <trkpt lat="44.06756" lon="3.02511">
        <ele>738.417304</ele>
        <time>2014-05-18T08:45:42Z</time>
      </trkpt>
      <trkpt lat="44.06763" lon="3.0251">
        <ele>738.514699</ele>
        <time>2014-05-18T08:45:45Z</time>
      </trkpt>
      <trkpt lat="44.06768" lon="3.02511">
        <ele>738.581521</ele>
        <time>2014-05-18T08:45:48Z</time>
      </trkpt>
      <trkpt lat="44.06774" lon="3.02509">
        <ele>738.490377</ele>
        <time>2014-05-18T08:45:52Z</time>
      </trkpt>
      <trkpt lat="44.06779" lon="3.02507">
        <ele>738.316796</ele>
        <time>2014-05-18T08:45:55Z</time>
      </trkpt>
      <trkpt lat="44.06785" lon="3.02506">
        <ele>738.056239</ele>
        <time>2014-05-18T08:45:57Z</time>
      </trkpt>
      <trkpt lat="44.0679" lon="3.02504">
        <ele>737.818419</ele>
        <time>2014-05-18T08:45:59Z</time>
      </trkpt>
      <trkpt lat="44.06795" lon="3.02502">
        <ele>737.735448</ele>
        <time>2014-05-18T08:46:01Z</time>
      </trkpt>
      <trkpt lat="44.068" lon="3.025">
        <ele>737.830377</ele>
        <time>2014-05-18T08:46:04Z</time>
      </trkpt>
      <trkpt lat="44.06806" lon="3.025">
        <ele>737.714849</ele>
        <time>2014-05-18T08:46:08Z</time>
      </trkpt>
      <trkpt lat="44.06811" lon="3.02501">
        <ele>737.501989</ele>
        <time>2014-05-18T08:46:12Z</time>
      </trkpt>
      <trkpt lat="44.06816" lon="3.025">
        <ele>737.075077</ele>
        <time>2014-05-18T08:46:16Z</time>
      </trkpt>
      <trkpt lat="44.0682" lon="3.02495">
        <ele>736.437292</ele>
        <time>2014-05-18T08:46:21Z</time>
      </trkpt>
      <trkpt lat="44.06824" lon="3.025">
        <ele>736.728053</ele>
        <time>2014-05-18T08:47:04Z</time>
      </trkpt>
      <trkpt lat="44.06824" lon="3.02494">
        <ele>736.914619</ele>
        <time>2014-05-18T08:47:12Z</time>
      </trkpt>
      <trkpt lat="44.06828" lon="3.02492">
        <ele>734.118353</ele>
        <time>2014-05-18T08:49:01Z</time>
      </trkpt>
      <trkpt lat="44.06834" lon="3.0249">
        <ele>733.665508</ele>
        <time>2014-05-18T08:49:07Z</time>
      </trkpt>
      <trkpt lat="44.06839" lon="3.02489">
        <ele>733.616558</ele>
        <time>2014-05-18T08:49:12Z</time>
      </trkpt>
      <trkpt lat="44.06844" lon="3.02487">
        <ele>733.503849</ele>
        <time>2014-05-18T08:49:18Z</time>
      </trkpt>
      <trkpt lat="44.06848" lon="3.02486">
        <ele>733.451493</ele>
        <time>2014-05-18T08:49:21Z</time>
      </trkpt>
      <trkpt lat="44.06854" lon="3.02485">
        <ele>733.364117</ele>
        <time>2014-05-18T08:49:24Z</time>
      </trkpt>
      <trkpt lat="44.0686" lon="3.02483">
        <ele>733.29089</ele>
        <time>2014-05-18T08:49:28Z</time>
      </trkpt>
      <trkpt lat="44.06866" lon="3.02481">
        <ele>733.216957</ele>
        <time>2014-05-18T08:49:31Z</time>
      </trkpt>
      <trkpt lat="44.06873" lon="3.02479">
        <ele>733.275676</ele>
        <time>2014-05-18T08:49:34Z</time>
      </trkpt>
      <trkpt lat="44.06879" lon="3.02478">
        <ele>733.074639</ele>
        <time>2014-05-18T08:49:37Z</time>
      </trkpt>
      <trkpt lat="44.06885" lon="3.02477">
        <ele>732.840012</ele>
        <time>2014-05-18T08:49:40Z</time>
      </trkpt>
      <trkpt lat="44.0689" lon="3.02477">
        <ele>732.80543</ele>
        <time>2014-05-18T08:49:42Z</time>
      </trkpt>
      <trkpt lat="44.06897" lon="3.02476">
        <ele>732.518034</ele>
        <time>2014-05-18T08:49:45Z</time>
      </trkpt>
      <trkpt lat="44.06901" lon="3.02475">
        <ele>732.323935</ele>
        <time>2014-05-18T08:49:47Z</time>
      </trkpt>
      <trkpt lat="44.06906" lon="3.02474">
        <ele>732.122264</ele>
        <time>2014-05-18T08:49:49Z</time>
      </trkpt>
      <trkpt lat="44.06911" lon="3.02473">
        <ele>731.998274</ele>
        <time>2014-05-18T08:49:51Z</time>
      </trkpt>
      <trkpt lat="44.06917" lon="3.02472">
        <ele>731.850467</ele>
        <time>2014-05-18T08:49:53Z</time>
      </trkpt>
      <trkpt lat="44.06922" lon="3.02471">
        <ele>731.675609</ele>
        <time>2014-05-18T08:49:55Z</time>
      </trkpt>
      <trkpt lat="44.06927" lon="3.02469">
        <ele>731.395659</ele>
        <time>2014-05-18T08:49:57Z</time>
      </trkpt>
      <trkpt lat="44.06932" lon="3.02468">
        <ele>731.099339</ele>
        <time>2014-05-18T08:49:59Z</time>
      </trkpt>
      <trkpt lat="44.06938" lon="3.02467">
        <ele>730.980771</ele>
        <time>2014-05-18T08:50:02Z</time>
      </trkpt>
      <trkpt lat="44.06943" lon="3.02465">
        <ele>730.672884</ele>
        <time>2014-05-18T08:50:07Z</time>
      </trkpt>
      <trkpt lat="44.06949" lon="3.02465">
        <ele>730.561198</ele>
        <time>2014-05-18T08:50:10Z</time>
      </trkpt>
      <trkpt lat="44.06955" lon="3.02464">
        <ele>730.515994</ele>
        <time>2014-05-18T08:50:13Z</time>
      </trkpt>
      <trkpt lat="44.06961" lon="3.02463">
        <ele>730.413651</ele>
        <time>2014-05-18T08:50:15Z</time>
      </trkpt>
      <trkpt lat="44.06967" lon="3.02462">
        <ele>730.350509</ele>
        <time>2014-05-18T08:50:17Z</time>
      </trkpt>
      <trkpt lat="44.06971" lon="3.02461">
        <ele>730.222635</ele>
        <time>2014-05-18T08:50:19Z</time>
      </trkpt>
      <trkpt lat="44.06978" lon="3.02459">
        <ele>729.941694</ele>
        <time>2014-05-18T08:50:22Z</time>
      </trkpt>
      <trkpt lat="44.06983" lon="3.02458">
        <ele>729.888343</ele>
        <time>2014-05-18T08:50:24Z</time>
      </trkpt>
      <trkpt lat="44.0699" lon="3.02457">
        <ele>730.007219</ele>
        <time>2014-05-18T08:50:27Z</time>
      </trkpt>
      <trkpt lat="44.06995" lon="3.02456">
        <ele>729.969248</ele>
        <time>2014-05-18T08:50:29Z</time>
      </trkpt>
      <trkpt lat="44.07" lon="3.02454">
        <ele>729.867425</ele>
        <time>2014-05-18T08:50:31Z</time>
      </trkpt>
      <trkpt lat="44.07005" lon="3.02453">
        <ele>729.703088</ele>
        <time>2014-05-18T08:50:33Z</time>
      </trkpt>
      <trkpt lat="44.07009" lon="3.02452">
        <ele>729.542236</ele>
        <time>2014-05-18T08:50:35Z</time>
      </trkpt>
      <trkpt lat="44.07014" lon="3.0245">
        <ele>729.465204</ele>
        <time>2014-05-18T08:50:37Z</time>
      </trkpt>
      <trkpt lat="44.0702" lon="3.02449">
        <ele>729.447314</ele>
        <time>2014-05-18T08:50:39Z</time>
      </trkpt>
      <trkpt lat="44.07024" lon="3.02448">
        <ele>729.293819</ele>
        <time>2014-05-18T08:50:41Z</time>
      </trkpt>
      <trkpt lat="44.07031" lon="3.02447">
        <ele>729.025933</ele>
        <time>2014-05-18T08:50:44Z</time>
      </trkpt>
      <trkpt lat="44.07036" lon="3.02446">
        <ele>728.823605</ele>
        <time>2014-05-18T08:50:46Z</time>
      </trkpt>
      <trkpt lat="44.07041" lon="3.02444">
        <ele>728.647459</ele>
        <time>2014-05-18T08:50:48Z</time>
      </trkpt>
      <trkpt lat="44.07046" lon="3.02442">
        <ele>728.339936</ele>
        <time>2014-05-18T08:50:50Z</time>
      </trkpt>
      <trkpt lat="44.07051" lon="3.02441">
        <ele>728.197807</ele>
        <time>2014-05-18T08:50:52Z</time>
      </trkpt>
      <trkpt lat="44.07057" lon="3.02439">
        <ele>727.979481</ele>
        <time>2014-05-18T08:50:54Z</time>
      </trkpt>
      <trkpt lat="44.07062" lon="3.02438">
        <ele>727.824942</ele>
        <time>2014-05-18T08:50:56Z</time>
      </trkpt>
      <trkpt lat="44.07066" lon="3.02436">
        <ele>727.686032</ele>
        <time>2014-05-18T08:50:58Z</time>
      </trkpt>
      <trkpt lat="44.07071" lon="3.02435">
        <ele>727.62978</ele>
        <time>2014-05-18T08:51:00Z</time>
      </trkpt>
      <trkpt lat="44.07076" lon="3.02433">
        <ele>727.524171</ele>
        <time>2014-05-18T08:51:02Z</time>
      </trkpt>
      <trkpt lat="44.07081" lon="3.0243">
        <ele>727.312009</ele>
        <time>2014-05-18T08:51:04Z</time>
      </trkpt>
      <trkpt lat="44.07087" lon="3.02428">
        <ele>727.015563</ele>
        <time>2014-05-18T08:51:07Z</time>
      </trkpt>
      <trkpt lat="44.07092" lon="3.02428">
        <ele>726.90573</ele>
        <time>2014-05-18T08:51:09Z</time>
      </trkpt>
      <trkpt lat="44.07097" lon="3.02427">
        <ele>726.803071</ele>
        <time>2014-05-18T08:51:11Z</time>
      </trkpt>
      <trkpt lat="44.07103" lon="3.02427">
        <ele>726.631521</ele>
        <time>2014-05-18T08:51:13Z</time>
      </trkpt>
      <trkpt lat="44.07108" lon="3.02426">
        <ele>726.547549</ele>
        <time>2014-05-18T08:51:15Z</time>
      </trkpt>
      <trkpt lat="44.07114" lon="3.02425">
        <ele>726.439449</ele>
        <time>2014-05-18T08:51:17Z</time>
      </trkpt>
      <trkpt lat="44.07119" lon="3.02425">
        <ele>726.294504</ele>
        <time>2014-05-18T08:51:19Z</time>
      </trkpt>
      <trkpt lat="44.07124" lon="3.02424">
        <ele>726.082411</ele>
        <time>2014-05-18T08:51:21Z</time>
      </trkpt>
      <trkpt lat="44.07129" lon="3.02422">
        <ele>725.823521</ele>
        <time>2014-05-18T08:51:22Z</time>
      </trkpt>
      <trkpt lat="44.07134" lon="3.0242">
        <ele>725.722388</ele>
        <time>2014-05-18T08:51:24Z</time>
      </trkpt>
      <trkpt lat="44.0714" lon="3.02418">
        <ele>725.64041</ele>
        <time>2014-05-18T08:51:26Z</time>
      </trkpt>
      <trkpt lat="44.07145" lon="3.02416">
        <ele>725.669692</ele>
        <time>2014-05-18T08:51:28Z</time>
      </trkpt>
      <trkpt lat="44.07149" lon="3.02415">
        <ele>725.605771</ele>
        <time>2014-05-18T08:51:30Z</time>
      </trkpt>
      <trkpt lat="44.07156" lon="3.02414">
        <ele>725.495577</ele>
        <time>2014-05-18T08:51:32Z</time>
      </trkpt>
      <trkpt lat="44.07161" lon="3.02413">
        <ele>725.388172</ele>
        <time>2014-05-18T08:51:34Z</time>
      </trkpt>
      <trkpt lat="44.07166" lon="3.02411">
        <ele>725.184821</ele>
        <time>2014-05-18T08:51:36Z</time>
      </trkpt>
      <trkpt lat="44.07171" lon="3.02409">
        <ele>724.965705</ele>
        <time>2014-05-18T08:51:38Z</time>
      </trkpt>
      <trkpt lat="44.07177" lon="3.02407">
        <ele>724.925927</ele>
        <time>2014-05-18T08:51:41Z</time>
      </trkpt>
      <trkpt lat="44.07182" lon="3.02406">
        <ele>724.781739</ele>
        <time>2014-05-18T08:51:43Z</time>
      </trkpt>
      <trkpt lat="44.07188" lon="3.02405">
        <ele>724.619977</ele>
        <time>2014-05-18T08:51:45Z</time>
      </trkpt>
      <trkpt lat="44.07193" lon="3.02404">
        <ele>724.418514</ele>
        <time>2014-05-18T08:51:47Z</time>
      </trkpt>
      <trkpt lat="44.07198" lon="3.02402">
        <ele>724.180421</ele>
        <time>2014-05-18T08:51:49Z</time>
      </trkpt>
      <trkpt lat="44.07204" lon="3.02401">
        <ele>724.031841</ele>
        <time>2014-05-18T08:51:51Z</time>
      </trkpt>
      <trkpt lat="44.07209" lon="3.024">
        <ele>723.855914</ele>
        <time>2014-05-18T08:51:53Z</time>
      </trkpt>
      <trkpt lat="44.07214" lon="3.02399">
        <ele>723.772811</ele>
        <time>2014-05-18T08:51:55Z</time>
      </trkpt>
      <trkpt lat="44.07219" lon="3.02398">
        <ele>723.670286</ele>
        <time>2014-05-18T08:51:57Z</time>
      </trkpt>
      <trkpt lat="44.07225" lon="3.02396">
        <ele>723.549522</ele>
        <time>2014-05-18T08:51:59Z</time>
      </trkpt>
      <trkpt lat="44.0723" lon="3.02395">
        <ele>723.373038</ele>
        <time>2014-05-18T08:52:01Z</time>
      </trkpt>
      <trkpt lat="44.07235" lon="3.02393">
        <ele>723.23671</ele>
        <time>2014-05-18T08:52:03Z</time>
      </trkpt>
      <trkpt lat="44.0724" lon="3.02391">
        <ele>723.170098</ele>
        <time>2014-05-18T08:52:05Z</time>
      </trkpt>
      <trkpt lat="44.07246" lon="3.0239">
        <ele>723.044235</ele>
        <time>2014-05-18T08:52:07Z</time>
      </trkpt>
      <trkpt lat="44.07253" lon="3.02388">
        <ele>722.979262</ele>
        <time>2014-05-18T08:52:10Z</time>
      </trkpt>
      <trkpt lat="44.07258" lon="3.02387">
        <ele>722.916027</ele>
        <time>2014-05-18T08:52:12Z</time>
      </trkpt>
      <trkpt lat="44.07263" lon="3.02386">
        <ele>722.763306</ele>
        <time>2014-05-18T08:52:14Z</time>
      </trkpt>
      <trkpt lat="44.07268" lon="3.02385">
        <ele>722.532897</ele>
        <time>2014-05-18T08:52:16Z</time>
      </trkpt>
      <trkpt lat="44.07274" lon="3.02385">
        <ele>722.264205</ele>
        <time>2014-05-18T08:52:18Z</time>
      </trkpt>
      <trkpt lat="44.07279" lon="3.02384">
        <ele>722.076998</ele>
        <time>2014-05-18T08:52:20Z</time>
      </trkpt>
      <trkpt lat="44.07285" lon="3.02384">
        <ele>721.694184</ele>
        <time>2014-05-18T08:52:23Z</time>
      </trkpt>
      <trkpt lat="44.07291" lon="3.02383">
        <ele>721.594542</ele>
        <time>2014-05-18T08:52:25Z</time>
      </trkpt>
      <trkpt lat="44.07297" lon="3.02382">
        <ele>721.500461</ele>
        <time>2014-05-18T08:52:27Z</time>
      </trkpt>
      <trkpt lat="44.07302" lon="3.02381">
        <ele>721.513882</ele>
        <time>2014-05-18T08:52:29Z</time>
      </trkpt>
      <trkpt lat="44.07309" lon="3.02378">
        <ele>721.559859</ele>
        <time>2014-05-18T08:52:31Z</time>
      </trkpt>
      <trkpt lat="44.07314" lon="3.02378">
        <ele>721.632865</ele>
        <time>2014-05-18T08:52:33Z</time>
      </trkpt>
      <trkpt lat="44.0732" lon="3.02376">
        <ele>721.640461</ele>
        <time>2014-05-18T08:52:36Z</time>
      </trkpt>
      <trkpt lat="44.07325" lon="3.02375">
        <ele>721.577956</ele>
        <time>2014-05-18T08:52:38Z</time>
      </trkpt>
      <trkpt lat="44.07329" lon="3.02374">
        <ele>721.439448</ele>
        <time>2014-05-18T08:52:40Z</time>
      </trkpt>
      <trkpt lat="44.07334" lon="3.02373">
        <ele>721.385745</ele>
        <time>2014-05-18T08:52:42Z</time>
      </trkpt>
      <trkpt lat="44.07341" lon="3.0237">
        <ele>721.137569</ele>
        <time>2014-05-18T08:52:44Z</time>
      </trkpt>
      <trkpt lat="44.07346" lon="3.02367">
        <ele>720.850445</ele>
        <time>2014-05-18T08:52:46Z</time>
      </trkpt>
      <trkpt lat="44.07351" lon="3.02366">
        <ele>720.517103</ele>
        <time>2014-05-18T08:52:48Z</time>
      </trkpt>
      <trkpt lat="44.07357" lon="3.02364">
        <ele>720.264817</ele>
        <time>2014-05-18T08:52:50Z</time>
      </trkpt>
      <trkpt lat="44.07362" lon="3.02363">
        <ele>720.019653</ele>
        <time>2014-05-18T08:52:52Z</time>
      </trkpt>
      <trkpt lat="44.07367" lon="3.02363">
        <ele>719.639614</ele>
        <time>2014-05-18T08:52:54Z</time>
      </trkpt>
      <trkpt lat="44.07372" lon="3.02362">
        <ele>719.217774</ele>
        <time>2014-05-18T08:52:56Z</time>
      </trkpt>
      <trkpt lat="44.07378" lon="3.02361">
        <ele>718.880067</ele>
        <time>2014-05-18T08:52:58Z</time>
      </trkpt>
      <trkpt lat="44.07383" lon="3.02361">
        <ele>718.675911</ele>
        <time>2014-05-18T08:53:00Z</time>
      </trkpt>
      <trkpt lat="44.07388" lon="3.02361">
        <ele>718.437214</ele>
        <time>2014-05-18T08:53:02Z</time>
      </trkpt>
      <trkpt lat="44.07393" lon="3.0236">
        <ele>718.165168</ele>
        <time>2014-05-18T08:53:04Z</time>
      </trkpt>
      <trkpt lat="44.07398" lon="3.0236">
        <ele>718.091057</ele>
        <time>2014-05-18T08:53:06Z</time>
      </trkpt>
      <trkpt lat="44.07405" lon="3.02361">
        <ele>718.033014</ele>
        <time>2014-05-18T08:53:08Z</time>
      </trkpt>
      <trkpt lat="44.07411" lon="3.0236">
        <ele>717.969494</ele>
        <time>2014-05-18T08:53:10Z</time>
      </trkpt>
      <trkpt lat="44.07415" lon="3.02359">
        <ele>717.907675</ele>
        <time>2014-05-18T08:53:12Z</time>
      </trkpt>
      <trkpt lat="44.0742" lon="3.02359">
        <ele>717.924189</ele>
        <time>2014-05-18T08:53:14Z</time>
      </trkpt>
      <trkpt lat="44.07425" lon="3.02357">
        <ele>717.82473</ele>
        <time>2014-05-18T08:53:16Z</time>
      </trkpt>
      <trkpt lat="44.07431" lon="3.02356">
        <ele>717.656057</ele>
        <time>2014-05-18T08:53:18Z</time>
      </trkpt>
      <trkpt lat="44.07437" lon="3.02354">
        <ele>717.405432</ele>
        <time>2014-05-18T08:53:20Z</time>
      </trkpt>
      <trkpt lat="44.07442" lon="3.02353">
        <ele>717.088455</ele>
        <time>2014-05-18T08:53:22Z</time>
      </trkpt>
      <trkpt lat="44.07447" lon="3.02352">
        <ele>716.77968</ele>
        <time>2014-05-18T08:53:24Z</time>
      </trkpt>
      <trkpt lat="44.07452" lon="3.02351">
        <ele>716.476171</ele>
        <time>2014-05-18T08:53:26Z</time>
      </trkpt>
      <trkpt lat="44.07457" lon="3.02349">
        <ele>716.159396</ele>
        <time>2014-05-18T08:53:28Z</time>
      </trkpt>
      <trkpt lat="44.07463" lon="3.02348">
        <ele>715.886564</ele>
        <time>2014-05-18T08:53:30Z</time>
      </trkpt>
      <trkpt lat="44.07469" lon="3.02346">
        <ele>715.606669</ele>
        <time>2014-05-18T08:53:32Z</time>
      </trkpt>
      <trkpt lat="44.07475" lon="3.02345">
        <ele>715.249204</ele>
        <time>2014-05-18T08:53:34Z</time>
      </trkpt>
      <trkpt lat="44.0748" lon="3.02345">
        <ele>714.990781</ele>
        <time>2014-05-18T08:53:36Z</time>
      </trkpt>
      <trkpt lat="44.07485" lon="3.02345">
        <ele>714.78278</ele>
        <time>2014-05-18T08:53:38Z</time>
      </trkpt>
      <trkpt lat="44.0749" lon="3.02343">
        <ele>714.714972</ele>
        <time>2014-05-18T08:53:40Z</time>
      </trkpt>
      <trkpt lat="44.07496" lon="3.02342">
        <ele>714.677292</ele>
        <time>2014-05-18T08:53:42Z</time>
      </trkpt>
      <trkpt lat="44.07501" lon="3.02342">
        <ele>714.518594</ele>
        <time>2014-05-18T08:53:44Z</time>
      </trkpt>
      <trkpt lat="44.07506" lon="3.02341">
        <ele>714.225464</ele>
        <time>2014-05-18T08:53:46Z</time>
      </trkpt>
      <trkpt lat="44.07512" lon="3.02339">
        <ele>714.035657</ele>
        <time>2014-05-18T08:53:48Z</time>
      </trkpt>
      <trkpt lat="44.07518" lon="3.02339">
        <ele>713.831242</ele>
        <time>2014-05-18T08:53:50Z</time>
      </trkpt>
      <trkpt lat="44.07523" lon="3.02338">
        <ele>713.69129</ele>
        <time>2014-05-18T08:53:52Z</time>
      </trkpt>
      <trkpt lat="44.07527" lon="3.02337">
        <ele>713.421219</ele>
        <time>2014-05-18T08:53:54Z</time>
      </trkpt>
      <trkpt lat="44.07532" lon="3.02336">
        <ele>713.13763</ele>
        <time>2014-05-18T08:53:56Z</time>
      </trkpt>
      <trkpt lat="44.07539" lon="3.02335">
        <ele>712.915895</ele>
        <time>2014-05-18T08:53:58Z</time>
      </trkpt>
      <trkpt lat="44.07544" lon="3.02333">
        <ele>712.546864</ele>
        <time>2014-05-18T08:54:00Z</time>
      </trkpt>
      <trkpt lat="44.0755" lon="3.02332">
        <ele>712.334987</ele>
        <time>2014-05-18T08:54:02Z</time>
      </trkpt>
      <trkpt lat="44.07555" lon="3.0233">
        <ele>712.213054</ele>
        <time>2014-05-18T08:54:04Z</time>
      </trkpt>
      <trkpt lat="44.07561" lon="3.02329">
        <ele>712.077873</ele>
        <time>2014-05-18T08:54:06Z</time>
      </trkpt>
      <trkpt lat="44.07566" lon="3.02328">
        <ele>711.924784</ele>
        <time>2014-05-18T08:54:08Z</time>
      </trkpt>
      <trkpt lat="44.07572" lon="3.02327">
        <ele>711.810215</ele>
        <time>2014-05-18T08:54:10Z</time>
      </trkpt>
      <trkpt lat="44.07577" lon="3.02326">
        <ele>711.77174</ele>
        <time>2014-05-18T08:54:12Z</time>
      </trkpt>
      <trkpt lat="44.07582" lon="3.02325">
        <ele>711.68433</ele>
        <time>2014-05-18T08:54:14Z</time>
      </trkpt>
      <trkpt lat="44.07588" lon="3.02324">
        <ele>711.428556</ele>
        <time>2014-05-18T08:54:17Z</time>
      </trkpt>
      <trkpt lat="44.07593" lon="3.02324">
        <ele>711.224726</ele>
        <time>2014-05-18T08:54:19Z</time>
      </trkpt>
      <trkpt lat="44.07599" lon="3.02323">
        <ele>711.112493</ele>
        <time>2014-05-18T08:54:21Z</time>
      </trkpt>
      <trkpt lat="44.07604" lon="3.02322">
        <ele>711.097611</ele>
        <time>2014-05-18T08:54:23Z</time>
      </trkpt>
      <trkpt lat="44.0761" lon="3.02321">
        <ele>710.985238</ele>
        <time>2014-05-18T08:54:25Z</time>
      </trkpt>
      <trkpt lat="44.07615" lon="3.0232">
        <ele>710.852395</ele>
        <time>2014-05-18T08:54:27Z</time>
      </trkpt>
      <trkpt lat="44.0762" lon="3.02319">
        <ele>710.763568</ele>
        <time>2014-05-18T08:54:29Z</time>
      </trkpt>
      <trkpt lat="44.07627" lon="3.02318">
        <ele>710.606671</ele>
        <time>2014-05-18T08:54:32Z</time>
      </trkpt>
      <trkpt lat="44.07632" lon="3.02317">
        <ele>710.512342</ele>
        <time>2014-05-18T08:54:34Z</time>
      </trkpt>
      <trkpt lat="44.07638" lon="3.02317">
        <ele>710.477545</ele>
        <time>2014-05-18T08:54:36Z</time>
      </trkpt>
      <trkpt lat="44.07644" lon="3.02316">
        <ele>710.483048</ele>
        <time>2014-05-18T08:54:38Z</time>
      </trkpt>
      <trkpt lat="44.0765" lon="3.02316">
        <ele>710.440858</ele>
        <time>2014-05-18T08:54:40Z</time>
      </trkpt>
      <trkpt lat="44.07654" lon="3.02316">
        <ele>710.471811</ele>
        <time>2014-05-18T08:54:42Z</time>
      </trkpt>
      <trkpt lat="44.07661" lon="3.02316">
        <ele>710.329739</ele>
        <time>2014-05-18T08:54:44Z</time>
      </trkpt>
      <trkpt lat="44.07667" lon="3.02314">
        <ele>710.113892</ele>
        <time>2014-05-18T08:54:46Z</time>
      </trkpt>
      <trkpt lat="44.07673" lon="3.02313">
        <ele>710.010643</ele>
        <time>2014-05-18T08:54:48Z</time>
      </trkpt>
      <trkpt lat="44.07677" lon="3.02312">
        <ele>709.809746</ele>
        <time>2014-05-18T08:54:50Z</time>
      </trkpt>
      <trkpt lat="44.07682" lon="3.02311">
        <ele>709.579293</ele>
        <time>2014-05-18T08:54:52Z</time>
      </trkpt>
      <trkpt lat="44.07689" lon="3.02309">
        <ele>709.389236</ele>
        <time>2014-05-18T08:54:55Z</time>
      </trkpt>
      <trkpt lat="44.07695" lon="3.02308">
        <ele>709.106573</ele>
        <time>2014-05-18T08:54:57Z</time>
      </trkpt>
      <trkpt lat="44.07699" lon="3.02307">
        <ele>708.804159</ele>
        <time>2014-05-18T08:54:59Z</time>
      </trkpt>
      <trkpt lat="44.07705" lon="3.02305">
        <ele>708.482501</ele>
        <time>2014-05-18T08:55:01Z</time>
      </trkpt>
      <trkpt lat="44.0771" lon="3.02305">
        <ele>708.278134</ele>
        <time>2014-05-18T08:55:03Z</time>
      </trkpt>
      <trkpt lat="44.07718" lon="3.02303">
        <ele>707.909977</ele>
        <time>2014-05-18T08:55:06Z</time>
      </trkpt>
      <trkpt lat="44.07723" lon="3.02302">
        <ele>707.75827</ele>
        <time>2014-05-18T08:55:08Z</time>
      </trkpt>
      <trkpt lat="44.07729" lon="3.02301">
        <ele>707.424029</ele>
        <time>2014-05-18T08:55:11Z</time>
      </trkpt>
      <trkpt lat="44.07734" lon="3.023">
        <ele>707.303136</ele>
        <time>2014-05-18T08:55:13Z</time>
      </trkpt>
      <trkpt lat="44.0774" lon="3.02299">
        <ele>707.092499</ele>
        <time>2014-05-18T08:55:15Z</time>
      </trkpt>
      <trkpt lat="44.07745" lon="3.02299">
        <ele>706.662455</ele>
        <time>2014-05-18T08:55:17Z</time>
      </trkpt>
      <trkpt lat="44.07751" lon="3.02297">
        <ele>706.322774</ele>
        <time>2014-05-18T08:55:19Z</time>
      </trkpt>
      <trkpt lat="44.07756" lon="3.02296">
        <ele>706.015367</ele>
        <time>2014-05-18T08:55:21Z</time>
      </trkpt>
      <trkpt lat="44.07761" lon="3.02295">
        <ele>705.768986</ele>
        <time>2014-05-18T08:55:23Z</time>
      </trkpt>
      <trkpt lat="44.07766" lon="3.02293">
        <ele>705.646401</ele>
        <time>2014-05-18T08:55:25Z</time>
      </trkpt>
      <trkpt lat="44.07771" lon="3.02292">
        <ele>705.484324</ele>
        <time>2014-05-18T08:55:27Z</time>
      </trkpt>
      <trkpt lat="44.07776" lon="3.02291">
        <ele>705.373576</ele>
        <time>2014-05-18T08:55:29Z</time>
      </trkpt>
      <trkpt lat="44.07781" lon="3.0229">
        <ele>705.125672</ele>
        <time>2014-05-18T08:55:31Z</time>
      </trkpt>
      <trkpt lat="44.07786" lon="3.02289">
        <ele>704.955869</ele>
        <time>2014-05-18T08:55:33Z</time>
      </trkpt>
      <trkpt lat="44.07791" lon="3.02288">
        <ele>704.736591</ele>
        <time>2014-05-18T08:55:35Z</time>
      </trkpt>
      <trkpt lat="44.07797" lon="3.02287">
        <ele>704.336276</ele>
        <time>2014-05-18T08:55:38Z</time>
      </trkpt>
      <trkpt lat="44.07802" lon="3.02285">
        <ele>704.119822</ele>
        <time>2014-05-18T08:55:40Z</time>
      </trkpt>
      <trkpt lat="44.07808" lon="3.02284">
        <ele>703.82714</ele>
        <time>2014-05-18T08:55:42Z</time>
      </trkpt>
      <trkpt lat="44.07814" lon="3.02283">
        <ele>703.606353</ele>
        <time>2014-05-18T08:55:44Z</time>
      </trkpt>
      <trkpt lat="44.0782" lon="3.02284">
        <ele>703.449563</ele>
        <time>2014-05-18T08:55:46Z</time>
      </trkpt>
      <trkpt lat="44.07824" lon="3.02284">
        <ele>703.312898</ele>
        <time>2014-05-18T08:55:48Z</time>
      </trkpt>
      <trkpt lat="44.07829" lon="3.02283">
        <ele>703.264509</ele>
        <time>2014-05-18T08:55:50Z</time>
      </trkpt>
      <trkpt lat="44.07834" lon="3.02282">
        <ele>703.157587</ele>
        <time>2014-05-18T08:55:52Z</time>
      </trkpt>
      <trkpt lat="44.07839" lon="3.02282">
        <ele>703.032384</ele>
        <time>2014-05-18T08:55:54Z</time>
      </trkpt>
      <trkpt lat="44.07845" lon="3.02282">
        <ele>702.982804</ele>
        <time>2014-05-18T08:55:56Z</time>
      </trkpt>
      <trkpt lat="44.07849" lon="3.02282">
        <ele>702.879066</ele>
        <time>2014-05-18T08:55:58Z</time>
      </trkpt>
      <trkpt lat="44.07855" lon="3.0228">
        <ele>702.633994</ele>
        <time>2014-05-18T08:56:00Z</time>
      </trkpt>
      <trkpt lat="44.07859" lon="3.02278">
        <ele>702.308646</ele>
        <time>2014-05-18T08:56:02Z</time>
      </trkpt>
      <trkpt lat="44.07865" lon="3.02277">
        <ele>701.899059</ele>
        <time>2014-05-18T08:56:04Z</time>
      </trkpt>
      <trkpt lat="44.0787" lon="3.02276">
        <ele>701.635633</ele>
        <time>2014-05-18T08:56:06Z</time>
      </trkpt>
      <trkpt lat="44.07874" lon="3.02276">
        <ele>701.363215</ele>
        <time>2014-05-18T08:56:08Z</time>
      </trkpt>
      <trkpt lat="44.07879" lon="3.02277">
        <ele>701.137298</ele>
        <time>2014-05-18T08:56:10Z</time>
      </trkpt>
      <trkpt lat="44.07884" lon="3.02276">
        <ele>700.861078</ele>
        <time>2014-05-18T08:56:12Z</time>
      </trkpt>
      <trkpt lat="44.07889" lon="3.02275">
        <ele>700.549565</ele>
        <time>2014-05-18T08:56:14Z</time>
      </trkpt>
      <trkpt lat="44.07894" lon="3.02273">
        <ele>700.263749</ele>
        <time>2014-05-18T08:56:17Z</time>
      </trkpt>
      <trkpt lat="44.079" lon="3.02273">
        <ele>700.137404</ele>
        <time>2014-05-18T08:56:19Z</time>
      </trkpt>
      <trkpt lat="44.07905" lon="3.02272">
        <ele>699.923648</ele>
        <time>2014-05-18T08:56:21Z</time>
      </trkpt>
      <trkpt lat="44.0791" lon="3.02271">
        <ele>699.75075</ele>
        <time>2014-05-18T08:56:23Z</time>
      </trkpt>
      <trkpt lat="44.07915" lon="3.0227">
        <ele>699.559669</ele>
        <time>2014-05-18T08:56:25Z</time>
      </trkpt>
      <trkpt lat="44.0792" lon="3.02269">
        <ele>699.442334</ele>
        <time>2014-05-18T08:56:27Z</time>
      </trkpt>
      <trkpt lat="44.07924" lon="3.02267">
        <ele>699.458763</ele>
        <time>2014-05-18T08:56:29Z</time>
      </trkpt>
      <trkpt lat="44.0793" lon="3.02267">
        <ele>699.382034</ele>
        <time>2014-05-18T08:56:31Z</time>
      </trkpt>
      <trkpt lat="44.07936" lon="3.02265">
        <ele>699.252128</ele>
        <time>2014-05-18T08:56:33Z</time>
      </trkpt>
      <trkpt lat="44.07942" lon="3.02263">
        <ele>698.984947</ele>
        <time>2014-05-18T08:56:36Z</time>
      </trkpt>
      <trkpt lat="44.07947" lon="3.02262">
        <ele>698.727335</ele>
        <time>2014-05-18T08:56:38Z</time>
      </trkpt>
      <trkpt lat="44.07954" lon="3.02261">
        <ele>698.530042</ele>
        <time>2014-05-18T08:56:40Z</time>
      </trkpt>
      <trkpt lat="44.0796" lon="3.0226">
        <ele>698.313956</ele>
        <time>2014-05-18T08:56:42Z</time>
      </trkpt>
      <trkpt lat="44.07966" lon="3.02258">
        <ele>698.177559</ele>
        <time>2014-05-18T08:56:45Z</time>
      </trkpt>
      <trkpt lat="44.07971" lon="3.02258">
        <ele>698.046702</ele>
        <time>2014-05-18T08:56:47Z</time>
      </trkpt>
      <trkpt lat="44.07977" lon="3.02257">
        <ele>697.915343</ele>
        <time>2014-05-18T08:56:49Z</time>
      </trkpt>
      <trkpt lat="44.07981" lon="3.02257">
        <ele>697.720116</ele>
        <time>2014-05-18T08:56:51Z</time>
      </trkpt>
      <trkpt lat="44.07986" lon="3.02256">
        <ele>697.531667</ele>
        <time>2014-05-18T08:56:53Z</time>
      </trkpt>
      <trkpt lat="44.07991" lon="3.02256">
        <ele>697.417582</ele>
        <time>2014-05-18T08:56:55Z</time>
      </trkpt>
      <trkpt lat="44.07998" lon="3.02256">
        <ele>697.130989</ele>
        <time>2014-05-18T08:56:57Z</time>
      </trkpt>
      <trkpt lat="44.08004" lon="3.02255">
        <ele>696.91752</ele>
        <time>2014-05-18T08:56:59Z</time>
      </trkpt>
      <trkpt lat="44.08009" lon="3.02253">
        <ele>696.650837</ele>
        <time>2014-05-18T08:57:01Z</time>
      </trkpt>
      <trkpt lat="44.08016" lon="3.02251">
        <ele>696.459259</ele>
        <time>2014-05-18T08:57:03Z</time>
      </trkpt>
      <trkpt lat="44.08021" lon="3.02249">
        <ele>696.243422</ele>
        <time>2014-05-18T08:57:05Z</time>
      </trkpt>
      <trkpt lat="44.08025" lon="3.02247">
        <ele>696.08086</ele>
        <time>2014-05-18T08:57:07Z</time>
      </trkpt>
      <trkpt lat="44.0803" lon="3.02246">
        <ele>695.835905</ele>
        <time>2014-05-18T08:57:09Z</time>
      </trkpt>
      <trkpt lat="44.08037" lon="3.02245">
        <ele>695.580067</ele>
        <time>2014-05-18T08:57:11Z</time>
      </trkpt>
      <trkpt lat="44.08042" lon="3.02245">
        <ele>695.210278</ele>
        <time>2014-05-18T08:57:13Z</time>
      </trkpt>
      <trkpt lat="44.08048" lon="3.02244">
        <ele>694.882719</ele>
        <time>2014-05-18T08:57:15Z</time>
      </trkpt>
      <trkpt lat="44.08054" lon="3.02244">
        <ele>694.584837</ele>
        <time>2014-05-18T08:57:18Z</time>
      </trkpt>
      <trkpt lat="44.0806" lon="3.02244">
        <ele>694.456087</ele>
        <time>2014-05-18T08:57:20Z</time>
      </trkpt>
      <trkpt lat="44.08066" lon="3.02244">
        <ele>694.275971</ele>
        <time>2014-05-18T08:57:22Z</time>
      </trkpt>
      <trkpt lat="44.08072" lon="3.02243">
        <ele>694.101312</ele>
        <time>2014-05-18T08:57:24Z</time>
      </trkpt>
      <trkpt lat="44.08078" lon="3.02241">
        <ele>694.048583</ele>
        <time>2014-05-18T08:57:27Z</time>
      </trkpt>
      <trkpt lat="44.08084" lon="3.02241">
        <ele>694.058526</ele>
        <time>2014-05-18T08:57:29Z</time>
      </trkpt>
      <trkpt lat="44.0809" lon="3.0224">
        <ele>693.857951</ele>
        <time>2014-05-18T08:57:31Z</time>
      </trkpt>
      <trkpt lat="44.08096" lon="3.02239">
        <ele>693.6312</ele>
        <time>2014-05-18T08:57:33Z</time>
      </trkpt>
      <trkpt lat="44.08102" lon="3.02238">
        <ele>693.481116</ele>
        <time>2014-05-18T08:57:35Z</time>
      </trkpt>
      <trkpt lat="44.08107" lon="3.02238">
        <ele>693.362577</ele>
        <time>2014-05-18T08:57:37Z</time>
      </trkpt>
      <trkpt lat="44.08114" lon="3.02237">
        <ele>693.243775</ele>
        <time>2014-05-18T08:57:39Z</time>
      </trkpt>
      <trkpt lat="44.08119" lon="3.02235">
        <ele>693.094847</ele>
        <time>2014-05-18T08:57:41Z</time>
      </trkpt>
      <trkpt lat="44.08125" lon="3.02234">
        <ele>692.927034</ele>
        <time>2014-05-18T08:57:43Z</time>
      </trkpt>
      <trkpt lat="44.0813" lon="3.02232">
        <ele>692.757488</ele>
        <time>2014-05-18T08:57:45Z</time>
      </trkpt>
      <trkpt lat="44.08135" lon="3.02231">
        <ele>692.495811</ele>
        <time>2014-05-18T08:57:48Z</time>
      </trkpt>
      <trkpt lat="44.08139" lon="3.0223">
        <ele>692.23167</ele>
        <time>2014-05-18T08:57:50Z</time>
      </trkpt>
      <trkpt lat="44.08144" lon="3.02229">
        <ele>691.922685</ele>
        <time>2014-05-18T08:57:52Z</time>
      </trkpt>
      <trkpt lat="44.0815" lon="3.02228">
        <ele>691.66529</ele>
        <time>2014-05-18T08:57:54Z</time>
      </trkpt>
      <trkpt lat="44.08157" lon="3.02228">
        <ele>691.441044</ele>
        <time>2014-05-18T08:57:56Z</time>
      </trkpt>
      <trkpt lat="44.08162" lon="3.02227">
        <ele>691.154908</ele>
        <time>2014-05-18T08:57:58Z</time>
      </trkpt>
      <trkpt lat="44.08167" lon="3.02226">
        <ele>690.953496</ele>
        <time>2014-05-18T08:58:00Z</time>
      </trkpt>
      <trkpt lat="44.08172" lon="3.02224">
        <ele>690.826153</ele>
        <time>2014-05-18T08:58:02Z</time>
      </trkpt>
      <trkpt lat="44.08177" lon="3.02222">
        <ele>690.681982</ele>
        <time>2014-05-18T08:58:04Z</time>
      </trkpt>
      <trkpt lat="44.08185" lon="3.02222">
        <ele>690.494896</ele>
        <time>2014-05-18T08:58:07Z</time>
      </trkpt>
      <trkpt lat="44.0819" lon="3.02222">
        <ele>690.495533</ele>
        <time>2014-05-18T08:58:09Z</time>
      </trkpt>
      <trkpt lat="44.08196" lon="3.02222">
        <ele>690.352641</ele>
        <time>2014-05-18T08:58:11Z</time>
      </trkpt>
      <trkpt lat="44.08202" lon="3.02221">
        <ele>690.29342</ele>
        <time>2014-05-18T08:58:13Z</time>
      </trkpt>
      <trkpt lat="44.08208" lon="3.02221">
        <ele>690.221496</ele>
        <time>2014-05-18T08:58:15Z</time>
      </trkpt>
      <trkpt lat="44.08213" lon="3.0222">
        <ele>690.085286</ele>
        <time>2014-05-18T08:58:17Z</time>
      </trkpt>
      <trkpt lat="44.08218" lon="3.0222">
        <ele>689.95045</ele>
        <time>2014-05-18T08:58:19Z</time>
      </trkpt>
      <trkpt lat="44.08224" lon="3.0222">
        <ele>689.648926</ele>
        <time>2014-05-18T08:58:21Z</time>
      </trkpt>
      <trkpt lat="44.0823" lon="3.02219">
        <ele>689.308073</ele>
        <time>2014-05-18T08:58:23Z</time>
      </trkpt>
      <trkpt lat="44.08235" lon="3.02218">
        <ele>688.95559</ele>
        <time>2014-05-18T08:58:25Z</time>
      </trkpt>
      <trkpt lat="44.08241" lon="3.02217">
        <ele>688.511884</ele>
        <time>2014-05-18T08:58:27Z</time>
      </trkpt>
      <trkpt lat="44.08246" lon="3.02216">
        <ele>688.236366</ele>
        <time>2014-05-18T08:58:29Z</time>
      </trkpt>
      <trkpt lat="44.08253" lon="3.02215">
        <ele>687.749634</ele>
        <time>2014-05-18T08:58:32Z</time>
      </trkpt>
      <trkpt lat="44.0826" lon="3.02215">
        <ele>687.428425</ele>
        <time>2014-05-18T08:58:34Z</time>
      </trkpt>
      <trkpt lat="44.08264" lon="3.02214">
        <ele>687.075771</ele>
        <time>2014-05-18T08:58:36Z</time>
      </trkpt>
      <trkpt lat="44.0827" lon="3.02213">
        <ele>686.710826</ele>
        <time>2014-05-18T08:58:38Z</time>
      </trkpt>
      <trkpt lat="44.08275" lon="3.02213">
        <ele>686.462559</ele>
        <time>2014-05-18T08:58:40Z</time>
      </trkpt>
      <trkpt lat="44.08281" lon="3.02213">
        <ele>686.217244</ele>
        <time>2014-05-18T08:58:42Z</time>
      </trkpt>
      <trkpt lat="44.08286" lon="3.02214">
        <ele>686.084151</ele>
        <time>2014-05-18T08:58:44Z</time>
      </trkpt>
      <trkpt lat="44.08291" lon="3.02214">
        <ele>685.866029</ele>
        <time>2014-05-18T08:58:46Z</time>
      </trkpt>
      <trkpt lat="44.08297" lon="3.02213">
        <ele>685.675754</ele>
        <time>2014-05-18T08:58:48Z</time>
      </trkpt>
      <trkpt lat="44.08301" lon="3.02211">
        <ele>685.459239</ele>
        <time>2014-05-18T08:58:50Z</time>
      </trkpt>
      <trkpt lat="44.08307" lon="3.0221">
        <ele>685.295936</ele>
        <time>2014-05-18T08:58:52Z</time>
      </trkpt>
      <trkpt lat="44.08312" lon="3.02209">
        <ele>685.118548</ele>
        <time>2014-05-18T08:58:54Z</time>
      </trkpt>
      <trkpt lat="44.08317" lon="3.02209">
        <ele>684.833246</ele>
        <time>2014-05-18T08:58:56Z</time>
      </trkpt>
      <trkpt lat="44.08322" lon="3.02208">
        <ele>684.685142</ele>
        <time>2014-05-18T08:58:58Z</time>
      </trkpt>
      <trkpt lat="44.08328" lon="3.02208">
        <ele>684.594959</ele>
        <time>2014-05-18T08:59:00Z</time>
      </trkpt>
      <trkpt lat="44.08334" lon="3.02208">
        <ele>684.656655</ele>
        <time>2014-05-18T08:59:02Z</time>
      </trkpt>
      <trkpt lat="44.08339" lon="3.02208">
        <ele>684.693568</ele>
        <time>2014-05-18T08:59:04Z</time>
      </trkpt>
      <trkpt lat="44.08344" lon="3.02207">
        <ele>684.631628</ele>
        <time>2014-05-18T08:59:06Z</time>
      </trkpt>
      <trkpt lat="44.0835" lon="3.02206">
        <ele>684.437597</ele>
        <time>2014-05-18T08:59:08Z</time>
      </trkpt>
      <trkpt lat="44.08355" lon="3.02205">
        <ele>684.358911</ele>
        <time>2014-05-18T08:59:10Z</time>
      </trkpt>
      <trkpt lat="44.08361" lon="3.02204">
        <ele>684.132711</ele>
        <time>2014-05-18T08:59:12Z</time>
      </trkpt>
      <trkpt lat="44.08366" lon="3.02202">
        <ele>683.932043</ele>
        <time>2014-05-18T08:59:14Z</time>
      </trkpt>
      <trkpt lat="44.08372" lon="3.02201">
        <ele>683.835038</ele>
        <time>2014-05-18T08:59:16Z</time>
      </trkpt>
      <trkpt lat="44.08378" lon="3.022">
        <ele>683.643218</ele>
        <time>2014-05-18T08:59:18Z</time>
      </trkpt>
      <trkpt lat="44.08384" lon="3.022">
        <ele>683.547463</ele>
        <time>2014-05-18T08:59:20Z</time>
      </trkpt>
      <trkpt lat="44.08389" lon="3.022">
        <ele>683.424514</ele>
        <time>2014-05-18T08:59:22Z</time>
      </trkpt>
      <trkpt lat="44.08395" lon="3.02199">
        <ele>683.285814</ele>
        <time>2014-05-18T08:59:24Z</time>
      </trkpt>
      <trkpt lat="44.08401" lon="3.02199">
        <ele>683.089939</ele>
        <time>2014-05-18T08:59:26Z</time>
      </trkpt>
      <trkpt lat="44.08407" lon="3.02199">
        <ele>682.936918</ele>
        <time>2014-05-18T08:59:28Z</time>
      </trkpt>
      <trkpt lat="44.08413" lon="3.02197">
        <ele>682.841883</ele>
        <time>2014-05-18T08:59:30Z</time>
      </trkpt>
      <trkpt lat="44.08419" lon="3.02197">
        <ele>682.714524</ele>
        <time>2014-05-18T08:59:32Z</time>
      </trkpt>
      <trkpt lat="44.08423" lon="3.02198">
        <ele>682.416914</ele>
        <time>2014-05-18T08:59:34Z</time>
      </trkpt>
      <trkpt lat="44.0843" lon="3.02197">
        <ele>682.11408</ele>
        <time>2014-05-18T08:59:36Z</time>
      </trkpt>
      <trkpt lat="44.08436" lon="3.02196">
        <ele>681.842248</ele>
        <time>2014-05-18T08:59:38Z</time>
      </trkpt>
      <trkpt lat="44.08443" lon="3.02195">
        <ele>681.550711</ele>
        <time>2014-05-18T08:59:40Z</time>
      </trkpt>
      <trkpt lat="44.08448" lon="3.02194">
        <ele>681.353559</ele>
        <time>2014-05-18T08:59:42Z</time>
      </trkpt>
      <trkpt lat="44.08453" lon="3.02193">
        <ele>681.17954</ele>
        <time>2014-05-18T08:59:44Z</time>
      </trkpt>
      <trkpt lat="44.08459" lon="3.02192">
        <ele>681.125378</ele>
        <time>2014-05-18T08:59:47Z</time>
      </trkpt>
      <trkpt lat="44.08465" lon="3.02191">
        <ele>680.946104</ele>
        <time>2014-05-18T08:59:49Z</time>
      </trkpt>
      <trkpt lat="44.08472" lon="3.02189">
        <ele>680.809254</ele>
        <time>2014-05-18T08:59:51Z</time>
      </trkpt>
      <trkpt lat="44.08478" lon="3.02188">
        <ele>680.559466</ele>
        <time>2014-05-18T08:59:54Z</time>
      </trkpt>
      <trkpt lat="44.08484" lon="3.02187">
        <ele>680.483062</ele>
        <time>2014-05-18T08:59:56Z</time>
      </trkpt>
      <trkpt lat="44.08491" lon="3.02186">
        <ele>680.353195</ele>
        <time>2014-05-18T08:59:58Z</time>
      </trkpt>
      <trkpt lat="44.08497" lon="3.02184">
        <ele>680.238534</ele>
        <time>2014-05-18T09:00:00Z</time>
      </trkpt>
      <trkpt lat="44.08502" lon="3.02183">
        <ele>680.118049</ele>
        <time>2014-05-18T09:00:02Z</time>
      </trkpt>
      <trkpt lat="44.08507" lon="3.02182">
        <ele>680.023417</ele>
        <time>2014-05-18T09:00:04Z</time>
      </trkpt>
      <trkpt lat="44.08513" lon="3.02182">
        <ele>679.940953</ele>
        <time>2014-05-18T09:00:06Z</time>
      </trkpt>
      <trkpt lat="44.08519" lon="3.02182">
        <ele>679.860022</ele>
        <time>2014-05-18T09:00:08Z</time>
      </trkpt>
      <trkpt lat="44.08525" lon="3.02183">
        <ele>679.852684</ele>
        <time>2014-05-18T09:00:10Z</time>
      </trkpt>
      <trkpt lat="44.08532" lon="3.02184">
        <ele>679.760178</ele>
        <time>2014-05-18T09:00:13Z</time>
      </trkpt>
      <trkpt lat="44.08537" lon="3.02184">
        <ele>679.568397</ele>
        <time>2014-05-18T09:00:15Z</time>
      </trkpt>
      <trkpt lat="44.08543" lon="3.02183">
        <ele>679.453056</ele>
        <time>2014-05-18T09:00:17Z</time>
      </trkpt>
      <trkpt lat="44.08548" lon="3.02182">
        <ele>679.313811</ele>
        <time>2014-05-18T09:00:19Z</time>
      </trkpt>
      <trkpt lat="44.08553" lon="3.02181">
        <ele>679.096123</ele>
        <time>2014-05-18T09:00:21Z</time>
      </trkpt>
      <trkpt lat="44.08559" lon="3.0218">
        <ele>678.918157</ele>
        <time>2014-05-18T09:00:23Z</time>
      </trkpt>
      <trkpt lat="44.08565" lon="3.02179">
        <ele>678.658412</ele>
        <time>2014-05-18T09:00:25Z</time>
      </trkpt>
      <trkpt lat="44.08569" lon="3.02179">
        <ele>678.406625</ele>
        <time>2014-05-18T09:00:27Z</time>
      </trkpt>
      <trkpt lat="44.08575" lon="3.02178">
        <ele>678.220647</ele>
        <time>2014-05-18T09:00:29Z</time>
      </trkpt>
      <trkpt lat="44.0858" lon="3.02177">
        <ele>677.992616</ele>
        <time>2014-05-18T09:00:31Z</time>
      </trkpt>
      <trkpt lat="44.08585" lon="3.02176">
        <ele>677.769237</ele>
        <time>2014-05-18T09:00:33Z</time>
      </trkpt>
      <trkpt lat="44.0859" lon="3.02176">
        <ele>677.698464</ele>
        <time>2014-05-18T09:00:35Z</time>
      </trkpt>
      <trkpt lat="44.08597" lon="3.02176">
        <ele>677.650094</ele>
        <time>2014-05-18T09:00:38Z</time>
      </trkpt>
      <trkpt lat="44.08601" lon="3.02177">
        <ele>677.526808</ele>
        <time>2014-05-18T09:00:40Z</time>
      </trkpt>
      <trkpt lat="44.08607" lon="3.02177">
        <ele>677.363775</ele>
        <time>2014-05-18T09:00:42Z</time>
      </trkpt>
      <trkpt lat="44.08612" lon="3.02175">
        <ele>677.08065</ele>
        <time>2014-05-18T09:00:45Z</time>
      </trkpt>
      <trkpt lat="44.08617" lon="3.02174">
        <ele>676.906644</ele>
        <time>2014-05-18T09:00:47Z</time>
      </trkpt>
      <trkpt lat="44.08622" lon="3.02173">
        <ele>676.907844</ele>
        <time>2014-05-18T09:00:49Z</time>
      </trkpt>
      <trkpt lat="44.08628" lon="3.02173">
        <ele>676.942718</ele>
        <time>2014-05-18T09:00:51Z</time>
      </trkpt>
      <trkpt lat="44.08633" lon="3.02172">
        <ele>676.883292</ele>
        <time>2014-05-18T09:00:53Z</time>
      </trkpt>
      <trkpt lat="44.08638" lon="3.02172">
        <ele>676.776369</ele>
        <time>2014-05-18T09:00:55Z</time>
      </trkpt>
      <trkpt lat="44.08644" lon="3.02172">
        <ele>676.643453</ele>
        <time>2014-05-18T09:00:57Z</time>
      </trkpt>
      <trkpt lat="44.08649" lon="3.02171">
        <ele>676.517391</ele>
        <time>2014-05-18T09:00:59Z</time>
      </trkpt>
      <trkpt lat="44.08654" lon="3.02171">
        <ele>676.359613</ele>
        <time>2014-05-18T09:01:01Z</time>
      </trkpt>
      <trkpt lat="44.08659" lon="3.02171">
        <ele>676.242982</ele>
        <time>2014-05-18T09:01:03Z</time>
      </trkpt>
      <trkpt lat="44.08665" lon="3.02169">
        <ele>676.185404</ele>
        <time>2014-05-18T09:01:05Z</time>
      </trkpt>
      <trkpt lat="44.0867" lon="3.02169">
        <ele>675.981259</ele>
        <time>2014-05-18T09:01:07Z</time>
      </trkpt>
      <trkpt lat="44.08676" lon="3.02168">
        <ele>675.704241</ele>
        <time>2014-05-18T09:01:09Z</time>
      </trkpt>
      <trkpt lat="44.08682" lon="3.02166">
        <ele>675.383464</ele>
        <time>2014-05-18T09:01:11Z</time>
      </trkpt>
      <trkpt lat="44.08686" lon="3.02164">
        <ele>675.167568</ele>
        <time>2014-05-18T09:01:13Z</time>
      </trkpt>
      <trkpt lat="44.08693" lon="3.02164">
        <ele>674.873129</ele>
        <time>2014-05-18T09:01:16Z</time>
      </trkpt>
      <trkpt lat="44.08699" lon="3.02163">
        <ele>674.86637</ele>
        <time>2014-05-18T09:01:18Z</time>
      </trkpt>
      <trkpt lat="44.08705" lon="3.02163">
        <ele>674.884073</ele>
        <time>2014-05-18T09:01:20Z</time>
      </trkpt>
      <trkpt lat="44.0871" lon="3.02162">
        <ele>674.954931</ele>
        <time>2014-05-18T09:01:22Z</time>
      </trkpt>
      <trkpt lat="44.08715" lon="3.02162">
        <ele>674.987101</ele>
        <time>2014-05-18T09:01:24Z</time>
      </trkpt>
      <trkpt lat="44.08721" lon="3.02161">
        <ele>674.916834</ele>
        <time>2014-05-18T09:01:26Z</time>
      </trkpt>
      <trkpt lat="44.08726" lon="3.02161">
        <ele>674.830699</ele>
        <time>2014-05-18T09:01:28Z</time>
      </trkpt>
      <trkpt lat="44.08732" lon="3.0216">
        <ele>674.636682</ele>
        <time>2014-05-18T09:01:30Z</time>
      </trkpt>
      <trkpt lat="44.08737" lon="3.0216">
        <ele>674.468468</ele>
        <time>2014-05-18T09:01:32Z</time>
      </trkpt>
      <trkpt lat="44.08743" lon="3.0216">
        <ele>674.264908</ele>
        <time>2014-05-18T09:01:34Z</time>
      </trkpt>
      <trkpt lat="44.08749" lon="3.0216">
        <ele>674.043837</ele>
        <time>2014-05-18T09:01:36Z</time>
      </trkpt>
      <trkpt lat="44.08754" lon="3.0216">
        <ele>673.844493</ele>
        <time>2014-05-18T09:01:38Z</time>
      </trkpt>
      <trkpt lat="44.08759" lon="3.0216">
        <ele>673.798561</ele>
        <time>2014-05-18T09:01:40Z</time>
      </trkpt>
      <trkpt lat="44.08764" lon="3.0216">
        <ele>673.778442</ele>
        <time>2014-05-18T09:01:42Z</time>
      </trkpt>
      <trkpt lat="44.08769" lon="3.02159">
        <ele>673.548173</ele>
        <time>2014-05-18T09:01:44Z</time>
      </trkpt>
      <trkpt lat="44.08774" lon="3.02158">
        <ele>673.306861</ele>
        <time>2014-05-18T09:01:46Z</time>
      </trkpt>
      <trkpt lat="44.0878" lon="3.02158">
        <ele>673.079652</ele>
        <time>2014-05-18T09:01:48Z</time>
      </trkpt>
      <trkpt lat="44.08787" lon="3.02157">
        <ele>672.833391</ele>
        <time>2014-05-18T09:01:50Z</time>
      </trkpt>
      <trkpt lat="44.08792" lon="3.02157">
        <ele>672.621438</ele>
        <time>2014-05-18T09:01:52Z</time>
      </trkpt>
      <trkpt lat="44.08797" lon="3.02157">
        <ele>672.299972</ele>
        <time>2014-05-18T09:01:54Z</time>
      </trkpt>
      <trkpt lat="44.08803" lon="3.02158">
        <ele>671.881297</ele>
        <time>2014-05-18T09:01:56Z</time>
      </trkpt>
      <trkpt lat="44.08809" lon="3.02158">
        <ele>671.571114</ele>
        <time>2014-05-18T09:01:58Z</time>
      </trkpt>
      <trkpt lat="44.08815" lon="3.02157">
        <ele>671.310642</ele>
        <time>2014-05-18T09:02:00Z</time>
      </trkpt>
      <trkpt lat="44.08822" lon="3.02156">
        <ele>671.015952</ele>
        <time>2014-05-18T09:02:02Z</time>
      </trkpt>
      <trkpt lat="44.0883" lon="3.02154">
        <ele>670.768869</ele>
        <time>2014-05-18T09:02:04Z</time>
      </trkpt>
      <trkpt lat="44.08835" lon="3.02153">
        <ele>670.167822</ele>
        <time>2014-05-18T09:02:06Z</time>
      </trkpt>
      <trkpt lat="44.08843" lon="3.02153">
        <ele>670.04404</ele>
        <time>2014-05-18T09:02:08Z</time>
      </trkpt>
      <trkpt lat="44.08851" lon="3.02155">
        <ele>669.946911</ele>
        <time>2014-05-18T09:02:10Z</time>
      </trkpt>
      <trkpt lat="44.08857" lon="3.02154">
        <ele>669.845759</ele>
        <time>2014-05-18T09:02:12Z</time>
      </trkpt>
      <trkpt lat="44.08864" lon="3.02153">
        <ele>669.780004</ele>
        <time>2014-05-18T09:02:14Z</time>
      </trkpt>
      <trkpt lat="44.08868" lon="3.02152">
        <ele>669.767893</ele>
        <time>2014-05-18T09:02:16Z</time>
      </trkpt>
      <trkpt lat="44.08875" lon="3.02149">
        <ele>669.628996</ele>
        <time>2014-05-18T09:02:18Z</time>
      </trkpt>
      <trkpt lat="44.08881" lon="3.02148">
        <ele>669.30619</ele>
        <time>2014-05-18T09:02:20Z</time>
      </trkpt>
      <trkpt lat="44.08889" lon="3.02149">
        <ele>667.450935</ele>
        <time>2014-05-18T09:02:22Z</time>
      </trkpt>
      <trkpt lat="44.08897" lon="3.02149">
        <ele>667.262154</ele>
        <time>2014-05-18T09:02:24Z</time>
      </trkpt>
      <trkpt lat="44.08903" lon="3.02148">
        <ele>666.993886</ele>
        <time>2014-05-18T09:02:26Z</time>
      </trkpt>
      <trkpt lat="44.08908" lon="3.02147">
        <ele>666.883187</ele>
        <time>2014-05-18T09:02:27Z</time>
      </trkpt>
      <trkpt lat="44.08916" lon="3.02147">
        <ele>666.631288</ele>
        <time>2014-05-18T09:02:29Z</time>
      </trkpt>
      <trkpt lat="44.08922" lon="3.02147">
        <ele>666.380101</ele>
        <time>2014-05-18T09:02:31Z</time>
      </trkpt>
      <trkpt lat="44.08929" lon="3.02146">
        <ele>666.079197</ele>
        <time>2014-05-18T09:02:33Z</time>
      </trkpt>
      <trkpt lat="44.08934" lon="3.02145">
        <ele>665.958599</ele>
        <time>2014-05-18T09:02:35Z</time>
      </trkpt>
      <trkpt lat="44.0894" lon="3.02145">
        <ele>665.844908</ele>
        <time>2014-05-18T09:02:37Z</time>
      </trkpt>
      <trkpt lat="44.08947" lon="3.02147">
        <ele>665.735484</ele>
        <time>2014-05-18T09:02:39Z</time>
      </trkpt>
      <trkpt lat="44.08954" lon="3.02146">
        <ele>665.528441</ele>
        <time>2014-05-18T09:02:41Z</time>
      </trkpt>
      <trkpt lat="44.08959" lon="3.02147">
        <ele>665.256302</ele>
        <time>2014-05-18T09:02:43Z</time>
      </trkpt>
      <trkpt lat="44.08965" lon="3.02147">
        <ele>664.809301</ele>
        <time>2014-05-18T09:02:46Z</time>
      </trkpt>
      <trkpt lat="44.08971" lon="3.02147">
        <ele>664.585399</ele>
        <time>2014-05-18T09:02:48Z</time>
      </trkpt>
      <trkpt lat="44.08977" lon="3.02147">
        <ele>664.399211</ele>
        <time>2014-05-18T09:02:50Z</time>
      </trkpt>
      <trkpt lat="44.08982" lon="3.02147">
        <ele>664.198739</ele>
        <time>2014-05-18T09:02:52Z</time>
      </trkpt>
      <trkpt lat="44.08987" lon="3.02145">
        <ele>663.980498</ele>
        <time>2014-05-18T09:02:54Z</time>
      </trkpt>
      <trkpt lat="44.08992" lon="3.02142">
        <ele>663.758361</ele>
        <time>2014-05-18T09:02:56Z</time>
      </trkpt>
      <trkpt lat="44.08996" lon="3.02141">
        <ele>663.609386</ele>
        <time>2014-05-18T09:02:58Z</time>
      </trkpt>
      <trkpt lat="44.09001" lon="3.0214">
        <ele>663.467041</ele>
        <time>2014-05-18T09:03:00Z</time>
      </trkpt>
      <trkpt lat="44.09007" lon="3.02139">
        <ele>663.396606</ele>
        <time>2014-05-18T09:03:02Z</time>
      </trkpt>
      <trkpt lat="44.09014" lon="3.02138">
        <ele>663.08794</ele>
        <time>2014-05-18T09:03:05Z</time>
      </trkpt>
      <trkpt lat="44.09019" lon="3.02138">
        <ele>662.876865</ele>
        <time>2014-05-18T09:03:07Z</time>
      </trkpt>
      <trkpt lat="44.09024" lon="3.02138">
        <ele>662.655144</ele>
        <time>2014-05-18T09:03:10Z</time>
      </trkpt>
      <trkpt lat="44.0903" lon="3.02137">
        <ele>662.667324</ele>
        <time>2014-05-18T09:03:15Z</time>
      </trkpt>
      <trkpt lat="44.09036" lon="3.02137">
        <ele>662.624724</ele>
        <time>2014-05-18T09:03:17Z</time>
      </trkpt>
      <trkpt lat="44.09043" lon="3.02136">
        <ele>662.501891</ele>
        <time>2014-05-18T09:03:19Z</time>
      </trkpt>
      <trkpt lat="44.09049" lon="3.02134">
        <ele>662.360117</ele>
        <time>2014-05-18T09:03:21Z</time>
      </trkpt>
      <trkpt lat="44.09053" lon="3.02134">
        <ele>662.064582</ele>
        <time>2014-05-18T09:03:23Z</time>
      </trkpt>
      <trkpt lat="44.09059" lon="3.02133">
        <ele>661.807522</ele>
        <time>2014-05-18T09:03:25Z</time>
      </trkpt>
      <trkpt lat="44.09064" lon="3.02133">
        <ele>661.612789</ele>
        <time>2014-05-18T09:03:27Z</time>
      </trkpt>
      <trkpt lat="44.0907" lon="3.02133">
        <ele>661.464724</ele>
        <time>2014-05-18T09:03:29Z</time>
      </trkpt>
      <trkpt lat="44.09075" lon="3.02133">
        <ele>661.333596</ele>
        <time>2014-05-18T09:03:31Z</time>
      </trkpt>
      <trkpt lat="44.0908" lon="3.02132">
        <ele>661.170238</ele>
        <time>2014-05-18T09:03:33Z</time>
      </trkpt>
      <trkpt lat="44.09086" lon="3.02132">
        <ele>661.019073</ele>
        <time>2014-05-18T09:03:35Z</time>
      </trkpt>
      <trkpt lat="44.09091" lon="3.02132">
        <ele>660.788983</ele>
        <time>2014-05-18T09:03:37Z</time>
      </trkpt>
      <trkpt lat="44.09095" lon="3.02131">
        <ele>660.602595</ele>
        <time>2014-05-18T09:03:39Z</time>
      </trkpt>
      <trkpt lat="44.09101" lon="3.02131">
        <ele>660.435736</ele>
        <time>2014-05-18T09:03:41Z</time>
      </trkpt>
      <trkpt lat="44.09106" lon="3.02131">
        <ele>660.299979</ele>
        <time>2014-05-18T09:03:43Z</time>
      </trkpt>
      <trkpt lat="44.09111" lon="3.0213">
        <ele>660.150423</ele>
        <time>2014-05-18T09:03:45Z</time>
      </trkpt>
      <trkpt lat="44.09117" lon="3.02129">
        <ele>659.939051</ele>
        <time>2014-05-18T09:03:47Z</time>
      </trkpt>
      <trkpt lat="44.09122" lon="3.02129">
        <ele>659.782027</ele>
        <time>2014-05-18T09:03:49Z</time>
      </trkpt>
      <trkpt lat="44.09128" lon="3.0213">
        <ele>659.630914</ele>
        <time>2014-05-18T09:03:51Z</time>
      </trkpt>
      <trkpt lat="44.09134" lon="3.02129">
        <ele>659.519806</ele>
        <time>2014-05-18T09:03:53Z</time>
      </trkpt>
      <trkpt lat="44.09141" lon="3.0213">
        <ele>659.465759</ele>
        <time>2014-05-18T09:03:55Z</time>
      </trkpt>
      <trkpt lat="44.09146" lon="3.02129">
        <ele>659.308005</ele>
        <time>2014-05-18T09:03:57Z</time>
      </trkpt>
      <trkpt lat="44.09151" lon="3.02128">
        <ele>659.12997</ele>
        <time>2014-05-18T09:03:59Z</time>
      </trkpt>
      <trkpt lat="44.09157" lon="3.02128">
        <ele>659.015703</ele>
        <time>2014-05-18T09:04:01Z</time>
      </trkpt>
      <trkpt lat="44.09163" lon="3.02127">
        <ele>658.889324</ele>
        <time>2014-05-18T09:04:03Z</time>
      </trkpt>
      <trkpt lat="44.09168" lon="3.02127">
        <ele>658.752801</ele>
        <time>2014-05-18T09:04:05Z</time>
      </trkpt>
      <trkpt lat="44.09173" lon="3.02127">
        <ele>658.642529</ele>
        <time>2014-05-18T09:04:07Z</time>
      </trkpt>
      <trkpt lat="44.09178" lon="3.02128">
        <ele>658.567639</ele>
        <time>2014-05-18T09:04:09Z</time>
      </trkpt>
      <trkpt lat="44.09183" lon="3.02129">
        <ele>658.457898</ele>
        <time>2014-05-18T09:04:11Z</time>
      </trkpt>
      <trkpt lat="44.09191" lon="3.0213">
        <ele>658.266542</ele>
        <time>2014-05-18T09:04:13Z</time>
      </trkpt>
      <trkpt lat="44.09198" lon="3.02129">
        <ele>657.98877</ele>
        <time>2014-05-18T09:04:15Z</time>
      </trkpt>
      <trkpt lat="44.09203" lon="3.0213">
        <ele>657.792954</ele>
        <time>2014-05-18T09:04:17Z</time>
      </trkpt>
      <trkpt lat="44.09211" lon="3.02129">
        <ele>657.285301</ele>
        <time>2014-05-18T09:04:20Z</time>
      </trkpt>
      <trkpt lat="44.09216" lon="3.02129">
        <ele>657.010204</ele>
        <time>2014-05-18T09:04:22Z</time>
      </trkpt>
      <trkpt lat="44.09221" lon="3.02128">
        <ele>656.852363</ele>
        <time>2014-05-18T09:04:24Z</time>
      </trkpt>
      <trkpt lat="44.09227" lon="3.02129">
        <ele>656.642644</ele>
        <time>2014-05-18T09:04:26Z</time>
      </trkpt>
      <trkpt lat="44.09233" lon="3.02129">
        <ele>656.378325</ele>
        <time>2014-05-18T09:04:28Z</time>
      </trkpt>
      <trkpt lat="44.09238" lon="3.02129">
        <ele>656.035596</ele>
        <time>2014-05-18T09:04:30Z</time>
      </trkpt>
      <trkpt lat="44.09244" lon="3.02129">
        <ele>655.598959</ele>
        <time>2014-05-18T09:04:32Z</time>
      </trkpt>
      <trkpt lat="44.09249" lon="3.0213">
        <ele>655.155255</ele>
        <time>2014-05-18T09:04:34Z</time>
      </trkpt>
      <trkpt lat="44.09254" lon="3.0213">
        <ele>654.738181</ele>
        <time>2014-05-18T09:04:36Z</time>
      </trkpt>
      <trkpt lat="44.09261" lon="3.02129">
        <ele>654.421746</ele>
        <time>2014-05-18T09:04:38Z</time>
      </trkpt>
      <trkpt lat="44.09267" lon="3.02128">
        <ele>654.177853</ele>
        <time>2014-05-18T09:04:40Z</time>
      </trkpt>
      <trkpt lat="44.09274" lon="3.02128">
        <ele>653.988794</ele>
        <time>2014-05-18T09:04:42Z</time>
      </trkpt>
      <trkpt lat="44.0928" lon="3.02129">
        <ele>653.874785</ele>
        <time>2014-05-18T09:04:44Z</time>
      </trkpt>
      <trkpt lat="44.09285" lon="3.02128">
        <ele>653.81984</ele>
        <time>2014-05-18T09:04:46Z</time>
      </trkpt>
      <trkpt lat="44.09291" lon="3.02128">
        <ele>653.730607</ele>
        <time>2014-05-18T09:04:48Z</time>
      </trkpt>
      <trkpt lat="44.09297" lon="3.02128">
        <ele>653.706174</ele>
        <time>2014-05-18T09:04:50Z</time>
      </trkpt>
      <trkpt lat="44.09301" lon="3.02128">
        <ele>653.687665</ele>
        <time>2014-05-18T09:04:52Z</time>
      </trkpt>
      <trkpt lat="44.09306" lon="3.02128">
        <ele>653.679612</ele>
        <time>2014-05-18T09:04:54Z</time>
      </trkpt>
      <trkpt lat="44.09312" lon="3.02128">
        <ele>653.518708</ele>
        <time>2014-05-18T09:04:56Z</time>
      </trkpt>
      <trkpt lat="44.09318" lon="3.02128">
        <ele>653.349656</ele>
        <time>2014-05-18T09:04:58Z</time>
      </trkpt>
      <trkpt lat="44.09323" lon="3.0213">
        <ele>653.192467</ele>
        <time>2014-05-18T09:05:00Z</time>
      </trkpt>
      <trkpt lat="44.09329" lon="3.02131">
        <ele>652.796352</ele>
        <time>2014-05-18T09:05:03Z</time>
      </trkpt>
      <trkpt lat="44.09336" lon="3.02131">
        <ele>652.473242</ele>
        <time>2014-05-18T09:05:06Z</time>
      </trkpt>
      <trkpt lat="44.09341" lon="3.02132">
        <ele>652.336712</ele>
        <time>2014-05-18T09:05:08Z</time>
      </trkpt>
      <trkpt lat="44.09346" lon="3.02133">
        <ele>652.187286</ele>
        <time>2014-05-18T09:05:10Z</time>
      </trkpt>
      <trkpt lat="44.09351" lon="3.02134">
        <ele>651.987089</ele>
        <time>2014-05-18T09:05:12Z</time>
      </trkpt>
      <trkpt lat="44.09356" lon="3.02134">
        <ele>651.829436</ele>
        <time>2014-05-18T09:05:14Z</time>
      </trkpt>
      <trkpt lat="44.09362" lon="3.02135">
        <ele>651.643503</ele>
        <time>2014-05-18T09:05:17Z</time>
      </trkpt>
      <trkpt lat="44.09367" lon="3.02135">
        <ele>651.584573</ele>
        <time>2014-05-18T09:05:19Z</time>
      </trkpt>
      <trkpt lat="44.09372" lon="3.02135">
        <ele>651.608845</ele>
        <time>2014-05-18T09:05:21Z</time>
      </trkpt>
      <trkpt lat="44.09377" lon="3.02135">
        <ele>651.520499</ele>
        <time>2014-05-18T09:05:23Z</time>
      </trkpt>
      <trkpt lat="44.09382" lon="3.02134">
        <ele>651.438383</ele>
        <time>2014-05-18T09:05:25Z</time>
      </trkpt>
      <trkpt lat="44.09387" lon="3.02133">
        <ele>651.422157</ele>
        <time>2014-05-18T09:05:27Z</time>
      </trkpt>
      <trkpt lat="44.09392" lon="3.02133">
        <ele>651.316304</ele>
        <time>2014-05-18T09:05:29Z</time>
      </trkpt>
      <trkpt lat="44.09398" lon="3.02132">
        <ele>651.193511</ele>
        <time>2014-05-18T09:05:31Z</time>
      </trkpt>
      <trkpt lat="44.09405" lon="3.02131">
        <ele>650.993924</ele>
        <time>2014-05-18T09:05:33Z</time>
      </trkpt>
      <trkpt lat="44.0941" lon="3.0213">
        <ele>650.69352</ele>
        <time>2014-05-18T09:05:35Z</time>
      </trkpt>
      <trkpt lat="44.09415" lon="3.02128">
        <ele>650.476142</ele>
        <time>2014-05-18T09:05:37Z</time>
      </trkpt>
      <trkpt lat="44.0942" lon="3.02129">
        <ele>650.365354</ele>
        <time>2014-05-18T09:05:39Z</time>
      </trkpt>
      <trkpt lat="44.09425" lon="3.02127">
        <ele>650.360341</ele>
        <time>2014-05-18T09:05:42Z</time>
      </trkpt>
      <trkpt lat="44.09431" lon="3.02125">
        <ele>650.253564</ele>
        <time>2014-05-18T09:05:44Z</time>
      </trkpt>
      <trkpt lat="44.09436" lon="3.02123">
        <ele>649.964805</ele>
        <time>2014-05-18T09:05:46Z</time>
      </trkpt>
      <trkpt lat="44.09442" lon="3.02122">
        <ele>649.743367</ele>
        <time>2014-05-18T09:05:48Z</time>
      </trkpt>
      <trkpt lat="44.09448" lon="3.02122">
        <ele>649.587267</ele>
        <time>2014-05-18T09:05:50Z</time>
      </trkpt>
      <trkpt lat="44.09453" lon="3.02123">
        <ele>649.375779</ele>
        <time>2014-05-18T09:05:52Z</time>
      </trkpt>
      <trkpt lat="44.09457" lon="3.02123">
        <ele>649.255738</ele>
        <time>2014-05-18T09:05:54Z</time>
      </trkpt>
      <trkpt lat="44.09463" lon="3.02122">
        <ele>649.121189</ele>
        <time>2014-05-18T09:05:56Z</time>
      </trkpt>
      <trkpt lat="44.09469" lon="3.02123">
        <ele>648.990592</ele>
        <time>2014-05-18T09:05:58Z</time>
      </trkpt>
      <trkpt lat="44.09474" lon="3.02124">
        <ele>648.843322</ele>
        <time>2014-05-18T09:06:00Z</time>
      </trkpt>
      <trkpt lat="44.09481" lon="3.02125">
        <ele>648.665406</ele>
        <time>2014-05-18T09:06:02Z</time>
      </trkpt>
      <trkpt lat="44.09487" lon="3.02127">
        <ele>648.492545</ele>
        <time>2014-05-18T09:06:04Z</time>
      </trkpt>
      <trkpt lat="44.09494" lon="3.02129">
        <ele>648.265336</ele>
        <time>2014-05-18T09:06:06Z</time>
      </trkpt>
      <trkpt lat="44.09499" lon="3.0213">
        <ele>647.939815</ele>
        <time>2014-05-18T09:06:08Z</time>
      </trkpt>
      <trkpt lat="44.09504" lon="3.02132">
        <ele>647.786949</ele>
        <time>2014-05-18T09:06:10Z</time>
      </trkpt>
      <trkpt lat="44.0951" lon="3.02133">
        <ele>647.608462</ele>
        <time>2014-05-18T09:06:12Z</time>
      </trkpt>
      <trkpt lat="44.09515" lon="3.02132">
        <ele>647.498952</ele>
        <time>2014-05-18T09:06:14Z</time>
      </trkpt>
      <trkpt lat="44.0952" lon="3.02133">
        <ele>647.290229</ele>
        <time>2014-05-18T09:06:16Z</time>
      </trkpt>
      <trkpt lat="44.09527" lon="3.02135">
        <ele>647.035539</ele>
        <time>2014-05-18T09:06:19Z</time>
      </trkpt>
      <trkpt lat="44.09534" lon="3.02135">
        <ele>646.689397</ele>
        <time>2014-05-18T09:06:21Z</time>
      </trkpt>
      <trkpt lat="44.09541" lon="3.02137">
        <ele>646.422499</ele>
        <time>2014-05-18T09:06:23Z</time>
      </trkpt>
      <trkpt lat="44.09546" lon="3.02138">
        <ele>646.25133</ele>
        <time>2014-05-18T09:06:25Z</time>
      </trkpt>
      <trkpt lat="44.09551" lon="3.02139">
        <ele>646.138537</ele>
        <time>2014-05-18T09:06:27Z</time>
      </trkpt>
      <trkpt lat="44.09558" lon="3.0214">
        <ele>646.076469</ele>
        <time>2014-05-18T09:06:29Z</time>
      </trkpt>
      <trkpt lat="44.09563" lon="3.02142">
        <ele>646.008901</ele>
        <time>2014-05-18T09:06:31Z</time>
      </trkpt>
      <trkpt lat="44.09569" lon="3.02144">
        <ele>646.016083</ele>
        <time>2014-05-18T09:06:34Z</time>
      </trkpt>
      <trkpt lat="44.09574" lon="3.02144">
        <ele>646.039537</ele>
        <time>2014-05-18T09:06:36Z</time>
      </trkpt>
      <trkpt lat="44.09581" lon="3.02144">
        <ele>645.941353</ele>
        <time>2014-05-18T09:06:38Z</time>
      </trkpt>
      <trkpt lat="44.09586" lon="3.02144">
        <ele>645.70198</ele>
        <time>2014-05-18T09:06:40Z</time>
      </trkpt>
      <trkpt lat="44.09591" lon="3.02144">
        <ele>645.406055</ele>
        <time>2014-05-18T09:06:42Z</time>
      </trkpt>
      <trkpt lat="44.09597" lon="3.02145">
        <ele>645.134955</ele>
        <time>2014-05-18T09:06:44Z</time>
      </trkpt>
      <trkpt lat="44.09603" lon="3.02147">
        <ele>644.837312</ele>
        <time>2014-05-18T09:06:46Z</time>
      </trkpt>
      <trkpt lat="44.09609" lon="3.02148">
        <ele>644.558761</ele>
        <time>2014-05-18T09:06:48Z</time>
      </trkpt>
      <trkpt lat="44.09614" lon="3.02149">
        <ele>644.305259</ele>
        <time>2014-05-18T09:06:50Z</time>
      </trkpt>
      <trkpt lat="44.0962" lon="3.02149">
        <ele>643.740366</ele>
        <time>2014-05-18T09:06:53Z</time>
      </trkpt>
      <trkpt lat="44.09627" lon="3.0215">
        <ele>643.341431</ele>
        <time>2014-05-18T09:06:55Z</time>
      </trkpt>
      <trkpt lat="44.09634" lon="3.0215">
        <ele>643.03622</ele>
        <time>2014-05-18T09:06:57Z</time>
      </trkpt>
      <trkpt lat="44.09639" lon="3.02152">
        <ele>642.760934</ele>
        <time>2014-05-18T09:06:59Z</time>
      </trkpt>
      <trkpt lat="44.09644" lon="3.02153">
        <ele>642.563601</ele>
        <time>2014-05-18T09:07:01Z</time>
      </trkpt>
      <trkpt lat="44.09649" lon="3.02156">
        <ele>642.397426</ele>
        <time>2014-05-18T09:07:03Z</time>
      </trkpt>
      <trkpt lat="44.09654" lon="3.0216">
        <ele>642.013414</ele>
        <time>2014-05-18T09:07:05Z</time>
      </trkpt>
      <trkpt lat="44.09659" lon="3.02163">
        <ele>641.57418</ele>
        <time>2014-05-18T09:07:07Z</time>
      </trkpt>
      <trkpt lat="44.09664" lon="3.02168">
        <ele>641.153375</ele>
        <time>2014-05-18T09:07:09Z</time>
      </trkpt>
      <trkpt lat="44.09668" lon="3.02174">
        <ele>640.895724</ele>
        <time>2014-05-18T09:07:11Z</time>
      </trkpt>
      <trkpt lat="44.09671" lon="3.02179">
        <ele>640.581738</ele>
        <time>2014-05-18T09:07:13Z</time>
      </trkpt>
      <trkpt lat="44.09675" lon="3.02185">
        <ele>640.189825</ele>
        <time>2014-05-18T09:07:15Z</time>
      </trkpt>
      <trkpt lat="44.09679" lon="3.02189">
        <ele>639.739127</ele>
        <time>2014-05-18T09:07:17Z</time>
      </trkpt>
      <trkpt lat="44.09683" lon="3.02195">
        <ele>639.336502</ele>
        <time>2014-05-18T09:07:19Z</time>
      </trkpt>
      <trkpt lat="44.09687" lon="3.02201">
        <ele>639.060124</ele>
        <time>2014-05-18T09:07:21Z</time>
      </trkpt>
      <trkpt lat="44.09691" lon="3.02206">
        <ele>638.623694</ele>
        <time>2014-05-18T09:07:24Z</time>
      </trkpt>
      <trkpt lat="44.09695" lon="3.02211">
        <ele>638.375851</ele>
        <time>2014-05-18T09:07:26Z</time>
      </trkpt>
      <trkpt lat="44.09698" lon="3.02217">
        <ele>638.286871</ele>
        <time>2014-05-18T09:07:28Z</time>
      </trkpt>
      <trkpt lat="44.09701" lon="3.02222">
        <ele>638.263849</ele>
        <time>2014-05-18T09:07:30Z</time>
      </trkpt>
      <trkpt lat="44.09704" lon="3.0223">
        <ele>638.228123</ele>
        <time>2014-05-18T09:07:33Z</time>
      </trkpt>
      <trkpt lat="44.09707" lon="3.02236">
        <ele>638.159036</ele>
        <time>2014-05-18T09:07:35Z</time>
      </trkpt>
      <trkpt lat="44.09708" lon="3.02243">
        <ele>637.942002</ele>
        <time>2014-05-18T09:07:37Z</time>
      </trkpt>
      <trkpt lat="44.09709" lon="3.0225">
        <ele>637.721687</ele>
        <time>2014-05-18T09:07:39Z</time>
      </trkpt>
      <trkpt lat="44.09711" lon="3.0226">
        <ele>637.367066</ele>
        <time>2014-05-18T09:07:42Z</time>
      </trkpt>
      <trkpt lat="44.09711" lon="3.02268">
        <ele>637.015094</ele>
        <time>2014-05-18T09:07:45Z</time>
      </trkpt>
      <trkpt lat="44.09711" lon="3.02275">
        <ele>636.671767</ele>
        <time>2014-05-18T09:07:47Z</time>
      </trkpt>
      <trkpt lat="44.0971" lon="3.02284">
        <ele>636.284543</ele>
        <time>2014-05-18T09:07:49Z</time>
      </trkpt>
      <trkpt lat="44.09709" lon="3.02294">
        <ele>635.869144</ele>
        <time>2014-05-18T09:07:51Z</time>
      </trkpt>
      <trkpt lat="44.09708" lon="3.02303">
        <ele>635.464001</ele>
        <time>2014-05-18T09:07:53Z</time>
      </trkpt>
      <trkpt lat="44.09708" lon="3.0231">
        <ele>635.170513</ele>
        <time>2014-05-18T09:07:55Z</time>
      </trkpt>
      <trkpt lat="44.09707" lon="3.02319">
        <ele>634.875017</ele>
        <time>2014-05-18T09:07:57Z</time>
      </trkpt>
      <trkpt lat="44.09706" lon="3.02327">
        <ele>634.660732</ele>
        <time>2014-05-18T09:07:59Z</time>
      </trkpt>
      <trkpt lat="44.09705" lon="3.02336">
        <ele>634.34236</ele>
        <time>2014-05-18T09:08:01Z</time>
      </trkpt>
      <trkpt lat="44.09704" lon="3.02345">
        <ele>633.813347</ele>
        <time>2014-05-18T09:08:03Z</time>
      </trkpt>
      <trkpt lat="44.09703" lon="3.02353">
        <ele>633.404979</ele>
        <time>2014-05-18T09:08:05Z</time>
      </trkpt>
      <trkpt lat="44.09702" lon="3.02361">
        <ele>633.07173</ele>
        <time>2014-05-18T09:08:07Z</time>
      </trkpt>
      <trkpt lat="44.09702" lon="3.02371">
        <ele>632.414461</ele>
        <time>2014-05-18T09:08:10Z</time>
      </trkpt>
      <trkpt lat="44.09701" lon="3.02378">
        <ele>631.883733</ele>
        <time>2014-05-18T09:08:12Z</time>
      </trkpt>
      <trkpt lat="44.097" lon="3.02386">
        <ele>631.328022</ele>
        <time>2014-05-18T09:08:14Z</time>
      </trkpt>
      <trkpt lat="44.097" lon="3.02393">
        <ele>630.869337</ele>
        <time>2014-05-18T09:08:16Z</time>
      </trkpt>
      <trkpt lat="44.09699" lon="3.02403">
        <ele>630.50347</ele>
        <time>2014-05-18T09:08:18Z</time>
      </trkpt>
      <trkpt lat="44.09696" lon="3.02413">
        <ele>630.091881</ele>
        <time>2014-05-18T09:08:20Z</time>
      </trkpt>
      <trkpt lat="44.09695" lon="3.02419">
        <ele>629.731987</ele>
        <time>2014-05-18T09:08:22Z</time>
      </trkpt>
      <trkpt lat="44.09694" lon="3.02426">
        <ele>629.428375</ele>
        <time>2014-05-18T09:08:24Z</time>
      </trkpt>
      <trkpt lat="44.09693" lon="3.02435">
        <ele>629.040355</ele>
        <time>2014-05-18T09:08:27Z</time>
      </trkpt>
      <trkpt lat="44.09691" lon="3.02441">
        <ele>628.694026</ele>
        <time>2014-05-18T09:08:29Z</time>
      </trkpt>
      <trkpt lat="44.09689" lon="3.02448">
        <ele>628.307126</ele>
        <time>2014-05-18T09:08:31Z</time>
      </trkpt>
      <trkpt lat="44.09687" lon="3.02455">
        <ele>628.079533</ele>
        <time>2014-05-18T09:08:33Z</time>
      </trkpt>
      <trkpt lat="44.09684" lon="3.02462">
        <ele>627.792238</ele>
        <time>2014-05-18T09:08:35Z</time>
      </trkpt>
      <trkpt lat="44.09679" lon="3.02468">
        <ele>627.475281</ele>
        <time>2014-05-18T09:08:37Z</time>
      </trkpt>
      <trkpt lat="44.09674" lon="3.02474">
        <ele>627.149261</ele>
        <time>2014-05-18T09:08:39Z</time>
      </trkpt>
      <trkpt lat="44.0967" lon="3.02477">
        <ele>626.696928</ele>
        <time>2014-05-18T09:08:41Z</time>
      </trkpt>
      <trkpt lat="44.09665" lon="3.0248">
        <ele>625.801906</ele>
        <time>2014-05-18T09:08:44Z</time>
      </trkpt>
      <trkpt lat="44.0966" lon="3.02484">
        <ele>625.356953</ele>
        <time>2014-05-18T09:08:46Z</time>
      </trkpt>
      <trkpt lat="44.09654" lon="3.02485">
        <ele>625.104934</ele>
        <time>2014-05-18T09:08:48Z</time>
      </trkpt>
      <trkpt lat="44.0965" lon="3.02486">
        <ele>624.905391</ele>
        <time>2014-05-18T09:08:50Z</time>
      </trkpt>
      <trkpt lat="44.09644" lon="3.02486">
        <ele>624.503394</ele>
        <time>2014-05-18T09:08:53Z</time>
      </trkpt>
      <trkpt lat="44.09639" lon="3.02485">
        <ele>624.001855</ele>
        <time>2014-05-18T09:08:56Z</time>
      </trkpt>
      <trkpt lat="44.09633" lon="3.02483">
        <ele>623.428099</ele>
        <time>2014-05-18T09:09:00Z</time>
      </trkpt>
      <trkpt lat="44.09629" lon="3.02482">
        <ele>623.15116</ele>
        <time>2014-05-18T09:09:02Z</time>
      </trkpt>
      <trkpt lat="44.09624" lon="3.0248">
        <ele>622.914927</ele>
        <time>2014-05-18T09:09:04Z</time>
      </trkpt>
      <trkpt lat="44.09619" lon="3.02478">
        <ele>622.691588</ele>
        <time>2014-05-18T09:09:06Z</time>
      </trkpt>
      <trkpt lat="44.09614" lon="3.02476">
        <ele>622.418239</ele>
        <time>2014-05-18T09:09:08Z</time>
      </trkpt>
      <trkpt lat="44.09609" lon="3.02474">
        <ele>622.205276</ele>
        <time>2014-05-18T09:09:10Z</time>
      </trkpt>
      <trkpt lat="44.09603" lon="3.02472">
        <ele>621.99675</ele>
        <time>2014-05-18T09:09:12Z</time>
      </trkpt>
      <trkpt lat="44.09598" lon="3.0247">
        <ele>621.873716</ele>
        <time>2014-05-18T09:09:14Z</time>
      </trkpt>
      <trkpt lat="44.09593" lon="3.02469">
        <ele>621.72019</ele>
        <time>2014-05-18T09:09:17Z</time>
      </trkpt>
      <trkpt lat="44.09588" lon="3.02467">
        <ele>621.477409</ele>
        <time>2014-05-18T09:09:19Z</time>
      </trkpt>
      <trkpt lat="44.09583" lon="3.02465">
        <ele>621.221891</ele>
        <time>2014-05-18T09:09:21Z</time>
      </trkpt>
      <trkpt lat="44.09578" lon="3.02463">
        <ele>621.017712</ele>
        <time>2014-05-18T09:09:23Z</time>
      </trkpt>
      <trkpt lat="44.09573" lon="3.02462">
        <ele>620.805048</ele>
        <time>2014-05-18T09:09:25Z</time>
      </trkpt>
      <trkpt lat="44.09568" lon="3.0246">
        <ele>620.461599</ele>
        <time>2014-05-18T09:09:27Z</time>
      </trkpt>
      <trkpt lat="44.09563" lon="3.02458">
        <ele>620.157603</ele>
        <time>2014-05-18T09:09:29Z</time>
      </trkpt>
      <trkpt lat="44.09558" lon="3.02455">
        <ele>620.147924</ele>
        <time>2014-05-18T09:09:31Z</time>
      </trkpt>
      <trkpt lat="44.09553" lon="3.02452">
        <ele>620.071037</ele>
        <time>2014-05-18T09:09:33Z</time>
      </trkpt>
      <trkpt lat="44.09549" lon="3.02449">
        <ele>619.914441</ele>
        <time>2014-05-18T09:09:35Z</time>
      </trkpt>
      <trkpt lat="44.09545" lon="3.02444">
        <ele>619.552985</ele>
        <time>2014-05-18T09:09:38Z</time>
      </trkpt>
      <trkpt lat="44.09541" lon="3.02436">
        <ele>619.384625</ele>
        <time>2014-05-18T09:09:41Z</time>
      </trkpt>
      <trkpt lat="44.09539" lon="3.02428">
        <ele>619.123013</ele>
        <time>2014-05-18T09:09:43Z</time>
      </trkpt>
      <trkpt lat="44.09538" lon="3.02418">
        <ele>618.722585</ele>
        <time>2014-05-18T09:09:46Z</time>
      </trkpt>
      <trkpt lat="44.09538" lon="3.02409">
        <ele>618.441427</ele>
        <time>2014-05-18T09:09:49Z</time>
      </trkpt>
      <trkpt lat="44.09539" lon="3.02402">
        <ele>618.162625</ele>
        <time>2014-05-18T09:09:51Z</time>
      </trkpt>
      <trkpt lat="44.09543" lon="3.02394">
        <ele>617.79568</ele>
        <time>2014-05-18T09:09:54Z</time>
      </trkpt>
      <trkpt lat="44.09546" lon="3.02388">
        <ele>617.508162</ele>
        <time>2014-05-18T09:09:56Z</time>
      </trkpt>
      <trkpt lat="44.09549" lon="3.02381">
        <ele>617.058044</ele>
        <time>2014-05-18T09:09:59Z</time>
      </trkpt>
      <trkpt lat="44.09552" lon="3.02374">
        <ele>616.575175</ele>
        <time>2014-05-18T09:10:02Z</time>
      </trkpt>
      <trkpt lat="44.09556" lon="3.02367">
        <ele>616.289637</ele>
        <time>2014-05-18T09:10:05Z</time>
      </trkpt>
      <trkpt lat="44.09558" lon="3.02361">
        <ele>616.18908</ele>
        <time>2014-05-18T09:10:07Z</time>
      </trkpt>
      <trkpt lat="44.09562" lon="3.02354">
        <ele>615.975374</ele>
        <time>2014-05-18T09:10:10Z</time>
      </trkpt>
      <trkpt lat="44.09565" lon="3.02348">
        <ele>615.879037</ele>
        <time>2014-05-18T09:10:12Z</time>
      </trkpt>
      <trkpt lat="44.09567" lon="3.0234">
        <ele>615.741001</ele>
        <time>2014-05-18T09:10:15Z</time>
      </trkpt>
      <trkpt lat="44.09569" lon="3.02334">
        <ele>615.719957</ele>
        <time>2014-05-18T09:10:17Z</time>
      </trkpt>
      <trkpt lat="44.0957" lon="3.02326">
        <ele>615.758192</ele>
        <time>2014-05-18T09:10:20Z</time>
      </trkpt>
      <trkpt lat="44.09571" lon="3.0232">
        <ele>615.825887</ele>
        <time>2014-05-18T09:10:22Z</time>
      </trkpt>
      <trkpt lat="44.09572" lon="3.02313">
        <ele>615.855862</ele>
        <time>2014-05-18T09:10:24Z</time>
      </trkpt>
      <trkpt lat="44.09573" lon="3.02305">
        <ele>615.918457</ele>
        <time>2014-05-18T09:10:27Z</time>
      </trkpt>
      <trkpt lat="44.09572" lon="3.02296">
        <ele>615.979746</ele>
        <time>2014-05-18T09:10:30Z</time>
      </trkpt>
      <trkpt lat="44.09574" lon="3.0229">
        <ele>616.030592</ele>
        <time>2014-05-18T09:10:32Z</time>
      </trkpt>
      <trkpt lat="44.09579" lon="3.02288">
        <ele>616.164153</ele>
        <time>2014-05-18T09:10:34Z</time>
      </trkpt>
      <trkpt lat="44.09584" lon="3.02289">
        <ele>616.500493</ele>
        <time>2014-05-18T09:10:36Z</time>
      </trkpt>
      <trkpt lat="44.0959" lon="3.02292">
        <ele>617.145203</ele>
        <time>2014-05-18T09:10:39Z</time>
      </trkpt>
      <trkpt lat="44.09595" lon="3.02293">
        <ele>617.579749</ele>
        <time>2014-05-18T09:10:42Z</time>
      </trkpt>
      <trkpt lat="44.096" lon="3.02291">
        <ele>617.882157</ele>
        <time>2014-05-18T09:10:45Z</time>
      </trkpt>
      <trkpt lat="44.09605" lon="3.02289">
        <ele>618.1964</ele>
        <time>2014-05-18T09:10:49Z</time>
      </trkpt>
      <trkpt lat="44.0961" lon="3.02287">
        <ele>618.706728</ele>
        <time>2014-05-18T09:10:57Z</time>
      </trkpt>
      <trkpt lat="44.09615" lon="3.02286">
        <ele>619.202111</ele>
        <time>2014-05-18T09:11:03Z</time>
      </trkpt>
      <trkpt lat="44.09619" lon="3.02285">
        <ele>619.518246</ele>
        <time>2014-05-18T09:11:12Z</time>
      </trkpt>
      <trkpt lat="44.09624" lon="3.02281">
        <ele>619.73084</ele>
        <time>2014-05-18T09:11:20Z</time>
      </trkpt>
      <trkpt lat="44.09628" lon="3.02278">
        <ele>620.071632</ele>
        <time>2014-05-18T09:11:26Z</time>
      </trkpt>
      <trkpt lat="44.09632" lon="3.02275">
        <ele>619.990119</ele>
        <time>2014-05-18T09:11:33Z</time>
      </trkpt>
      <trkpt lat="44.09638" lon="3.02275">
        <ele>620.645401</ele>
        <time>2014-05-18T09:11:48Z</time>
      </trkpt>
      <trkpt lat="44.09642" lon="3.02274">
        <ele>620.845898</ele>
        <time>2014-05-18T09:11:51Z</time>
      </trkpt>
      <trkpt lat="44.09648" lon="3.02273">
        <ele>621.032796</ele>
        <time>2014-05-18T09:11:56Z</time>
      </trkpt>
      <trkpt lat="44.09653" lon="3.02271">
        <ele>621.036571</ele>
        <time>2014-05-18T09:12:00Z</time>
      </trkpt>
      <trkpt lat="44.09658" lon="3.02269">
        <ele>621.105373</ele>
        <time>2014-05-18T09:12:04Z</time>
      </trkpt>
      <trkpt lat="44.09663" lon="3.02268">
        <ele>621.132285</ele>
        <time>2014-05-18T09:12:08Z</time>
      </trkpt>
      <trkpt lat="44.09667" lon="3.02265">
        <ele>621.245803</ele>
        <time>2014-05-18T09:12:13Z</time>
      </trkpt>
      <trkpt lat="44.09672" lon="3.02263">
        <ele>621.369225</ele>
        <time>2014-05-18T09:12:19Z</time>
      </trkpt>
      <trkpt lat="44.09677" lon="3.02262">
        <ele>620.949854</ele>
        <time>2014-05-18T09:12:24Z</time>
      </trkpt>
      <trkpt lat="44.09682" lon="3.0226">
        <ele>620.856132</ele>
        <time>2014-05-18T09:12:30Z</time>
      </trkpt>
      <trkpt lat="44.09686" lon="3.02262">
        <ele>621.099116</ele>
        <time>2014-05-18T09:12:35Z</time>
      </trkpt>
      <trkpt lat="44.09688" lon="3.0227">
        <ele>621.102474</ele>
        <time>2014-05-18T09:12:40Z</time>
      </trkpt>
      <trkpt lat="44.09688" lon="3.02277">
        <ele>620.935211</ele>
        <time>2014-05-18T09:12:44Z</time>
      </trkpt>
      <trkpt lat="44.09687" lon="3.02284">
        <ele>620.879199</ele>
        <time>2014-05-18T09:12:46Z</time>
      </trkpt>
      <trkpt lat="44.09685" lon="3.02291">
        <ele>620.815841</ele>
        <time>2014-05-18T09:12:48Z</time>
      </trkpt>
      <trkpt lat="44.09683" lon="3.02298">
        <ele>620.825288</ele>
        <time>2014-05-18T09:12:50Z</time>
      </trkpt>
      <trkpt lat="44.09682" lon="3.02305">
        <ele>620.830005</ele>
        <time>2014-05-18T09:12:52Z</time>
      </trkpt>
      <trkpt lat="44.0968" lon="3.02312">
        <ele>620.849766</ele>
        <time>2014-05-18T09:12:54Z</time>
      </trkpt>
      <trkpt lat="44.09678" lon="3.02318">
        <ele>620.900944</ele>
        <time>2014-05-18T09:12:56Z</time>
      </trkpt>
      <trkpt lat="44.09676" lon="3.02325">
        <ele>620.994943</ele>
        <time>2014-05-18T09:12:58Z</time>
      </trkpt>
      <trkpt lat="44.09674" lon="3.02331">
        <ele>621.116772</ele>
        <time>2014-05-18T09:13:00Z</time>
      </trkpt>
      <trkpt lat="44.09672" lon="3.02337">
        <ele>621.15239</ele>
        <time>2014-05-18T09:13:02Z</time>
      </trkpt>
      <trkpt lat="44.09669" lon="3.02343">
        <ele>621.166688</ele>
        <time>2014-05-18T09:13:04Z</time>
      </trkpt>
      <trkpt lat="44.09667" lon="3.0235">
        <ele>621.250205</ele>
        <time>2014-05-18T09:13:06Z</time>
      </trkpt>
      <trkpt lat="44.09666" lon="3.02357">
        <ele>621.303204</ele>
        <time>2014-05-18T09:13:08Z</time>
      </trkpt>
      <trkpt lat="44.09664" lon="3.02365">
        <ele>621.351406</ele>
        <time>2014-05-18T09:13:10Z</time>
      </trkpt>
      <trkpt lat="44.09663" lon="3.02374">
        <ele>621.365974</ele>
        <time>2014-05-18T09:13:12Z</time>
      </trkpt>
      <trkpt lat="44.09662" lon="3.02382">
        <ele>621.294462</ele>
        <time>2014-05-18T09:13:14Z</time>
      </trkpt>
      <trkpt lat="44.09663" lon="3.0239">
        <ele>621.116872</ele>
        <time>2014-05-18T09:13:16Z</time>
      </trkpt>
      <trkpt lat="44.09666" lon="3.02397">
        <ele>621.066025</ele>
        <time>2014-05-18T09:13:18Z</time>
      </trkpt>
      <trkpt lat="44.0967" lon="3.02403">
        <ele>621.002707</ele>
        <time>2014-05-18T09:13:20Z</time>
      </trkpt>
      <trkpt lat="44.09674" lon="3.02408">
        <ele>620.964449</ele>
        <time>2014-05-18T09:13:22Z</time>
      </trkpt>
      <trkpt lat="44.09679" lon="3.02411">
        <ele>620.914772</ele>
        <time>2014-05-18T09:13:24Z</time>
      </trkpt>
      <trkpt lat="44.09683" lon="3.02414">
        <ele>620.796012</ele>
        <time>2014-05-18T09:13:26Z</time>
      </trkpt>
      <trkpt lat="44.09689" lon="3.02415">
        <ele>620.867531</ele>
        <time>2014-05-18T09:13:29Z</time>
      </trkpt>
      <trkpt lat="44.09694" lon="3.02416">
        <ele>621.01601</ele>
        <time>2014-05-18T09:13:31Z</time>
      </trkpt>
      <trkpt lat="44.09699" lon="3.02415">
        <ele>621.187751</ele>
        <time>2014-05-18T09:13:33Z</time>
      </trkpt>
      <trkpt lat="44.09705" lon="3.02413">
        <ele>621.497207</ele>
        <time>2014-05-18T09:13:35Z</time>
      </trkpt>
      <trkpt lat="44.09711" lon="3.02411">
        <ele>621.86599</ele>
        <time>2014-05-18T09:13:37Z</time>
      </trkpt>
      <trkpt lat="44.09716" lon="3.02412">
        <ele>622.183017</ele>
        <time>2014-05-18T09:13:39Z</time>
      </trkpt>
      <trkpt lat="44.09722" lon="3.02414">
        <ele>622.096212</ele>
        <time>2014-05-18T09:13:42Z</time>
      </trkpt>
      <trkpt lat="44.09727" lon="3.02415">
        <ele>621.717912</ele>
        <time>2014-05-18T09:13:44Z</time>
      </trkpt>
      <trkpt lat="44.09732" lon="3.02414">
        <ele>621.356845</ele>
        <time>2014-05-18T09:13:46Z</time>
      </trkpt>
      <trkpt lat="44.09738" lon="3.02411">
        <ele>621.126663</ele>
        <time>2014-05-18T09:13:48Z</time>
      </trkpt>
      <trkpt lat="44.09744" lon="3.02408">
        <ele>620.475643</ele>
        <time>2014-05-18T09:13:52Z</time>
      </trkpt>
      <trkpt lat="44.09748" lon="3.02404">
        <ele>620.183017</ele>
        <time>2014-05-18T09:13:54Z</time>
      </trkpt>
      <trkpt lat="44.09749" lon="3.02396">
        <ele>619.913702</ele>
        <time>2014-05-18T09:13:57Z</time>
      </trkpt>
      <trkpt lat="44.09751" lon="3.02388">
        <ele>619.741358</ele>
        <time>2014-05-18T09:14:00Z</time>
      </trkpt>
      <trkpt lat="44.09752" lon="3.0238">
        <ele>619.378958</ele>
        <time>2014-05-18T09:14:03Z</time>
      </trkpt>
      <trkpt lat="44.09754" lon="3.02373">
        <ele>618.724856</ele>
        <time>2014-05-18T09:14:07Z</time>
      </trkpt>
      <trkpt lat="44.0976" lon="3.0237">
        <ele>618.161435</ele>
        <time>2014-05-18T09:14:14Z</time>
      </trkpt>
      <trkpt lat="44.09765" lon="3.02371">
        <ele>617.973476</ele>
        <time>2014-05-18T09:14:17Z</time>
      </trkpt>
      <trkpt lat="44.09771" lon="3.02373">
        <ele>617.941386</ele>
        <time>2014-05-18T09:14:20Z</time>
      </trkpt>
      <trkpt lat="44.09775" lon="3.02375">
        <ele>617.998785</ele>
        <time>2014-05-18T09:14:23Z</time>
      </trkpt>
      <trkpt lat="44.0978" lon="3.02379">
        <ele>618.2248</ele>
        <time>2014-05-18T09:14:27Z</time>
      </trkpt>
      <trkpt lat="44.09785" lon="3.02383">
        <ele>618.669869</ele>
        <time>2014-05-18T09:14:30Z</time>
      </trkpt>
      <trkpt lat="44.09791" lon="3.02386">
        <ele>619.251115</ele>
        <time>2014-05-18T09:14:34Z</time>
      </trkpt>
      <trkpt lat="44.09795" lon="3.02387">
        <ele>619.642495</ele>
        <time>2014-05-18T09:14:37Z</time>
      </trkpt>
      <trkpt lat="44.098" lon="3.02387">
        <ele>619.821098</ele>
        <time>2014-05-18T09:14:39Z</time>
      </trkpt>
      <trkpt lat="44.09807" lon="3.02388">
        <ele>619.975604</ele>
        <time>2014-05-18T09:14:42Z</time>
      </trkpt>
      <trkpt lat="44.09813" lon="3.02388">
        <ele>620.036304</ele>
        <time>2014-05-18T09:14:45Z</time>
      </trkpt>
      <trkpt lat="44.09818" lon="3.02387">
        <ele>620.143705</ele>
        <time>2014-05-18T09:14:47Z</time>
      </trkpt>
      <trkpt lat="44.09823" lon="3.02388">
        <ele>620.312932</ele>
        <time>2014-05-18T09:14:49Z</time>
      </trkpt>
      <trkpt lat="44.09828" lon="3.02387">
        <ele>620.69996</ele>
        <time>2014-05-18T09:14:52Z</time>
      </trkpt>
      <trkpt lat="44.09834" lon="3.02388">
        <ele>621.190295</ele>
        <time>2014-05-18T09:14:55Z</time>
      </trkpt>
      <trkpt lat="44.0984" lon="3.02388">
        <ele>621.475985</ele>
        <time>2014-05-18T09:14:58Z</time>
      </trkpt>
      <trkpt lat="44.09846" lon="3.02389">
        <ele>621.892077</ele>
        <time>2014-05-18T09:15:01Z</time>
      </trkpt>
      <trkpt lat="44.09851" lon="3.02389">
        <ele>622.472035</ele>
        <time>2014-05-18T09:15:04Z</time>
      </trkpt>
      <trkpt lat="44.09857" lon="3.0239">
        <ele>622.984456</ele>
        <time>2014-05-18T09:15:07Z</time>
      </trkpt>
      <trkpt lat="44.09862" lon="3.02392">
        <ele>623.32589</ele>
        <time>2014-05-18T09:15:09Z</time>
      </trkpt>
      <trkpt lat="44.09868" lon="3.02393">
        <ele>623.809697</ele>
        <time>2014-05-18T09:15:12Z</time>
      </trkpt>
      <trkpt lat="44.09874" lon="3.02394">
        <ele>624.2937</ele>
        <time>2014-05-18T09:15:15Z</time>
      </trkpt>
      <trkpt lat="44.09881" lon="3.02395">
        <ele>624.759887</ele>
        <time>2014-05-18T09:15:18Z</time>
      </trkpt>
      <trkpt lat="44.09886" lon="3.02396">
        <ele>625.058512</ele>
        <time>2014-05-18T09:15:20Z</time>
      </trkpt>
      <trkpt lat="44.09891" lon="3.02398">
        <ele>625.436666</ele>
        <time>2014-05-18T09:15:23Z</time>
      </trkpt>
      <trkpt lat="44.09896" lon="3.02401">
        <ele>626.001797</ele>
        <time>2014-05-18T09:15:28Z</time>
      </trkpt>
      <trkpt lat="44.09901" lon="3.02402">
        <ele>626.370366</ele>
        <time>2014-05-18T09:15:31Z</time>
      </trkpt>
      <trkpt lat="44.09906" lon="3.02404">
        <ele>626.82754</ele>
        <time>2014-05-18T09:15:34Z</time>
      </trkpt>
      <trkpt lat="44.09911" lon="3.02407">
        <ele>627.238065</ele>
        <time>2014-05-18T09:15:37Z</time>
      </trkpt>
      <trkpt lat="44.09916" lon="3.0241">
        <ele>627.788866</ele>
        <time>2014-05-18T09:15:40Z</time>
      </trkpt>
      <trkpt lat="44.09921" lon="3.02412">
        <ele>628.330596</ele>
        <time>2014-05-18T09:15:44Z</time>
      </trkpt>
      <trkpt lat="44.09926" lon="3.02414">
        <ele>629.239844</ele>
        <time>2014-05-18T09:15:48Z</time>
      </trkpt>
      <trkpt lat="44.09932" lon="3.02417">
        <ele>629.736894</ele>
        <time>2014-05-18T09:15:51Z</time>
      </trkpt>
      <trkpt lat="44.09937" lon="3.02419">
        <ele>630.280023</ele>
        <time>2014-05-18T09:15:54Z</time>
      </trkpt>
      <trkpt lat="44.09942" lon="3.02422">
        <ele>630.939733</ele>
        <time>2014-05-18T09:15:57Z</time>
      </trkpt>
      <trkpt lat="44.09947" lon="3.02424">
        <ele>631.838673</ele>
        <time>2014-05-18T09:16:01Z</time>
      </trkpt>
      <trkpt lat="44.09951" lon="3.02427">
        <ele>632.518745</ele>
        <time>2014-05-18T09:16:04Z</time>
      </trkpt>
      <trkpt lat="44.09957" lon="3.02429">
        <ele>633.366649</ele>
        <time>2014-05-18T09:16:08Z</time>
      </trkpt>
      <trkpt lat="44.09962" lon="3.02431">
        <ele>634.061324</ele>
        <time>2014-05-18T09:16:11Z</time>
      </trkpt>
      <trkpt lat="44.09966" lon="3.02434">
        <ele>634.577335</ele>
        <time>2014-05-18T09:16:14Z</time>
      </trkpt>
      <trkpt lat="44.09972" lon="3.02435">
        <ele>635.048309</ele>
        <time>2014-05-18T09:16:18Z</time>
      </trkpt>
      <trkpt lat="44.09977" lon="3.02438">
        <ele>635.391051</ele>
        <time>2014-05-18T09:16:21Z</time>
      </trkpt>
      <trkpt lat="44.09982" lon="3.02439">
        <ele>635.755924</ele>
        <time>2014-05-18T09:16:24Z</time>
      </trkpt>
      <trkpt lat="44.09987" lon="3.02441">
        <ele>635.875632</ele>
        <time>2014-05-18T09:16:27Z</time>
      </trkpt>
      <trkpt lat="44.09992" lon="3.02444">
        <ele>636.13764</ele>
        <time>2014-05-18T09:16:30Z</time>
      </trkpt>
      <trkpt lat="44.09996" lon="3.02446">
        <ele>636.505668</ele>
        <time>2014-05-18T09:16:34Z</time>
      </trkpt>
      <trkpt lat="44.10001" lon="3.02447">
        <ele>637.126649</ele>
        <time>2014-05-18T09:16:37Z</time>
      </trkpt>
      <trkpt lat="44.10006" lon="3.0245">
        <ele>638.004127</ele>
        <time>2014-05-18T09:16:41Z</time>
      </trkpt>
      <trkpt lat="44.10012" lon="3.02453">
        <ele>638.532676</ele>
        <time>2014-05-18T09:16:44Z</time>
      </trkpt>
      <trkpt lat="44.10017" lon="3.02454">
        <ele>639.012652</ele>
        <time>2014-05-18T09:16:47Z</time>
      </trkpt>
      <trkpt lat="44.10023" lon="3.02457">
        <ele>639.319716</ele>
        <time>2014-05-18T09:16:50Z</time>
      </trkpt>
      <trkpt lat="44.10028" lon="3.0246">
        <ele>639.63217</ele>
        <time>2014-05-18T09:16:53Z</time>
      </trkpt>
      <trkpt lat="44.10032" lon="3.02463">
        <ele>640.143655</ele>
        <time>2014-05-18T09:16:57Z</time>
      </trkpt>
      <trkpt lat="44.10037" lon="3.02464">
        <ele>640.570966</ele>
        <time>2014-05-18T09:17:00Z</time>
      </trkpt>
      <trkpt lat="44.10043" lon="3.02466">
        <ele>641.330168</ele>
        <time>2014-05-18T09:17:04Z</time>
      </trkpt>
      <trkpt lat="44.10047" lon="3.02467">
        <ele>641.872179</ele>
        <time>2014-05-18T09:17:07Z</time>
      </trkpt>
      <trkpt lat="44.10052" lon="3.02469">
        <ele>642.226868</ele>
        <time>2014-05-18T09:17:10Z</time>
      </trkpt>
      <trkpt lat="44.10057" lon="3.02471">
        <ele>642.4951</ele>
        <time>2014-05-18T09:17:13Z</time>
      </trkpt>
      <trkpt lat="44.10061" lon="3.02473">
        <ele>642.798919</ele>
        <time>2014-05-18T09:17:16Z</time>
      </trkpt>
      <trkpt lat="44.10066" lon="3.02476">
        <ele>643.153524</ele>
        <time>2014-05-18T09:17:19Z</time>
      </trkpt>
      <trkpt lat="44.10071" lon="3.02478">
        <ele>643.549831</ele>
        <time>2014-05-18T09:17:22Z</time>
      </trkpt>
      <trkpt lat="44.10076" lon="3.02481">
        <ele>643.894325</ele>
        <time>2014-05-18T09:17:25Z</time>
      </trkpt>
      <trkpt lat="44.10081" lon="3.02483">
        <ele>644.325255</ele>
        <time>2014-05-18T09:17:28Z</time>
      </trkpt>
      <trkpt lat="44.10087" lon="3.02486">
        <ele>644.90825</ele>
        <time>2014-05-18T09:17:31Z</time>
      </trkpt>
      <trkpt lat="44.10092" lon="3.02487">
        <ele>645.253208</ele>
        <time>2014-05-18T09:17:33Z</time>
      </trkpt>
      <trkpt lat="44.10097" lon="3.02489">
        <ele>645.572824</ele>
        <time>2014-05-18T09:17:35Z</time>
      </trkpt>
      <trkpt lat="44.10103" lon="3.02491">
        <ele>645.892998</ele>
        <time>2014-05-18T09:17:37Z</time>
      </trkpt>
      <trkpt lat="44.10108" lon="3.02493">
        <ele>646.165716</ele>
        <time>2014-05-18T09:17:39Z</time>
      </trkpt>
      <trkpt lat="44.10113" lon="3.02496">
        <ele>646.405879</ele>
        <time>2014-05-18T09:17:41Z</time>
      </trkpt>
      <trkpt lat="44.10118" lon="3.02497">
        <ele>646.7537</ele>
        <time>2014-05-18T09:17:43Z</time>
      </trkpt>
      <trkpt lat="44.10123" lon="3.02499">
        <ele>647.108479</ele>
        <time>2014-05-18T09:17:45Z</time>
      </trkpt>
      <trkpt lat="44.10128" lon="3.02501">
        <ele>647.375219</ele>
        <time>2014-05-18T09:17:47Z</time>
      </trkpt>
      <trkpt lat="44.10134" lon="3.02502">
        <ele>647.568548</ele>
        <time>2014-05-18T09:17:49Z</time>
      </trkpt>
      <trkpt lat="44.10139" lon="3.02503">
        <ele>647.753148</ele>
        <time>2014-05-18T09:17:51Z</time>
      </trkpt>
      <trkpt lat="44.10143" lon="3.02505">
        <ele>647.919318</ele>
        <time>2014-05-18T09:17:53Z</time>
      </trkpt>
      <trkpt lat="44.10148" lon="3.02507">
        <ele>648.15874</ele>
        <time>2014-05-18T09:17:55Z</time>
      </trkpt>
      <trkpt lat="44.10154" lon="3.02509">
        <ele>648.342427</ele>
        <time>2014-05-18T09:17:57Z</time>
      </trkpt>
      <trkpt lat="44.10159" lon="3.02513">
        <ele>648.594828</ele>
        <time>2014-05-18T09:17:59Z</time>
      </trkpt>
      <trkpt lat="44.10164" lon="3.02516">
        <ele>648.891508</ele>
        <time>2014-05-18T09:18:01Z</time>
      </trkpt>
      <trkpt lat="44.10169" lon="3.02518">
        <ele>649.224272</ele>
        <time>2014-05-18T09:18:03Z</time>
      </trkpt>
      <trkpt lat="44.10173" lon="3.0252">
        <ele>649.54204</ele>
        <time>2014-05-18T09:18:05Z</time>
      </trkpt>
      <trkpt lat="44.10179" lon="3.02522">
        <ele>649.980582</ele>
        <time>2014-05-18T09:18:08Z</time>
      </trkpt>
      <trkpt lat="44.10184" lon="3.02524">
        <ele>650.434262</ele>
        <time>2014-05-18T09:18:12Z</time>
      </trkpt>
      <trkpt lat="44.10189" lon="3.02526">
        <ele>650.739397</ele>
        <time>2014-05-18T09:18:15Z</time>
      </trkpt>
      <trkpt lat="44.10194" lon="3.02529">
        <ele>650.864733</ele>
        <time>2014-05-18T09:18:18Z</time>
      </trkpt>
      <trkpt lat="44.10198" lon="3.02533">
        <ele>651.121688</ele>
        <time>2014-05-18T09:18:21Z</time>
      </trkpt>
      <trkpt lat="44.10204" lon="3.02536">
        <ele>651.427447</ele>
        <time>2014-05-18T09:18:24Z</time>
      </trkpt>
      <trkpt lat="44.10209" lon="3.02541">
        <ele>651.836046</ele>
        <time>2014-05-18T09:18:27Z</time>
      </trkpt>
      <trkpt lat="44.10215" lon="3.02545">
        <ele>652.395993</ele>
        <time>2014-05-18T09:18:30Z</time>
      </trkpt>
      <trkpt lat="44.10219" lon="3.02548">
        <ele>652.675468</ele>
        <time>2014-05-18T09:18:32Z</time>
      </trkpt>
      <trkpt lat="44.10223" lon="3.0255">
        <ele>652.887752</ele>
        <time>2014-05-18T09:18:34Z</time>
      </trkpt>
      <trkpt lat="44.10227" lon="3.02552">
        <ele>653.087662</ele>
        <time>2014-05-18T09:18:36Z</time>
      </trkpt>
      <trkpt lat="44.10234" lon="3.02555">
        <ele>653.38658</ele>
        <time>2014-05-18T09:18:39Z</time>
      </trkpt>
      <trkpt lat="44.1024" lon="3.02559">
        <ele>653.616092</ele>
        <time>2014-05-18T09:18:42Z</time>
      </trkpt>
      <trkpt lat="44.10245" lon="3.02562">
        <ele>653.836143</ele>
        <time>2014-05-18T09:18:45Z</time>
      </trkpt>
      <trkpt lat="44.10251" lon="3.02566">
        <ele>653.966039</ele>
        <time>2014-05-18T09:18:48Z</time>
      </trkpt>
      <trkpt lat="44.10257" lon="3.02571">
        <ele>654.302627</ele>
        <time>2014-05-18T09:18:51Z</time>
      </trkpt>
      <trkpt lat="44.10261" lon="3.02575">
        <ele>654.54467</ele>
        <time>2014-05-18T09:18:53Z</time>
      </trkpt>
      <trkpt lat="44.10265" lon="3.02579">
        <ele>654.747092</ele>
        <time>2014-05-18T09:18:55Z</time>
      </trkpt>
      <trkpt lat="44.10269" lon="3.02584">
        <ele>654.964261</ele>
        <time>2014-05-18T09:18:58Z</time>
      </trkpt>
      <trkpt lat="44.10273" lon="3.02588">
        <ele>655.189731</ele>
        <time>2014-05-18T09:19:01Z</time>
      </trkpt>
      <trkpt lat="44.10276" lon="3.02593">
        <ele>655.436298</ele>
        <time>2014-05-18T09:19:04Z</time>
      </trkpt>
      <trkpt lat="44.10279" lon="3.02599">
        <ele>655.696563</ele>
        <time>2014-05-18T09:19:07Z</time>
      </trkpt>
      <trkpt lat="44.10283" lon="3.02604">
        <ele>655.852511</ele>
        <time>2014-05-18T09:19:10Z</time>
      </trkpt>
      <trkpt lat="44.10288" lon="3.02609">
        <ele>656.082822</ele>
        <time>2014-05-18T09:19:12Z</time>
      </trkpt>
      <trkpt lat="44.10292" lon="3.02614">
        <ele>656.370441</ele>
        <time>2014-05-18T09:19:14Z</time>
      </trkpt>
      <trkpt lat="44.10297" lon="3.0262">
        <ele>656.711722</ele>
        <time>2014-05-18T09:19:17Z</time>
      </trkpt>
      <trkpt lat="44.10301" lon="3.02624">
        <ele>656.697173</ele>
        <time>2014-05-18T09:19:19Z</time>
      </trkpt>
      <trkpt lat="44.10305" lon="3.02629">
        <ele>656.773893</ele>
        <time>2014-05-18T09:19:21Z</time>
      </trkpt>
      <trkpt lat="44.10309" lon="3.02633">
        <ele>656.844082</ele>
        <time>2014-05-18T09:19:23Z</time>
      </trkpt>
      <trkpt lat="44.10313" lon="3.02636">
        <ele>656.92993</ele>
        <time>2014-05-18T09:19:25Z</time>
      </trkpt>
      <trkpt lat="44.10318" lon="3.02641">
        <ele>657.0412</ele>
        <time>2014-05-18T09:19:27Z</time>
      </trkpt>
      <trkpt lat="44.10323" lon="3.02645">
        <ele>657.065497</ele>
        <time>2014-05-18T09:19:29Z</time>
      </trkpt>
      <trkpt lat="44.10327" lon="3.02651">
        <ele>657.033292</ele>
        <time>2014-05-18T09:19:31Z</time>
      </trkpt>
      <trkpt lat="44.10331" lon="3.02656">
        <ele>657.002585</ele>
        <time>2014-05-18T09:19:33Z</time>
      </trkpt>
      <trkpt lat="44.10335" lon="3.0266">
        <ele>656.994866</ele>
        <time>2014-05-18T09:19:35Z</time>
      </trkpt>
      <trkpt lat="44.1034" lon="3.02665">
        <ele>656.995311</ele>
        <time>2014-05-18T09:19:37Z</time>
      </trkpt>
      <trkpt lat="44.10344" lon="3.02669">
        <ele>656.991135</ele>
        <time>2014-05-18T09:19:39Z</time>
      </trkpt>
      <trkpt lat="44.10349" lon="3.02674">
        <ele>657.038737</ele>
        <time>2014-05-18T09:19:41Z</time>
      </trkpt>
      <trkpt lat="44.10354" lon="3.0268">
        <ele>656.981012</ele>
        <time>2014-05-18T09:19:43Z</time>
      </trkpt>
      <trkpt lat="44.10358" lon="3.02684">
        <ele>656.899784</ele>
        <time>2014-05-18T09:19:45Z</time>
      </trkpt>
      <trkpt lat="44.10363" lon="3.02689">
        <ele>656.827361</ele>
        <time>2014-05-18T09:19:47Z</time>
      </trkpt>
      <trkpt lat="44.10368" lon="3.02694">
        <ele>656.811332</ele>
        <time>2014-05-18T09:19:49Z</time>
      </trkpt>
      <trkpt lat="44.10373" lon="3.02699">
        <ele>656.873133</ele>
        <time>2014-05-18T09:19:52Z</time>
      </trkpt>
      <trkpt lat="44.10377" lon="3.02704">
        <ele>656.899552</ele>
        <time>2014-05-18T09:19:54Z</time>
      </trkpt>
      <trkpt lat="44.10381" lon="3.02709">
        <ele>656.864508</ele>
        <time>2014-05-18T09:19:56Z</time>
      </trkpt>
      <trkpt lat="44.10386" lon="3.02715">
        <ele>656.825209</ele>
        <time>2014-05-18T09:19:58Z</time>
      </trkpt>
      <trkpt lat="44.10391" lon="3.02719">
        <ele>656.845124</ele>
        <time>2014-05-18T09:20:00Z</time>
      </trkpt>
      <trkpt lat="44.10394" lon="3.02724">
        <ele>656.850553</ele>
        <time>2014-05-18T09:20:02Z</time>
      </trkpt>
      <trkpt lat="44.10399" lon="3.0273">
        <ele>656.821813</ele>
        <time>2014-05-18T09:20:04Z</time>
      </trkpt>
      <trkpt lat="44.10403" lon="3.02736">
        <ele>656.809744</ele>
        <time>2014-05-18T09:20:06Z</time>
      </trkpt>
      <trkpt lat="44.10405" lon="3.02743">
        <ele>656.817368</ele>
        <time>2014-05-18T09:20:08Z</time>
      </trkpt>
      <trkpt lat="44.10408" lon="3.02749">
        <ele>656.889965</ele>
        <time>2014-05-18T09:20:10Z</time>
      </trkpt>
      <trkpt lat="44.10411" lon="3.02756">
        <ele>656.999665</ele>
        <time>2014-05-18T09:20:12Z</time>
      </trkpt>
      <trkpt lat="44.10414" lon="3.02763">
        <ele>657.107031</ele>
        <time>2014-05-18T09:20:14Z</time>
      </trkpt>
      <trkpt lat="44.10417" lon="3.02771">
        <ele>657.1729</ele>
        <time>2014-05-18T09:20:16Z</time>
      </trkpt>
      <trkpt lat="44.10419" lon="3.02777">
        <ele>657.257629</ele>
        <time>2014-05-18T09:20:18Z</time>
      </trkpt>
      <trkpt lat="44.10422" lon="3.02784">
        <ele>657.337822</ele>
        <time>2014-05-18T09:20:19Z</time>
      </trkpt>
      <trkpt lat="44.10424" lon="3.0279">
        <ele>657.437563</ele>
        <time>2014-05-18T09:20:21Z</time>
      </trkpt>
      <trkpt lat="44.10427" lon="3.02797">
        <ele>657.441095</ele>
        <time>2014-05-18T09:20:24Z</time>
      </trkpt>
      <trkpt lat="44.10429" lon="3.02803">
        <ele>657.501327</ele>
        <time>2014-05-18T09:20:26Z</time>
      </trkpt>
      <trkpt lat="44.10432" lon="3.0281">
        <ele>657.544307</ele>
        <time>2014-05-18T09:20:28Z</time>
      </trkpt>
      <trkpt lat="44.10434" lon="3.02817">
        <ele>657.408067</ele>
        <time>2014-05-18T09:20:30Z</time>
      </trkpt>
      <trkpt lat="44.10437" lon="3.02824">
        <ele>657.345732</ele>
        <time>2014-05-18T09:20:32Z</time>
      </trkpt>
      <trkpt lat="44.10439" lon="3.02831">
        <ele>657.344694</ele>
        <time>2014-05-18T09:20:34Z</time>
      </trkpt>
      <trkpt lat="44.10441" lon="3.02837">
        <ele>657.294194</ele>
        <time>2014-05-18T09:20:36Z</time>
      </trkpt>
      <trkpt lat="44.10443" lon="3.02845">
        <ele>657.262032</ele>
        <time>2014-05-18T09:20:38Z</time>
      </trkpt>
      <trkpt lat="44.10446" lon="3.02851">
        <ele>657.320256</ele>
        <time>2014-05-18T09:20:40Z</time>
      </trkpt>
      <trkpt lat="44.10449" lon="3.02858">
        <ele>657.339803</ele>
        <time>2014-05-18T09:20:42Z</time>
      </trkpt>
      <trkpt lat="44.10452" lon="3.02865">
        <ele>657.311119</ele>
        <time>2014-05-18T09:20:44Z</time>
      </trkpt>
      <trkpt lat="44.10454" lon="3.02871">
        <ele>657.415129</ele>
        <time>2014-05-18T09:20:46Z</time>
      </trkpt>
      <trkpt lat="44.10457" lon="3.02879">
        <ele>657.32344</ele>
        <time>2014-05-18T09:20:49Z</time>
      </trkpt>
      <trkpt lat="44.1046" lon="3.02886">
        <ele>657.272943</ele>
        <time>2014-05-18T09:20:51Z</time>
      </trkpt>
      <trkpt lat="44.10463" lon="3.02893">
        <ele>657.313488</ele>
        <time>2014-05-18T09:20:53Z</time>
      </trkpt>
      <trkpt lat="44.10466" lon="3.02899">
        <ele>657.337895</ele>
        <time>2014-05-18T09:20:55Z</time>
      </trkpt>
      <trkpt lat="44.10469" lon="3.02905">
        <ele>657.393859</ele>
        <time>2014-05-18T09:20:57Z</time>
      </trkpt>
      <trkpt lat="44.10472" lon="3.02912">
        <ele>657.351984</ele>
        <time>2014-05-18T09:20:59Z</time>
      </trkpt>
      <trkpt lat="44.10475" lon="3.02919">
        <ele>657.276194</ele>
        <time>2014-05-18T09:21:01Z</time>
      </trkpt>
      <trkpt lat="44.10477" lon="3.02924">
        <ele>657.145895</ele>
        <time>2014-05-18T09:21:03Z</time>
      </trkpt>
      <trkpt lat="44.1048" lon="3.02931">
        <ele>657.096655</ele>
        <time>2014-05-18T09:21:05Z</time>
      </trkpt>
      <trkpt lat="44.10483" lon="3.02936">
        <ele>657.056191</ele>
        <time>2014-05-18T09:21:07Z</time>
      </trkpt>
      <trkpt lat="44.10486" lon="3.02941">
        <ele>657.061672</ele>
        <time>2014-05-18T09:21:09Z</time>
      </trkpt>
      <trkpt lat="44.10489" lon="3.02946">
        <ele>657.074488</ele>
        <time>2014-05-18T09:21:11Z</time>
      </trkpt>
      <trkpt lat="44.10493" lon="3.02951">
        <ele>657.196052</ele>
        <time>2014-05-18T09:21:13Z</time>
      </trkpt>
      <trkpt lat="44.10497" lon="3.02957">
        <ele>657.451848</ele>
        <time>2014-05-18T09:21:15Z</time>
      </trkpt>
      <trkpt lat="44.10501" lon="3.02963">
        <ele>657.678977</ele>
        <time>2014-05-18T09:21:17Z</time>
      </trkpt>
      <trkpt lat="44.10505" lon="3.0297">
        <ele>657.867805</ele>
        <time>2014-05-18T09:21:19Z</time>
      </trkpt>
      <trkpt lat="44.10509" lon="3.02974">
        <ele>658.046511</ele>
        <time>2014-05-18T09:21:21Z</time>
      </trkpt>
      <trkpt lat="44.10513" lon="3.02979">
        <ele>658.11495</ele>
        <time>2014-05-18T09:21:23Z</time>
      </trkpt>
      <trkpt lat="44.10517" lon="3.02984">
        <ele>658.088286</ele>
        <time>2014-05-18T09:21:25Z</time>
      </trkpt>
      <trkpt lat="44.10521" lon="3.02989">
        <ele>658.066748</ele>
        <time>2014-05-18T09:21:27Z</time>
      </trkpt>
      <trkpt lat="44.10525" lon="3.02994">
        <ele>658.017504</ele>
        <time>2014-05-18T09:21:29Z</time>
      </trkpt>
      <trkpt lat="44.1053" lon="3.02999">
        <ele>657.96802</ele>
        <time>2014-05-18T09:21:31Z</time>
      </trkpt>
      <trkpt lat="44.10534" lon="3.03003">
        <ele>657.850567</ele>
        <time>2014-05-18T09:21:33Z</time>
      </trkpt>
      <trkpt lat="44.10539" lon="3.03008">
        <ele>657.839509</ele>
        <time>2014-05-18T09:21:36Z</time>
      </trkpt>
      <trkpt lat="44.10544" lon="3.03012">
        <ele>657.877109</ele>
        <time>2014-05-18T09:21:38Z</time>
      </trkpt>
      <trkpt lat="44.10548" lon="3.03016">
        <ele>657.987681</ele>
        <time>2014-05-18T09:21:40Z</time>
      </trkpt>
      <trkpt lat="44.10554" lon="3.03018">
        <ele>658.046934</ele>
        <time>2014-05-18T09:21:42Z</time>
      </trkpt>
      <trkpt lat="44.10559" lon="3.0302">
        <ele>658.052328</ele>
        <time>2014-05-18T09:21:44Z</time>
      </trkpt>
      <trkpt lat="44.10564" lon="3.03021">
        <ele>658.038224</ele>
        <time>2014-05-18T09:21:46Z</time>
      </trkpt>
      <trkpt lat="44.10569" lon="3.03023">
        <ele>657.950913</ele>
        <time>2014-05-18T09:21:48Z</time>
      </trkpt>
      <trkpt lat="44.10574" lon="3.03025">
        <ele>658.055641</ele>
        <time>2014-05-18T09:21:50Z</time>
      </trkpt>
      <trkpt lat="44.10579" lon="3.03028">
        <ele>658.1204</ele>
        <time>2014-05-18T09:21:52Z</time>
      </trkpt>
      <trkpt lat="44.10583" lon="3.03031">
        <ele>658.184749</ele>
        <time>2014-05-18T09:21:54Z</time>
      </trkpt>
      <trkpt lat="44.10588" lon="3.03033">
        <ele>658.189602</ele>
        <time>2014-05-18T09:21:56Z</time>
      </trkpt>
      <trkpt lat="44.10593" lon="3.03036">
        <ele>658.205077</ele>
        <time>2014-05-18T09:21:58Z</time>
      </trkpt>
      <trkpt lat="44.10598" lon="3.03038">
        <ele>658.230278</ele>
        <time>2014-05-18T09:22:00Z</time>
      </trkpt>
      <trkpt lat="44.10603" lon="3.0304">
        <ele>658.415585</ele>
        <time>2014-05-18T09:22:02Z</time>
      </trkpt>
      <trkpt lat="44.10609" lon="3.03043">
        <ele>658.787147</ele>
        <time>2014-05-18T09:22:05Z</time>
      </trkpt>
      <trkpt lat="44.10613" lon="3.03046">
        <ele>659.057</ele>
        <time>2014-05-18T09:22:07Z</time>
      </trkpt>
      <trkpt lat="44.10618" lon="3.0305">
        <ele>659.433931</ele>
        <time>2014-05-18T09:22:10Z</time>
      </trkpt>
      <trkpt lat="44.10624" lon="3.03054">
        <ele>659.76302</ele>
        <time>2014-05-18T09:22:13Z</time>
      </trkpt>
      <trkpt lat="44.1063" lon="3.03057">
        <ele>659.95103</ele>
        <time>2014-05-18T09:22:16Z</time>
      </trkpt>
      <trkpt lat="44.10636" lon="3.0306">
        <ele>660.161784</ele>
        <time>2014-05-18T09:22:19Z</time>
      </trkpt>
      <trkpt lat="44.1064" lon="3.03062">
        <ele>660.240522</ele>
        <time>2014-05-18T09:22:21Z</time>
      </trkpt>
      <trkpt lat="44.10645" lon="3.03064">
        <ele>660.375073</ele>
        <time>2014-05-18T09:22:23Z</time>
      </trkpt>
      <trkpt lat="44.10649" lon="3.03066">
        <ele>660.534626</ele>
        <time>2014-05-18T09:22:25Z</time>
      </trkpt>
      <trkpt lat="44.10654" lon="3.03067">
        <ele>660.696833</ele>
        <time>2014-05-18T09:22:27Z</time>
      </trkpt>
      <trkpt lat="44.10659" lon="3.03069">
        <ele>660.952018</ele>
        <time>2014-05-18T09:22:30Z</time>
      </trkpt>
      <trkpt lat="44.10666" lon="3.0307">
        <ele>661.177122</ele>
        <time>2014-05-18T09:22:33Z</time>
      </trkpt>
      <trkpt lat="44.10672" lon="3.03072">
        <ele>661.28631</ele>
        <time>2014-05-18T09:22:36Z</time>
      </trkpt>
      <trkpt lat="44.10678" lon="3.03073">
        <ele>661.414842</ele>
        <time>2014-05-18T09:22:38Z</time>
      </trkpt>
      <trkpt lat="44.10684" lon="3.03074">
        <ele>661.39549</ele>
        <time>2014-05-18T09:22:41Z</time>
      </trkpt>
      <trkpt lat="44.10689" lon="3.03074">
        <ele>661.290085</ele>
        <time>2014-05-18T09:22:43Z</time>
      </trkpt>
      <trkpt lat="44.10695" lon="3.03075">
        <ele>661.199825</ele>
        <time>2014-05-18T09:22:45Z</time>
      </trkpt>
      <trkpt lat="44.107" lon="3.03076">
        <ele>661.13541</ele>
        <time>2014-05-18T09:22:47Z</time>
      </trkpt>
      <trkpt lat="44.10704" lon="3.03077">
        <ele>661.202627</ele>
        <time>2014-05-18T09:22:49Z</time>
      </trkpt>
      <trkpt lat="44.10709" lon="3.03079">
        <ele>661.312218</ele>
        <time>2014-05-18T09:22:51Z</time>
      </trkpt>
      <trkpt lat="44.10714" lon="3.03081">
        <ele>661.425573</ele>
        <time>2014-05-18T09:22:53Z</time>
      </trkpt>
      <trkpt lat="44.1072" lon="3.03084">
        <ele>661.579218</ele>
        <time>2014-05-18T09:22:56Z</time>
      </trkpt>
      <trkpt lat="44.10724" lon="3.03086">
        <ele>661.714355</ele>
        <time>2014-05-18T09:22:58Z</time>
      </trkpt>
      <trkpt lat="44.10729" lon="3.03089">
        <ele>661.822964</ele>
        <time>2014-05-18T09:23:00Z</time>
      </trkpt>
      <trkpt lat="44.10732" lon="3.03094">
        <ele>662.10826</ele>
        <time>2014-05-18T09:23:03Z</time>
      </trkpt>
      <trkpt lat="44.10734" lon="3.03102">
        <ele>662.296014</ele>
        <time>2014-05-18T09:23:06Z</time>
      </trkpt>
      <trkpt lat="44.10733" lon="3.0311">
        <ele>662.504101</ele>
        <time>2014-05-18T09:23:09Z</time>
      </trkpt>
      <trkpt lat="44.1073" lon="3.03118">
        <ele>662.527451</ele>
        <time>2014-05-18T09:23:12Z</time>
      </trkpt>
      <trkpt lat="44.10729" lon="3.03125">
        <ele>662.548969</ele>
        <time>2014-05-18T09:23:15Z</time>
      </trkpt>
      <trkpt lat="44.10728" lon="3.03134">
        <ele>662.403015</ele>
        <time>2014-05-18T09:23:18Z</time>
      </trkpt>
      <trkpt lat="44.10727" lon="3.0314">
        <ele>662.252017</ele>
        <time>2014-05-18T09:23:20Z</time>
      </trkpt>
      <trkpt lat="44.10725" lon="3.03147">
        <ele>662.175654</ele>
        <time>2014-05-18T09:23:23Z</time>
      </trkpt>
      <trkpt lat="44.10722" lon="3.03155">
        <ele>662.132345</ele>
        <time>2014-05-18T09:23:26Z</time>
      </trkpt>
      <trkpt lat="44.10719" lon="3.03164">
        <ele>662.065215</ele>
        <time>2014-05-18T09:23:29Z</time>
      </trkpt>
      <trkpt lat="44.10717" lon="3.0317">
        <ele>661.89753</ele>
        <time>2014-05-18T09:23:31Z</time>
      </trkpt>
      <trkpt lat="44.10716" lon="3.03177">
        <ele>661.738407</ele>
        <time>2014-05-18T09:23:33Z</time>
      </trkpt>
      <trkpt lat="44.10714" lon="3.03183">
        <ele>661.661181</ele>
        <time>2014-05-18T09:23:35Z</time>
      </trkpt>
      <trkpt lat="44.10711" lon="3.03188">
        <ele>661.518037</ele>
        <time>2014-05-18T09:23:37Z</time>
      </trkpt>
      <trkpt lat="44.10709" lon="3.03194">
        <ele>661.305912</ele>
        <time>2014-05-18T09:23:39Z</time>
      </trkpt>
      <trkpt lat="44.10707" lon="3.032">
        <ele>661.096794</ele>
        <time>2014-05-18T09:23:41Z</time>
      </trkpt>
      <trkpt lat="44.10705" lon="3.03207">
        <ele>661.02537</ele>
        <time>2014-05-18T09:23:43Z</time>
      </trkpt>
      <trkpt lat="44.10703" lon="3.03214">
        <ele>660.88692</ele>
        <time>2014-05-18T09:23:45Z</time>
      </trkpt>
      <trkpt lat="44.10701" lon="3.03222">
        <ele>660.751862</ele>
        <time>2014-05-18T09:23:47Z</time>
      </trkpt>
      <trkpt lat="44.10698" lon="3.03229">
        <ele>660.677019</ele>
        <time>2014-05-18T09:23:49Z</time>
      </trkpt>
      <trkpt lat="44.10696" lon="3.03236">
        <ele>660.470292</ele>
        <time>2014-05-18T09:23:51Z</time>
      </trkpt>
      <trkpt lat="44.10695" lon="3.03242">
        <ele>660.219121</ele>
        <time>2014-05-18T09:23:53Z</time>
      </trkpt>
      <trkpt lat="44.10693" lon="3.0325">
        <ele>660.132184</ele>
        <time>2014-05-18T09:23:55Z</time>
      </trkpt>
      <trkpt lat="44.10691" lon="3.03257">
        <ele>660.084058</ele>
        <time>2014-05-18T09:23:57Z</time>
      </trkpt>
      <trkpt lat="44.10689" lon="3.03263">
        <ele>660.063673</ele>
        <time>2014-05-18T09:23:59Z</time>
      </trkpt>
      <trkpt lat="44.10687" lon="3.03272">
        <ele>660.164766</ele>
        <time>2014-05-18T09:24:02Z</time>
      </trkpt>
      <trkpt lat="44.10686" lon="3.03278">
        <ele>660.193385</ele>
        <time>2014-05-18T09:24:04Z</time>
      </trkpt>
      <trkpt lat="44.10685" lon="3.03287">
        <ele>660.061835</ele>
        <time>2014-05-18T09:24:07Z</time>
      </trkpt>
      <trkpt lat="44.10683" lon="3.03294">
        <ele>659.87945</ele>
        <time>2014-05-18T09:24:09Z</time>
      </trkpt>
      <trkpt lat="44.10681" lon="3.03302">
        <ele>659.776695</ele>
        <time>2014-05-18T09:24:11Z</time>
      </trkpt>
      <trkpt lat="44.1068" lon="3.03308">
        <ele>659.661224</ele>
        <time>2014-05-18T09:24:13Z</time>
      </trkpt>
      <trkpt lat="44.10677" lon="3.03316">
        <ele>659.529508</ele>
        <time>2014-05-18T09:24:16Z</time>
      </trkpt>
      <trkpt lat="44.10675" lon="3.03323">
        <ele>659.500521</ele>
        <time>2014-05-18T09:24:18Z</time>
      </trkpt>
      <trkpt lat="44.10673" lon="3.0333">
        <ele>659.568932</ele>
        <time>2014-05-18T09:24:20Z</time>
      </trkpt>
      <trkpt lat="44.1067" lon="3.03338">
        <ele>659.539449</ele>
        <time>2014-05-18T09:24:22Z</time>
      </trkpt>
      <trkpt lat="44.10667" lon="3.03348">
        <ele>659.320127</ele>
        <time>2014-05-18T09:24:24Z</time>
      </trkpt>
      <trkpt lat="44.10665" lon="3.03354">
        <ele>659.169256</ele>
        <time>2014-05-18T09:24:26Z</time>
      </trkpt>
      <trkpt lat="44.10662" lon="3.03362">
        <ele>658.934756</ele>
        <time>2014-05-18T09:24:29Z</time>
      </trkpt>
      <trkpt lat="44.10658" lon="3.03369">
        <ele>658.713594</ele>
        <time>2014-05-18T09:24:31Z</time>
      </trkpt>
      <trkpt lat="44.10656" lon="3.03375">
        <ele>658.323612</ele>
        <time>2014-05-18T09:24:33Z</time>
      </trkpt>
      <trkpt lat="44.10654" lon="3.03381">
        <ele>657.88139</ele>
        <time>2014-05-18T09:24:35Z</time>
      </trkpt>
      <trkpt lat="44.1065" lon="3.0339">
        <ele>657.462086</ele>
        <time>2014-05-18T09:24:38Z</time>
      </trkpt>
      <trkpt lat="44.10648" lon="3.03396">
        <ele>657.197943</ele>
        <time>2014-05-18T09:24:40Z</time>
      </trkpt>
      <trkpt lat="44.10645" lon="3.03402">
        <ele>656.849045</ele>
        <time>2014-05-18T09:24:42Z</time>
      </trkpt>
      <trkpt lat="44.10643" lon="3.0341">
        <ele>656.624276</ele>
        <time>2014-05-18T09:24:44Z</time>
      </trkpt>
      <trkpt lat="44.10641" lon="3.03416">
        <ele>656.363228</ele>
        <time>2014-05-18T09:24:46Z</time>
      </trkpt>
      <trkpt lat="44.10639" lon="3.03422">
        <ele>656.018186</ele>
        <time>2014-05-18T09:24:48Z</time>
      </trkpt>
      <trkpt lat="44.10636" lon="3.03431">
        <ele>655.376568</ele>
        <time>2014-05-18T09:24:51Z</time>
      </trkpt>
      <trkpt lat="44.10633" lon="3.03437">
        <ele>655.080459</ele>
        <time>2014-05-18T09:24:53Z</time>
      </trkpt>
      <trkpt lat="44.10632" lon="3.03444">
        <ele>654.68108</ele>
        <time>2014-05-18T09:24:55Z</time>
      </trkpt>
      <trkpt lat="44.1063" lon="3.03451">
        <ele>654.213443</ele>
        <time>2014-05-18T09:24:57Z</time>
      </trkpt>
      <trkpt lat="44.10628" lon="3.03456">
        <ele>653.82753</ele>
        <time>2014-05-18T09:24:59Z</time>
      </trkpt>
      <trkpt lat="44.10626" lon="3.03465">
        <ele>653.431178</ele>
        <time>2014-05-18T09:25:01Z</time>
      </trkpt>
      <trkpt lat="44.10625" lon="3.03473">
        <ele>653.088531</ele>
        <time>2014-05-18T09:25:03Z</time>
      </trkpt>
      <trkpt lat="44.10623" lon="3.03481">
        <ele>652.697983</ele>
        <time>2014-05-18T09:25:05Z</time>
      </trkpt>
      <trkpt lat="44.10622" lon="3.03488">
        <ele>652.287706</ele>
        <time>2014-05-18T09:25:07Z</time>
      </trkpt>
      <trkpt lat="44.1062" lon="3.03496">
        <ele>651.791366</ele>
        <time>2014-05-18T09:25:09Z</time>
      </trkpt>
      <trkpt lat="44.10619" lon="3.03503">
        <ele>651.324939</ele>
        <time>2014-05-18T09:25:11Z</time>
      </trkpt>
      <trkpt lat="44.10616" lon="3.03511">
        <ele>651.028464</ele>
        <time>2014-05-18T09:25:13Z</time>
      </trkpt>
      <trkpt lat="44.10611" lon="3.03519">
        <ele>650.915548</ele>
        <time>2014-05-18T09:25:16Z</time>
      </trkpt>
      <trkpt lat="44.10607" lon="3.03523">
        <ele>650.722063</ele>
        <time>2014-05-18T09:25:18Z</time>
      </trkpt>
      <trkpt lat="44.10603" lon="3.03527">
        <ele>650.40748</ele>
        <time>2014-05-18T09:25:20Z</time>
      </trkpt>
      <trkpt lat="44.10598" lon="3.03533">
        <ele>650.124583</ele>
        <time>2014-05-18T09:25:22Z</time>
      </trkpt>
      <trkpt lat="44.10594" lon="3.03536">
        <ele>649.865369</ele>
        <time>2014-05-18T09:25:24Z</time>
      </trkpt>
      <trkpt lat="44.10589" lon="3.0354">
        <ele>649.551014</ele>
        <time>2014-05-18T09:25:26Z</time>
      </trkpt>
      <trkpt lat="44.10585" lon="3.03544">
        <ele>649.111719</ele>
        <time>2014-05-18T09:25:28Z</time>
      </trkpt>
      <trkpt lat="44.1058" lon="3.03548">
        <ele>648.704212</ele>
        <time>2014-05-18T09:25:30Z</time>
      </trkpt>
      <trkpt lat="44.10576" lon="3.03552">
        <ele>648.414374</ele>
        <time>2014-05-18T09:25:32Z</time>
      </trkpt>
      <trkpt lat="44.10571" lon="3.03556">
        <ele>648.129167</ele>
        <time>2014-05-18T09:25:34Z</time>
      </trkpt>
      <trkpt lat="44.10565" lon="3.03559">
        <ele>647.737083</ele>
        <time>2014-05-18T09:25:37Z</time>
      </trkpt>
      <trkpt lat="44.10561" lon="3.03562">
        <ele>647.546209</ele>
        <time>2014-05-18T09:25:39Z</time>
      </trkpt>
      <trkpt lat="44.10557" lon="3.03565">
        <ele>647.374172</ele>
        <time>2014-05-18T09:25:41Z</time>
      </trkpt>
      <trkpt lat="44.10553" lon="3.03568">
        <ele>647.20805</ele>
        <time>2014-05-18T09:25:43Z</time>
      </trkpt>
      <trkpt lat="44.10549" lon="3.03572">
        <ele>647.03101</ele>
        <time>2014-05-18T09:25:45Z</time>
      </trkpt>
      <trkpt lat="44.10545" lon="3.03575">
        <ele>646.695473</ele>
        <time>2014-05-18T09:25:47Z</time>
      </trkpt>
      <trkpt lat="44.10539" lon="3.03579">
        <ele>646.535159</ele>
        <time>2014-05-18T09:25:50Z</time>
      </trkpt>
      <trkpt lat="44.10534" lon="3.03584">
        <ele>646.554453</ele>
        <time>2014-05-18T09:25:53Z</time>
      </trkpt>
      <trkpt lat="44.10528" lon="3.03587">
        <ele>646.25229</ele>
        <time>2014-05-18T09:25:56Z</time>
      </trkpt>
      <trkpt lat="44.10523" lon="3.03589">
        <ele>646.0423</ele>
        <time>2014-05-18T09:25:58Z</time>
      </trkpt>
      <trkpt lat="44.10518" lon="3.03591">
        <ele>645.680651</ele>
        <time>2014-05-18T09:26:01Z</time>
      </trkpt>
      <trkpt lat="44.10512" lon="3.03593">
        <ele>645.428971</ele>
        <time>2014-05-18T09:26:04Z</time>
      </trkpt>
      <trkpt lat="44.10506" lon="3.03595">
        <ele>645.407541</ele>
        <time>2014-05-18T09:26:07Z</time>
      </trkpt>
      <trkpt lat="44.105" lon="3.03597">
        <ele>645.371913</ele>
        <time>2014-05-18T09:26:10Z</time>
      </trkpt>
      <trkpt lat="44.10495" lon="3.03598">
        <ele>645.329389</ele>
        <time>2014-05-18T09:26:12Z</time>
      </trkpt>
      <trkpt lat="44.1049" lon="3.03599">
        <ele>645.415162</ele>
        <time>2014-05-18T09:26:14Z</time>
      </trkpt>
      <trkpt lat="44.10484" lon="3.036">
        <ele>645.500069</ele>
        <time>2014-05-18T09:26:17Z</time>
      </trkpt>
      <trkpt lat="44.10478" lon="3.03601">
        <ele>645.549872</ele>
        <time>2014-05-18T09:26:20Z</time>
      </trkpt>
      <trkpt lat="44.10473" lon="3.03601">
        <ele>645.626618</ele>
        <time>2014-05-18T09:26:22Z</time>
      </trkpt>
      <trkpt lat="44.10468" lon="3.03601">
        <ele>645.750404</ele>
        <time>2014-05-18T09:26:24Z</time>
      </trkpt>
      <trkpt lat="44.10461" lon="3.03602">
        <ele>645.802614</ele>
        <time>2014-05-18T09:26:26Z</time>
      </trkpt>
      <trkpt lat="44.10456" lon="3.03603">
        <ele>645.807092</ele>
        <time>2014-05-18T09:26:28Z</time>
      </trkpt>
      <trkpt lat="44.10452" lon="3.03603">
        <ele>645.724393</ele>
        <time>2014-05-18T09:26:30Z</time>
      </trkpt>
      <trkpt lat="44.10446" lon="3.03604">
        <ele>645.699946</ele>
        <time>2014-05-18T09:26:32Z</time>
      </trkpt>
      <trkpt lat="44.10441" lon="3.03605">
        <ele>645.618507</ele>
        <time>2014-05-18T09:26:34Z</time>
      </trkpt>
      <trkpt lat="44.10435" lon="3.03606">
        <ele>645.540546</ele>
        <time>2014-05-18T09:26:36Z</time>
      </trkpt>
      <trkpt lat="44.1043" lon="3.03608">
        <ele>645.40664</ele>
        <time>2014-05-18T09:26:38Z</time>
      </trkpt>
      <trkpt lat="44.10425" lon="3.0361">
        <ele>645.339717</ele>
        <time>2014-05-18T09:26:40Z</time>
      </trkpt>
      <trkpt lat="44.10421" lon="3.03612">
        <ele>645.365349</ele>
        <time>2014-05-18T09:26:42Z</time>
      </trkpt>
      <trkpt lat="44.10416" lon="3.03613">
        <ele>645.37898</ele>
        <time>2014-05-18T09:26:44Z</time>
      </trkpt>
      <trkpt lat="44.1041" lon="3.03613">
        <ele>645.315254</ele>
        <time>2014-05-18T09:26:46Z</time>
      </trkpt>
      <trkpt lat="44.10404" lon="3.03614">
        <ele>645.207534</ele>
        <time>2014-05-18T09:26:48Z</time>
      </trkpt>
      <trkpt lat="44.10397" lon="3.03615">
        <ele>645.119131</ele>
        <time>2014-05-18T09:26:50Z</time>
      </trkpt>
      <trkpt lat="44.10392" lon="3.03617">
        <ele>645.165161</ele>
        <time>2014-05-18T09:26:52Z</time>
      </trkpt>
      <trkpt lat="44.10387" lon="3.03618">
        <ele>645.285319</ele>
        <time>2014-05-18T09:26:54Z</time>
      </trkpt>
      <trkpt lat="44.10382" lon="3.0362">
        <ele>645.242236</ele>
        <time>2014-05-18T09:26:56Z</time>
      </trkpt>
      <trkpt lat="44.10378" lon="3.03621">
        <ele>645.215578</ele>
        <time>2014-05-18T09:26:58Z</time>
      </trkpt>
      <trkpt lat="44.10371" lon="3.03623">
        <ele>645.250625</ele>
        <time>2014-05-18T09:27:01Z</time>
      </trkpt>
      <trkpt lat="44.10366" lon="3.03624">
        <ele>645.163268</ele>
        <time>2014-05-18T09:27:03Z</time>
      </trkpt>
      <trkpt lat="44.1036" lon="3.03624">
        <ele>644.970881</ele>
        <time>2014-05-18T09:27:05Z</time>
      </trkpt>
      <trkpt lat="44.10354" lon="3.03625">
        <ele>644.851066</ele>
        <time>2014-05-18T09:27:07Z</time>
      </trkpt>
      <trkpt lat="44.1035" lon="3.03626">
        <ele>644.822753</ele>
        <time>2014-05-18T09:27:09Z</time>
      </trkpt>
      <trkpt lat="44.10345" lon="3.03627">
        <ele>644.82424</ele>
        <time>2014-05-18T09:27:11Z</time>
      </trkpt>
      <trkpt lat="44.10339" lon="3.03628">
        <ele>644.911738</ele>
        <time>2014-05-18T09:27:13Z</time>
      </trkpt>
      <trkpt lat="44.10333" lon="3.03628">
        <ele>644.883793</ele>
        <time>2014-05-18T09:27:15Z</time>
      </trkpt>
      <trkpt lat="44.10328" lon="3.0363">
        <ele>644.738336</ele>
        <time>2014-05-18T09:27:17Z</time>
      </trkpt>
      <trkpt lat="44.10322" lon="3.03633">
        <ele>644.590255</ele>
        <time>2014-05-18T09:27:19Z</time>
      </trkpt>
      <trkpt lat="44.10316" lon="3.03633">
        <ele>644.490118</ele>
        <time>2014-05-18T09:27:21Z</time>
      </trkpt>
      <trkpt lat="44.10312" lon="3.03635">
        <ele>644.410898</ele>
        <time>2014-05-18T09:27:23Z</time>
      </trkpt>
      <trkpt lat="44.10305" lon="3.03638">
        <ele>644.039503</ele>
        <time>2014-05-18T09:27:26Z</time>
      </trkpt>
      <trkpt lat="44.103" lon="3.0364">
        <ele>643.768241</ele>
        <time>2014-05-18T09:27:28Z</time>
      </trkpt>
      <trkpt lat="44.10295" lon="3.03642">
        <ele>643.45507</ele>
        <time>2014-05-18T09:27:30Z</time>
      </trkpt>
      <trkpt lat="44.10291" lon="3.03644">
        <ele>643.135216</ele>
        <time>2014-05-18T09:27:32Z</time>
      </trkpt>
      <trkpt lat="44.10285" lon="3.03646">
        <ele>642.756795</ele>
        <time>2014-05-18T09:27:35Z</time>
      </trkpt>
      <trkpt lat="44.10279" lon="3.03649">
        <ele>642.527753</ele>
        <time>2014-05-18T09:27:37Z</time>
      </trkpt>
      <trkpt lat="44.10273" lon="3.0365">
        <ele>642.342017</ele>
        <time>2014-05-18T09:27:39Z</time>
      </trkpt>
      <trkpt lat="44.10268" lon="3.03652">
        <ele>642.24833</ele>
        <time>2014-05-18T09:27:41Z</time>
      </trkpt>
      <trkpt lat="44.10263" lon="3.03653">
        <ele>642.138031</ele>
        <time>2014-05-18T09:27:43Z</time>
      </trkpt>
      <trkpt lat="44.10258" lon="3.03653">
        <ele>642.072153</ele>
        <time>2014-05-18T09:27:45Z</time>
      </trkpt>
      <trkpt lat="44.10251" lon="3.03654">
        <ele>642.044681</ele>
        <time>2014-05-18T09:27:47Z</time>
      </trkpt>
      <trkpt lat="44.10246" lon="3.03654">
        <ele>642.04181</ele>
        <time>2014-05-18T09:27:49Z</time>
      </trkpt>
      <trkpt lat="44.10239" lon="3.03654">
        <ele>642.040534</ele>
        <time>2014-05-18T09:27:52Z</time>
      </trkpt>
      <trkpt lat="44.10234" lon="3.03653">
        <ele>641.887491</ele>
        <time>2014-05-18T09:27:54Z</time>
      </trkpt>
      <trkpt lat="44.10228" lon="3.03654">
        <ele>641.60728</ele>
        <time>2014-05-18T09:27:56Z</time>
      </trkpt>
      <trkpt lat="44.10223" lon="3.03656">
        <ele>641.199699</ele>
        <time>2014-05-18T09:27:58Z</time>
      </trkpt>
      <trkpt lat="44.10219" lon="3.03658">
        <ele>640.746267</ele>
        <time>2014-05-18T09:28:00Z</time>
      </trkpt>
      <trkpt lat="44.10214" lon="3.03662">
        <ele>640.349784</ele>
        <time>2014-05-18T09:28:02Z</time>
      </trkpt>
      <trkpt lat="44.10209" lon="3.03668">
        <ele>639.96152</ele>
        <time>2014-05-18T09:28:04Z</time>
      </trkpt>
      <trkpt lat="44.10205" lon="3.03674">
        <ele>639.540362</ele>
        <time>2014-05-18T09:28:06Z</time>
      </trkpt>
      <trkpt lat="44.10202" lon="3.0368">
        <ele>639.287222</ele>
        <time>2014-05-18T09:28:08Z</time>
      </trkpt>
      <trkpt lat="44.102" lon="3.03686">
        <ele>639.182004</ele>
        <time>2014-05-18T09:28:10Z</time>
      </trkpt>
      <trkpt lat="44.10198" lon="3.03693">
        <ele>639.04919</ele>
        <time>2014-05-18T09:28:12Z</time>
      </trkpt>
      <trkpt lat="44.10196" lon="3.03701">
        <ele>638.902551</ele>
        <time>2014-05-18T09:28:14Z</time>
      </trkpt>
      <trkpt lat="44.10193" lon="3.03709">
        <ele>638.816876</ele>
        <time>2014-05-18T09:28:16Z</time>
      </trkpt>
      <trkpt lat="44.10192" lon="3.03716">
        <ele>638.569299</ele>
        <time>2014-05-18T09:28:18Z</time>
      </trkpt>
      <trkpt lat="44.10189" lon="3.03724">
        <ele>638.421376</ele>
        <time>2014-05-18T09:28:20Z</time>
      </trkpt>
      <trkpt lat="44.10186" lon="3.03732">
        <ele>638.389268</ele>
        <time>2014-05-18T09:28:22Z</time>
      </trkpt>
      <trkpt lat="44.10184" lon="3.0374">
        <ele>638.234013</ele>
        <time>2014-05-18T09:28:24Z</time>
      </trkpt>
      <trkpt lat="44.10181" lon="3.03748">
        <ele>637.999387</ele>
        <time>2014-05-18T09:28:26Z</time>
      </trkpt>
      <trkpt lat="44.10179" lon="3.03755">
        <ele>637.73264</ele>
        <time>2014-05-18T09:28:28Z</time>
      </trkpt>
      <trkpt lat="44.10177" lon="3.03763">
        <ele>637.427234</ele>
        <time>2014-05-18T09:28:30Z</time>
      </trkpt>
      <trkpt lat="44.10175" lon="3.03772">
        <ele>637.134285</ele>
        <time>2014-05-18T09:28:33Z</time>
      </trkpt>
      <trkpt lat="44.10173" lon="3.03778">
        <ele>636.76746</ele>
        <time>2014-05-18T09:28:35Z</time>
      </trkpt>
      <trkpt lat="44.10172" lon="3.03785">
        <ele>636.296762</ele>
        <time>2014-05-18T09:28:37Z</time>
      </trkpt>
      <trkpt lat="44.1017" lon="3.03792">
        <ele>635.832269</ele>
        <time>2014-05-18T09:28:39Z</time>
      </trkpt>
      <trkpt lat="44.10167" lon="3.03799">
        <ele>635.470256</ele>
        <time>2014-05-18T09:28:41Z</time>
      </trkpt>
      <trkpt lat="44.10165" lon="3.03806">
        <ele>635.297136</ele>
        <time>2014-05-18T09:28:43Z</time>
      </trkpt>
      <trkpt lat="44.10163" lon="3.03812">
        <ele>635.026044</ele>
        <time>2014-05-18T09:28:45Z</time>
      </trkpt>
      <trkpt lat="44.10161" lon="3.03819">
        <ele>634.741602</ele>
        <time>2014-05-18T09:28:47Z</time>
      </trkpt>
      <trkpt lat="44.10159" lon="3.03826">
        <ele>634.472361</ele>
        <time>2014-05-18T09:28:49Z</time>
      </trkpt>
      <trkpt lat="44.10158" lon="3.03834">
        <ele>634.17705</ele>
        <time>2014-05-18T09:28:51Z</time>
      </trkpt>
      <trkpt lat="44.10158" lon="3.03842">
        <ele>633.873455</ele>
        <time>2014-05-18T09:28:53Z</time>
      </trkpt>
      <trkpt lat="44.10158" lon="3.03849">
        <ele>633.572083</ele>
        <time>2014-05-18T09:28:55Z</time>
      </trkpt>
      <trkpt lat="44.10159" lon="3.03856">
        <ele>633.331934</ele>
        <time>2014-05-18T09:28:57Z</time>
      </trkpt>
      <trkpt lat="44.10162" lon="3.03863">
        <ele>633.10485</ele>
        <time>2014-05-18T09:28:59Z</time>
      </trkpt>
      <trkpt lat="44.10165" lon="3.0387">
        <ele>632.865095</ele>
        <time>2014-05-18T09:29:01Z</time>
      </trkpt>
      <trkpt lat="44.10169" lon="3.03876">
        <ele>632.436547</ele>
        <time>2014-05-18T09:29:03Z</time>
      </trkpt>
      <trkpt lat="44.10173" lon="3.0388">
        <ele>632.03458</ele>
        <time>2014-05-18T09:29:05Z</time>
      </trkpt>
      <trkpt lat="44.10177" lon="3.03885">
        <ele>631.710596</ele>
        <time>2014-05-18T09:29:07Z</time>
      </trkpt>
      <trkpt lat="44.10181" lon="3.0389">
        <ele>631.535206</ele>
        <time>2014-05-18T09:29:09Z</time>
      </trkpt>
      <trkpt lat="44.10185" lon="3.03894">
        <ele>631.408227</ele>
        <time>2014-05-18T09:29:11Z</time>
      </trkpt>
      <trkpt lat="44.1019" lon="3.039">
        <ele>631.160168</ele>
        <time>2014-05-18T09:29:14Z</time>
      </trkpt>
      <trkpt lat="44.10195" lon="3.03905">
        <ele>631.014518</ele>
        <time>2014-05-18T09:29:16Z</time>
      </trkpt>
      <trkpt lat="44.102" lon="3.0391">
        <ele>630.772125</ele>
        <time>2014-05-18T09:29:18Z</time>
      </trkpt>
      <trkpt lat="44.10206" lon="3.03913">
        <ele>630.386884</ele>
        <time>2014-05-18T09:29:20Z</time>
      </trkpt>
      <trkpt lat="44.10211" lon="3.03916">
        <ele>630.014111</ele>
        <time>2014-05-18T09:29:22Z</time>
      </trkpt>
      <trkpt lat="44.10215" lon="3.03917">
        <ele>629.688955</ele>
        <time>2014-05-18T09:29:24Z</time>
      </trkpt>
      <trkpt lat="44.10221" lon="3.0392">
        <ele>629.193037</ele>
        <time>2014-05-18T09:29:26Z</time>
      </trkpt>
      <trkpt lat="44.10227" lon="3.03922">
        <ele>628.786906</ele>
        <time>2014-05-18T09:29:28Z</time>
      </trkpt>
      <trkpt lat="44.10233" lon="3.03924">
        <ele>628.44818</ele>
        <time>2014-05-18T09:29:30Z</time>
      </trkpt>
      <trkpt lat="44.10238" lon="3.03928">
        <ele>628.096213</ele>
        <time>2014-05-18T09:29:32Z</time>
      </trkpt>
      <trkpt lat="44.10242" lon="3.03932">
        <ele>627.79304</ele>
        <time>2014-05-18T09:29:34Z</time>
      </trkpt>
      <trkpt lat="44.10248" lon="3.03936">
        <ele>627.121095</ele>
        <time>2014-05-18T09:29:37Z</time>
      </trkpt>
      <trkpt lat="44.10254" lon="3.03941">
        <ele>626.669817</ele>
        <time>2014-05-18T09:29:39Z</time>
      </trkpt>
      <trkpt lat="44.10259" lon="3.03945">
        <ele>626.284415</ele>
        <time>2014-05-18T09:29:41Z</time>
      </trkpt>
      <trkpt lat="44.10264" lon="3.03951">
        <ele>625.823054</ele>
        <time>2014-05-18T09:29:43Z</time>
      </trkpt>
      <trkpt lat="44.10268" lon="3.03956">
        <ele>625.459662</ele>
        <time>2014-05-18T09:29:45Z</time>
      </trkpt>
      <trkpt lat="44.10273" lon="3.03962">
        <ele>625.089938</ele>
        <time>2014-05-18T09:29:47Z</time>
      </trkpt>
      <trkpt lat="44.10278" lon="3.03967">
        <ele>624.895585</ele>
        <time>2014-05-18T09:29:49Z</time>
      </trkpt>
      <trkpt lat="44.10283" lon="3.03972">
        <ele>624.549705</ele>
        <time>2014-05-18T09:29:51Z</time>
      </trkpt>
      <trkpt lat="44.10287" lon="3.03976">
        <ele>624.106152</ele>
        <time>2014-05-18T09:29:53Z</time>
      </trkpt>
      <trkpt lat="44.10291" lon="3.03981">
        <ele>623.657326</ele>
        <time>2014-05-18T09:29:55Z</time>
      </trkpt>
      <trkpt lat="44.10296" lon="3.03984">
        <ele>623.161503</ele>
        <time>2014-05-18T09:29:57Z</time>
      </trkpt>
      <trkpt lat="44.10301" lon="3.03987">
        <ele>622.736628</ele>
        <time>2014-05-18T09:29:59Z</time>
      </trkpt>
      <trkpt lat="44.10308" lon="3.03992">
        <ele>622.394996</ele>
        <time>2014-05-18T09:30:01Z</time>
      </trkpt>
      <trkpt lat="44.10314" lon="3.03995">
        <ele>622.062871</ele>
        <time>2014-05-18T09:30:03Z</time>
      </trkpt>
      <trkpt lat="44.10319" lon="3.03997">
        <ele>621.812963</ele>
        <time>2014-05-18T09:30:05Z</time>
      </trkpt>
      <trkpt lat="44.10325" lon="3.03999">
        <ele>621.68903</ele>
        <time>2014-05-18T09:30:07Z</time>
      </trkpt>
      <trkpt lat="44.1033" lon="3.04">
        <ele>621.527912</ele>
        <time>2014-05-18T09:30:09Z</time>
      </trkpt>
      <trkpt lat="44.10334" lon="3.04001">
        <ele>621.288053</ele>
        <time>2014-05-18T09:30:11Z</time>
      </trkpt>
      <trkpt lat="44.1034" lon="3.04002">
        <ele>620.97095</ele>
        <time>2014-05-18T09:30:13Z</time>
      </trkpt>
      <trkpt lat="44.10346" lon="3.04004">
        <ele>620.594257</ele>
        <time>2014-05-18T09:30:15Z</time>
      </trkpt>
      <trkpt lat="44.1035" lon="3.04005">
        <ele>620.249544</ele>
        <time>2014-05-18T09:30:17Z</time>
      </trkpt>
      <trkpt lat="44.10357" lon="3.04005">
        <ele>619.634603</ele>
        <time>2014-05-18T09:30:20Z</time>
      </trkpt>
      <trkpt lat="44.10364" lon="3.04006">
        <ele>619.276082</ele>
        <time>2014-05-18T09:30:22Z</time>
      </trkpt>
      <trkpt lat="44.1037" lon="3.04007">
        <ele>618.886593</ele>
        <time>2014-05-18T09:30:24Z</time>
      </trkpt>
      <trkpt lat="44.10376" lon="3.04008">
        <ele>618.557265</ele>
        <time>2014-05-18T09:30:26Z</time>
      </trkpt>
      <trkpt lat="44.10382" lon="3.04008">
        <ele>618.278619</ele>
        <time>2014-05-18T09:30:28Z</time>
      </trkpt>
      <trkpt lat="44.10388" lon="3.04009">
        <ele>618.016829</ele>
        <time>2014-05-18T09:30:30Z</time>
      </trkpt>
      <trkpt lat="44.10393" lon="3.0401">
        <ele>617.55373</ele>
        <time>2014-05-18T09:30:32Z</time>
      </trkpt>
      <trkpt lat="44.10399" lon="3.04011">
        <ele>616.949814</ele>
        <time>2014-05-18T09:30:34Z</time>
      </trkpt>
      <trkpt lat="44.10404" lon="3.04012">
        <ele>616.404182</ele>
        <time>2014-05-18T09:30:36Z</time>
      </trkpt>
      <trkpt lat="44.1041" lon="3.04014">
        <ele>615.946342</ele>
        <time>2014-05-18T09:30:38Z</time>
      </trkpt>
      <trkpt lat="44.10415" lon="3.04016">
        <ele>615.519995</ele>
        <time>2014-05-18T09:30:40Z</time>
      </trkpt>
      <trkpt lat="44.1042" lon="3.04017">
        <ele>615.149311</ele>
        <time>2014-05-18T09:30:42Z</time>
      </trkpt>
      <trkpt lat="44.10425" lon="3.04018">
        <ele>614.696946</ele>
        <time>2014-05-18T09:30:44Z</time>
      </trkpt>
      <trkpt lat="44.10431" lon="3.04021">
        <ele>614.317377</ele>
        <time>2014-05-18T09:30:46Z</time>
      </trkpt>
      <trkpt lat="44.10436" lon="3.04023">
        <ele>613.961061</ele>
        <time>2014-05-18T09:30:48Z</time>
      </trkpt>
      <trkpt lat="44.10441" lon="3.04026">
        <ele>613.521194</ele>
        <time>2014-05-18T09:30:50Z</time>
      </trkpt>
      <trkpt lat="44.10446" lon="3.04031">
        <ele>613.131884</ele>
        <time>2014-05-18T09:30:52Z</time>
      </trkpt>
      <trkpt lat="44.1045" lon="3.04035">
        <ele>612.698604</ele>
        <time>2014-05-18T09:30:54Z</time>
      </trkpt>
      <trkpt lat="44.10454" lon="3.04042">
        <ele>612.309669</ele>
        <time>2014-05-18T09:30:56Z</time>
      </trkpt>
      <trkpt lat="44.10458" lon="3.04048">
        <ele>611.939714</ele>
        <time>2014-05-18T09:30:58Z</time>
      </trkpt>
      <trkpt lat="44.10462" lon="3.04053">
        <ele>611.59233</ele>
        <time>2014-05-18T09:31:00Z</time>
      </trkpt>
      <trkpt lat="44.10465" lon="3.04059">
        <ele>611.365971</ele>
        <time>2014-05-18T09:31:02Z</time>
      </trkpt>
      <trkpt lat="44.10469" lon="3.04065">
        <ele>611.181387</ele>
        <time>2014-05-18T09:31:04Z</time>
      </trkpt>
      <trkpt lat="44.10472" lon="3.04073">
        <ele>610.937006</ele>
        <time>2014-05-18T09:31:06Z</time>
      </trkpt>
      <trkpt lat="44.10475" lon="3.0408">
        <ele>610.69516</ele>
        <time>2014-05-18T09:31:08Z</time>
      </trkpt>
      <trkpt lat="44.10477" lon="3.04088">
        <ele>610.459583</ele>
        <time>2014-05-18T09:31:10Z</time>
      </trkpt>
      <trkpt lat="44.10478" lon="3.04095">
        <ele>610.225886</ele>
        <time>2014-05-18T09:31:12Z</time>
      </trkpt>
      <trkpt lat="44.1048" lon="3.04102">
        <ele>609.790834</ele>
        <time>2014-05-18T09:31:14Z</time>
      </trkpt>
      <trkpt lat="44.10482" lon="3.0411">
        <ele>609.305757</ele>
        <time>2014-05-18T09:31:16Z</time>
      </trkpt>
      <trkpt lat="44.10484" lon="3.04118">
        <ele>608.867329</ele>
        <time>2014-05-18T09:31:18Z</time>
      </trkpt>
      <trkpt lat="44.10486" lon="3.04125">
        <ele>608.494788</ele>
        <time>2014-05-18T09:31:20Z</time>
      </trkpt>
      <trkpt lat="44.10488" lon="3.04132">
        <ele>608.145002</ele>
        <time>2014-05-18T09:31:22Z</time>
      </trkpt>
      <trkpt lat="44.10492" lon="3.0414">
        <ele>607.746603</ele>
        <time>2014-05-18T09:31:24Z</time>
      </trkpt>
      <trkpt lat="44.10496" lon="3.04147">
        <ele>607.302352</ele>
        <time>2014-05-18T09:31:26Z</time>
      </trkpt>
      <trkpt lat="44.105" lon="3.04152">
        <ele>606.859595</ele>
        <time>2014-05-18T09:31:28Z</time>
      </trkpt>
      <trkpt lat="44.10504" lon="3.04156">
        <ele>606.517317</ele>
        <time>2014-05-18T09:31:30Z</time>
      </trkpt>
      <trkpt lat="44.10509" lon="3.0416">
        <ele>606.225484</ele>
        <time>2014-05-18T09:31:32Z</time>
      </trkpt>
      <trkpt lat="44.10513" lon="3.04162">
        <ele>605.890381</ele>
        <time>2014-05-18T09:31:34Z</time>
      </trkpt>
      <trkpt lat="44.10518" lon="3.04165">
        <ele>605.616834</ele>
        <time>2014-05-18T09:31:36Z</time>
      </trkpt>
      <trkpt lat="44.10524" lon="3.04169">
        <ele>605.429665</ele>
        <time>2014-05-18T09:31:38Z</time>
      </trkpt>
      <trkpt lat="44.10529" lon="3.04171">
        <ele>605.316847</ele>
        <time>2014-05-18T09:31:40Z</time>
      </trkpt>
      <trkpt lat="44.10534" lon="3.04174">
        <ele>605.022002</ele>
        <time>2014-05-18T09:31:42Z</time>
      </trkpt>
      <trkpt lat="44.10538" lon="3.04177">
        <ele>604.672885</ele>
        <time>2014-05-18T09:31:44Z</time>
      </trkpt>
      <trkpt lat="44.10544" lon="3.0418">
        <ele>604.330749</ele>
        <time>2014-05-18T09:31:46Z</time>
      </trkpt>
      <trkpt lat="44.10549" lon="3.04182">
        <ele>603.951202</ele>
        <time>2014-05-18T09:31:48Z</time>
      </trkpt>
      <trkpt lat="44.10554" lon="3.04184">
        <ele>603.616503</ele>
        <time>2014-05-18T09:31:50Z</time>
      </trkpt>
      <trkpt lat="44.1056" lon="3.04187">
        <ele>603.255485</ele>
        <time>2014-05-18T09:31:52Z</time>
      </trkpt>
      <trkpt lat="44.10565" lon="3.04188">
        <ele>602.97867</ele>
        <time>2014-05-18T09:31:54Z</time>
      </trkpt>
      <trkpt lat="44.1057" lon="3.04192">
        <ele>602.713621</ele>
        <time>2014-05-18T09:31:56Z</time>
      </trkpt>
      <trkpt lat="44.10576" lon="3.04194">
        <ele>602.49747</ele>
        <time>2014-05-18T09:31:58Z</time>
      </trkpt>
      <trkpt lat="44.10582" lon="3.04197">
        <ele>601.958371</ele>
        <time>2014-05-18T09:32:00Z</time>
      </trkpt>
      <trkpt lat="44.10586" lon="3.042">
        <ele>601.442288</ele>
        <time>2014-05-18T09:32:02Z</time>
      </trkpt>
      <trkpt lat="44.10593" lon="3.04204">
        <ele>600.980022</ele>
        <time>2014-05-18T09:32:04Z</time>
      </trkpt>
      <trkpt lat="44.10598" lon="3.04208">
        <ele>600.622994</ele>
        <time>2014-05-18T09:32:06Z</time>
      </trkpt>
      <trkpt lat="44.10604" lon="3.0421">
        <ele>600.220715</ele>
        <time>2014-05-18T09:32:08Z</time>
      </trkpt>
      <trkpt lat="44.10611" lon="3.04214">
        <ele>599.787525</ele>
        <time>2014-05-18T09:32:11Z</time>
      </trkpt>
      <trkpt lat="44.10616" lon="3.04217">
        <ele>599.411594</ele>
        <time>2014-05-18T09:32:13Z</time>
      </trkpt>
      <trkpt lat="44.10622" lon="3.0422">
        <ele>598.975364</ele>
        <time>2014-05-18T09:32:15Z</time>
      </trkpt>
      <trkpt lat="44.10628" lon="3.04222">
        <ele>598.486667</ele>
        <time>2014-05-18T09:32:17Z</time>
      </trkpt>
      <trkpt lat="44.10633" lon="3.04224">
        <ele>598.057977</ele>
        <time>2014-05-18T09:32:19Z</time>
      </trkpt>
      <trkpt lat="44.10639" lon="3.04225">
        <ele>597.519569</ele>
        <time>2014-05-18T09:32:21Z</time>
      </trkpt>
      <trkpt lat="44.10644" lon="3.04225">
        <ele>596.940099</ele>
        <time>2014-05-18T09:32:23Z</time>
      </trkpt>
      <trkpt lat="44.10648" lon="3.04226">
        <ele>596.491813</ele>
        <time>2014-05-18T09:32:25Z</time>
      </trkpt>
      <trkpt lat="44.10653" lon="3.04227">
        <ele>596.067815</ele>
        <time>2014-05-18T09:32:27Z</time>
      </trkpt>
      <trkpt lat="44.10658" lon="3.04227">
        <ele>595.496816</ele>
        <time>2014-05-18T09:32:29Z</time>
      </trkpt>
      <trkpt lat="44.10665" lon="3.04226">
        <ele>594.729064</ele>
        <time>2014-05-18T09:32:32Z</time>
      </trkpt>
      <trkpt lat="44.1067" lon="3.04224">
        <ele>594.30584</ele>
        <time>2014-05-18T09:32:34Z</time>
      </trkpt>
      <trkpt lat="44.10675" lon="3.04222">
        <ele>593.931702</ele>
        <time>2014-05-18T09:32:36Z</time>
      </trkpt>
      <trkpt lat="44.10681" lon="3.0422">
        <ele>593.48767</ele>
        <time>2014-05-18T09:32:39Z</time>
      </trkpt>
      <trkpt lat="44.10687" lon="3.04218">
        <ele>593.131243</ele>
        <time>2014-05-18T09:32:41Z</time>
      </trkpt>
      <trkpt lat="44.10691" lon="3.04218">
        <ele>592.731809</ele>
        <time>2014-05-18T09:32:43Z</time>
      </trkpt>
      <trkpt lat="44.10695" lon="3.04223">
        <ele>592.233778</ele>
        <time>2014-05-18T09:32:45Z</time>
      </trkpt>
      <trkpt lat="44.10695" lon="3.04232">
        <ele>591.49563</ele>
        <time>2014-05-18T09:32:48Z</time>
      </trkpt>
      <trkpt lat="44.10694" lon="3.04239">
        <ele>591.054194</ele>
        <time>2014-05-18T09:32:50Z</time>
      </trkpt>
      <trkpt lat="44.10693" lon="3.04248">
        <ele>590.599003</ele>
        <time>2014-05-18T09:32:52Z</time>
      </trkpt>
      <trkpt lat="44.1069" lon="3.04256">
        <ele>590.220589</ele>
        <time>2014-05-18T09:32:54Z</time>
      </trkpt>
      <trkpt lat="44.10688" lon="3.04263">
        <ele>589.807731</ele>
        <time>2014-05-18T09:32:56Z</time>
      </trkpt>
      <trkpt lat="44.10686" lon="3.0427">
        <ele>589.334199</ele>
        <time>2014-05-18T09:32:58Z</time>
      </trkpt>
      <trkpt lat="44.10683" lon="3.04277">
        <ele>588.838691</ele>
        <time>2014-05-18T09:33:00Z</time>
      </trkpt>
      <trkpt lat="44.1068" lon="3.04284">
        <ele>588.269952</ele>
        <time>2014-05-18T09:33:02Z</time>
      </trkpt>
      <trkpt lat="44.10677" lon="3.0429">
        <ele>587.645172</ele>
        <time>2014-05-18T09:33:04Z</time>
      </trkpt>
      <trkpt lat="44.10673" lon="3.04296">
        <ele>587.018853</ele>
        <time>2014-05-18T09:33:06Z</time>
      </trkpt>
      <trkpt lat="44.1067" lon="3.04302">
        <ele>586.263715</ele>
        <time>2014-05-18T09:33:08Z</time>
      </trkpt>
      <trkpt lat="44.10666" lon="3.04306">
        <ele>585.573416</ele>
        <time>2014-05-18T09:33:10Z</time>
      </trkpt>
      <trkpt lat="44.10662" lon="3.04311">
        <ele>584.957086</ele>
        <time>2014-05-18T09:33:12Z</time>
      </trkpt>
      <trkpt lat="44.10657" lon="3.04317">
        <ele>584.328772</ele>
        <time>2014-05-18T09:33:14Z</time>
      </trkpt>
      <trkpt lat="44.10652" lon="3.04322">
        <ele>583.721284</ele>
        <time>2014-05-18T09:33:16Z</time>
      </trkpt>
      <trkpt lat="44.10647" lon="3.04326">
        <ele>583.215031</ele>
        <time>2014-05-18T09:33:18Z</time>
      </trkpt>
      <trkpt lat="44.10643" lon="3.04331">
        <ele>582.781457</ele>
        <time>2014-05-18T09:33:20Z</time>
      </trkpt>
      <trkpt lat="44.10638" lon="3.04334">
        <ele>582.307687</ele>
        <time>2014-05-18T09:33:22Z</time>
      </trkpt>
      <trkpt lat="44.10633" lon="3.04339">
        <ele>581.84649</ele>
        <time>2014-05-18T09:33:24Z</time>
      </trkpt>
      <trkpt lat="44.10628" lon="3.04342">
        <ele>581.43523</ele>
        <time>2014-05-18T09:33:26Z</time>
      </trkpt>
      <trkpt lat="44.10623" lon="3.04346">
        <ele>580.967538</ele>
        <time>2014-05-18T09:33:28Z</time>
      </trkpt>
      <trkpt lat="44.10618" lon="3.04349">
        <ele>580.641655</ele>
        <time>2014-05-18T09:33:30Z</time>
      </trkpt>
      <trkpt lat="44.10612" lon="3.04353">
        <ele>580.326686</ele>
        <time>2014-05-18T09:33:32Z</time>
      </trkpt>
      <trkpt lat="44.10606" lon="3.04356">
        <ele>579.904236</ele>
        <time>2014-05-18T09:33:34Z</time>
      </trkpt>
      <trkpt lat="44.10601" lon="3.04359">
        <ele>579.4524</ele>
        <time>2014-05-18T09:33:36Z</time>
      </trkpt>
      <trkpt lat="44.10595" lon="3.04361">
        <ele>579.002681</ele>
        <time>2014-05-18T09:33:38Z</time>
      </trkpt>
      <trkpt lat="44.10588" lon="3.04363">
        <ele>578.550418</ele>
        <time>2014-05-18T09:33:40Z</time>
      </trkpt>
      <trkpt lat="44.10582" lon="3.04364">
        <ele>578.233113</ele>
        <time>2014-05-18T09:33:42Z</time>
      </trkpt>
      <trkpt lat="44.10577" lon="3.04364">
        <ele>578.044627</ele>
        <time>2014-05-18T09:33:44Z</time>
      </trkpt>
      <trkpt lat="44.10572" lon="3.04365">
        <ele>577.651177</ele>
        <time>2014-05-18T09:33:47Z</time>
      </trkpt>
      <trkpt lat="44.10566" lon="3.04365">
        <ele>577.443186</ele>
        <time>2014-05-18T09:33:49Z</time>
      </trkpt>
      <trkpt lat="44.10561" lon="3.04365">
        <ele>577.16282</ele>
        <time>2014-05-18T09:33:51Z</time>
      </trkpt>
      <trkpt lat="44.10556" lon="3.04365">
        <ele>576.743749</ele>
        <time>2014-05-18T09:33:53Z</time>
      </trkpt>
      <trkpt lat="44.10552" lon="3.04367">
        <ele>576.274118</ele>
        <time>2014-05-18T09:33:55Z</time>
      </trkpt>
      <trkpt lat="44.10547" lon="3.0437">
        <ele>575.860494</ele>
        <time>2014-05-18T09:33:57Z</time>
      </trkpt>
      <trkpt lat="44.10542" lon="3.04373">
        <ele>575.465308</ele>
        <time>2014-05-18T09:33:59Z</time>
      </trkpt>
      <trkpt lat="44.10537" lon="3.04375">
        <ele>575.145678</ele>
        <time>2014-05-18T09:34:01Z</time>
      </trkpt>
      <trkpt lat="44.10531" lon="3.04377">
        <ele>574.903952</ele>
        <time>2014-05-18T09:34:04Z</time>
      </trkpt>
      <trkpt lat="44.10525" lon="3.04382">
        <ele>574.663187</ele>
        <time>2014-05-18T09:34:07Z</time>
      </trkpt>
      <trkpt lat="44.1052" lon="3.04386">
        <ele>574.56317</ele>
        <time>2014-05-18T09:34:10Z</time>
      </trkpt>
      <trkpt lat="44.10516" lon="3.04389">
        <ele>574.594648</ele>
        <time>2014-05-18T09:34:12Z</time>
      </trkpt>
      <trkpt lat="44.10512" lon="3.04392">
        <ele>574.584981</ele>
        <time>2014-05-18T09:34:14Z</time>
      </trkpt>
      <trkpt lat="44.10508" lon="3.04395">
        <ele>574.617536</ele>
        <time>2014-05-18T09:34:16Z</time>
      </trkpt>
      <trkpt lat="44.10503" lon="3.04398">
        <ele>574.589917</ele>
        <time>2014-05-18T09:34:18Z</time>
      </trkpt>
      <trkpt lat="44.10499" lon="3.04401">
        <ele>574.572223</ele>
        <time>2014-05-18T09:34:20Z</time>
      </trkpt>
      <trkpt lat="44.10494" lon="3.04405">
        <ele>574.586402</ele>
        <time>2014-05-18T09:34:23Z</time>
      </trkpt>
      <trkpt lat="44.10489" lon="3.04409">
        <ele>574.505714</ele>
        <time>2014-05-18T09:34:25Z</time>
      </trkpt>
      <trkpt lat="44.10485" lon="3.04412">
        <ele>574.531081</ele>
        <time>2014-05-18T09:34:27Z</time>
      </trkpt>
      <trkpt lat="44.10481" lon="3.04415">
        <ele>574.492853</ele>
        <time>2014-05-18T09:34:29Z</time>
      </trkpt>
      <trkpt lat="44.10475" lon="3.04419">
        <ele>574.634192</ele>
        <time>2014-05-18T09:34:32Z</time>
      </trkpt>
      <trkpt lat="44.10471" lon="3.04423">
        <ele>574.798806</ele>
        <time>2014-05-18T09:34:34Z</time>
      </trkpt>
      <trkpt lat="44.10467" lon="3.04429">
        <ele>575.184861</ele>
        <time>2014-05-18T09:34:37Z</time>
      </trkpt>
      <trkpt lat="44.10462" lon="3.04433">
        <ele>575.456564</ele>
        <time>2014-05-18T09:34:40Z</time>
      </trkpt>
      <trkpt lat="44.10459" lon="3.04439">
        <ele>575.423687</ele>
        <time>2014-05-18T09:34:43Z</time>
      </trkpt>
      <trkpt lat="44.10454" lon="3.04445">
        <ele>575.394121</ele>
        <time>2014-05-18T09:34:46Z</time>
      </trkpt>
      <trkpt lat="44.1045" lon="3.04453">
        <ele>575.594646</ele>
        <time>2014-05-18T09:34:49Z</time>
      </trkpt>
      <trkpt lat="44.10447" lon="3.04458">
        <ele>575.832205</ele>
        <time>2014-05-18T09:34:51Z</time>
      </trkpt>
      <trkpt lat="44.10444" lon="3.04464">
        <ele>575.957248</ele>
        <time>2014-05-18T09:34:54Z</time>
      </trkpt>
      <trkpt lat="44.10441" lon="3.0447">
        <ele>576.103136</ele>
        <time>2014-05-18T09:34:56Z</time>
      </trkpt>
      <trkpt lat="44.10439" lon="3.04476">
        <ele>576.25642</ele>
        <time>2014-05-18T09:34:58Z</time>
      </trkpt>
      <trkpt lat="44.10436" lon="3.04482">
        <ele>576.357258</ele>
        <time>2014-05-18T09:35:00Z</time>
      </trkpt>
      <trkpt lat="44.10433" lon="3.04489">
        <ele>576.395199</ele>
        <time>2014-05-18T09:35:03Z</time>
      </trkpt>
      <trkpt lat="44.1043" lon="3.04494">
        <ele>576.510817</ele>
        <time>2014-05-18T09:35:05Z</time>
      </trkpt>
      <trkpt lat="44.10428" lon="3.045">
        <ele>576.617818</ele>
        <time>2014-05-18T09:35:07Z</time>
      </trkpt>
      <trkpt lat="44.10425" lon="3.04505">
        <ele>576.579678</ele>
        <time>2014-05-18T09:35:09Z</time>
      </trkpt>
      <trkpt lat="44.10422" lon="3.04512">
        <ele>576.670613</ele>
        <time>2014-05-18T09:35:11Z</time>
      </trkpt>
      <trkpt lat="44.10419" lon="3.04517">
        <ele>576.917371</ele>
        <time>2014-05-18T09:35:13Z</time>
      </trkpt>
      <trkpt lat="44.10416" lon="3.04526">
        <ele>577.097459</ele>
        <time>2014-05-18T09:35:16Z</time>
      </trkpt>
      <trkpt lat="44.10414" lon="3.04532">
        <ele>577.105315</ele>
        <time>2014-05-18T09:35:18Z</time>
      </trkpt>
      <trkpt lat="44.10411" lon="3.04538">
        <ele>577.130726</ele>
        <time>2014-05-18T09:35:20Z</time>
      </trkpt>
      <trkpt lat="44.10409" lon="3.04545">
        <ele>577.261267</ele>
        <time>2014-05-18T09:35:22Z</time>
      </trkpt>
      <trkpt lat="44.10407" lon="3.04551">
        <ele>577.337874</ele>
        <time>2014-05-18T09:35:24Z</time>
      </trkpt>
      <trkpt lat="44.10404" lon="3.04557">
        <ele>577.389288</ele>
        <time>2014-05-18T09:35:26Z</time>
      </trkpt>
      <trkpt lat="44.10401" lon="3.04565">
        <ele>577.363824</ele>
        <time>2014-05-18T09:35:28Z</time>
      </trkpt>
      <trkpt lat="44.10399" lon="3.04571">
        <ele>577.318803</ele>
        <time>2014-05-18T09:35:30Z</time>
      </trkpt>
      <trkpt lat="44.10397" lon="3.04577">
        <ele>577.263563</ele>
        <time>2014-05-18T09:35:32Z</time>
      </trkpt>
      <trkpt lat="44.10395" lon="3.04583">
        <ele>577.200253</ele>
        <time>2014-05-18T09:35:34Z</time>
      </trkpt>
      <trkpt lat="44.10394" lon="3.0459">
        <ele>577.113363</ele>
        <time>2014-05-18T09:35:36Z</time>
      </trkpt>
      <trkpt lat="44.10393" lon="3.04598">
        <ele>576.868796</ele>
        <time>2014-05-18T09:35:38Z</time>
      </trkpt>
      <trkpt lat="44.10392" lon="3.04604">
        <ele>576.649652</ele>
        <time>2014-05-18T09:35:40Z</time>
      </trkpt>
      <trkpt lat="44.10391" lon="3.04611">
        <ele>576.468691</ele>
        <time>2014-05-18T09:35:42Z</time>
      </trkpt>
      <trkpt lat="44.10391" lon="3.04619">
        <ele>576.329413</ele>
        <time>2014-05-18T09:35:44Z</time>
      </trkpt>
      <trkpt lat="44.10391" lon="3.04627">
        <ele>576.167387</ele>
        <time>2014-05-18T09:35:46Z</time>
      </trkpt>
      <trkpt lat="44.10391" lon="3.04635">
        <ele>575.994269</ele>
        <time>2014-05-18T09:35:48Z</time>
      </trkpt>
      <trkpt lat="44.10391" lon="3.04642">
        <ele>575.696132</ele>
        <time>2014-05-18T09:35:50Z</time>
      </trkpt>
      <trkpt lat="44.10392" lon="3.04651">
        <ele>575.085828</ele>
        <time>2014-05-18T09:35:53Z</time>
      </trkpt>
      <trkpt lat="44.10392" lon="3.04657">
        <ele>574.896432</ele>
        <time>2014-05-18T09:35:55Z</time>
      </trkpt>
      <trkpt lat="44.10391" lon="3.04666">
        <ele>574.523338</ele>
        <time>2014-05-18T09:35:57Z</time>
      </trkpt>
      <trkpt lat="44.10391" lon="3.04675">
        <ele>574.208307</ele>
        <time>2014-05-18T09:35:59Z</time>
      </trkpt>
      <trkpt lat="44.10391" lon="3.04684">
        <ele>573.988691</ele>
        <time>2014-05-18T09:36:01Z</time>
      </trkpt>
      <trkpt lat="44.10392" lon="3.04692">
        <ele>573.79166</ele>
        <time>2014-05-18T09:36:03Z</time>
      </trkpt>
      <trkpt lat="44.10392" lon="3.04699">
        <ele>573.592493</ele>
        <time>2014-05-18T09:36:05Z</time>
      </trkpt>
      <trkpt lat="44.10393" lon="3.04708">
        <ele>573.257938</ele>
        <time>2014-05-18T09:36:07Z</time>
      </trkpt>
      <trkpt lat="44.10393" lon="3.04718">
        <ele>572.851895</ele>
        <time>2014-05-18T09:36:09Z</time>
      </trkpt>
      <trkpt lat="44.10394" lon="3.04728">
        <ele>572.459607</ele>
        <time>2014-05-18T09:36:11Z</time>
      </trkpt>
      <trkpt lat="44.10394" lon="3.04735">
        <ele>572.220466</ele>
        <time>2014-05-18T09:36:13Z</time>
      </trkpt>
      <trkpt lat="44.10395" lon="3.04743">
        <ele>572.188156</ele>
        <time>2014-05-18T09:36:15Z</time>
      </trkpt>
      <trkpt lat="44.10395" lon="3.04752">
        <ele>572.142311</ele>
        <time>2014-05-18T09:36:17Z</time>
      </trkpt>
      <trkpt lat="44.10395" lon="3.0476">
        <ele>572.021681</ele>
        <time>2014-05-18T09:36:19Z</time>
      </trkpt>
      <trkpt lat="44.10395" lon="3.04769">
        <ele>571.900113</ele>
        <time>2014-05-18T09:36:21Z</time>
      </trkpt>
      <trkpt lat="44.10394" lon="3.04779">
        <ele>571.656882</ele>
        <time>2014-05-18T09:36:23Z</time>
      </trkpt>
      <trkpt lat="44.10392" lon="3.04787">
        <ele>571.342776</ele>
        <time>2014-05-18T09:36:25Z</time>
      </trkpt>
      <trkpt lat="44.10391" lon="3.04796">
        <ele>570.715128</ele>
        <time>2014-05-18T09:36:28Z</time>
      </trkpt>
      <trkpt lat="44.10389" lon="3.04803">
        <ele>570.375803</ele>
        <time>2014-05-18T09:36:30Z</time>
      </trkpt>
      <trkpt lat="44.10388" lon="3.0481">
        <ele>570.175676</ele>
        <time>2014-05-18T09:36:32Z</time>
      </trkpt>
      <trkpt lat="44.10387" lon="3.04819">
        <ele>569.901542</ele>
        <time>2014-05-18T09:36:34Z</time>
      </trkpt>
      <trkpt lat="44.10386" lon="3.04826">
        <ele>569.554248</ele>
        <time>2014-05-18T09:36:36Z</time>
      </trkpt>
      <trkpt lat="44.10385" lon="3.04834">
        <ele>569.191323</ele>
        <time>2014-05-18T09:36:38Z</time>
      </trkpt>
      <trkpt lat="44.10384" lon="3.04843">
        <ele>568.819754</ele>
        <time>2014-05-18T09:36:40Z</time>
      </trkpt>
      <trkpt lat="44.10383" lon="3.0485">
        <ele>568.465376</ele>
        <time>2014-05-18T09:36:42Z</time>
      </trkpt>
      <trkpt lat="44.10382" lon="3.0486">
        <ele>568.062904</ele>
        <time>2014-05-18T09:36:44Z</time>
      </trkpt>
      <trkpt lat="44.10381" lon="3.04869">
        <ele>567.709249</ele>
        <time>2014-05-18T09:36:46Z</time>
      </trkpt>
      <trkpt lat="44.1038" lon="3.04878">
        <ele>567.430289</ele>
        <time>2014-05-18T09:36:48Z</time>
      </trkpt>
      <trkpt lat="44.10379" lon="3.04886">
        <ele>567.188745</ele>
        <time>2014-05-18T09:36:50Z</time>
      </trkpt>
      <trkpt lat="44.10378" lon="3.04892">
        <ele>566.855039</ele>
        <time>2014-05-18T09:36:52Z</time>
      </trkpt>
      <trkpt lat="44.10376" lon="3.04899">
        <ele>566.424842</ele>
        <time>2014-05-18T09:36:54Z</time>
      </trkpt>
      <trkpt lat="44.10375" lon="3.04906">
        <ele>565.979615</ele>
        <time>2014-05-18T09:36:56Z</time>
      </trkpt>
      <trkpt lat="44.10374" lon="3.04915">
        <ele>565.623767</ele>
        <time>2014-05-18T09:36:58Z</time>
      </trkpt>
      <trkpt lat="44.10372" lon="3.04924">
        <ele>565.344707</ele>
        <time>2014-05-18T09:37:00Z</time>
      </trkpt>
      <trkpt lat="44.10371" lon="3.0493">
        <ele>564.96368</ele>
        <time>2014-05-18T09:37:02Z</time>
      </trkpt>
      <trkpt lat="44.10369" lon="3.04937">
        <ele>564.715894</ele>
        <time>2014-05-18T09:37:04Z</time>
      </trkpt>
      <trkpt lat="44.10366" lon="3.04945">
        <ele>564.366533</ele>
        <time>2014-05-18T09:37:06Z</time>
      </trkpt>
      <trkpt lat="44.10363" lon="3.04953">
        <ele>564.016604</ele>
        <time>2014-05-18T09:37:08Z</time>
      </trkpt>
      <trkpt lat="44.1036" lon="3.04962">
        <ele>563.569332</ele>
        <time>2014-05-18T09:37:10Z</time>
      </trkpt>
      <trkpt lat="44.10357" lon="3.0497">
        <ele>563.163524</ele>
        <time>2014-05-18T09:37:12Z</time>
      </trkpt>
      <trkpt lat="44.10355" lon="3.04979">
        <ele>562.697695</ele>
        <time>2014-05-18T09:37:14Z</time>
      </trkpt>
      <trkpt lat="44.10352" lon="3.04988">
        <ele>562.240415</ele>
        <time>2014-05-18T09:37:16Z</time>
      </trkpt>
      <trkpt lat="44.10349" lon="3.04996">
        <ele>561.769851</ele>
        <time>2014-05-18T09:37:18Z</time>
      </trkpt>
      <trkpt lat="44.10348" lon="3.05002">
        <ele>561.21745</ele>
        <time>2014-05-18T09:37:20Z</time>
      </trkpt>
      <trkpt lat="44.10345" lon="3.05008">
        <ele>560.748356</ele>
        <time>2014-05-18T09:37:22Z</time>
      </trkpt>
      <trkpt lat="44.10343" lon="3.05015">
        <ele>560.255085</ele>
        <time>2014-05-18T09:37:24Z</time>
      </trkpt>
      <trkpt lat="44.10341" lon="3.05021">
        <ele>559.876678</ele>
        <time>2014-05-18T09:37:26Z</time>
      </trkpt>
      <trkpt lat="44.10339" lon="3.05027">
        <ele>559.557766</ele>
        <time>2014-05-18T09:37:28Z</time>
      </trkpt>
      <trkpt lat="44.10336" lon="3.05035">
        <ele>559.006141</ele>
        <time>2014-05-18T09:37:30Z</time>
      </trkpt>
      <trkpt lat="44.10334" lon="3.05041">
        <ele>558.484683</ele>
        <time>2014-05-18T09:37:32Z</time>
      </trkpt>
      <trkpt lat="44.10332" lon="3.05048">
        <ele>557.978247</ele>
        <time>2014-05-18T09:37:34Z</time>
      </trkpt>
      <trkpt lat="44.1033" lon="3.05057">
        <ele>557.054998</ele>
        <time>2014-05-18T09:37:37Z</time>
      </trkpt>
      <trkpt lat="44.10328" lon="3.05064">
        <ele>556.489363</ele>
        <time>2014-05-18T09:37:39Z</time>
      </trkpt>
      <trkpt lat="44.10326" lon="3.05071">
        <ele>555.983613</ele>
        <time>2014-05-18T09:37:41Z</time>
      </trkpt>
      <trkpt lat="44.10324" lon="3.05079">
        <ele>555.382526</ele>
        <time>2014-05-18T09:37:43Z</time>
      </trkpt>
      <trkpt lat="44.10322" lon="3.05084">
        <ele>554.856741</ele>
        <time>2014-05-18T09:37:45Z</time>
      </trkpt>
      <trkpt lat="44.10319" lon="3.05091">
        <ele>554.37112</ele>
        <time>2014-05-18T09:37:47Z</time>
      </trkpt>
      <trkpt lat="44.10316" lon="3.051">
        <ele>553.962593</ele>
        <time>2014-05-18T09:37:49Z</time>
      </trkpt>
      <trkpt lat="44.10314" lon="3.05107">
        <ele>553.524336</ele>
        <time>2014-05-18T09:37:51Z</time>
      </trkpt>
      <trkpt lat="44.10312" lon="3.05114">
        <ele>552.994869</ele>
        <time>2014-05-18T09:37:53Z</time>
      </trkpt>
      <trkpt lat="44.1031" lon="3.0512">
        <ele>552.497282</ele>
        <time>2014-05-18T09:37:55Z</time>
      </trkpt>
      <trkpt lat="44.10307" lon="3.05127">
        <ele>552.044313</ele>
        <time>2014-05-18T09:37:57Z</time>
      </trkpt>
      <trkpt lat="44.10305" lon="3.05135">
        <ele>551.665754</ele>
        <time>2014-05-18T09:37:59Z</time>
      </trkpt>
      <trkpt lat="44.10303" lon="3.05143">
        <ele>551.317149</ele>
        <time>2014-05-18T09:38:01Z</time>
      </trkpt>
      <trkpt lat="44.10301" lon="3.05151">
        <ele>550.894946</ele>
        <time>2014-05-18T09:38:03Z</time>
      </trkpt>
      <trkpt lat="44.103" lon="3.05158">
        <ele>550.533036</ele>
        <time>2014-05-18T09:38:05Z</time>
      </trkpt>
      <trkpt lat="44.103" lon="3.05165">
        <ele>550.016613</ele>
        <time>2014-05-18T09:38:07Z</time>
      </trkpt>
      <trkpt lat="44.103" lon="3.05173">
        <ele>549.456085</ele>
        <time>2014-05-18T09:38:09Z</time>
      </trkpt>
      <trkpt lat="44.103" lon="3.05182">
        <ele>548.833727</ele>
        <time>2014-05-18T09:38:11Z</time>
      </trkpt>
      <trkpt lat="44.10301" lon="3.05191">
        <ele>548.110607</ele>
        <time>2014-05-18T09:38:13Z</time>
      </trkpt>
      <trkpt lat="44.10302" lon="3.052">
        <ele>547.383733</ele>
        <time>2014-05-18T09:38:15Z</time>
      </trkpt>
      <trkpt lat="44.10302" lon="3.05208">
        <ele>546.604317</ele>
        <time>2014-05-18T09:38:17Z</time>
      </trkpt>
      <trkpt lat="44.10301" lon="3.05215">
        <ele>545.835528</ele>
        <time>2014-05-18T09:38:19Z</time>
      </trkpt>
      <trkpt lat="44.10299" lon="3.05222">
        <ele>545.05294</ele>
        <time>2014-05-18T09:38:21Z</time>
      </trkpt>
      <trkpt lat="44.10297" lon="3.05231">
        <ele>544.386255</ele>
        <time>2014-05-18T09:38:23Z</time>
      </trkpt>
      <trkpt lat="44.10294" lon="3.05237">
        <ele>543.676457</ele>
        <time>2014-05-18T09:38:25Z</time>
      </trkpt>
      <trkpt lat="44.10291" lon="3.05244">
        <ele>542.940438</ele>
        <time>2014-05-18T09:38:27Z</time>
      </trkpt>
      <trkpt lat="44.10288" lon="3.05251">
        <ele>542.21269</ele>
        <time>2014-05-18T09:38:29Z</time>
      </trkpt>
      <trkpt lat="44.10286" lon="3.05257">
        <ele>541.465461</ele>
        <time>2014-05-18T09:38:31Z</time>
      </trkpt>
      <trkpt lat="44.10284" lon="3.05263">
        <ele>540.829427</ele>
        <time>2014-05-18T09:38:33Z</time>
      </trkpt>
      <trkpt lat="44.10282" lon="3.0527">
        <ele>540.035128</ele>
        <time>2014-05-18T09:38:35Z</time>
      </trkpt>
      <trkpt lat="44.10278" lon="3.05277">
        <ele>539.208899</ele>
        <time>2014-05-18T09:38:37Z</time>
      </trkpt>
      <trkpt lat="44.10274" lon="3.05286">
        <ele>538.448169</ele>
        <time>2014-05-18T09:38:39Z</time>
      </trkpt>
      <trkpt lat="44.10271" lon="3.05294">
        <ele>537.707606</ele>
        <time>2014-05-18T09:38:41Z</time>
      </trkpt>
      <trkpt lat="44.10269" lon="3.05301">
        <ele>536.998696</ele>
        <time>2014-05-18T09:38:43Z</time>
      </trkpt>
      <trkpt lat="44.10268" lon="3.05307">
        <ele>536.257897</ele>
        <time>2014-05-18T09:38:45Z</time>
      </trkpt>
      <trkpt lat="44.10267" lon="3.05314">
        <ele>535.476538</ele>
        <time>2014-05-18T09:38:47Z</time>
      </trkpt>
      <trkpt lat="44.10265" lon="3.05322">
        <ele>534.668407</ele>
        <time>2014-05-18T09:38:49Z</time>
      </trkpt>
      <trkpt lat="44.10261" lon="3.05329">
        <ele>533.879603</ele>
        <time>2014-05-18T09:38:51Z</time>
      </trkpt>
      <trkpt lat="44.10257" lon="3.05338">
        <ele>533.20582</ele>
        <time>2014-05-18T09:38:53Z</time>
      </trkpt>
      <trkpt lat="44.10255" lon="3.05344">
        <ele>532.588329</ele>
        <time>2014-05-18T09:38:55Z</time>
      </trkpt>
      <trkpt lat="44.10251" lon="3.05352">
        <ele>531.300704</ele>
        <time>2014-05-18T09:38:59Z</time>
      </trkpt>
      <trkpt lat="44.10248" lon="3.05358">
        <ele>530.739268</ele>
        <time>2014-05-18T09:39:01Z</time>
      </trkpt>
      <trkpt lat="44.10245" lon="3.05365">
        <ele>530.16694</ele>
        <time>2014-05-18T09:39:03Z</time>
      </trkpt>
      <trkpt lat="44.10242" lon="3.05372">
        <ele>529.621996</ele>
        <time>2014-05-18T09:39:05Z</time>
      </trkpt>
      <trkpt lat="44.10237" lon="3.0538">
        <ele>529.080594</ele>
        <time>2014-05-18T09:39:07Z</time>
      </trkpt>
      <trkpt lat="44.10234" lon="3.05386">
        <ele>528.565712</ele>
        <time>2014-05-18T09:39:09Z</time>
      </trkpt>
      <trkpt lat="44.10231" lon="3.05394">
        <ele>527.930094</ele>
        <time>2014-05-18T09:39:11Z</time>
      </trkpt>
      <trkpt lat="44.10229" lon="3.05401">
        <ele>527.371758</ele>
        <time>2014-05-18T09:39:13Z</time>
      </trkpt>
      <trkpt lat="44.10226" lon="3.05409">
        <ele>526.844653</ele>
        <time>2014-05-18T09:39:15Z</time>
      </trkpt>
      <trkpt lat="44.10223" lon="3.05416">
        <ele>526.185748</ele>
        <time>2014-05-18T09:39:17Z</time>
      </trkpt>
      <trkpt lat="44.10219" lon="3.05422">
        <ele>525.532515</ele>
        <time>2014-05-18T09:39:19Z</time>
      </trkpt>
      <trkpt lat="44.10216" lon="3.05428">
        <ele>524.918639</ele>
        <time>2014-05-18T09:39:21Z</time>
      </trkpt>
      <trkpt lat="44.10212" lon="3.05433">
        <ele>524.416221</ele>
        <time>2014-05-18T09:39:23Z</time>
      </trkpt>
      <trkpt lat="44.10209" lon="3.05439">
        <ele>523.885099</ele>
        <time>2014-05-18T09:39:25Z</time>
      </trkpt>
      <trkpt lat="44.10206" lon="3.05445">
        <ele>523.274068</ele>
        <time>2014-05-18T09:39:27Z</time>
      </trkpt>
      <trkpt lat="44.10202" lon="3.05451">
        <ele>522.587175</ele>
        <time>2014-05-18T09:39:29Z</time>
      </trkpt>
      <trkpt lat="44.10199" lon="3.05458">
        <ele>522.069717</ele>
        <time>2014-05-18T09:39:31Z</time>
      </trkpt>
      <trkpt lat="44.10196" lon="3.05465">
        <ele>521.643932</ele>
        <time>2014-05-18T09:39:33Z</time>
      </trkpt>
      <trkpt lat="44.10193" lon="3.05471">
        <ele>521.238151</ele>
        <time>2014-05-18T09:39:35Z</time>
      </trkpt>
      <trkpt lat="44.10189" lon="3.05477">
        <ele>520.770233</ele>
        <time>2014-05-18T09:39:37Z</time>
      </trkpt>
      <trkpt lat="44.10186" lon="3.05482">
        <ele>520.370844</ele>
        <time>2014-05-18T09:39:39Z</time>
      </trkpt>
      <trkpt lat="44.10182" lon="3.05489">
        <ele>519.829792</ele>
        <time>2014-05-18T09:39:41Z</time>
      </trkpt>
      <trkpt lat="44.10178" lon="3.05495">
        <ele>519.242017</ele>
        <time>2014-05-18T09:39:43Z</time>
      </trkpt>
      <trkpt lat="44.10173" lon="3.055">
        <ele>518.669561</ele>
        <time>2014-05-18T09:39:45Z</time>
      </trkpt>
      <trkpt lat="44.1017" lon="3.05506">
        <ele>518.250526</ele>
        <time>2014-05-18T09:39:47Z</time>
      </trkpt>
      <trkpt lat="44.10166" lon="3.05513">
        <ele>517.772829</ele>
        <time>2014-05-18T09:39:49Z</time>
      </trkpt>
      <trkpt lat="44.10162" lon="3.05519">
        <ele>517.339593</ele>
        <time>2014-05-18T09:39:51Z</time>
      </trkpt>
      <trkpt lat="44.10158" lon="3.05525">
        <ele>516.986661</ele>
        <time>2014-05-18T09:39:53Z</time>
      </trkpt>
      <trkpt lat="44.10154" lon="3.05531">
        <ele>516.61335</ele>
        <time>2014-05-18T09:39:55Z</time>
      </trkpt>
      <trkpt lat="44.10151" lon="3.05536">
        <ele>516.168518</ele>
        <time>2014-05-18T09:39:57Z</time>
      </trkpt>
      <trkpt lat="44.10148" lon="3.05542">
        <ele>515.723393</ele>
        <time>2014-05-18T09:39:59Z</time>
      </trkpt>
      <trkpt lat="44.10144" lon="3.05549">
        <ele>515.133121</ele>
        <time>2014-05-18T09:40:02Z</time>
      </trkpt>
      <trkpt lat="44.10141" lon="3.05552">
        <ele>514.8352</ele>
        <time>2014-05-18T09:40:04Z</time>
      </trkpt>
      <trkpt lat="44.10136" lon="3.05556">
        <ele>514.528637</ele>
        <time>2014-05-18T09:40:06Z</time>
      </trkpt>
      <trkpt lat="44.10133" lon="3.0556">
        <ele>514.240602</ele>
        <time>2014-05-18T09:40:08Z</time>
      </trkpt>
      <trkpt lat="44.10128" lon="3.05566">
        <ele>513.982857</ele>
        <time>2014-05-18T09:40:10Z</time>
      </trkpt>
      <trkpt lat="44.10124" lon="3.05572">
        <ele>513.755976</ele>
        <time>2014-05-18T09:40:12Z</time>
      </trkpt>
      <trkpt lat="44.10121" lon="3.0558">
        <ele>513.609493</ele>
        <time>2014-05-18T09:40:14Z</time>
      </trkpt>
      <trkpt lat="44.10118" lon="3.05588">
        <ele>513.422403</ele>
        <time>2014-05-18T09:40:16Z</time>
      </trkpt>
      <trkpt lat="44.10114" lon="3.05595">
        <ele>513.090687</ele>
        <time>2014-05-18T09:40:18Z</time>
      </trkpt>
      <trkpt lat="44.10111" lon="3.05601">
        <ele>512.811923</ele>
        <time>2014-05-18T09:40:20Z</time>
      </trkpt>
      <trkpt lat="44.10108" lon="3.0561">
        <ele>512.498449</ele>
        <time>2014-05-18T09:40:22Z</time>
      </trkpt>
      <trkpt lat="44.10104" lon="3.05617">
        <ele>512.253246</ele>
        <time>2014-05-18T09:40:24Z</time>
      </trkpt>
      <trkpt lat="44.101" lon="3.05624">
        <ele>512.036347</ele>
        <time>2014-05-18T09:40:26Z</time>
      </trkpt>
      <trkpt lat="44.10097" lon="3.0563">
        <ele>511.803287</ele>
        <time>2014-05-18T09:40:28Z</time>
      </trkpt>
      <trkpt lat="44.10094" lon="3.05636">
        <ele>511.612519</ele>
        <time>2014-05-18T09:40:30Z</time>
      </trkpt>
      <trkpt lat="44.10091" lon="3.05643">
        <ele>511.455784</ele>
        <time>2014-05-18T09:40:32Z</time>
      </trkpt>
      <trkpt lat="44.10087" lon="3.05649">
        <ele>511.201185</ele>
        <time>2014-05-18T09:40:34Z</time>
      </trkpt>
      <trkpt lat="44.10084" lon="3.05656">
        <ele>510.962865</ele>
        <time>2014-05-18T09:40:36Z</time>
      </trkpt>
      <trkpt lat="44.1008" lon="3.05664">
        <ele>510.682876</ele>
        <time>2014-05-18T09:40:38Z</time>
      </trkpt>
      <trkpt lat="44.10077" lon="3.05671">
        <ele>510.514566</ele>
        <time>2014-05-18T09:40:40Z</time>
      </trkpt>
      <trkpt lat="44.10074" lon="3.05678">
        <ele>510.3456</ele>
        <time>2014-05-18T09:40:42Z</time>
      </trkpt>
      <trkpt lat="44.10071" lon="3.05684">
        <ele>510.096075</ele>
        <time>2014-05-18T09:40:44Z</time>
      </trkpt>
      <trkpt lat="44.10069" lon="3.0569">
        <ele>510.079203</ele>
        <time>2014-05-18T09:40:46Z</time>
      </trkpt>
      <trkpt lat="44.10066" lon="3.05695">
        <ele>509.910142</ele>
        <time>2014-05-18T09:40:48Z</time>
      </trkpt>
      <trkpt lat="44.10064" lon="3.05701">
        <ele>509.570133</ele>
        <time>2014-05-18T09:40:50Z</time>
      </trkpt>
      <trkpt lat="44.10059" lon="3.05708">
        <ele>509.11743</ele>
        <time>2014-05-18T09:40:53Z</time>
      </trkpt>
      <trkpt lat="44.10055" lon="3.05714">
        <ele>508.812214</ele>
        <time>2014-05-18T09:40:55Z</time>
      </trkpt>
      <trkpt lat="44.10052" lon="3.05719">
        <ele>508.621904</ele>
        <time>2014-05-18T09:40:57Z</time>
      </trkpt>
      <trkpt lat="44.10048" lon="3.05726">
        <ele>508.411204</ele>
        <time>2014-05-18T09:40:59Z</time>
      </trkpt>
      <trkpt lat="44.10045" lon="3.05736">
        <ele>508.235397</ele>
        <time>2014-05-18T09:41:01Z</time>
      </trkpt>
      <trkpt lat="44.10043" lon="3.05747">
        <ele>508.02312</ele>
        <time>2014-05-18T09:41:03Z</time>
      </trkpt>
      <trkpt lat="44.10044" lon="3.05758">
        <ele>507.744019</ele>
        <time>2014-05-18T09:41:05Z</time>
      </trkpt>
      <trkpt lat="44.10044" lon="3.05767">
        <ele>507.556547</ele>
        <time>2014-05-18T09:41:07Z</time>
      </trkpt>
      <trkpt lat="44.10044" lon="3.05776">
        <ele>507.28586</ele>
        <time>2014-05-18T09:41:09Z</time>
      </trkpt>
      <trkpt lat="44.10045" lon="3.05785">
        <ele>507.032186</ele>
        <time>2014-05-18T09:41:11Z</time>
      </trkpt>
      <trkpt lat="44.10045" lon="3.05793">
        <ele>506.762738</ele>
        <time>2014-05-18T09:41:13Z</time>
      </trkpt>
      <trkpt lat="44.10044" lon="3.058">
        <ele>506.466166</ele>
        <time>2014-05-18T09:41:15Z</time>
      </trkpt>
      <trkpt lat="44.10043" lon="3.0581">
        <ele>506.110743</ele>
        <time>2014-05-18T09:41:18Z</time>
      </trkpt>
      <trkpt lat="44.10043" lon="3.05816">
        <ele>505.809774</ele>
        <time>2014-05-18T09:41:20Z</time>
      </trkpt>
      <trkpt lat="44.10043" lon="3.05826">
        <ele>505.468054</ele>
        <time>2014-05-18T09:41:22Z</time>
      </trkpt>
      <trkpt lat="44.10043" lon="3.05837">
        <ele>505.104142</ele>
        <time>2014-05-18T09:41:24Z</time>
      </trkpt>
      <trkpt lat="44.10043" lon="3.05845">
        <ele>504.759606</ele>
        <time>2014-05-18T09:41:26Z</time>
      </trkpt>
      <trkpt lat="44.10044" lon="3.05851">
        <ele>504.467591</ele>
        <time>2014-05-18T09:41:28Z</time>
      </trkpt>
      <trkpt lat="44.10043" lon="3.05858">
        <ele>504.148473</ele>
        <time>2014-05-18T09:41:30Z</time>
      </trkpt>
      <trkpt lat="44.10043" lon="3.05865">
        <ele>503.89639</ele>
        <time>2014-05-18T09:41:32Z</time>
      </trkpt>
      <trkpt lat="44.10043" lon="3.05872">
        <ele>503.716823</ele>
        <time>2014-05-18T09:41:34Z</time>
      </trkpt>
      <trkpt lat="44.10044" lon="3.05879">
        <ele>503.542402</ele>
        <time>2014-05-18T09:41:36Z</time>
      </trkpt>
      <trkpt lat="44.10045" lon="3.05887">
        <ele>503.384566</ele>
        <time>2014-05-18T09:41:38Z</time>
      </trkpt>
      <trkpt lat="44.10045" lon="3.05894">
        <ele>503.168281</ele>
        <time>2014-05-18T09:41:40Z</time>
      </trkpt>
      <trkpt lat="44.10046" lon="3.05901">
        <ele>502.918249</ele>
        <time>2014-05-18T09:41:42Z</time>
      </trkpt>
      <trkpt lat="44.10046" lon="3.05908">
        <ele>502.590079</ele>
        <time>2014-05-18T09:41:44Z</time>
      </trkpt>
      <trkpt lat="44.10047" lon="3.05915">
        <ele>502.20563</ele>
        <time>2014-05-18T09:41:46Z</time>
      </trkpt>
      <trkpt lat="44.10046" lon="3.05923">
        <ele>501.89081</ele>
        <time>2014-05-18T09:41:48Z</time>
      </trkpt>
      <trkpt lat="44.10046" lon="3.05931">
        <ele>501.676359</ele>
        <time>2014-05-18T09:41:50Z</time>
      </trkpt>
      <trkpt lat="44.10045" lon="3.0594">
        <ele>501.477705</ele>
        <time>2014-05-18T09:41:52Z</time>
      </trkpt>
      <trkpt lat="44.10044" lon="3.05948">
        <ele>501.30104</ele>
        <time>2014-05-18T09:41:54Z</time>
      </trkpt>
      <trkpt lat="44.10044" lon="3.05957">
        <ele>501.174977</ele>
        <time>2014-05-18T09:41:56Z</time>
      </trkpt>
      <trkpt lat="44.10044" lon="3.05964">
        <ele>501.047073</ele>
        <time>2014-05-18T09:41:58Z</time>
      </trkpt>
      <trkpt lat="44.10044" lon="3.05972">
        <ele>500.912564</ele>
        <time>2014-05-18T09:42:00Z</time>
      </trkpt>
      <trkpt lat="44.10044" lon="3.0598">
        <ele>500.782538</ele>
        <time>2014-05-18T09:42:02Z</time>
      </trkpt>
      <trkpt lat="44.10044" lon="3.05987">
        <ele>500.655994</ele>
        <time>2014-05-18T09:42:04Z</time>
      </trkpt>
      <trkpt lat="44.10043" lon="3.05994">
        <ele>500.623283</ele>
        <time>2014-05-18T09:42:06Z</time>
      </trkpt>
      <trkpt lat="44.10043" lon="3.06001">
        <ele>500.554892</ele>
        <time>2014-05-18T09:42:08Z</time>
      </trkpt>
      <trkpt lat="44.10042" lon="3.06009">
        <ele>500.294145</ele>
        <time>2014-05-18T09:42:10Z</time>
      </trkpt>
      <trkpt lat="44.1004" lon="3.06018">
        <ele>500.107739</ele>
        <time>2014-05-18T09:42:12Z</time>
      </trkpt>
      <trkpt lat="44.10039" lon="3.06026">
        <ele>499.961896</ele>
        <time>2014-05-18T09:42:14Z</time>
      </trkpt>
      <trkpt lat="44.10038" lon="3.06033">
        <ele>499.812604</ele>
        <time>2014-05-18T09:42:16Z</time>
      </trkpt>
      <trkpt lat="44.10037" lon="3.0604">
        <ele>499.613881</ele>
        <time>2014-05-18T09:42:18Z</time>
      </trkpt>
      <trkpt lat="44.10035" lon="3.06047">
        <ele>499.298426</ele>
        <time>2014-05-18T09:42:20Z</time>
      </trkpt>
      <trkpt lat="44.10034" lon="3.06056">
        <ele>498.793763</ele>
        <time>2014-05-18T09:42:23Z</time>
      </trkpt>
      <trkpt lat="44.10033" lon="3.06065">
        <ele>498.449253</ele>
        <time>2014-05-18T09:42:25Z</time>
      </trkpt>
      <trkpt lat="44.10032" lon="3.06074">
        <ele>498.069597</ele>
        <time>2014-05-18T09:42:27Z</time>
      </trkpt>
      <trkpt lat="44.10031" lon="3.06084">
        <ele>497.79105</ele>
        <time>2014-05-18T09:42:29Z</time>
      </trkpt>
      <trkpt lat="44.10029" lon="3.06094">
        <ele>497.478696</ele>
        <time>2014-05-18T09:42:31Z</time>
      </trkpt>
      <trkpt lat="44.10027" lon="3.06102">
        <ele>497.059749</ele>
        <time>2014-05-18T09:42:33Z</time>
      </trkpt>
      <trkpt lat="44.10025" lon="3.06109">
        <ele>496.588541</ele>
        <time>2014-05-18T09:42:35Z</time>
      </trkpt>
      <trkpt lat="44.10023" lon="3.06117">
        <ele>496.109072</ele>
        <time>2014-05-18T09:42:37Z</time>
      </trkpt>
      <trkpt lat="44.10021" lon="3.06124">
        <ele>495.618049</ele>
        <time>2014-05-18T09:42:39Z</time>
      </trkpt>
      <trkpt lat="44.10017" lon="3.06131">
        <ele>495.297294</ele>
        <time>2014-05-18T09:42:41Z</time>
      </trkpt>
      <trkpt lat="44.10015" lon="3.06139">
        <ele>495.040369</ele>
        <time>2014-05-18T09:42:43Z</time>
      </trkpt>
      <trkpt lat="44.10013" lon="3.06148">
        <ele>494.818292</ele>
        <time>2014-05-18T09:42:45Z</time>
      </trkpt>
      <trkpt lat="44.10011" lon="3.06154">
        <ele>494.496991</ele>
        <time>2014-05-18T09:42:47Z</time>
      </trkpt>
      <trkpt lat="44.10008" lon="3.0616">
        <ele>494.039758</ele>
        <time>2014-05-18T09:42:49Z</time>
      </trkpt>
      <trkpt lat="44.10006" lon="3.06167">
        <ele>493.603653</ele>
        <time>2014-05-18T09:42:51Z</time>
      </trkpt>
      <trkpt lat="44.10004" lon="3.06176">
        <ele>493.233755</ele>
        <time>2014-05-18T09:42:53Z</time>
      </trkpt>
      <trkpt lat="44.10002" lon="3.06184">
        <ele>492.804317</ele>
        <time>2014-05-18T09:42:55Z</time>
      </trkpt>
      <trkpt lat="44.09999" lon="3.06191">
        <ele>492.081768</ele>
        <time>2014-05-18T09:42:58Z</time>
      </trkpt>
      <trkpt lat="44.09996" lon="3.06197">
        <ele>491.774683</ele>
        <time>2014-05-18T09:43:00Z</time>
      </trkpt>
      <trkpt lat="44.09993" lon="3.06205">
        <ele>491.53404</ele>
        <time>2014-05-18T09:43:02Z</time>
      </trkpt>
      <trkpt lat="44.0999" lon="3.06211">
        <ele>491.366824</ele>
        <time>2014-05-18T09:43:04Z</time>
      </trkpt>
      <trkpt lat="44.09987" lon="3.06218">
        <ele>491.180389</ele>
        <time>2014-05-18T09:43:06Z</time>
      </trkpt>
      <trkpt lat="44.09984" lon="3.06225">
        <ele>490.861123</ele>
        <time>2014-05-18T09:43:08Z</time>
      </trkpt>
      <trkpt lat="44.09981" lon="3.06233">
        <ele>490.608522</ele>
        <time>2014-05-18T09:43:10Z</time>
      </trkpt>
      <trkpt lat="44.09977" lon="3.06241">
        <ele>490.146205</ele>
        <time>2014-05-18T09:43:12Z</time>
      </trkpt>
      <trkpt lat="44.09975" lon="3.06248">
        <ele>489.624702</ele>
        <time>2014-05-18T09:43:14Z</time>
      </trkpt>
      <trkpt lat="44.09972" lon="3.06254">
        <ele>489.163004</ele>
        <time>2014-05-18T09:43:16Z</time>
      </trkpt>
      <trkpt lat="44.09968" lon="3.06261">
        <ele>488.760221</ele>
        <time>2014-05-18T09:43:18Z</time>
      </trkpt>
      <trkpt lat="44.09965" lon="3.06268">
        <ele>488.407217</ele>
        <time>2014-05-18T09:43:20Z</time>
      </trkpt>
      <trkpt lat="44.09961" lon="3.06275">
        <ele>488.033903</ele>
        <time>2014-05-18T09:43:22Z</time>
      </trkpt>
      <trkpt lat="44.09958" lon="3.0628">
        <ele>487.688187</ele>
        <time>2014-05-18T09:43:24Z</time>
      </trkpt>
      <trkpt lat="44.09956" lon="3.06287">
        <ele>487.265727</ele>
        <time>2014-05-18T09:43:27Z</time>
      </trkpt>
      <trkpt lat="44.09954" lon="3.06293">
        <ele>486.926841</ele>
        <time>2014-05-18T09:43:29Z</time>
      </trkpt>
      <trkpt lat="44.09951" lon="3.063">
        <ele>486.486701</ele>
        <time>2014-05-18T09:43:31Z</time>
      </trkpt>
      <trkpt lat="44.09947" lon="3.06307">
        <ele>486.038619</ele>
        <time>2014-05-18T09:43:33Z</time>
      </trkpt>
      <trkpt lat="44.09945" lon="3.06315">
        <ele>485.638168</ele>
        <time>2014-05-18T09:43:35Z</time>
      </trkpt>
      <trkpt lat="44.09944" lon="3.06322">
        <ele>485.091314</ele>
        <time>2014-05-18T09:43:37Z</time>
      </trkpt>
      <trkpt lat="44.09942" lon="3.0633">
        <ele>484.514384</ele>
        <time>2014-05-18T09:43:39Z</time>
      </trkpt>
      <trkpt lat="44.09939" lon="3.06337">
        <ele>483.961245</ele>
        <time>2014-05-18T09:43:41Z</time>
      </trkpt>
      <trkpt lat="44.09936" lon="3.06345">
        <ele>483.323817</ele>
        <time>2014-05-18T09:43:43Z</time>
      </trkpt>
      <trkpt lat="44.09933" lon="3.06353">
        <ele>482.676955</ele>
        <time>2014-05-18T09:43:45Z</time>
      </trkpt>
      <trkpt lat="44.0993" lon="3.06361">
        <ele>482.175421</ele>
        <time>2014-05-18T09:43:47Z</time>
      </trkpt>
      <trkpt lat="44.09927" lon="3.06368">
        <ele>481.720073</ele>
        <time>2014-05-18T09:43:49Z</time>
      </trkpt>
      <trkpt lat="44.09924" lon="3.06376">
        <ele>481.327155</ele>
        <time>2014-05-18T09:43:51Z</time>
      </trkpt>
      <trkpt lat="44.0992" lon="3.06383">
        <ele>480.864668</ele>
        <time>2014-05-18T09:43:53Z</time>
      </trkpt>
      <trkpt lat="44.09917" lon="3.06388">
        <ele>480.44167</ele>
        <time>2014-05-18T09:43:55Z</time>
      </trkpt>
      <trkpt lat="44.09914" lon="3.06395">
        <ele>480.019638</ele>
        <time>2014-05-18T09:43:57Z</time>
      </trkpt>
      <trkpt lat="44.09911" lon="3.06403">
        <ele>479.683112</ele>
        <time>2014-05-18T09:43:59Z</time>
      </trkpt>
      <trkpt lat="44.09907" lon="3.0641">
        <ele>479.315468</ele>
        <time>2014-05-18T09:44:01Z</time>
      </trkpt>
      <trkpt lat="44.09904" lon="3.06417">
        <ele>478.976249</ele>
        <time>2014-05-18T09:44:03Z</time>
      </trkpt>
      <trkpt lat="44.09902" lon="3.06425">
        <ele>478.191307</ele>
        <time>2014-05-18T09:44:06Z</time>
      </trkpt>
      <trkpt lat="44.099" lon="3.06432">
        <ele>477.793425</ele>
        <time>2014-05-18T09:44:08Z</time>
      </trkpt>
      <trkpt lat="44.09896" lon="3.06441">
        <ele>475.799639</ele>
        <time>2014-05-18T09:44:10Z</time>
      </trkpt>
      <trkpt lat="44.09894" lon="3.06449">
        <ele>475.463145</ele>
        <time>2014-05-18T09:44:12Z</time>
      </trkpt>
      <trkpt lat="44.09892" lon="3.06456">
        <ele>475.011118</ele>
        <time>2014-05-18T09:44:14Z</time>
      </trkpt>
      <trkpt lat="44.0989" lon="3.06464">
        <ele>474.605703</ele>
        <time>2014-05-18T09:44:16Z</time>
      </trkpt>
      <trkpt lat="44.09888" lon="3.0647">
        <ele>474.138703</ele>
        <time>2014-05-18T09:44:18Z</time>
      </trkpt>
      <trkpt lat="44.09886" lon="3.06477">
        <ele>473.809231</ele>
        <time>2014-05-18T09:44:20Z</time>
      </trkpt>
      <trkpt lat="44.09883" lon="3.06484">
        <ele>473.419248</ele>
        <time>2014-05-18T09:44:22Z</time>
      </trkpt>
      <trkpt lat="44.09881" lon="3.06491">
        <ele>473.093596</ele>
        <time>2014-05-18T09:44:24Z</time>
      </trkpt>
      <trkpt lat="44.09879" lon="3.06497">
        <ele>472.819728</ele>
        <time>2014-05-18T09:44:26Z</time>
      </trkpt>
      <trkpt lat="44.09876" lon="3.06504">
        <ele>472.48444</ele>
        <time>2014-05-18T09:44:28Z</time>
      </trkpt>
      <trkpt lat="44.09874" lon="3.06511">
        <ele>472.089766</ele>
        <time>2014-05-18T09:44:30Z</time>
      </trkpt>
      <trkpt lat="44.0987" lon="3.06519">
        <ele>471.755257</ele>
        <time>2014-05-18T09:44:32Z</time>
      </trkpt>
      <trkpt lat="44.09866" lon="3.06528">
        <ele>471.366923</ele>
        <time>2014-05-18T09:44:34Z</time>
      </trkpt>
      <trkpt lat="44.09864" lon="3.06536">
        <ele>470.996549</ele>
        <time>2014-05-18T09:44:36Z</time>
      </trkpt>
      <trkpt lat="44.0986" lon="3.06544">
        <ele>470.24591</ele>
        <time>2014-05-18T09:44:39Z</time>
      </trkpt>
      <trkpt lat="44.09858" lon="3.06549">
        <ele>469.761319</ele>
        <time>2014-05-18T09:44:41Z</time>
      </trkpt>
      <trkpt lat="44.09854" lon="3.06557">
        <ele>469.119566</ele>
        <time>2014-05-18T09:44:44Z</time>
      </trkpt>
      <trkpt lat="44.09851" lon="3.06565">
        <ele>468.673692</ele>
        <time>2014-05-18T09:44:46Z</time>
      </trkpt>
      <trkpt lat="44.09849" lon="3.06572">
        <ele>468.294743</ele>
        <time>2014-05-18T09:44:48Z</time>
      </trkpt>
      <trkpt lat="44.09847" lon="3.06579">
        <ele>467.954907</ele>
        <time>2014-05-18T09:44:50Z</time>
      </trkpt>
      <trkpt lat="44.09844" lon="3.06586">
        <ele>467.354463</ele>
        <time>2014-05-18T09:44:53Z</time>
      </trkpt>
      <trkpt lat="44.09842" lon="3.06593">
        <ele>466.862269</ele>
        <time>2014-05-18T09:44:55Z</time>
      </trkpt>
      <trkpt lat="44.09839" lon="3.06599">
        <ele>466.46371</ele>
        <time>2014-05-18T09:44:57Z</time>
      </trkpt>
      <trkpt lat="44.09837" lon="3.06608">
        <ele>466.093173</ele>
        <time>2014-05-18T09:44:59Z</time>
      </trkpt>
      <trkpt lat="44.09835" lon="3.06614">
        <ele>465.724862</ele>
        <time>2014-05-18T09:45:01Z</time>
      </trkpt>
      <trkpt lat="44.09832" lon="3.06622">
        <ele>465.325353</ele>
        <time>2014-05-18T09:45:03Z</time>
      </trkpt>
      <trkpt lat="44.0983" lon="3.06629">
        <ele>464.896179</ele>
        <time>2014-05-18T09:45:05Z</time>
      </trkpt>
      <trkpt lat="44.09829" lon="3.06636">
        <ele>464.433984</ele>
        <time>2014-05-18T09:45:07Z</time>
      </trkpt>
      <trkpt lat="44.09826" lon="3.06642">
        <ele>463.881345</ele>
        <time>2014-05-18T09:45:09Z</time>
      </trkpt>
      <trkpt lat="44.09823" lon="3.0665">
        <ele>462.946707</ele>
        <time>2014-05-18T09:45:12Z</time>
      </trkpt>
      <trkpt lat="44.09821" lon="3.06657">
        <ele>462.458903</ele>
        <time>2014-05-18T09:45:14Z</time>
      </trkpt>
      <trkpt lat="44.09819" lon="3.06665">
        <ele>462.076654</ele>
        <time>2014-05-18T09:45:16Z</time>
      </trkpt>
      <trkpt lat="44.09816" lon="3.06674">
        <ele>461.706588</ele>
        <time>2014-05-18T09:45:18Z</time>
      </trkpt>
      <trkpt lat="44.09814" lon="3.06682">
        <ele>461.39559</ele>
        <time>2014-05-18T09:45:20Z</time>
      </trkpt>
      <trkpt lat="44.0981" lon="3.06691">
        <ele>461.077406</ele>
        <time>2014-05-18T09:45:22Z</time>
      </trkpt>
      <trkpt lat="44.09808" lon="3.06698">
        <ele>460.762197</ele>
        <time>2014-05-18T09:45:24Z</time>
      </trkpt>
      <trkpt lat="44.09807" lon="3.06705">
        <ele>460.491837</ele>
        <time>2014-05-18T09:45:26Z</time>
      </trkpt>
      <trkpt lat="44.09804" lon="3.06712">
        <ele>460.207333</ele>
        <time>2014-05-18T09:45:28Z</time>
      </trkpt>
      <trkpt lat="44.09803" lon="3.06719">
        <ele>459.922514</ele>
        <time>2014-05-18T09:45:30Z</time>
      </trkpt>
      <trkpt lat="44.098" lon="3.06726">
        <ele>459.57967</ele>
        <time>2014-05-18T09:45:32Z</time>
      </trkpt>
      <trkpt lat="44.09798" lon="3.06733">
        <ele>459.115476</ele>
        <time>2014-05-18T09:45:34Z</time>
      </trkpt>
      <trkpt lat="44.09796" lon="3.0674">
        <ele>458.792956</ele>
        <time>2014-05-18T09:45:36Z</time>
      </trkpt>
      <trkpt lat="44.09795" lon="3.06748">
        <ele>458.480322</ele>
        <time>2014-05-18T09:45:38Z</time>
      </trkpt>
      <trkpt lat="44.09793" lon="3.06756">
        <ele>458.054544</ele>
        <time>2014-05-18T09:45:40Z</time>
      </trkpt>
      <trkpt lat="44.09791" lon="3.06763">
        <ele>457.614212</ele>
        <time>2014-05-18T09:45:42Z</time>
      </trkpt>
      <trkpt lat="44.09789" lon="3.0677">
        <ele>457.204459</ele>
        <time>2014-05-18T09:45:44Z</time>
      </trkpt>
      <trkpt lat="44.09786" lon="3.06776">
        <ele>456.887233</ele>
        <time>2014-05-18T09:45:46Z</time>
      </trkpt>
      <trkpt lat="44.09784" lon="3.06784">
        <ele>456.543455</ele>
        <time>2014-05-18T09:45:48Z</time>
      </trkpt>
      <trkpt lat="44.09782" lon="3.06791">
        <ele>456.237135</ele>
        <time>2014-05-18T09:45:50Z</time>
      </trkpt>
      <trkpt lat="44.09779" lon="3.06798">
        <ele>455.928621</ele>
        <time>2014-05-18T09:45:52Z</time>
      </trkpt>
      <trkpt lat="44.09777" lon="3.06806">
        <ele>455.587746</ele>
        <time>2014-05-18T09:45:54Z</time>
      </trkpt>
      <trkpt lat="44.09774" lon="3.06815">
        <ele>455.304193</ele>
        <time>2014-05-18T09:45:56Z</time>
      </trkpt>
      <trkpt lat="44.09772" lon="3.06822">
        <ele>454.93865</ele>
        <time>2014-05-18T09:45:58Z</time>
      </trkpt>
      <trkpt lat="44.09769" lon="3.06829">
        <ele>454.626932</ele>
        <time>2014-05-18T09:46:00Z</time>
      </trkpt>
      <trkpt lat="44.09767" lon="3.06836">
        <ele>454.381209</ele>
        <time>2014-05-18T09:46:02Z</time>
      </trkpt>
      <trkpt lat="44.09765" lon="3.06844">
        <ele>454.128451</ele>
        <time>2014-05-18T09:46:05Z</time>
      </trkpt>
      <trkpt lat="44.09762" lon="3.0685">
        <ele>453.974805</ele>
        <time>2014-05-18T09:46:07Z</time>
      </trkpt>
      <trkpt lat="44.0976" lon="3.06857">
        <ele>453.87935</ele>
        <time>2014-05-18T09:46:09Z</time>
      </trkpt>
      <trkpt lat="44.09758" lon="3.06865">
        <ele>453.795404</ele>
        <time>2014-05-18T09:46:11Z</time>
      </trkpt>
      <trkpt lat="44.09757" lon="3.06873">
        <ele>453.657469</ele>
        <time>2014-05-18T09:46:13Z</time>
      </trkpt>
      <trkpt lat="44.09756" lon="3.06882">
        <ele>453.566275</ele>
        <time>2014-05-18T09:46:15Z</time>
      </trkpt>
      <trkpt lat="44.09755" lon="3.0689">
        <ele>453.444625</ele>
        <time>2014-05-18T09:46:17Z</time>
      </trkpt>
      <trkpt lat="44.09755" lon="3.06898">
        <ele>453.327465</ele>
        <time>2014-05-18T09:46:19Z</time>
      </trkpt>
      <trkpt lat="44.09755" lon="3.06905">
        <ele>453.262938</ele>
        <time>2014-05-18T09:46:21Z</time>
      </trkpt>
      <trkpt lat="44.09754" lon="3.06913">
        <ele>453.09153</ele>
        <time>2014-05-18T09:46:23Z</time>
      </trkpt>
      <trkpt lat="44.09753" lon="3.06922">
        <ele>452.845735</ele>
        <time>2014-05-18T09:46:25Z</time>
      </trkpt>
      <trkpt lat="44.09751" lon="3.06931">
        <ele>452.540025</ele>
        <time>2014-05-18T09:46:27Z</time>
      </trkpt>
      <trkpt lat="44.0975" lon="3.06939">
        <ele>452.306326</ele>
        <time>2014-05-18T09:46:29Z</time>
      </trkpt>
      <trkpt lat="44.09749" lon="3.06947">
        <ele>452.184718</ele>
        <time>2014-05-18T09:46:31Z</time>
      </trkpt>
      <trkpt lat="44.09748" lon="3.06954">
        <ele>451.98453</ele>
        <time>2014-05-18T09:46:33Z</time>
      </trkpt>
      <trkpt lat="44.09746" lon="3.06962">
        <ele>451.704996</ele>
        <time>2014-05-18T09:46:35Z</time>
      </trkpt>
      <trkpt lat="44.09745" lon="3.06968">
        <ele>451.337258</ele>
        <time>2014-05-18T09:46:37Z</time>
      </trkpt>
      <trkpt lat="44.09744" lon="3.06975">
        <ele>450.92663</ele>
        <time>2014-05-18T09:46:39Z</time>
      </trkpt>
      <trkpt lat="44.09742" lon="3.06984">
        <ele>450.266251</ele>
        <time>2014-05-18T09:46:42Z</time>
      </trkpt>
      <trkpt lat="44.09742" lon="3.0699">
        <ele>449.948046</ele>
        <time>2014-05-18T09:46:44Z</time>
      </trkpt>
      <trkpt lat="44.09742" lon="3.06998">
        <ele>449.607376</ele>
        <time>2014-05-18T09:46:46Z</time>
      </trkpt>
      <trkpt lat="44.09742" lon="3.07007">
        <ele>449.256738</ele>
        <time>2014-05-18T09:46:48Z</time>
      </trkpt>
      <trkpt lat="44.09741" lon="3.07014">
        <ele>448.85742</ele>
        <time>2014-05-18T09:46:50Z</time>
      </trkpt>
      <trkpt lat="44.0974" lon="3.07021">
        <ele>448.501307</ele>
        <time>2014-05-18T09:46:52Z</time>
      </trkpt>
      <trkpt lat="44.09739" lon="3.07029">
        <ele>448.138723</ele>
        <time>2014-05-18T09:46:54Z</time>
      </trkpt>
      <trkpt lat="44.09737" lon="3.07038">
        <ele>447.762967</ele>
        <time>2014-05-18T09:46:56Z</time>
      </trkpt>
      <trkpt lat="44.09735" lon="3.07047">
        <ele>447.287829</ele>
        <time>2014-05-18T09:46:58Z</time>
      </trkpt>
      <trkpt lat="44.09733" lon="3.07055">
        <ele>446.647434</ele>
        <time>2014-05-18T09:47:00Z</time>
      </trkpt>
      <trkpt lat="44.09732" lon="3.07062">
        <ele>446.017104</ele>
        <time>2014-05-18T09:47:02Z</time>
      </trkpt>
      <trkpt lat="44.09731" lon="3.07068">
        <ele>445.25793</ele>
        <time>2014-05-18T09:47:04Z</time>
      </trkpt>
      <trkpt lat="44.09732" lon="3.07075">
        <ele>444.613641</ele>
        <time>2014-05-18T09:47:06Z</time>
      </trkpt>
      <trkpt lat="44.09735" lon="3.07083">
        <ele>443.818641</ele>
        <time>2014-05-18T09:47:08Z</time>
      </trkpt>
      <trkpt lat="44.09739" lon="3.0709">
        <ele>442.985776</ele>
        <time>2014-05-18T09:47:10Z</time>
      </trkpt>
      <trkpt lat="44.09743" lon="3.07097">
        <ele>442.092137</ele>
        <time>2014-05-18T09:47:12Z</time>
      </trkpt>
      <trkpt lat="44.09748" lon="3.07104">
        <ele>441.156304</ele>
        <time>2014-05-18T09:47:14Z</time>
      </trkpt>
      <trkpt lat="44.09752" lon="3.07109">
        <ele>440.292852</ele>
        <time>2014-05-18T09:47:16Z</time>
      </trkpt>
      <trkpt lat="44.09756" lon="3.07111">
        <ele>439.616872</ele>
        <time>2014-05-18T09:47:18Z</time>
      </trkpt>
      <trkpt lat="44.09762" lon="3.07116">
        <ele>438.881068</ele>
        <time>2014-05-18T09:47:21Z</time>
      </trkpt>
      <trkpt lat="44.09766" lon="3.07121">
        <ele>438.359004</ele>
        <time>2014-05-18T09:47:23Z</time>
      </trkpt>
      <trkpt lat="44.0977" lon="3.07125">
        <ele>437.826051</ele>
        <time>2014-05-18T09:47:25Z</time>
      </trkpt>
      <trkpt lat="44.09774" lon="3.0713">
        <ele>437.455972</ele>
        <time>2014-05-18T09:47:27Z</time>
      </trkpt>
      <trkpt lat="44.09778" lon="3.07135">
        <ele>437.079292</ele>
        <time>2014-05-18T09:47:29Z</time>
      </trkpt>
      <trkpt lat="44.09782" lon="3.07138">
        <ele>436.717111</ele>
        <time>2014-05-18T09:47:31Z</time>
      </trkpt>
      <trkpt lat="44.09787" lon="3.07144">
        <ele>436.283366</ele>
        <time>2014-05-18T09:47:33Z</time>
      </trkpt>
      <trkpt lat="44.09792" lon="3.07148">
        <ele>435.817828</ele>
        <time>2014-05-18T09:47:35Z</time>
      </trkpt>
      <trkpt lat="44.09796" lon="3.07151">
        <ele>435.299034</ele>
        <time>2014-05-18T09:47:37Z</time>
      </trkpt>
      <trkpt lat="44.098" lon="3.07155">
        <ele>434.736779</ele>
        <time>2014-05-18T09:47:40Z</time>
      </trkpt>
      <trkpt lat="44.09806" lon="3.07159">
        <ele>434.507962</ele>
        <time>2014-05-18T09:47:43Z</time>
      </trkpt>
      <trkpt lat="44.09809" lon="3.07163">
        <ele>434.445301</ele>
        <time>2014-05-18T09:47:45Z</time>
      </trkpt>
      <trkpt lat="44.09814" lon="3.07166">
        <ele>434.511557</ele>
        <time>2014-05-18T09:47:47Z</time>
      </trkpt>
      <trkpt lat="44.09818" lon="3.07168">
        <ele>434.54194</ele>
        <time>2014-05-18T09:47:49Z</time>
      </trkpt>
      <trkpt lat="44.09825" lon="3.07171">
        <ele>434.701652</ele>
        <time>2014-05-18T09:47:52Z</time>
      </trkpt>
      <trkpt lat="44.09831" lon="3.07173">
        <ele>435.045125</ele>
        <time>2014-05-18T09:47:55Z</time>
      </trkpt>
      <trkpt lat="44.09836" lon="3.07177">
        <ele>435.118509</ele>
        <time>2014-05-18T09:47:57Z</time>
      </trkpt>
      <trkpt lat="44.0984" lon="3.0718">
        <ele>435.003844</ele>
        <time>2014-05-18T09:48:00Z</time>
      </trkpt>
      <trkpt lat="44.09846" lon="3.07183">
        <ele>434.994401</ele>
        <time>2014-05-18T09:48:03Z</time>
      </trkpt>
      <trkpt lat="44.09852" lon="3.07186">
        <ele>434.93747</ele>
        <time>2014-05-18T09:48:06Z</time>
      </trkpt>
      <trkpt lat="44.09858" lon="3.07189">
        <ele>435.162222</ele>
        <time>2014-05-18T09:48:09Z</time>
      </trkpt>
      <trkpt lat="44.09864" lon="3.07191">
        <ele>435.419242</ele>
        <time>2014-05-18T09:48:12Z</time>
      </trkpt>
      <trkpt lat="44.09869" lon="3.07193">
        <ele>435.773583</ele>
        <time>2014-05-18T09:48:15Z</time>
      </trkpt>
      <trkpt lat="44.09875" lon="3.07197">
        <ele>436.080778</ele>
        <time>2014-05-18T09:48:18Z</time>
      </trkpt>
      <trkpt lat="44.09881" lon="3.07199">
        <ele>436.234354</ele>
        <time>2014-05-18T09:48:21Z</time>
      </trkpt>
      <trkpt lat="44.09886" lon="3.072">
        <ele>436.305222</ele>
        <time>2014-05-18T09:48:23Z</time>
      </trkpt>
      <trkpt lat="44.0989" lon="3.07202">
        <ele>436.388994</ele>
        <time>2014-05-18T09:48:25Z</time>
      </trkpt>
      <trkpt lat="44.09896" lon="3.07206">
        <ele>436.38572</ele>
        <time>2014-05-18T09:48:28Z</time>
      </trkpt>
      <trkpt lat="44.09901" lon="3.07209">
        <ele>436.456183</ele>
        <time>2014-05-18T09:48:30Z</time>
      </trkpt>
      <trkpt lat="44.09906" lon="3.07211">
        <ele>436.634486</ele>
        <time>2014-05-18T09:48:32Z</time>
      </trkpt>
      <trkpt lat="44.09911" lon="3.07213">
        <ele>436.7376</ele>
        <time>2014-05-18T09:48:34Z</time>
      </trkpt>
      <trkpt lat="44.09915" lon="3.07216">
        <ele>436.781455</ele>
        <time>2014-05-18T09:48:36Z</time>
      </trkpt>
      <trkpt lat="44.09921" lon="3.07219">
        <ele>436.813142</ele>
        <time>2014-05-18T09:48:38Z</time>
      </trkpt>
      <trkpt lat="44.09925" lon="3.07222">
        <ele>436.935657</ele>
        <time>2014-05-18T09:48:40Z</time>
      </trkpt>
      <trkpt lat="44.0993" lon="3.07225">
        <ele>436.904374</ele>
        <time>2014-05-18T09:48:42Z</time>
      </trkpt>
      <trkpt lat="44.09935" lon="3.07228">
        <ele>436.923164</ele>
        <time>2014-05-18T09:48:44Z</time>
      </trkpt>
      <trkpt lat="44.0994" lon="3.07231">
        <ele>436.880352</ele>
        <time>2014-05-18T09:48:46Z</time>
      </trkpt>
      <trkpt lat="44.09944" lon="3.07236">
        <ele>436.751185</ele>
        <time>2014-05-18T09:48:48Z</time>
      </trkpt>
      <trkpt lat="44.09949" lon="3.07242">
        <ele>436.879768</ele>
        <time>2014-05-18T09:48:51Z</time>
      </trkpt>
      <trkpt lat="44.09955" lon="3.07246">
        <ele>436.991009</ele>
        <time>2014-05-18T09:48:54Z</time>
      </trkpt>
      <trkpt lat="44.0996" lon="3.07248">
        <ele>437.063065</ele>
        <time>2014-05-18T09:48:56Z</time>
      </trkpt>
      <trkpt lat="44.09965" lon="3.07249">
        <ele>437.045872</ele>
        <time>2014-05-18T09:48:58Z</time>
      </trkpt>
      <trkpt lat="44.09971" lon="3.07249">
        <ele>437.060168</ele>
        <time>2014-05-18T09:49:00Z</time>
      </trkpt>
      <trkpt lat="44.09976" lon="3.07249">
        <ele>437.127362</ele>
        <time>2014-05-18T09:49:01Z</time>
      </trkpt>
      <trkpt lat="44.09981" lon="3.0725">
        <ele>437.234341</ele>
        <time>2014-05-18T09:49:03Z</time>
      </trkpt>
      <trkpt lat="44.09987" lon="3.0725">
        <ele>437.412851</ele>
        <time>2014-05-18T09:49:06Z</time>
      </trkpt>
      <trkpt lat="44.09992" lon="3.07249">
        <ele>437.496443</ele>
        <time>2014-05-18T09:49:09Z</time>
      </trkpt>
      <trkpt lat="44.09998" lon="3.0725">
        <ele>437.724487</ele>
        <time>2014-05-18T09:49:12Z</time>
      </trkpt>
      <trkpt lat="44.10003" lon="3.07251">
        <ele>438.180844</ele>
        <time>2014-05-18T09:49:16Z</time>
      </trkpt>
      <trkpt lat="44.10009" lon="3.07254">
        <ele>438.272637</ele>
        <time>2014-05-18T09:49:19Z</time>
      </trkpt>
      <trkpt lat="44.10013" lon="3.07256">
        <ele>438.212086</ele>
        <time>2014-05-18T09:49:21Z</time>
      </trkpt>
      <trkpt lat="44.10018" lon="3.07258">
        <ele>438.237336</ele>
        <time>2014-05-18T09:49:23Z</time>
      </trkpt>
      <trkpt lat="44.10023" lon="3.07259">
        <ele>438.395171</ele>
        <time>2014-05-18T09:49:25Z</time>
      </trkpt>
      <trkpt lat="44.10028" lon="3.07261">
        <ele>438.547283</ele>
        <time>2014-05-18T09:49:27Z</time>
      </trkpt>
      <trkpt lat="44.10033" lon="3.07262">
        <ele>438.691711</ele>
        <time>2014-05-18T09:49:29Z</time>
      </trkpt>
      <trkpt lat="44.10039" lon="3.07264">
        <ele>438.864615</ele>
        <time>2014-05-18T09:49:31Z</time>
      </trkpt>
      <trkpt lat="44.10045" lon="3.07265">
        <ele>439.123803</ele>
        <time>2014-05-18T09:49:33Z</time>
      </trkpt>
      <trkpt lat="44.1005" lon="3.07268">
        <ele>439.318503</ele>
        <time>2014-05-18T09:49:35Z</time>
      </trkpt>
      <trkpt lat="44.10056" lon="3.07271">
        <ele>439.456392</ele>
        <time>2014-05-18T09:49:37Z</time>
      </trkpt>
      <trkpt lat="44.10061" lon="3.07274">
        <ele>439.546843</ele>
        <time>2014-05-18T09:49:39Z</time>
      </trkpt>
      <trkpt lat="44.10067" lon="3.07277">
        <ele>439.658031</ele>
        <time>2014-05-18T09:49:42Z</time>
      </trkpt>
      <trkpt lat="44.10071" lon="3.07279">
        <ele>439.897636</ele>
        <time>2014-05-18T09:49:45Z</time>
      </trkpt>
      <trkpt lat="44.10077" lon="3.0728">
        <ele>440.085792</ele>
        <time>2014-05-18T09:49:48Z</time>
      </trkpt>
      <trkpt lat="44.10083" lon="3.07282">
        <ele>440.159034</ele>
        <time>2014-05-18T09:49:50Z</time>
      </trkpt>
      <trkpt lat="44.10087" lon="3.07284">
        <ele>440.159757</ele>
        <time>2014-05-18T09:49:52Z</time>
      </trkpt>
      <trkpt lat="44.10092" lon="3.07286">
        <ele>440.055443</ele>
        <time>2014-05-18T09:49:54Z</time>
      </trkpt>
      <trkpt lat="44.10098" lon="3.07288">
        <ele>439.794922</ele>
        <time>2014-05-18T09:49:57Z</time>
      </trkpt>
      <trkpt lat="44.10102" lon="3.07289">
        <ele>439.492696</ele>
        <time>2014-05-18T09:49:59Z</time>
      </trkpt>
      <trkpt lat="44.10107" lon="3.07291">
        <ele>439.366775</ele>
        <time>2014-05-18T09:50:01Z</time>
      </trkpt>
      <trkpt lat="44.10113" lon="3.07292">
        <ele>439.165626</ele>
        <time>2014-05-18T09:50:03Z</time>
      </trkpt>
      <trkpt lat="44.10119" lon="3.07295">
        <ele>439.004874</ele>
        <time>2014-05-18T09:50:05Z</time>
      </trkpt>
      <trkpt lat="44.10124" lon="3.07301">
        <ele>438.740891</ele>
        <time>2014-05-18T09:50:08Z</time>
      </trkpt>
      <trkpt lat="44.10128" lon="3.07306">
        <ele>438.228194</ele>
        <time>2014-05-18T09:50:11Z</time>
      </trkpt>
      <trkpt lat="44.10134" lon="3.07306">
        <ele>438.04866</ele>
        <time>2014-05-18T09:50:13Z</time>
      </trkpt>
      <trkpt lat="44.1014" lon="3.07305">
        <ele>437.705189</ele>
        <time>2014-05-18T09:50:15Z</time>
      </trkpt>
      <trkpt lat="44.10147" lon="3.07306">
        <ele>437.361846</ele>
        <time>2014-05-18T09:50:17Z</time>
      </trkpt>
      <trkpt lat="44.10154" lon="3.07308">
        <ele>436.991461</ele>
        <time>2014-05-18T09:50:19Z</time>
      </trkpt>
      <trkpt lat="44.10161" lon="3.07309">
        <ele>436.626627</ele>
        <time>2014-05-18T09:50:21Z</time>
      </trkpt>
      <trkpt lat="44.10166" lon="3.07311">
        <ele>436.331637</ele>
        <time>2014-05-18T09:50:23Z</time>
      </trkpt>
      <trkpt lat="44.10171" lon="3.07312">
        <ele>435.979224</ele>
        <time>2014-05-18T09:50:25Z</time>
      </trkpt>
      <trkpt lat="44.10176" lon="3.07314">
        <ele>435.660734</ele>
        <time>2014-05-18T09:50:27Z</time>
      </trkpt>
      <trkpt lat="44.10181" lon="3.07315">
        <ele>435.372122</ele>
        <time>2014-05-18T09:50:29Z</time>
      </trkpt>
      <trkpt lat="44.10185" lon="3.07317">
        <ele>435.19435</ele>
        <time>2014-05-18T09:50:31Z</time>
      </trkpt>
      <trkpt lat="44.1019" lon="3.07318">
        <ele>435.049802</ele>
        <time>2014-05-18T09:50:33Z</time>
      </trkpt>
      <trkpt lat="44.10195" lon="3.07319">
        <ele>434.938929</ele>
        <time>2014-05-18T09:50:35Z</time>
      </trkpt>
      <trkpt lat="44.102" lon="3.0732">
        <ele>434.896129</ele>
        <time>2014-05-18T09:50:37Z</time>
      </trkpt>
      <trkpt lat="44.10206" lon="3.0732">
        <ele>434.772704</ele>
        <time>2014-05-18T09:50:40Z</time>
      </trkpt>
      <trkpt lat="44.10212" lon="3.07323">
        <ele>434.583176</ele>
        <time>2014-05-18T09:50:43Z</time>
      </trkpt>
      <trkpt lat="44.10218" lon="3.07324">
        <ele>434.347238</ele>
        <time>2014-05-18T09:50:45Z</time>
      </trkpt>
      <trkpt lat="44.10223" lon="3.07324">
        <ele>434.188506</ele>
        <time>2014-05-18T09:50:47Z</time>
      </trkpt>
      <trkpt lat="44.10228" lon="3.07326">
        <ele>434.015895</ele>
        <time>2014-05-18T09:50:49Z</time>
      </trkpt>
      <trkpt lat="44.10233" lon="3.07327">
        <ele>433.767396</ele>
        <time>2014-05-18T09:50:51Z</time>
      </trkpt>
      <trkpt lat="44.10239" lon="3.07329">
        <ele>433.550123</ele>
        <time>2014-05-18T09:50:54Z</time>
      </trkpt>
      <trkpt lat="44.10244" lon="3.07328">
        <ele>433.610127</ele>
        <time>2014-05-18T09:50:56Z</time>
      </trkpt>
      <trkpt lat="44.1025" lon="3.0733">
        <ele>433.395094</ele>
        <time>2014-05-18T09:50:59Z</time>
      </trkpt>
      <trkpt lat="44.10256" lon="3.07333">
        <ele>433.109829</ele>
        <time>2014-05-18T09:51:02Z</time>
      </trkpt>
      <trkpt lat="44.10261" lon="3.07336">
        <ele>432.815585</ele>
        <time>2014-05-18T09:51:04Z</time>
      </trkpt>
      <trkpt lat="44.10266" lon="3.07336">
        <ele>432.431579</ele>
        <time>2014-05-18T09:51:06Z</time>
      </trkpt>
      <trkpt lat="44.10273" lon="3.07338">
        <ele>431.912599</ele>
        <time>2014-05-18T09:51:09Z</time>
      </trkpt>
      <trkpt lat="44.10279" lon="3.07339">
        <ele>431.734654</ele>
        <time>2014-05-18T09:51:11Z</time>
      </trkpt>
      <trkpt lat="44.10284" lon="3.0734">
        <ele>431.435306</ele>
        <time>2014-05-18T09:51:13Z</time>
      </trkpt>
      <trkpt lat="44.1029" lon="3.07342">
        <ele>431.207749</ele>
        <time>2014-05-18T09:51:15Z</time>
      </trkpt>
      <trkpt lat="44.10295" lon="3.07343">
        <ele>431.107085</ele>
        <time>2014-05-18T09:51:17Z</time>
      </trkpt>
      <trkpt lat="44.10301" lon="3.07346">
        <ele>430.928288</ele>
        <time>2014-05-18T09:51:20Z</time>
      </trkpt>
      <trkpt lat="44.10306" lon="3.07347">
        <ele>430.760069</ele>
        <time>2014-05-18T09:51:22Z</time>
      </trkpt>
      <trkpt lat="44.10311" lon="3.07347">
        <ele>430.754338</ele>
        <time>2014-05-18T09:51:24Z</time>
      </trkpt>
      <trkpt lat="44.10317" lon="3.07348">
        <ele>430.892214</ele>
        <time>2014-05-18T09:51:26Z</time>
      </trkpt>
      <trkpt lat="44.10321" lon="3.07347">
        <ele>431.054676</ele>
        <time>2014-05-18T09:51:28Z</time>
      </trkpt>
      <trkpt lat="44.10326" lon="3.07349">
        <ele>431.168735</ele>
        <time>2014-05-18T09:51:30Z</time>
      </trkpt>
      <trkpt lat="44.10331" lon="3.07351">
        <ele>431.261359</ele>
        <time>2014-05-18T09:51:32Z</time>
      </trkpt>
      <trkpt lat="44.10336" lon="3.07353">
        <ele>431.450345</ele>
        <time>2014-05-18T09:51:34Z</time>
      </trkpt>
      <trkpt lat="44.10341" lon="3.07355">
        <ele>431.641698</ele>
        <time>2014-05-18T09:51:36Z</time>
      </trkpt>
      <trkpt lat="44.10345" lon="3.07358">
        <ele>431.825186</ele>
        <time>2014-05-18T09:51:38Z</time>
      </trkpt>
      <trkpt lat="44.10351" lon="3.0736">
        <ele>432.020022</ele>
        <time>2014-05-18T09:51:41Z</time>
      </trkpt>
      <trkpt lat="44.10357" lon="3.07363">
        <ele>432.238133</ele>
        <time>2014-05-18T09:51:44Z</time>
      </trkpt>
      <trkpt lat="44.10364" lon="3.07366">
        <ele>432.475488</ele>
        <time>2014-05-18T09:51:47Z</time>
      </trkpt>
      <trkpt lat="44.10369" lon="3.07369">
        <ele>432.712711</ele>
        <time>2014-05-18T09:51:49Z</time>
      </trkpt>
      <trkpt lat="44.10374" lon="3.0737">
        <ele>432.967756</ele>
        <time>2014-05-18T09:51:51Z</time>
      </trkpt>
      <trkpt lat="44.10378" lon="3.07371">
        <ele>433.241705</ele>
        <time>2014-05-18T09:51:53Z</time>
      </trkpt>
      <trkpt lat="44.10383" lon="3.07373">
        <ele>433.411434</ele>
        <time>2014-05-18T09:51:55Z</time>
      </trkpt>
      <trkpt lat="44.10387" lon="3.07376">
        <ele>433.498151</ele>
        <time>2014-05-18T09:51:57Z</time>
      </trkpt>
      <trkpt lat="44.10393" lon="3.07378">
        <ele>433.603195</ele>
        <time>2014-05-18T09:51:59Z</time>
      </trkpt>
      <trkpt lat="44.10398" lon="3.07379">
        <ele>433.773199</ele>
        <time>2014-05-18T09:52:01Z</time>
      </trkpt>
      <trkpt lat="44.10403" lon="3.07382">
        <ele>433.914302</ele>
        <time>2014-05-18T09:52:03Z</time>
      </trkpt>
      <trkpt lat="44.10409" lon="3.07383">
        <ele>433.989371</ele>
        <time>2014-05-18T09:52:05Z</time>
      </trkpt>
      <trkpt lat="44.10415" lon="3.07385">
        <ele>434.133904</ele>
        <time>2014-05-18T09:52:07Z</time>
      </trkpt>
      <trkpt lat="44.1042" lon="3.07386">
        <ele>434.281893</ele>
        <time>2014-05-18T09:52:09Z</time>
      </trkpt>
      <trkpt lat="44.10424" lon="3.07386">
        <ele>434.369445</ele>
        <time>2014-05-18T09:52:11Z</time>
      </trkpt>
      <trkpt lat="44.1043" lon="3.07388">
        <ele>434.491592</ele>
        <time>2014-05-18T09:52:13Z</time>
      </trkpt>
      <trkpt lat="44.10436" lon="3.07391">
        <ele>434.641084</ele>
        <time>2014-05-18T09:52:15Z</time>
      </trkpt>
      <trkpt lat="44.10442" lon="3.07397">
        <ele>434.70113</ele>
        <time>2014-05-18T09:52:17Z</time>
      </trkpt>
      <trkpt lat="44.10446" lon="3.07401">
        <ele>434.808005</ele>
        <time>2014-05-18T09:52:19Z</time>
      </trkpt>
      <trkpt lat="44.10451" lon="3.07404">
        <ele>434.847277</ele>
        <time>2014-05-18T09:52:21Z</time>
      </trkpt>
      <trkpt lat="44.10457" lon="3.07407">
        <ele>434.940013</ele>
        <time>2014-05-18T09:52:23Z</time>
      </trkpt>
      <trkpt lat="44.10462" lon="3.07413">
        <ele>434.925923</ele>
        <time>2014-05-18T09:52:25Z</time>
      </trkpt>
      <trkpt lat="44.10466" lon="3.07419">
        <ele>434.826484</ele>
        <time>2014-05-18T09:52:27Z</time>
      </trkpt>
      <trkpt lat="44.10471" lon="3.07426">
        <ele>434.797692</ele>
        <time>2014-05-18T09:52:30Z</time>
      </trkpt>
      <trkpt lat="44.10473" lon="3.07432">
        <ele>434.852854</ele>
        <time>2014-05-18T09:52:32Z</time>
      </trkpt>
      <trkpt lat="44.10476" lon="3.07438">
        <ele>434.999821</ele>
        <time>2014-05-18T09:52:34Z</time>
      </trkpt>
      <trkpt lat="44.10479" lon="3.07445">
        <ele>435.078492</ele>
        <time>2014-05-18T09:52:36Z</time>
      </trkpt>
      <trkpt lat="44.10482" lon="3.07452">
        <ele>435.226519</ele>
        <time>2014-05-18T09:52:38Z</time>
      </trkpt>
      <trkpt lat="44.10484" lon="3.0746">
        <ele>435.356425</ele>
        <time>2014-05-18T09:52:40Z</time>
      </trkpt>
      <trkpt lat="44.10485" lon="3.07468">
        <ele>435.596255</ele>
        <time>2014-05-18T09:52:42Z</time>
      </trkpt>
      <trkpt lat="44.10488" lon="3.07476">
        <ele>435.836565</ele>
        <time>2014-05-18T09:52:44Z</time>
      </trkpt>
      <trkpt lat="44.10489" lon="3.07483">
        <ele>435.879852</ele>
        <time>2014-05-18T09:52:46Z</time>
      </trkpt>
      <trkpt lat="44.10492" lon="3.07492">
        <ele>435.908629</ele>
        <time>2014-05-18T09:52:48Z</time>
      </trkpt>
      <trkpt lat="44.10494" lon="3.075">
        <ele>435.955933</ele>
        <time>2014-05-18T09:52:50Z</time>
      </trkpt>
      <trkpt lat="44.10496" lon="3.07506">
        <ele>435.89005</ele>
        <time>2014-05-18T09:52:52Z</time>
      </trkpt>
      <trkpt lat="44.10499" lon="3.07513">
        <ele>435.735529</ele>
        <time>2014-05-18T09:52:54Z</time>
      </trkpt>
      <trkpt lat="44.10501" lon="3.0752">
        <ele>435.568177</ele>
        <time>2014-05-18T09:52:56Z</time>
      </trkpt>
      <trkpt lat="44.10504" lon="3.07526">
        <ele>435.275856</ele>
        <time>2014-05-18T09:52:58Z</time>
      </trkpt>
      <trkpt lat="44.10508" lon="3.07531">
        <ele>434.880142</ele>
        <time>2014-05-18T09:53:00Z</time>
      </trkpt>
      <trkpt lat="44.10514" lon="3.07533">
        <ele>434.538468</ele>
        <time>2014-05-18T09:53:02Z</time>
      </trkpt>
      <trkpt lat="44.10519" lon="3.07532">
        <ele>434.188663</ele>
        <time>2014-05-18T09:53:04Z</time>
      </trkpt>
      <trkpt lat="44.10524" lon="3.07531">
        <ele>433.911223</ele>
        <time>2014-05-18T09:53:06Z</time>
      </trkpt>
      <trkpt lat="44.1053" lon="3.07527">
        <ele>433.579209</ele>
        <time>2014-05-18T09:53:08Z</time>
      </trkpt>
      <trkpt lat="44.10536" lon="3.07524">
        <ele>433.12741</ele>
        <time>2014-05-18T09:53:10Z</time>
      </trkpt>
      <trkpt lat="44.1054" lon="3.07522">
        <ele>432.69774</ele>
        <time>2014-05-18T09:53:12Z</time>
      </trkpt>
      <trkpt lat="44.10545" lon="3.0752">
        <ele>432.333589</ele>
        <time>2014-05-18T09:53:14Z</time>
      </trkpt>
      <trkpt lat="44.10551" lon="3.07516">
        <ele>431.909991</ele>
        <time>2014-05-18T09:53:17Z</time>
      </trkpt>
      <trkpt lat="44.10556" lon="3.07513">
        <ele>431.702953</ele>
        <time>2014-05-18T09:53:19Z</time>
      </trkpt>
      <trkpt lat="44.10561" lon="3.07511">
        <ele>431.481707</ele>
        <time>2014-05-18T09:53:21Z</time>
      </trkpt>
      <trkpt lat="44.10565" lon="3.07508">
        <ele>431.279013</ele>
        <time>2014-05-18T09:53:23Z</time>
      </trkpt>
      <trkpt lat="44.1057" lon="3.07505">
        <ele>431.096379</ele>
        <time>2014-05-18T09:53:25Z</time>
      </trkpt>
      <trkpt lat="44.10575" lon="3.07503">
        <ele>430.894391</ele>
        <time>2014-05-18T09:53:27Z</time>
      </trkpt>
      <trkpt lat="44.10581" lon="3.07504">
        <ele>430.62413</ele>
        <time>2014-05-18T09:53:29Z</time>
      </trkpt>
      <trkpt lat="44.10587" lon="3.07507">
        <ele>430.321988</ele>
        <time>2014-05-18T09:53:31Z</time>
      </trkpt>
      <trkpt lat="44.10592" lon="3.07511">
        <ele>429.999437</ele>
        <time>2014-05-18T09:53:33Z</time>
      </trkpt>
      <trkpt lat="44.10597" lon="3.07514">
        <ele>429.645299</ele>
        <time>2014-05-18T09:53:35Z</time>
      </trkpt>
      <trkpt lat="44.10602" lon="3.07516">
        <ele>429.324444</ele>
        <time>2014-05-18T09:53:37Z</time>
      </trkpt>
      <trkpt lat="44.10607" lon="3.07519">
        <ele>429.092062</ele>
        <time>2014-05-18T09:53:39Z</time>
      </trkpt>
      <trkpt lat="44.10612" lon="3.07522">
        <ele>428.853087</ele>
        <time>2014-05-18T09:53:41Z</time>
      </trkpt>
      <trkpt lat="44.10618" lon="3.07526">
        <ele>428.866909</ele>
        <time>2014-05-18T09:53:44Z</time>
      </trkpt>
      <trkpt lat="44.10622" lon="3.07529">
        <ele>428.837136</ele>
        <time>2014-05-18T09:53:47Z</time>
      </trkpt>
      <trkpt lat="44.10627" lon="3.07531">
        <ele>428.609024</ele>
        <time>2014-05-18T09:53:54Z</time>
      </trkpt>
      <trkpt lat="44.10632" lon="3.07533">
        <ele>428.369149</ele>
        <time>2014-05-18T09:54:00Z</time>
      </trkpt>
      <trkpt lat="44.10637" lon="3.07534">
        <ele>428.238639</ele>
        <time>2014-05-18T09:54:07Z</time>
      </trkpt>
      <trkpt lat="44.10641" lon="3.07538">
        <ele>428.487368</ele>
        <time>2014-05-18T09:54:14Z</time>
      </trkpt>
      <trkpt lat="44.10645" lon="3.07541">
        <ele>428.479984</ele>
        <time>2014-05-18T09:54:20Z</time>
      </trkpt>
      <trkpt lat="44.10649" lon="3.07544">
        <ele>428.745331</ele>
        <time>2014-05-18T09:54:25Z</time>
      </trkpt>
      <trkpt lat="44.10653" lon="3.07548">
        <ele>429.177984</ele>
        <time>2014-05-18T09:54:31Z</time>
      </trkpt>
      <trkpt lat="44.10658" lon="3.07551">
        <ele>429.072071</ele>
        <time>2014-05-18T09:54:37Z</time>
      </trkpt>
      <trkpt lat="44.10663" lon="3.07552">
        <ele>429.121709</ele>
        <time>2014-05-18T09:54:43Z</time>
      </trkpt>
      <trkpt lat="44.10667" lon="3.07556">
        <ele>428.699397</ele>
        <time>2014-05-18T09:54:50Z</time>
      </trkpt>
      <trkpt lat="44.10671" lon="3.0756">
        <ele>428.928815</ele>
        <time>2014-05-18T09:54:56Z</time>
      </trkpt>
      <trkpt lat="44.10676" lon="3.0756">
        <ele>429.032458</ele>
        <time>2014-05-18T09:55:02Z</time>
      </trkpt>
      <trkpt lat="44.10682" lon="3.0756">
        <ele>429.288629</ele>
        <time>2014-05-18T09:55:07Z</time>
      </trkpt>
      <trkpt lat="44.10686" lon="3.0756">
        <ele>429.716238</ele>
        <time>2014-05-18T09:55:11Z</time>
      </trkpt>
      <trkpt lat="44.10691" lon="3.07562">
        <ele>429.825848</ele>
        <time>2014-05-18T09:55:17Z</time>
      </trkpt>
      <trkpt lat="44.10696" lon="3.07563">
        <ele>430.253136</ele>
        <time>2014-05-18T09:55:26Z</time>
      </trkpt>
      <trkpt lat="44.10701" lon="3.07562">
        <ele>430.168954</ele>
        <time>2014-05-18T09:55:32Z</time>
      </trkpt>
      <trkpt lat="44.10705" lon="3.07558">
        <ele>430.061672</ele>
        <time>2014-05-18T09:55:37Z</time>
      </trkpt>
      <trkpt lat="44.10711" lon="3.07559">
        <ele>429.752786</ele>
        <time>2014-05-18T09:55:43Z</time>
      </trkpt>
      <trkpt lat="44.10717" lon="3.07561">
        <ele>429.959356</ele>
        <time>2014-05-18T09:55:47Z</time>
      </trkpt>
      <trkpt lat="44.10721" lon="3.07564">
        <ele>430.353494</ele>
        <time>2014-05-18T09:55:53Z</time>
      </trkpt>
      <trkpt lat="44.10726" lon="3.07563">
        <ele>430.998527</ele>
        <time>2014-05-18T09:56:00Z</time>
      </trkpt>
      <trkpt lat="44.10731" lon="3.07564">
        <ele>431.170396</ele>
        <time>2014-05-18T09:56:06Z</time>
      </trkpt>
      <trkpt lat="44.10736" lon="3.07566">
        <ele>430.844793</ele>
        <time>2014-05-18T09:56:10Z</time>
      </trkpt>
      <trkpt lat="44.1074" lon="3.07568">
        <ele>430.9688</ele>
        <time>2014-05-18T09:56:14Z</time>
      </trkpt>
      <trkpt lat="44.10744" lon="3.07572">
        <ele>431.138312</ele>
        <time>2014-05-18T09:56:19Z</time>
      </trkpt>
      <trkpt lat="44.10748" lon="3.07576">
        <ele>431.561145</ele>
        <time>2014-05-18T09:56:26Z</time>
      </trkpt>
      <trkpt lat="44.10753" lon="3.07576">
        <ele>432.035349</ele>
        <time>2014-05-18T09:56:32Z</time>
      </trkpt>
      <trkpt lat="44.10758" lon="3.07579">
        <ele>431.984219</ele>
        <time>2014-05-18T09:56:38Z</time>
      </trkpt>
      <trkpt lat="44.10763" lon="3.07581">
        <ele>431.867972</ele>
        <time>2014-05-18T09:56:42Z</time>
      </trkpt>
      <trkpt lat="44.10767" lon="3.07584">
        <ele>431.78366</ele>
        <time>2014-05-18T09:56:48Z</time>
      </trkpt>
      <trkpt lat="44.10772" lon="3.07589">
        <ele>431.983534</ele>
        <time>2014-05-18T09:56:56Z</time>
      </trkpt>
      <trkpt lat="44.10775" lon="3.07593">
        <ele>432.952316</ele>
        <time>2014-05-18T09:57:03Z</time>
      </trkpt>
      <trkpt lat="44.1078" lon="3.07597">
        <ele>433.685064</ele>
        <time>2014-05-18T09:57:08Z</time>
      </trkpt>
      <trkpt lat="44.10785" lon="3.07597">
        <ele>434.159696</ele>
        <time>2014-05-18T09:57:13Z</time>
      </trkpt>
      <trkpt lat="44.1079" lon="3.07596">
        <ele>434.819039</ele>
        <time>2014-05-18T09:57:20Z</time>
      </trkpt>
      <trkpt lat="44.10794" lon="3.07594">
        <ele>435.028207</ele>
        <time>2014-05-18T09:57:25Z</time>
      </trkpt>
      <trkpt lat="44.10799" lon="3.07593">
        <ele>435.052429</ele>
        <time>2014-05-18T09:57:29Z</time>
      </trkpt>
      <trkpt lat="44.10804" lon="3.07597">
        <ele>434.644339</ele>
        <time>2014-05-18T09:57:34Z</time>
      </trkpt>
      <trkpt lat="44.10807" lon="3.07602">
        <ele>434.491463</ele>
        <time>2014-05-18T09:57:42Z</time>
      </trkpt>
      <trkpt lat="44.10811" lon="3.07605">
        <ele>435.077887</ele>
        <time>2014-05-18T09:57:50Z</time>
      </trkpt>
      <trkpt lat="44.10814" lon="3.07611">
        <ele>435.554221</ele>
        <time>2014-05-18T09:57:56Z</time>
      </trkpt>
      <trkpt lat="44.10817" lon="3.07619">
        <ele>435.822421</ele>
        <time>2014-05-18T09:58:00Z</time>
      </trkpt>
      <trkpt lat="44.10821" lon="3.07622">
        <ele>436.200848</ele>
        <time>2014-05-18T09:58:05Z</time>
      </trkpt>
      <trkpt lat="44.10824" lon="3.07628">
        <ele>436.474556</ele>
        <time>2014-05-18T09:58:10Z</time>
      </trkpt>
      <trkpt lat="44.10827" lon="3.07633">
        <ele>436.45781</ele>
        <time>2014-05-18T09:58:17Z</time>
      </trkpt>
      <trkpt lat="44.10831" lon="3.07637">
        <ele>436.870784</ele>
        <time>2014-05-18T09:58:22Z</time>
      </trkpt>
      <trkpt lat="44.10835" lon="3.0764">
        <ele>437.324957</ele>
        <time>2014-05-18T09:58:51Z</time>
      </trkpt>
      <trkpt lat="44.1084" lon="3.0764">
        <ele>437.523571</ele>
        <time>2014-05-18T09:58:58Z</time>
      </trkpt>
      <trkpt lat="44.10845" lon="3.07643">
        <ele>437.926419</ele>
        <time>2014-05-18T09:59:06Z</time>
      </trkpt>
      <trkpt lat="44.10849" lon="3.07646">
        <ele>437.886694</ele>
        <time>2014-05-18T09:59:29Z</time>
      </trkpt>
      <trkpt lat="44.10854" lon="3.07646">
        <ele>437.944603</ele>
        <time>2014-05-18T09:59:35Z</time>
      </trkpt>
      <trkpt lat="44.10857" lon="3.0765">
        <ele>437.756914</ele>
        <time>2014-05-18T09:59:42Z</time>
      </trkpt>
      <trkpt lat="44.10861" lon="3.07655">
        <ele>437.469746</ele>
        <time>2014-05-18T09:59:49Z</time>
      </trkpt>
      <trkpt lat="44.10865" lon="3.07653">
        <ele>436.743707</ele>
        <time>2014-05-18T09:59:57Z</time>
      </trkpt>
      <trkpt lat="44.1087" lon="3.07654">
        <ele>436.602557</ele>
        <time>2014-05-18T10:00:11Z</time>
      </trkpt>
      <trkpt lat="44.10874" lon="3.07651">
        <ele>435.835506</ele>
        <time>2014-05-18T10:00:36Z</time>
      </trkpt>
      <trkpt lat="44.10874" lon="3.07644">
        <ele>435.493233</ele>
        <time>2014-05-18T10:00:46Z</time>
      </trkpt>
      <trkpt lat="44.10876" lon="3.07638">
        <ele>435.612742</ele>
        <time>2014-05-18T10:00:51Z</time>
      </trkpt>
      <trkpt lat="44.10874" lon="3.07631">
        <ele>435.964145</ele>
        <time>2014-05-18T10:00:59Z</time>
      </trkpt>
      <trkpt lat="44.10873" lon="3.07625">
        <ele>436.560064</ele>
        <time>2014-05-18T10:02:15Z</time>
      </trkpt>
      <trkpt lat="44.10873" lon="3.07619">
        <ele>437.002955</ele>
        <time>2014-05-18T10:02:30Z</time>
      </trkpt>
      <trkpt lat="44.1087" lon="3.07623">
        <ele>437.810223</ele>
        <time>2014-05-18T10:03:15Z</time>
      </trkpt>
      <trkpt lat="44.10868" lon="3.07629">
        <ele>437.024957</ele>
        <time>2014-05-18T10:03:57Z</time>
      </trkpt>
      <trkpt lat="44.10869" lon="3.07622">
        <ele>437.211403</ele>
        <time>2014-05-18T10:04:19Z</time>
      </trkpt>
      <trkpt lat="44.10873" lon="3.07623">
        <ele>435.423411</ele>
        <time>2014-05-18T10:05:07Z</time>
      </trkpt>
      <trkpt lat="44.10874" lon="3.07629">
        <ele>438.997167</ele>
        <time>2014-05-18T10:05:44Z</time>
      </trkpt>
      <trkpt lat="44.10872" lon="3.07635">
        <ele>439.130754</ele>
        <time>2014-05-18T10:05:55Z</time>
      </trkpt>
      <trkpt lat="44.1087" lon="3.07629">
        <ele>439.97393</ele>
        <time>2014-05-18T10:06:35Z</time>
      </trkpt>
      <trkpt lat="44.10871" lon="3.07622">
        <ele>441.723082</ele>
        <time>2014-05-18T10:06:54Z</time>
      </trkpt>
      <trkpt lat="44.10867" lon="3.07619">
        <ele>441.996847</ele>
        <time>2014-05-18T10:07:00Z</time>
      </trkpt>
      <trkpt lat="44.10862" lon="3.07619">
        <ele>441.420462</ele>
        <time>2014-05-18T10:07:05Z</time>
      </trkpt>
      <trkpt lat="44.10858" lon="3.07622">
        <ele>441.235078</ele>
        <time>2014-05-18T10:07:16Z</time>
      </trkpt>
      <trkpt lat="44.10854" lon="3.07618">
        <ele>441.441836</ele>
        <time>2014-05-18T10:07:36Z</time>
      </trkpt>
      <trkpt lat="44.1085" lon="3.07617">
        <ele>441.404319</ele>
        <time>2014-05-18T10:07:46Z</time>
      </trkpt>
      <trkpt lat="44.10845" lon="3.07617">
        <ele>440.64173</ele>
        <time>2014-05-18T10:07:53Z</time>
      </trkpt>
      <trkpt lat="44.1084" lon="3.07615">
        <ele>439.936947</ele>
        <time>2014-05-18T10:08:04Z</time>
      </trkpt>
      <trkpt lat="44.10835" lon="3.07618">
        <ele>440.456146</ele>
        <time>2014-05-18T10:08:13Z</time>
      </trkpt>
      <trkpt lat="44.10831" lon="3.07616">
        <ele>441.13472</ele>
        <time>2014-05-18T10:08:28Z</time>
      </trkpt>
      <trkpt lat="44.10827" lon="3.07612">
        <ele>441.118056</ele>
        <time>2014-05-18T10:08:46Z</time>
      </trkpt>
      <trkpt lat="44.10828" lon="3.07605">
        <ele>440.529896</ele>
        <time>2014-05-18T10:08:55Z</time>
      </trkpt>
      <trkpt lat="44.10826" lon="3.076">
        <ele>439.297664</ele>
        <time>2014-05-18T10:09:09Z</time>
      </trkpt>
      <trkpt lat="44.10825" lon="3.07593">
        <ele>438.519753</ele>
        <time>2014-05-18T10:09:17Z</time>
      </trkpt>
      <trkpt lat="44.1082" lon="3.07592">
        <ele>437.722563</ele>
        <time>2014-05-18T10:09:25Z</time>
      </trkpt>
      <trkpt lat="44.10816" lon="3.07589">
        <ele>437.597319</ele>
        <time>2014-05-18T10:09:31Z</time>
      </trkpt>
      <trkpt lat="44.10812" lon="3.07585">
        <ele>437.422071</ele>
        <time>2014-05-18T10:09:42Z</time>
      </trkpt>
      <trkpt lat="44.10807" lon="3.07585">
        <ele>437.298999</ele>
        <time>2014-05-18T10:09:47Z</time>
      </trkpt>
      <trkpt lat="44.10802" lon="3.07582">
        <ele>436.97041</ele>
        <time>2014-05-18T10:09:54Z</time>
      </trkpt>
      <trkpt lat="44.10798" lon="3.0758">
        <ele>436.76921</ele>
        <time>2014-05-18T10:09:58Z</time>
      </trkpt>
      <trkpt lat="44.10793" lon="3.07577">
        <ele>436.835386</ele>
        <time>2014-05-18T10:10:04Z</time>
      </trkpt>
      <trkpt lat="44.10789" lon="3.07574">
        <ele>437.49387</ele>
        <time>2014-05-18T10:10:10Z</time>
      </trkpt>
      <trkpt lat="44.10785" lon="3.07571">
        <ele>438.935021</ele>
        <time>2014-05-18T10:10:35Z</time>
      </trkpt>
      <trkpt lat="44.10779" lon="3.0757">
        <ele>438.388814</ele>
        <time>2014-05-18T10:10:40Z</time>
      </trkpt>
      <trkpt lat="44.10774" lon="3.07569">
        <ele>438.06364</ele>
        <time>2014-05-18T10:10:45Z</time>
      </trkpt>
      <trkpt lat="44.10771" lon="3.07565">
        <ele>437.802275</ele>
        <time>2014-05-18T10:10:52Z</time>
      </trkpt>
      <trkpt lat="44.10765" lon="3.07562">
        <ele>437.900413</ele>
        <time>2014-05-18T10:11:00Z</time>
      </trkpt>
      <trkpt lat="44.10761" lon="3.07559">
        <ele>437.962298</ele>
        <time>2014-05-18T10:11:06Z</time>
      </trkpt>
      <trkpt lat="44.10756" lon="3.07558">
        <ele>437.728661</ele>
        <time>2014-05-18T10:11:14Z</time>
      </trkpt>
      <trkpt lat="44.10751" lon="3.07556">
        <ele>438.338302</ele>
        <time>2014-05-18T10:11:20Z</time>
      </trkpt>
      <trkpt lat="44.10747" lon="3.07553">
        <ele>438.626706</ele>
        <time>2014-05-18T10:11:26Z</time>
      </trkpt>
      <trkpt lat="44.10742" lon="3.0755">
        <ele>438.746546</ele>
        <time>2014-05-18T10:11:33Z</time>
      </trkpt>
      <trkpt lat="44.10739" lon="3.07545">
        <ele>438.488075</ele>
        <time>2014-05-18T10:11:41Z</time>
      </trkpt>
      <trkpt lat="44.1074" lon="3.07538">
        <ele>438.048987</ele>
        <time>2014-05-18T10:11:47Z</time>
      </trkpt>
      <trkpt lat="44.10744" lon="3.07534">
        <ele>438.225306</ele>
        <time>2014-05-18T10:12:08Z</time>
      </trkpt>
      <trkpt lat="44.10749" lon="3.07532">
        <ele>439.456871</ele>
        <time>2014-05-18T10:12:14Z</time>
      </trkpt>
      <trkpt lat="44.10744" lon="3.07531">
        <ele>443.71559</ele>
        <time>2014-05-18T10:12:43Z</time>
      </trkpt>
      <trkpt lat="44.10742" lon="3.07524">
        <ele>445.160865</ele>
        <time>2014-05-18T10:13:00Z</time>
      </trkpt>
      <trkpt lat="44.10741" lon="3.07518">
        <ele>444.639865</ele>
        <time>2014-05-18T10:13:06Z</time>
      </trkpt>
      <trkpt lat="44.10736" lon="3.07514">
        <ele>443.33309</ele>
        <time>2014-05-18T10:13:22Z</time>
      </trkpt>
      <trkpt lat="44.10733" lon="3.07508">
        <ele>441.902906</ele>
        <time>2014-05-18T10:13:28Z</time>
      </trkpt>
      <trkpt lat="44.10735" lon="3.07502">
        <ele>440.917161</ele>
        <time>2014-05-18T10:13:35Z</time>
      </trkpt>
      <trkpt lat="44.10737" lon="3.07497">
        <ele>440.497288</ele>
        <time>2014-05-18T10:13:43Z</time>
      </trkpt>
      <trkpt lat="44.10733" lon="3.07495">
        <ele>440.012208</ele>
        <time>2014-05-18T10:13:50Z</time>
      </trkpt>
      <trkpt lat="44.10729" lon="3.07492">
        <ele>439.999841</ele>
        <time>2014-05-18T10:13:56Z</time>
      </trkpt>
      <trkpt lat="44.10725" lon="3.07495">
        <ele>440.218736</ele>
        <time>2014-05-18T10:14:01Z</time>
      </trkpt>
      <trkpt lat="44.10722" lon="3.07501">
        <ele>439.526978</ele>
        <time>2014-05-18T10:14:09Z</time>
      </trkpt>
      <trkpt lat="44.10719" lon="3.07506">
        <ele>439.339306</ele>
        <time>2014-05-18T10:14:14Z</time>
      </trkpt>
      <trkpt lat="44.10715" lon="3.07511">
        <ele>438.752151</ele>
        <time>2014-05-18T10:14:19Z</time>
      </trkpt>
      <trkpt lat="44.10712" lon="3.07515">
        <ele>438.558458</ele>
        <time>2014-05-18T10:14:24Z</time>
      </trkpt>
      <trkpt lat="44.10709" lon="3.0752">
        <ele>438.615748</ele>
        <time>2014-05-18T10:14:28Z</time>
      </trkpt>
      <trkpt lat="44.10706" lon="3.07525">
        <ele>438.32099</ele>
        <time>2014-05-18T10:14:32Z</time>
      </trkpt>
      <trkpt lat="44.10702" lon="3.07531">
        <ele>438.018781</ele>
        <time>2014-05-18T10:14:36Z</time>
      </trkpt>
      <trkpt lat="44.107" lon="3.07537">
        <ele>437.868826</ele>
        <time>2014-05-18T10:14:40Z</time>
      </trkpt>
      <trkpt lat="44.10695" lon="3.0754">
        <ele>437.507765</ele>
        <time>2014-05-18T10:15:02Z</time>
      </trkpt>
      <trkpt lat="44.10691" lon="3.07537">
        <ele>436.831227</ele>
        <time>2014-05-18T10:15:13Z</time>
      </trkpt>
      <trkpt lat="44.10686" lon="3.07535">
        <ele>436.999053</ele>
        <time>2014-05-18T10:15:18Z</time>
      </trkpt>
      <trkpt lat="44.10682" lon="3.07529">
        <ele>436.814896</ele>
        <time>2014-05-18T10:15:24Z</time>
      </trkpt>
      <trkpt lat="44.10678" lon="3.07525">
        <ele>436.027841</ele>
        <time>2014-05-18T10:15:29Z</time>
      </trkpt>
      <trkpt lat="44.10673" lon="3.07522">
        <ele>436.063589</ele>
        <time>2014-05-18T10:15:34Z</time>
      </trkpt>
      <trkpt lat="44.10668" lon="3.0752">
        <ele>435.868104</ele>
        <time>2014-05-18T10:15:39Z</time>
      </trkpt>
      <trkpt lat="44.10664" lon="3.07515">
        <ele>435.847202</ele>
        <time>2014-05-18T10:15:43Z</time>
      </trkpt>
      <trkpt lat="44.10658" lon="3.07515">
        <ele>435.783483</ele>
        <time>2014-05-18T10:15:48Z</time>
      </trkpt>
      <trkpt lat="44.10653" lon="3.07515">
        <ele>436.077434</ele>
        <time>2014-05-18T10:15:53Z</time>
      </trkpt>
      <trkpt lat="44.10648" lon="3.07513">
        <ele>436.010214</ele>
        <time>2014-05-18T10:15:57Z</time>
      </trkpt>
      <trkpt lat="44.10643" lon="3.07511">
        <ele>435.912862</ele>
        <time>2014-05-18T10:16:02Z</time>
      </trkpt>
      <trkpt lat="44.10637" lon="3.0751">
        <ele>436.513065</ele>
        <time>2014-05-18T10:16:07Z</time>
      </trkpt>
      <trkpt lat="44.10633" lon="3.07506">
        <ele>437.234615</ele>
        <time>2014-05-18T10:16:11Z</time>
      </trkpt>
      <trkpt lat="44.10628" lon="3.07505">
        <ele>437.43501</ele>
        <time>2014-05-18T10:16:14Z</time>
      </trkpt>
      <trkpt lat="44.10624" lon="3.07502">
        <ele>437.530327</ele>
        <time>2014-05-18T10:16:18Z</time>
      </trkpt>
      <trkpt lat="44.10619" lon="3.07502">
        <ele>437.424052</ele>
        <time>2014-05-18T10:16:22Z</time>
      </trkpt>
      <trkpt lat="44.10614" lon="3.07503">
        <ele>437.251779</ele>
        <time>2014-05-18T10:16:27Z</time>
      </trkpt>
      <trkpt lat="44.10609" lon="3.07502">
        <ele>436.476929</ele>
        <time>2014-05-18T10:16:35Z</time>
      </trkpt>
      <trkpt lat="44.10605" lon="3.07501">
        <ele>436.643646</ele>
        <time>2014-05-18T10:16:41Z</time>
      </trkpt>
      <trkpt lat="44.10601" lon="3.07504">
        <ele>437.016257</ele>
        <time>2014-05-18T10:17:03Z</time>
      </trkpt>
      <trkpt lat="44.10596" lon="3.07503">
        <ele>437.460116</ele>
        <time>2014-05-18T10:17:46Z</time>
      </trkpt>
      <trkpt lat="44.10592" lon="3.07506">
        <ele>436.568721</ele>
        <time>2014-05-18T10:18:04Z</time>
      </trkpt>
      <trkpt lat="44.1059" lon="3.07506">
        <ele>435.945531</ele>
        <time>2014-05-18T10:18:18Z</time>
      </trkpt>
    </trkseg>
  </trk>
</gpx>